<?xml version="1.0" encoding="UTF-8" standalone="no" ?>
<gpx xmlns="http://www.topografix.com/GPX/1/1" xmlns:xsi="http://www.w3.org/2001/XMLSchema-instance" xsi:schemaLocation="http://www.topografix.com/GPX/1/1 http://www.topografix.com/GPX/1/1/gpx.xsd" version="1.1" creator="VisuGPX - https://www.visugpx.com">
  <metadata>
    <name>Valmanya Marche à pied</name>
  </metadata>
  <trk>
    <name><![CDATA[Valmanya Marche à pied_1]]></name>
    <trkseg>
      <trkpt lat="42.52799" lon="2.49042">
        <ele>1905</ele>
        <time>2024-07-14T06:37:45Z</time>
      </trkpt>
      <trkpt lat="42.52803" lon="2.49045">
        <ele>1904.2</ele>
        <time>2024-07-14T06:37:51Z</time>
      </trkpt>
      <trkpt lat="42.52811" lon="2.49051">
        <ele>1903.6</ele>
        <time>2024-07-14T06:37:59Z</time>
      </trkpt>
      <trkpt lat="42.52818" lon="2.49057">
        <ele>1903</ele>
        <time>2024-07-14T06:38:06Z</time>
      </trkpt>
      <trkpt lat="42.52825" lon="2.49063">
        <ele>1902.6</ele>
        <time>2024-07-14T06:38:13Z</time>
      </trkpt>
      <trkpt lat="42.52827" lon="2.49074">
        <ele>1902.2</ele>
        <time>2024-07-14T06:38:20Z</time>
      </trkpt>
      <trkpt lat="42.52831" lon="2.49087">
        <ele>1901.6</ele>
        <time>2024-07-14T06:38:29Z</time>
      </trkpt>
      <trkpt lat="42.52836" lon="2.49092">
        <ele>1900</ele>
        <time>2024-07-14T06:38:38Z</time>
      </trkpt>
      <trkpt lat="42.52836" lon="2.49091">
        <ele>1898.8</ele>
        <time>2024-07-14T06:38:45Z</time>
      </trkpt>
      <trkpt lat="42.52839" lon="2.49096">
        <ele>1898</ele>
        <time>2024-07-14T06:38:50Z</time>
      </trkpt>
      <trkpt lat="42.52847" lon="2.49113">
        <ele>1896.6</ele>
        <time>2024-07-14T06:39:00Z</time>
      </trkpt>
      <trkpt lat="42.52849" lon="2.4912">
        <ele>1893.6</ele>
        <time>2024-07-14T06:39:11Z</time>
      </trkpt>
      <trkpt lat="42.52853" lon="2.49131">
        <ele>1888.6</ele>
        <time>2024-07-14T06:39:22Z</time>
      </trkpt>
      <trkpt lat="42.52854" lon="2.49144">
        <ele>1886.2</ele>
        <time>2024-07-14T06:39:33Z</time>
      </trkpt>
      <trkpt lat="42.52855" lon="2.4916">
        <ele>1883.4</ele>
        <time>2024-07-14T06:39:43Z</time>
      </trkpt>
      <trkpt lat="42.52861" lon="2.49174">
        <ele>1880.2</ele>
        <time>2024-07-14T06:39:54Z</time>
      </trkpt>
      <trkpt lat="42.52863" lon="2.49184">
        <ele>1878</ele>
        <time>2024-07-14T06:40:01Z</time>
      </trkpt>
      <trkpt lat="42.52865" lon="2.49197">
        <ele>1875</ele>
        <time>2024-07-14T06:40:11Z</time>
      </trkpt>
      <trkpt lat="42.52865" lon="2.49205">
        <ele>1872.8</ele>
        <time>2024-07-14T06:40:20Z</time>
      </trkpt>
      <trkpt lat="42.52867" lon="2.49207">
        <ele>1872</ele>
        <time>2024-07-14T06:40:22Z</time>
      </trkpt>
      <trkpt lat="42.52869" lon="2.49213">
        <ele>1870.6</ele>
        <time>2024-07-14T06:40:27Z</time>
      </trkpt>
      <trkpt lat="42.52873" lon="2.49222">
        <ele>1869.2</ele>
        <time>2024-07-14T06:40:35Z</time>
      </trkpt>
      <trkpt lat="42.52877" lon="2.49234">
        <ele>1867</ele>
        <time>2024-07-14T06:40:45Z</time>
      </trkpt>
      <trkpt lat="42.52878" lon="2.49243">
        <ele>1865.4</ele>
        <time>2024-07-14T06:40:53Z</time>
      </trkpt>
      <trkpt lat="42.52881" lon="2.49252">
        <ele>1863.4</ele>
        <time>2024-07-14T06:41:03Z</time>
      </trkpt>
      <trkpt lat="42.52881" lon="2.49259">
        <ele>1861</ele>
        <time>2024-07-14T06:41:10Z</time>
      </trkpt>
      <trkpt lat="42.52884" lon="2.49269">
        <ele>1859</ele>
        <time>2024-07-14T06:41:19Z</time>
      </trkpt>
      <trkpt lat="42.52884" lon="2.49275">
        <ele>1857.2</ele>
        <time>2024-07-14T06:41:26Z</time>
      </trkpt>
      <trkpt lat="42.52885" lon="2.49285">
        <ele>1854.4</ele>
        <time>2024-07-14T06:41:36Z</time>
      </trkpt>
      <trkpt lat="42.52887" lon="2.49295">
        <ele>1851</ele>
        <time>2024-07-14T06:41:47Z</time>
      </trkpt>
      <trkpt lat="42.52888" lon="2.49302">
        <ele>1849</ele>
        <time>2024-07-14T06:41:54Z</time>
      </trkpt>
      <trkpt lat="42.5289" lon="2.49313">
        <ele>1845.6</ele>
        <time>2024-07-14T06:42:03Z</time>
      </trkpt>
      <trkpt lat="42.52891" lon="2.4932">
        <ele>1843.8</ele>
        <time>2024-07-14T06:42:11Z</time>
      </trkpt>
      <trkpt lat="42.52892" lon="2.49333">
        <ele>1841.6</ele>
        <time>2024-07-14T06:42:22Z</time>
      </trkpt>
      <trkpt lat="42.52891" lon="2.49341">
        <ele>1838.6</ele>
        <time>2024-07-14T06:42:29Z</time>
      </trkpt>
      <trkpt lat="42.52892" lon="2.4935">
        <ele>1836.2</ele>
        <time>2024-07-14T06:42:36Z</time>
      </trkpt>
      <trkpt lat="42.52892" lon="2.49351">
        <ele>1836.2</ele>
        <time>2024-07-14T06:42:37Z</time>
      </trkpt>
      <trkpt lat="42.5289" lon="2.49355">
        <ele>1835</ele>
        <time>2024-07-14T06:42:44Z</time>
      </trkpt>
      <trkpt lat="42.52887" lon="2.49361">
        <ele>1831.6</ele>
        <time>2024-07-14T06:42:52Z</time>
      </trkpt>
      <trkpt lat="42.52888" lon="2.49368">
        <ele>1828.6</ele>
        <time>2024-07-14T06:42:58Z</time>
      </trkpt>
      <trkpt lat="42.52889" lon="2.49371">
        <ele>1827.6</ele>
        <time>2024-07-14T06:43:01Z</time>
      </trkpt>
      <trkpt lat="42.52892" lon="2.49379">
        <ele>1825.2</ele>
        <time>2024-07-14T06:43:08Z</time>
      </trkpt>
      <trkpt lat="42.52893" lon="2.49383">
        <ele>1824.4</ele>
        <time>2024-07-14T06:43:11Z</time>
      </trkpt>
      <trkpt lat="42.52893" lon="2.49385">
        <ele>1823.8</ele>
        <time>2024-07-14T06:43:13Z</time>
      </trkpt>
      <trkpt lat="42.52895" lon="2.49392">
        <ele>1821.2</ele>
        <time>2024-07-14T06:43:19Z</time>
      </trkpt>
      <trkpt lat="42.52893" lon="2.49401">
        <ele>1819.6</ele>
        <time>2024-07-14T06:43:26Z</time>
      </trkpt>
      <trkpt lat="42.52897" lon="2.49408">
        <ele>1816</ele>
        <time>2024-07-14T06:43:34Z</time>
      </trkpt>
      <trkpt lat="42.52896" lon="2.4941">
        <ele>1815.2</ele>
        <time>2024-07-14T06:43:35Z</time>
      </trkpt>
      <trkpt lat="42.52894" lon="2.49417">
        <ele>1811.8</ele>
        <time>2024-07-14T06:43:41Z</time>
      </trkpt>
      <trkpt lat="42.52894" lon="2.49423">
        <ele>1809.2</ele>
        <time>2024-07-14T06:43:47Z</time>
      </trkpt>
      <trkpt lat="42.52896" lon="2.49428">
        <ele>1805.8</ele>
        <time>2024-07-14T06:43:55Z</time>
      </trkpt>
      <trkpt lat="42.52898" lon="2.49434">
        <ele>1804</ele>
        <time>2024-07-14T06:44:02Z</time>
      </trkpt>
      <trkpt lat="42.52902" lon="2.49441">
        <ele>1800.6</ele>
        <time>2024-07-14T06:44:10Z</time>
      </trkpt>
      <trkpt lat="42.52903" lon="2.49444">
        <ele>1799.8</ele>
        <time>2024-07-14T06:44:16Z</time>
      </trkpt>
      <trkpt lat="42.52901" lon="2.49453">
        <ele>1799.6</ele>
        <time>2024-07-14T06:44:24Z</time>
      </trkpt>
      <trkpt lat="42.52903" lon="2.49456">
        <ele>1800.2</ele>
        <time>2024-07-14T06:44:33Z</time>
      </trkpt>
      <trkpt lat="42.52906" lon="2.49463">
        <ele>1798.8</ele>
        <time>2024-07-14T06:44:43Z</time>
      </trkpt>
      <trkpt lat="42.52912" lon="2.49471">
        <ele>1797</ele>
        <time>2024-07-14T06:44:50Z</time>
      </trkpt>
      <trkpt lat="42.52912" lon="2.49477">
        <ele>1796.2</ele>
        <time>2024-07-14T06:44:59Z</time>
      </trkpt>
      <trkpt lat="42.52916" lon="2.49483">
        <ele>1792.2</ele>
        <time>2024-07-14T06:45:06Z</time>
      </trkpt>
      <trkpt lat="42.52922" lon="2.49485">
        <ele>1790.6</ele>
        <time>2024-07-14T06:45:12Z</time>
      </trkpt>
      <trkpt lat="42.52928" lon="2.49486">
        <ele>1788</ele>
        <time>2024-07-14T06:45:19Z</time>
      </trkpt>
      <trkpt lat="42.52933" lon="2.49488">
        <ele>1783.8</ele>
        <time>2024-07-14T06:45:26Z</time>
      </trkpt>
      <trkpt lat="42.52934" lon="2.49491">
        <ele>1781</ele>
        <time>2024-07-14T06:45:30Z</time>
      </trkpt>
      <trkpt lat="42.52938" lon="2.49495">
        <ele>1777.2</ele>
        <time>2024-07-14T06:45:36Z</time>
      </trkpt>
      <trkpt lat="42.52936" lon="2.49502">
        <ele>1776.2</ele>
        <time>2024-07-14T06:45:43Z</time>
      </trkpt>
      <trkpt lat="42.5293" lon="2.49511">
        <ele>1776.8</ele>
        <time>2024-07-14T06:45:53Z</time>
      </trkpt>
      <trkpt lat="42.5293" lon="2.49515">
        <ele>1776.6</ele>
        <time>2024-07-14T06:45:59Z</time>
      </trkpt>
      <trkpt lat="42.5293" lon="2.49519">
        <ele>1774.4</ele>
        <time>2024-07-14T06:46:05Z</time>
      </trkpt>
      <trkpt lat="42.52934" lon="2.4952">
        <ele>1772.2</ele>
        <time>2024-07-14T06:46:09Z</time>
      </trkpt>
      <trkpt lat="42.52941" lon="2.49528">
        <ele>1771.6</ele>
        <time>2024-07-14T06:46:18Z</time>
      </trkpt>
      <trkpt lat="42.52946" lon="2.49531">
        <ele>1771.4</ele>
        <time>2024-07-14T06:46:24Z</time>
      </trkpt>
      <trkpt lat="42.52949" lon="2.49535">
        <ele>1768.8</ele>
        <time>2024-07-14T06:46:31Z</time>
      </trkpt>
      <trkpt lat="42.52949" lon="2.49542">
        <ele>1767.8</ele>
        <time>2024-07-14T06:46:37Z</time>
      </trkpt>
      <trkpt lat="42.5295" lon="2.49547">
        <ele>1765</ele>
        <time>2024-07-14T06:46:44Z</time>
      </trkpt>
      <trkpt lat="42.52955" lon="2.49556">
        <ele>1762</ele>
        <time>2024-07-14T06:46:55Z</time>
      </trkpt>
      <trkpt lat="42.52952" lon="2.49567">
        <ele>1761</ele>
        <time>2024-07-14T06:47:02Z</time>
      </trkpt>
      <trkpt lat="42.52949" lon="2.49579">
        <ele>1758</ele>
        <time>2024-07-14T06:47:13Z</time>
      </trkpt>
      <trkpt lat="42.52951" lon="2.49578">
        <ele>1756.8</ele>
        <time>2024-07-14T06:47:16Z</time>
      </trkpt>
      <trkpt lat="42.52953" lon="2.49578">
        <ele>1756</ele>
        <time>2024-07-14T06:47:18Z</time>
      </trkpt>
      <trkpt lat="42.52954" lon="2.4958">
        <ele>1754.8</ele>
        <time>2024-07-14T06:47:24Z</time>
      </trkpt>
      <trkpt lat="42.52952" lon="2.49593">
        <ele>1752.6</ele>
        <time>2024-07-14T06:47:32Z</time>
      </trkpt>
      <trkpt lat="42.52946" lon="2.49602">
        <ele>1748.8</ele>
        <time>2024-07-14T06:47:40Z</time>
      </trkpt>
      <trkpt lat="42.52946" lon="2.49603">
        <ele>1748.4</ele>
        <time>2024-07-14T06:47:41Z</time>
      </trkpt>
      <trkpt lat="42.52946" lon="2.49605">
        <ele>1747.4</ele>
        <time>2024-07-14T06:47:43Z</time>
      </trkpt>
      <trkpt lat="42.52946" lon="2.49607">
        <ele>1746.6</ele>
        <time>2024-07-14T06:47:45Z</time>
      </trkpt>
      <trkpt lat="42.52944" lon="2.49606">
        <ele>1744.6</ele>
        <time>2024-07-14T06:47:52Z</time>
      </trkpt>
      <trkpt lat="42.52942" lon="2.49603">
        <ele>1745.2</ele>
        <time>2024-07-14T06:47:59Z</time>
      </trkpt>
      <trkpt lat="42.52937" lon="2.49596">
        <ele>1745.2</ele>
        <time>2024-07-14T06:48:12Z</time>
      </trkpt>
      <trkpt lat="42.5293" lon="2.49586">
        <ele>1743.8</ele>
        <time>2024-07-14T06:48:19Z</time>
      </trkpt>
      <trkpt lat="42.52921" lon="2.49578">
        <ele>1741.2</ele>
        <time>2024-07-14T06:48:27Z</time>
      </trkpt>
      <trkpt lat="42.5292" lon="2.49577">
        <ele>1741</ele>
        <time>2024-07-14T06:48:28Z</time>
      </trkpt>
      <trkpt lat="42.52912" lon="2.4957">
        <ele>1739.6</ele>
        <time>2024-07-14T06:48:36Z</time>
      </trkpt>
      <trkpt lat="42.52906" lon="2.49562">
        <ele>1739.2</ele>
        <time>2024-07-14T06:48:44Z</time>
      </trkpt>
      <trkpt lat="42.529" lon="2.49554">
        <ele>1737.8</ele>
        <time>2024-07-14T06:48:50Z</time>
      </trkpt>
      <trkpt lat="42.52898" lon="2.49552">
        <ele>1737</ele>
        <time>2024-07-14T06:48:52Z</time>
      </trkpt>
      <trkpt lat="42.52894" lon="2.4955">
        <ele>1735.8</ele>
        <time>2024-07-14T06:48:57Z</time>
      </trkpt>
      <trkpt lat="42.52891" lon="2.4955">
        <ele>1735.4</ele>
        <time>2024-07-14T06:49:00Z</time>
      </trkpt>
      <trkpt lat="42.5288" lon="2.49549">
        <ele>1735.2</ele>
        <time>2024-07-14T06:49:09Z</time>
      </trkpt>
      <trkpt lat="42.52873" lon="2.49549">
        <ele>1735</ele>
        <time>2024-07-14T06:49:15Z</time>
      </trkpt>
      <trkpt lat="42.52871" lon="2.49549">
        <ele>1735</ele>
        <time>2024-07-14T06:49:17Z</time>
      </trkpt>
      <trkpt lat="42.52865" lon="2.4955">
        <ele>1733</ele>
        <time>2024-07-14T06:49:23Z</time>
      </trkpt>
      <trkpt lat="42.52862" lon="2.49549">
        <ele>1732.8</ele>
        <time>2024-07-14T06:49:26Z</time>
      </trkpt>
      <trkpt lat="42.52853" lon="2.49545">
        <ele>1732.6</ele>
        <time>2024-07-14T06:49:34Z</time>
      </trkpt>
      <trkpt lat="42.5285" lon="2.49543">
        <ele>1732</ele>
        <time>2024-07-14T06:49:37Z</time>
      </trkpt>
      <trkpt lat="42.52845" lon="2.49539">
        <ele>1731.4</ele>
        <time>2024-07-14T06:49:42Z</time>
      </trkpt>
      <trkpt lat="42.52836" lon="2.49534">
        <ele>1731.8</ele>
        <time>2024-07-14T06:49:51Z</time>
      </trkpt>
      <trkpt lat="42.52833" lon="2.49531">
        <ele>1731.8</ele>
        <time>2024-07-14T06:49:55Z</time>
      </trkpt>
      <trkpt lat="42.5283" lon="2.49527">
        <ele>1731.8</ele>
        <time>2024-07-14T06:49:58Z</time>
      </trkpt>
      <trkpt lat="42.52825" lon="2.49517">
        <ele>1730.8</ele>
        <time>2024-07-14T06:50:06Z</time>
      </trkpt>
      <trkpt lat="42.52821" lon="2.49504">
        <ele>1729.6</ele>
        <time>2024-07-14T06:50:15Z</time>
      </trkpt>
      <trkpt lat="42.52815" lon="2.49499">
        <ele>1729.4</ele>
        <time>2024-07-14T06:50:21Z</time>
      </trkpt>
      <trkpt lat="42.5281" lon="2.49491">
        <ele>1730.6</ele>
        <time>2024-07-14T06:50:28Z</time>
      </trkpt>
      <trkpt lat="42.52804" lon="2.49476">
        <ele>1731.6</ele>
        <time>2024-07-14T06:50:38Z</time>
      </trkpt>
      <trkpt lat="42.52802" lon="2.49466">
        <ele>1728.2</ele>
        <time>2024-07-14T06:50:46Z</time>
      </trkpt>
      <trkpt lat="42.52803" lon="2.49457">
        <ele>1726.8</ele>
        <time>2024-07-14T06:50:52Z</time>
      </trkpt>
      <trkpt lat="42.52803" lon="2.49455">
        <ele>1727.4</ele>
        <time>2024-07-14T06:50:54Z</time>
      </trkpt>
      <trkpt lat="42.52804" lon="2.49453">
        <ele>1728</ele>
        <time>2024-07-14T06:50:56Z</time>
      </trkpt>
      <trkpt lat="42.52803" lon="2.49451">
        <ele>1728.2</ele>
        <time>2024-07-14T06:50:58Z</time>
      </trkpt>
      <trkpt lat="42.52799" lon="2.49443">
        <ele>1727.6</ele>
        <time>2024-07-14T06:51:05Z</time>
      </trkpt>
      <trkpt lat="42.52792" lon="2.49436">
        <ele>1727.6</ele>
        <time>2024-07-14T06:51:13Z</time>
      </trkpt>
      <trkpt lat="42.52784" lon="2.49427">
        <ele>1727.4</ele>
        <time>2024-07-14T06:51:23Z</time>
      </trkpt>
      <trkpt lat="42.52778" lon="2.49419">
        <ele>1726.2</ele>
        <time>2024-07-14T06:51:30Z</time>
      </trkpt>
      <trkpt lat="42.52775" lon="2.49412">
        <ele>1726.2</ele>
        <time>2024-07-14T06:51:38Z</time>
      </trkpt>
      <trkpt lat="42.52775" lon="2.4941">
        <ele>1726.4</ele>
        <time>2024-07-14T06:51:39Z</time>
      </trkpt>
      <trkpt lat="42.52774" lon="2.49401">
        <ele>1726.2</ele>
        <time>2024-07-14T06:51:45Z</time>
      </trkpt>
      <trkpt lat="42.52768" lon="2.49389">
        <ele>1725</ele>
        <time>2024-07-14T06:51:55Z</time>
      </trkpt>
      <trkpt lat="42.52764" lon="2.49375">
        <ele>1724.8</ele>
        <time>2024-07-14T06:52:04Z</time>
      </trkpt>
      <trkpt lat="42.52758" lon="2.49367">
        <ele>1724.4</ele>
        <time>2024-07-14T06:52:11Z</time>
      </trkpt>
      <trkpt lat="42.52748" lon="2.49356">
        <ele>1722.4</ele>
        <time>2024-07-14T06:52:22Z</time>
      </trkpt>
      <trkpt lat="42.52741" lon="2.49349">
        <ele>1721.2</ele>
        <time>2024-07-14T06:52:31Z</time>
      </trkpt>
      <trkpt lat="42.52732" lon="2.49343">
        <ele>1719.2</ele>
        <time>2024-07-14T06:52:41Z</time>
      </trkpt>
      <trkpt lat="42.52729" lon="2.49341">
        <ele>1719</ele>
        <time>2024-07-14T06:52:44Z</time>
      </trkpt>
      <trkpt lat="42.52724" lon="2.49339">
        <ele>1718.6</ele>
        <time>2024-07-14T06:52:48Z</time>
      </trkpt>
      <trkpt lat="42.52722" lon="2.49337">
        <ele>1718.4</ele>
        <time>2024-07-14T06:52:50Z</time>
      </trkpt>
      <trkpt lat="42.52718" lon="2.49329">
        <ele>1718.2</ele>
        <time>2024-07-14T06:52:55Z</time>
      </trkpt>
      <trkpt lat="42.52712" lon="2.49314">
        <ele>1717.6</ele>
        <time>2024-07-14T06:53:05Z</time>
      </trkpt>
      <trkpt lat="42.5271" lon="2.49303">
        <ele>1718</ele>
        <time>2024-07-14T06:53:12Z</time>
      </trkpt>
      <trkpt lat="42.52708" lon="2.493">
        <ele>1718.2</ele>
        <time>2024-07-14T06:53:15Z</time>
      </trkpt>
      <trkpt lat="42.52706" lon="2.49295">
        <ele>1718.8</ele>
        <time>2024-07-14T06:53:18Z</time>
      </trkpt>
      <trkpt lat="42.52702" lon="2.49285">
        <ele>1719</ele>
        <time>2024-07-14T06:53:25Z</time>
      </trkpt>
      <trkpt lat="42.52702" lon="2.49283">
        <ele>1719.2</ele>
        <time>2024-07-14T06:53:26Z</time>
      </trkpt>
      <trkpt lat="42.52694" lon="2.49263">
        <ele>1719.2</ele>
        <time>2024-07-14T06:53:37Z</time>
      </trkpt>
      <trkpt lat="42.52691" lon="2.49252">
        <ele>1716</ele>
        <time>2024-07-14T06:53:44Z</time>
      </trkpt>
      <trkpt lat="42.52691" lon="2.49251">
        <ele>1715.4</ele>
        <time>2024-07-14T06:53:45Z</time>
      </trkpt>
      <trkpt lat="42.52691" lon="2.4925">
        <ele>1715</ele>
        <time>2024-07-14T06:53:46Z</time>
      </trkpt>
      <trkpt lat="42.52688" lon="2.49247">
        <ele>1714.4</ele>
        <time>2024-07-14T06:53:51Z</time>
      </trkpt>
      <trkpt lat="42.52685" lon="2.4924">
        <ele>1714.4</ele>
        <time>2024-07-14T06:53:58Z</time>
      </trkpt>
      <trkpt lat="42.52677" lon="2.4923">
        <ele>1713.2</ele>
        <time>2024-07-14T06:54:07Z</time>
      </trkpt>
      <trkpt lat="42.52666" lon="2.49224">
        <ele>1712</ele>
        <time>2024-07-14T06:54:17Z</time>
      </trkpt>
      <trkpt lat="42.52665" lon="2.49223">
        <ele>1712</ele>
        <time>2024-07-14T06:54:19Z</time>
      </trkpt>
      <trkpt lat="42.52659" lon="2.49224">
        <ele>1712</ele>
        <time>2024-07-14T06:54:24Z</time>
      </trkpt>
      <trkpt lat="42.52648" lon="2.49225">
        <ele>1709.2</ele>
        <time>2024-07-14T06:54:33Z</time>
      </trkpt>
      <trkpt lat="42.52636" lon="2.4923">
        <ele>1709.2</ele>
        <time>2024-07-14T06:54:42Z</time>
      </trkpt>
      <trkpt lat="42.52629" lon="2.49231">
        <ele>1709</ele>
        <time>2024-07-14T06:54:48Z</time>
      </trkpt>
      <trkpt lat="42.52616" lon="2.49227">
        <ele>1706.4</ele>
        <time>2024-07-14T06:54:58Z</time>
      </trkpt>
      <trkpt lat="42.52607" lon="2.49224">
        <ele>1704.6</ele>
        <time>2024-07-14T06:55:06Z</time>
      </trkpt>
      <trkpt lat="42.52595" lon="2.49225">
        <ele>1703.8</ele>
        <time>2024-07-14T06:55:15Z</time>
      </trkpt>
      <trkpt lat="42.52582" lon="2.49223">
        <ele>1703</ele>
        <time>2024-07-14T06:55:25Z</time>
      </trkpt>
      <trkpt lat="42.52571" lon="2.49219">
        <ele>1703</ele>
        <time>2024-07-14T06:55:34Z</time>
      </trkpt>
      <trkpt lat="42.52559" lon="2.49214">
        <ele>1703.2</ele>
        <time>2024-07-14T06:55:43Z</time>
      </trkpt>
      <trkpt lat="42.5255" lon="2.49211">
        <ele>1702.4</ele>
        <time>2024-07-14T06:55:51Z</time>
      </trkpt>
      <trkpt lat="42.52539" lon="2.49207">
        <ele>1700.6</ele>
        <time>2024-07-14T06:56:00Z</time>
      </trkpt>
      <trkpt lat="42.52528" lon="2.49204">
        <ele>1700</ele>
        <time>2024-07-14T06:56:08Z</time>
      </trkpt>
      <trkpt lat="42.52516" lon="2.49203">
        <ele>1699.6</ele>
        <time>2024-07-14T06:56:18Z</time>
      </trkpt>
      <trkpt lat="42.52505" lon="2.49211">
        <ele>1699.4</ele>
        <time>2024-07-14T06:56:28Z</time>
      </trkpt>
      <trkpt lat="42.52495" lon="2.49222">
        <ele>1701</ele>
        <time>2024-07-14T06:56:38Z</time>
      </trkpt>
      <trkpt lat="42.52484" lon="2.4923">
        <ele>1700.4</ele>
        <time>2024-07-14T06:56:47Z</time>
      </trkpt>
      <trkpt lat="42.52473" lon="2.49234">
        <ele>1699.2</ele>
        <time>2024-07-14T06:56:56Z</time>
      </trkpt>
      <trkpt lat="42.52471" lon="2.49235">
        <ele>1699</ele>
        <time>2024-07-14T06:56:58Z</time>
      </trkpt>
      <trkpt lat="42.52463" lon="2.49235">
        <ele>1698.8</ele>
        <time>2024-07-14T06:57:04Z</time>
      </trkpt>
      <trkpt lat="42.5245" lon="2.49233">
        <ele>1697.8</ele>
        <time>2024-07-14T06:57:14Z</time>
      </trkpt>
      <trkpt lat="42.52439" lon="2.49228">
        <ele>1695.6</ele>
        <time>2024-07-14T06:57:23Z</time>
      </trkpt>
      <trkpt lat="42.52428" lon="2.49222">
        <ele>1693</ele>
        <time>2024-07-14T06:57:32Z</time>
      </trkpt>
      <trkpt lat="42.52415" lon="2.4921">
        <ele>1690.6</ele>
        <time>2024-07-14T06:57:43Z</time>
      </trkpt>
      <trkpt lat="42.52407" lon="2.49201">
        <ele>1690.2</ele>
        <time>2024-07-14T06:57:50Z</time>
      </trkpt>
      <trkpt lat="42.52398" lon="2.49192">
        <ele>1689.6</ele>
        <time>2024-07-14T06:57:59Z</time>
      </trkpt>
      <trkpt lat="42.52388" lon="2.49181">
        <ele>1689.4</ele>
        <time>2024-07-14T06:58:09Z</time>
      </trkpt>
      <trkpt lat="42.52379" lon="2.49173">
        <ele>1687.6</ele>
        <time>2024-07-14T06:58:17Z</time>
      </trkpt>
      <trkpt lat="42.52368" lon="2.49168">
        <ele>1689</ele>
        <time>2024-07-14T06:58:26Z</time>
      </trkpt>
      <trkpt lat="42.52356" lon="2.49166">
        <ele>1688.2</ele>
        <time>2024-07-14T06:58:36Z</time>
      </trkpt>
      <trkpt lat="42.52341" lon="2.49166">
        <ele>1687.6</ele>
        <time>2024-07-14T06:58:47Z</time>
      </trkpt>
      <trkpt lat="42.52333" lon="2.49159">
        <ele>1688.2</ele>
        <time>2024-07-14T06:58:54Z</time>
      </trkpt>
      <trkpt lat="42.52321" lon="2.49155">
        <ele>1688.2</ele>
        <time>2024-07-14T06:59:03Z</time>
      </trkpt>
      <trkpt lat="42.52313" lon="2.49155">
        <ele>1687.2</ele>
        <time>2024-07-14T06:59:10Z</time>
      </trkpt>
      <trkpt lat="42.52304" lon="2.49154">
        <ele>1686.8</ele>
        <time>2024-07-14T06:59:17Z</time>
      </trkpt>
      <trkpt lat="42.52285" lon="2.49153">
        <ele>1683.6</ele>
        <time>2024-07-14T06:59:30Z</time>
      </trkpt>
      <trkpt lat="42.52271" lon="2.4915">
        <ele>1681.2</ele>
        <time>2024-07-14T06:59:40Z</time>
      </trkpt>
      <trkpt lat="42.52261" lon="2.4915">
        <ele>1679.2</ele>
        <time>2024-07-14T06:59:48Z</time>
      </trkpt>
      <trkpt lat="42.52261" lon="2.49149">
        <ele>1679.2</ele>
        <time>2024-07-14T06:59:49Z</time>
      </trkpt>
      <trkpt lat="42.5226" lon="2.49146">
        <ele>1678.8</ele>
        <time>2024-07-14T06:59:51Z</time>
      </trkpt>
      <trkpt lat="42.52261" lon="2.49139">
        <ele>1678</ele>
        <time>2024-07-14T06:59:55Z</time>
      </trkpt>
      <trkpt lat="42.5226" lon="2.49123">
        <ele>1677.4</ele>
        <time>2024-07-14T07:00:04Z</time>
      </trkpt>
      <trkpt lat="42.52258" lon="2.49111">
        <ele>1677.6</ele>
        <time>2024-07-14T07:00:11Z</time>
      </trkpt>
      <trkpt lat="42.52257" lon="2.49097">
        <ele>1680.8</ele>
        <time>2024-07-14T07:00:19Z</time>
      </trkpt>
      <trkpt lat="42.52253" lon="2.49078">
        <ele>1682.6</ele>
        <time>2024-07-14T07:00:30Z</time>
      </trkpt>
      <trkpt lat="42.52249" lon="2.49071">
        <ele>1683.2</ele>
        <time>2024-07-14T07:00:37Z</time>
      </trkpt>
      <trkpt lat="42.52244" lon="2.49061">
        <ele>1682.6</ele>
        <time>2024-07-14T07:00:44Z</time>
      </trkpt>
      <trkpt lat="42.52237" lon="2.49054">
        <ele>1680</ele>
        <time>2024-07-14T07:00:51Z</time>
      </trkpt>
      <trkpt lat="42.5223" lon="2.49045">
        <ele>1680.2</ele>
        <time>2024-07-14T07:00:59Z</time>
      </trkpt>
      <trkpt lat="42.52221" lon="2.49035">
        <ele>1679.8</ele>
        <time>2024-07-14T07:01:08Z</time>
      </trkpt>
      <trkpt lat="42.52215" lon="2.49024">
        <ele>1677</ele>
        <time>2024-07-14T07:01:16Z</time>
      </trkpt>
      <trkpt lat="42.52214" lon="2.49012">
        <ele>1676.4</ele>
        <time>2024-07-14T07:01:23Z</time>
      </trkpt>
      <trkpt lat="42.52209" lon="2.49001">
        <ele>1675</ele>
        <time>2024-07-14T07:01:31Z</time>
      </trkpt>
      <trkpt lat="42.52209" lon="2.48986">
        <ele>1675.2</ele>
        <time>2024-07-14T07:01:40Z</time>
      </trkpt>
      <trkpt lat="42.52208" lon="2.48977">
        <ele>1675.2</ele>
        <time>2024-07-14T07:01:46Z</time>
      </trkpt>
      <trkpt lat="42.52208" lon="2.48977">
        <ele>1675.2</ele>
        <time>2024-07-14T07:01:47Z</time>
      </trkpt>
      <trkpt lat="42.52203" lon="2.48958">
        <ele>1677.6</ele>
        <time>2024-07-14T07:01:58Z</time>
      </trkpt>
      <trkpt lat="42.52194" lon="2.48945">
        <ele>1677</ele>
        <time>2024-07-14T07:02:08Z</time>
      </trkpt>
      <trkpt lat="42.52183" lon="2.48936">
        <ele>1676.8</ele>
        <time>2024-07-14T07:02:18Z</time>
      </trkpt>
      <trkpt lat="42.52177" lon="2.48921">
        <ele>1676.8</ele>
        <time>2024-07-14T07:02:27Z</time>
      </trkpt>
      <trkpt lat="42.52169" lon="2.48907">
        <ele>1675</ele>
        <time>2024-07-14T07:02:38Z</time>
      </trkpt>
      <trkpt lat="42.52158" lon="2.48899">
        <ele>1674.8</ele>
        <time>2024-07-14T07:02:48Z</time>
      </trkpt>
      <trkpt lat="42.52149" lon="2.48888">
        <ele>1676.2</ele>
        <time>2024-07-14T07:02:59Z</time>
      </trkpt>
      <trkpt lat="42.52143" lon="2.48875">
        <ele>1676.2</ele>
        <time>2024-07-14T07:03:08Z</time>
      </trkpt>
      <trkpt lat="42.52134" lon="2.48868">
        <ele>1676.2</ele>
        <time>2024-07-14T07:03:16Z</time>
      </trkpt>
      <trkpt lat="42.52122" lon="2.48864">
        <ele>1675</ele>
        <time>2024-07-14T07:03:26Z</time>
      </trkpt>
      <trkpt lat="42.52112" lon="2.48859">
        <ele>1675.6</ele>
        <time>2024-07-14T07:03:35Z</time>
      </trkpt>
      <trkpt lat="42.5211" lon="2.48856">
        <ele>1676.6</ele>
        <time>2024-07-14T07:03:37Z</time>
      </trkpt>
      <trkpt lat="42.52109" lon="2.4885">
        <ele>1678.4</ele>
        <time>2024-07-14T07:03:41Z</time>
      </trkpt>
      <trkpt lat="42.52108" lon="2.48832">
        <ele>1678.2</ele>
        <time>2024-07-14T07:03:51Z</time>
      </trkpt>
      <trkpt lat="42.52107" lon="2.48816">
        <ele>1676.6</ele>
        <time>2024-07-14T07:04:00Z</time>
      </trkpt>
      <trkpt lat="42.52106" lon="2.48802">
        <ele>1678.4</ele>
        <time>2024-07-14T07:04:09Z</time>
      </trkpt>
      <trkpt lat="42.52106" lon="2.488">
        <ele>1678.6</ele>
        <time>2024-07-14T07:04:11Z</time>
      </trkpt>
      <trkpt lat="42.52102" lon="2.48796">
        <ele>1678.8</ele>
        <time>2024-07-14T07:04:16Z</time>
      </trkpt>
      <trkpt lat="42.5209" lon="2.48796">
        <ele>1676</ele>
        <time>2024-07-14T07:04:26Z</time>
      </trkpt>
      <trkpt lat="42.52081" lon="2.48795">
        <ele>1673</ele>
        <time>2024-07-14T07:04:36Z</time>
      </trkpt>
      <trkpt lat="42.52077" lon="2.48796">
        <ele>1673.6</ele>
        <time>2024-07-14T07:04:43Z</time>
      </trkpt>
      <trkpt lat="42.52069" lon="2.48797">
        <ele>1674</ele>
        <time>2024-07-14T07:04:51Z</time>
      </trkpt>
      <trkpt lat="42.52061" lon="2.48804">
        <ele>1675</ele>
        <time>2024-07-14T07:04:59Z</time>
      </trkpt>
      <trkpt lat="42.52055" lon="2.48809">
        <ele>1675.2</ele>
        <time>2024-07-14T07:05:04Z</time>
      </trkpt>
      <trkpt lat="42.52055" lon="2.4881">
        <ele>1675.2</ele>
        <time>2024-07-14T07:05:05Z</time>
      </trkpt>
      <trkpt lat="42.52053" lon="2.48811">
        <ele>1675</ele>
        <time>2024-07-14T07:05:06Z</time>
      </trkpt>
      <trkpt lat="42.52047" lon="2.48814">
        <ele>1676.4</ele>
        <time>2024-07-14T07:05:11Z</time>
      </trkpt>
      <trkpt lat="42.52044" lon="2.48814">
        <ele>1677</ele>
        <time>2024-07-14T07:05:13Z</time>
      </trkpt>
      <trkpt lat="42.52039" lon="2.48811">
        <ele>1677.6</ele>
        <time>2024-07-14T07:05:17Z</time>
      </trkpt>
      <trkpt lat="42.52039" lon="2.4881">
        <ele>1677.6</ele>
        <time>2024-07-14T07:05:18Z</time>
      </trkpt>
      <trkpt lat="42.52034" lon="2.48808">
        <ele>1677.6</ele>
        <time>2024-07-14T07:05:22Z</time>
      </trkpt>
      <trkpt lat="42.52026" lon="2.48801">
        <ele>1676.2</ele>
        <time>2024-07-14T07:05:29Z</time>
      </trkpt>
      <trkpt lat="42.52012" lon="2.48793">
        <ele>1674</ele>
        <time>2024-07-14T07:05:40Z</time>
      </trkpt>
      <trkpt lat="42.52005" lon="2.48785">
        <ele>1674.2</ele>
        <time>2024-07-14T07:05:47Z</time>
      </trkpt>
      <trkpt lat="42.51997" lon="2.4877">
        <ele>1674.8</ele>
        <time>2024-07-14T07:05:57Z</time>
      </trkpt>
      <trkpt lat="42.51991" lon="2.48755">
        <ele>1675.2</ele>
        <time>2024-07-14T07:06:07Z</time>
      </trkpt>
      <trkpt lat="42.51985" lon="2.48742">
        <ele>1675.4</ele>
        <time>2024-07-14T07:06:16Z</time>
      </trkpt>
      <trkpt lat="42.51978" lon="2.48732">
        <ele>1674.8</ele>
        <time>2024-07-14T07:06:24Z</time>
      </trkpt>
      <trkpt lat="42.51967" lon="2.48719">
        <ele>1675.2</ele>
        <time>2024-07-14T07:06:36Z</time>
      </trkpt>
      <trkpt lat="42.51961" lon="2.48709">
        <ele>1674.2</ele>
        <time>2024-07-14T07:06:44Z</time>
      </trkpt>
      <trkpt lat="42.51953" lon="2.48702">
        <ele>1673</ele>
        <time>2024-07-14T07:06:51Z</time>
      </trkpt>
      <trkpt lat="42.51945" lon="2.48692">
        <ele>1674.2</ele>
        <time>2024-07-14T07:06:59Z</time>
      </trkpt>
      <trkpt lat="42.5194" lon="2.4868">
        <ele>1675</ele>
        <time>2024-07-14T07:07:08Z</time>
      </trkpt>
      <trkpt lat="42.5194" lon="2.48675">
        <ele>1675.2</ele>
        <time>2024-07-14T07:07:12Z</time>
      </trkpt>
      <trkpt lat="42.51938" lon="2.48675">
        <ele>1675.4</ele>
        <time>2024-07-14T07:07:14Z</time>
      </trkpt>
      <trkpt lat="42.51937" lon="2.48674">
        <ele>1675.6</ele>
        <time>2024-07-14T07:07:15Z</time>
      </trkpt>
      <trkpt lat="42.51932" lon="2.48666">
        <ele>1676</ele>
        <time>2024-07-14T07:07:23Z</time>
      </trkpt>
      <trkpt lat="42.51929" lon="2.48668">
        <ele>1675</ele>
        <time>2024-07-14T07:07:29Z</time>
      </trkpt>
      <trkpt lat="42.51927" lon="2.48674">
        <ele>1674.8</ele>
        <time>2024-07-14T07:07:37Z</time>
      </trkpt>
      <trkpt lat="42.51927" lon="2.48681">
        <ele>1675.6</ele>
        <time>2024-07-14T07:07:44Z</time>
      </trkpt>
      <trkpt lat="42.51927" lon="2.48693">
        <ele>1678</ele>
        <time>2024-07-14T07:07:50Z</time>
      </trkpt>
      <trkpt lat="42.51924" lon="2.48702">
        <ele>1681.2</ele>
        <time>2024-07-14T07:07:56Z</time>
      </trkpt>
      <trkpt lat="42.51924" lon="2.48703">
        <ele>1681.4</ele>
        <time>2024-07-14T07:07:57Z</time>
      </trkpt>
      <trkpt lat="42.51923" lon="2.48705">
        <ele>1681.8</ele>
        <time>2024-07-14T07:07:59Z</time>
      </trkpt>
      <trkpt lat="42.51918" lon="2.48706">
        <ele>1681.8</ele>
        <time>2024-07-14T07:08:02Z</time>
      </trkpt>
      <trkpt lat="42.51906" lon="2.48696">
        <ele>1679</ele>
        <time>2024-07-14T07:08:12Z</time>
      </trkpt>
      <trkpt lat="42.51897" lon="2.48691">
        <ele>1677.2</ele>
        <time>2024-07-14T07:08:20Z</time>
      </trkpt>
      <trkpt lat="42.51889" lon="2.48692">
        <ele>1674</ele>
        <time>2024-07-14T07:08:29Z</time>
      </trkpt>
      <trkpt lat="42.51887" lon="2.48692">
        <ele>1673.6</ele>
        <time>2024-07-14T07:08:31Z</time>
      </trkpt>
      <trkpt lat="42.51886" lon="2.48691">
        <ele>1673.4</ele>
        <time>2024-07-14T07:08:33Z</time>
      </trkpt>
      <trkpt lat="42.51882" lon="2.48689">
        <ele>1674.2</ele>
        <time>2024-07-14T07:08:38Z</time>
      </trkpt>
      <trkpt lat="42.51879" lon="2.48686">
        <ele>1674.2</ele>
        <time>2024-07-14T07:08:41Z</time>
      </trkpt>
      <trkpt lat="42.51872" lon="2.48681">
        <ele>1672.4</ele>
        <time>2024-07-14T07:08:50Z</time>
      </trkpt>
      <trkpt lat="42.51871" lon="2.48686">
        <ele>1671.8</ele>
        <time>2024-07-14T07:08:56Z</time>
      </trkpt>
      <trkpt lat="42.51875" lon="2.4869">
        <ele>1678</ele>
        <time>2024-07-14T07:09:03Z</time>
      </trkpt>
      <trkpt lat="42.51875" lon="2.48691">
        <ele>1681.8</ele>
        <time>2024-07-14T07:09:50Z</time>
      </trkpt>
      <trkpt lat="42.51878" lon="2.48693">
        <ele>1685.8</ele>
        <time>2024-07-14T07:09:55Z</time>
      </trkpt>
      <trkpt lat="42.51878" lon="2.48695">
        <ele>1690</ele>
        <time>2024-07-14T07:10:00Z</time>
      </trkpt>
      <trkpt lat="42.5188" lon="2.48697">
        <ele>1693.2</ele>
        <time>2024-07-14T07:10:06Z</time>
      </trkpt>
      <trkpt lat="42.51881" lon="2.48699">
        <ele>1697.4</ele>
        <time>2024-07-14T07:10:11Z</time>
      </trkpt>
      <trkpt lat="42.51888" lon="2.4871">
        <ele>1703.4</ele>
        <time>2024-07-14T07:10:18Z</time>
      </trkpt>
      <trkpt lat="42.51885" lon="2.48723">
        <ele>1711</ele>
        <time>2024-07-14T07:10:25Z</time>
      </trkpt>
      <trkpt lat="42.51873" lon="2.48731">
        <ele>1710.6</ele>
        <time>2024-07-14T07:10:33Z</time>
      </trkpt>
      <trkpt lat="42.51872" lon="2.48732">
        <ele>1710.2</ele>
        <time>2024-07-14T07:10:34Z</time>
      </trkpt>
      <trkpt lat="42.51872" lon="2.48734">
        <ele>1708.6</ele>
        <time>2024-07-14T07:10:37Z</time>
      </trkpt>
      <trkpt lat="42.51872" lon="2.48737">
        <ele>1707.2</ele>
        <time>2024-07-14T07:10:39Z</time>
      </trkpt>
      <trkpt lat="42.51872" lon="2.48738">
        <ele>1706.4</ele>
        <time>2024-07-14T07:10:40Z</time>
      </trkpt>
      <trkpt lat="42.51875" lon="2.48742">
        <ele>1702.2</ele>
        <time>2024-07-14T07:10:44Z</time>
      </trkpt>
      <trkpt lat="42.51875" lon="2.48742">
        <ele>1701</ele>
        <time>2024-07-14T07:10:45Z</time>
      </trkpt>
      <trkpt lat="42.51872" lon="2.48749">
        <ele>1691.6</ele>
        <time>2024-07-14T07:10:51Z</time>
      </trkpt>
      <trkpt lat="42.51872" lon="2.4875">
        <ele>1690</ele>
        <time>2024-07-14T07:10:52Z</time>
      </trkpt>
      <trkpt lat="42.5187" lon="2.48753">
        <ele>1686.2</ele>
        <time>2024-07-14T07:10:55Z</time>
      </trkpt>
      <trkpt lat="42.5187" lon="2.48756">
        <ele>1684</ele>
        <time>2024-07-14T07:10:57Z</time>
      </trkpt>
      <trkpt lat="42.5187" lon="2.48758">
        <ele>1683</ele>
        <time>2024-07-14T07:10:58Z</time>
      </trkpt>
      <trkpt lat="42.51867" lon="2.48759">
        <ele>1681.4</ele>
        <time>2024-07-14T07:11:00Z</time>
      </trkpt>
      <trkpt lat="42.51864" lon="2.4876">
        <ele>1680.4</ele>
        <time>2024-07-14T07:11:02Z</time>
      </trkpt>
      <trkpt lat="42.51852" lon="2.48765">
        <ele>1678.4</ele>
        <time>2024-07-14T07:11:10Z</time>
      </trkpt>
      <trkpt lat="42.51841" lon="2.48771">
        <ele>1677</ele>
        <time>2024-07-14T07:11:19Z</time>
      </trkpt>
      <trkpt lat="42.51839" lon="2.48772">
        <ele>1675.8</ele>
        <time>2024-07-14T07:11:25Z</time>
      </trkpt>
      <trkpt lat="42.51837" lon="2.48771">
        <ele>1675.2</ele>
        <time>2024-07-14T07:11:35Z</time>
      </trkpt>
      <trkpt lat="42.51831" lon="2.48776">
        <ele>1674.6</ele>
        <time>2024-07-14T07:11:41Z</time>
      </trkpt>
      <trkpt lat="42.51826" lon="2.48779">
        <ele>1673.6</ele>
        <time>2024-07-14T07:11:49Z</time>
      </trkpt>
      <trkpt lat="42.51822" lon="2.48791">
        <ele>1672</ele>
        <time>2024-07-14T07:11:55Z</time>
      </trkpt>
      <trkpt lat="42.51809" lon="2.48801">
        <ele>1671.2</ele>
        <time>2024-07-14T07:12:06Z</time>
      </trkpt>
      <trkpt lat="42.51807" lon="2.48804">
        <ele>1669.2</ele>
        <time>2024-07-14T07:12:10Z</time>
      </trkpt>
      <trkpt lat="42.51807" lon="2.48805">
        <ele>1668.6</ele>
        <time>2024-07-14T07:12:12Z</time>
      </trkpt>
      <trkpt lat="42.51808" lon="2.48816">
        <ele>1668</ele>
        <time>2024-07-14T07:12:20Z</time>
      </trkpt>
      <trkpt lat="42.51811" lon="2.48826">
        <ele>1667.2</ele>
        <time>2024-07-14T07:12:28Z</time>
      </trkpt>
      <trkpt lat="42.51816" lon="2.48834">
        <ele>1667</ele>
        <time>2024-07-14T07:12:35Z</time>
      </trkpt>
      <trkpt lat="42.51821" lon="2.48838">
        <ele>1667.2</ele>
        <time>2024-07-14T07:12:39Z</time>
      </trkpt>
      <trkpt lat="42.51824" lon="2.48842">
        <ele>1668</ele>
        <time>2024-07-14T07:12:42Z</time>
      </trkpt>
      <trkpt lat="42.51826" lon="2.48844">
        <ele>1669</ele>
        <time>2024-07-14T07:12:44Z</time>
      </trkpt>
      <trkpt lat="42.51828" lon="2.48847">
        <ele>1670.4</ele>
        <time>2024-07-14T07:12:47Z</time>
      </trkpt>
      <trkpt lat="42.51833" lon="2.48854">
        <ele>1671.6</ele>
        <time>2024-07-14T07:12:51Z</time>
      </trkpt>
      <trkpt lat="42.51834" lon="2.48856">
        <ele>1672</ele>
        <time>2024-07-14T07:12:53Z</time>
      </trkpt>
      <trkpt lat="42.51837" lon="2.4886">
        <ele>1673.2</ele>
        <time>2024-07-14T07:12:56Z</time>
      </trkpt>
      <trkpt lat="42.51837" lon="2.48862">
        <ele>1673.6</ele>
        <time>2024-07-14T07:12:57Z</time>
      </trkpt>
      <trkpt lat="42.51836" lon="2.48866">
        <ele>1674.2</ele>
        <time>2024-07-14T07:12:59Z</time>
      </trkpt>
      <trkpt lat="42.5184" lon="2.48868">
        <ele>1674.8</ele>
        <time>2024-07-14T07:13:01Z</time>
      </trkpt>
      <trkpt lat="42.51842" lon="2.48869">
        <ele>1675</ele>
        <time>2024-07-14T07:13:02Z</time>
      </trkpt>
      <trkpt lat="42.51842" lon="2.4887">
        <ele>1675.4</ele>
        <time>2024-07-14T07:13:03Z</time>
      </trkpt>
      <trkpt lat="42.51842" lon="2.48872">
        <ele>1675.8</ele>
        <time>2024-07-14T07:13:05Z</time>
      </trkpt>
      <trkpt lat="42.51842" lon="2.48873">
        <ele>1676</ele>
        <time>2024-07-14T07:13:06Z</time>
      </trkpt>
      <trkpt lat="42.51844" lon="2.48877">
        <ele>1676.2</ele>
        <time>2024-07-14T07:13:09Z</time>
      </trkpt>
      <trkpt lat="42.51847" lon="2.48883">
        <ele>1675.8</ele>
        <time>2024-07-14T07:13:13Z</time>
      </trkpt>
      <trkpt lat="42.51848" lon="2.48885">
        <ele>1675</ele>
        <time>2024-07-14T07:13:15Z</time>
      </trkpt>
      <trkpt lat="42.51847" lon="2.48888">
        <ele>1674.2</ele>
        <time>2024-07-14T07:13:17Z</time>
      </trkpt>
      <trkpt lat="42.51848" lon="2.48894">
        <ele>1672.4</ele>
        <time>2024-07-14T07:13:21Z</time>
      </trkpt>
      <trkpt lat="42.51846" lon="2.48901">
        <ele>1671.2</ele>
        <time>2024-07-14T07:13:27Z</time>
      </trkpt>
      <trkpt lat="42.51846" lon="2.48903">
        <ele>1671.2</ele>
        <time>2024-07-14T07:13:28Z</time>
      </trkpt>
      <trkpt lat="42.51847" lon="2.48907">
        <ele>1671</ele>
        <time>2024-07-14T07:13:31Z</time>
      </trkpt>
      <trkpt lat="42.51847" lon="2.4891">
        <ele>1671.2</ele>
        <time>2024-07-14T07:13:32Z</time>
      </trkpt>
      <trkpt lat="42.51845" lon="2.48917">
        <ele>1671</ele>
        <time>2024-07-14T07:13:37Z</time>
      </trkpt>
      <trkpt lat="42.51845" lon="2.48919">
        <ele>1671</ele>
        <time>2024-07-14T07:13:38Z</time>
      </trkpt>
      <trkpt lat="42.51846" lon="2.48923">
        <ele>1670.6</ele>
        <time>2024-07-14T07:13:41Z</time>
      </trkpt>
      <trkpt lat="42.51846" lon="2.48926">
        <ele>1670.6</ele>
        <time>2024-07-14T07:13:43Z</time>
      </trkpt>
      <trkpt lat="42.51847" lon="2.48929">
        <ele>1670.6</ele>
        <time>2024-07-14T07:13:44Z</time>
      </trkpt>
      <trkpt lat="42.51848" lon="2.48935">
        <ele>1671</ele>
        <time>2024-07-14T07:13:48Z</time>
      </trkpt>
      <trkpt lat="42.51848" lon="2.48937">
        <ele>1671.2</ele>
        <time>2024-07-14T07:13:49Z</time>
      </trkpt>
      <trkpt lat="42.51847" lon="2.48939">
        <ele>1671.2</ele>
        <time>2024-07-14T07:13:51Z</time>
      </trkpt>
      <trkpt lat="42.51847" lon="2.48944">
        <ele>1670.4</ele>
        <time>2024-07-14T07:13:54Z</time>
      </trkpt>
      <trkpt lat="42.51846" lon="2.48955">
        <ele>1669.4</ele>
        <time>2024-07-14T07:14:00Z</time>
      </trkpt>
      <trkpt lat="42.51845" lon="2.48973">
        <ele>1671.4</ele>
        <time>2024-07-14T07:14:09Z</time>
      </trkpt>
      <trkpt lat="42.51842" lon="2.48972">
        <ele>1671.6</ele>
        <time>2024-07-14T07:14:10Z</time>
      </trkpt>
      <trkpt lat="42.5183" lon="2.48973">
        <ele>1671.8</ele>
        <time>2024-07-14T07:14:18Z</time>
      </trkpt>
      <trkpt lat="42.51822" lon="2.48978">
        <ele>1672.6</ele>
        <time>2024-07-14T07:14:24Z</time>
      </trkpt>
      <trkpt lat="42.51822" lon="2.48984">
        <ele>1671.2</ele>
        <time>2024-07-14T07:14:29Z</time>
      </trkpt>
      <trkpt lat="42.51826" lon="2.48986">
        <ele>1670.6</ele>
        <time>2024-07-14T07:14:31Z</time>
      </trkpt>
      <trkpt lat="42.51828" lon="2.48988">
        <ele>1670.2</ele>
        <time>2024-07-14T07:14:33Z</time>
      </trkpt>
      <trkpt lat="42.51833" lon="2.48995">
        <ele>1671.4</ele>
        <time>2024-07-14T07:14:38Z</time>
      </trkpt>
      <trkpt lat="42.51836" lon="2.49009">
        <ele>1675</ele>
        <time>2024-07-14T07:14:46Z</time>
      </trkpt>
      <trkpt lat="42.51834" lon="2.49012">
        <ele>1675.6</ele>
        <time>2024-07-14T07:14:48Z</time>
      </trkpt>
      <trkpt lat="42.51833" lon="2.49015">
        <ele>1676</ele>
        <time>2024-07-14T07:14:50Z</time>
      </trkpt>
      <trkpt lat="42.51833" lon="2.49019">
        <ele>1676.4</ele>
        <time>2024-07-14T07:14:52Z</time>
      </trkpt>
      <trkpt lat="42.51833" lon="2.4903">
        <ele>1676.8</ele>
        <time>2024-07-14T07:15:00Z</time>
      </trkpt>
      <trkpt lat="42.51833" lon="2.49031">
        <ele>1677</ele>
        <time>2024-07-14T07:15:01Z</time>
      </trkpt>
      <trkpt lat="42.51834" lon="2.49034">
        <ele>1677.2</ele>
        <time>2024-07-14T07:15:03Z</time>
      </trkpt>
      <trkpt lat="42.51834" lon="2.49037">
        <ele>1677.4</ele>
        <time>2024-07-14T07:15:05Z</time>
      </trkpt>
      <trkpt lat="42.51833" lon="2.49041">
        <ele>1677.4</ele>
        <time>2024-07-14T07:15:08Z</time>
      </trkpt>
      <trkpt lat="42.51832" lon="2.49044">
        <ele>1677</ele>
        <time>2024-07-14T07:15:10Z</time>
      </trkpt>
      <trkpt lat="42.51832" lon="2.49047">
        <ele>1676.2</ele>
        <time>2024-07-14T07:15:12Z</time>
      </trkpt>
      <trkpt lat="42.51834" lon="2.49056">
        <ele>1675.4</ele>
        <time>2024-07-14T07:15:16Z</time>
      </trkpt>
      <trkpt lat="42.51832" lon="2.49066">
        <ele>1675</ele>
        <time>2024-07-14T07:15:22Z</time>
      </trkpt>
      <trkpt lat="42.5183" lon="2.4908">
        <ele>1676.2</ele>
        <time>2024-07-14T07:15:29Z</time>
      </trkpt>
      <trkpt lat="42.51831" lon="2.49082">
        <ele>1676.6</ele>
        <time>2024-07-14T07:15:30Z</time>
      </trkpt>
      <trkpt lat="42.51831" lon="2.49082">
        <ele>1676.8</ele>
        <time>2024-07-14T07:15:31Z</time>
      </trkpt>
      <trkpt lat="42.51832" lon="2.49085">
        <ele>1677.6</ele>
        <time>2024-07-14T07:15:33Z</time>
      </trkpt>
      <trkpt lat="42.51831" lon="2.49086">
        <ele>1678.2</ele>
        <time>2024-07-14T07:15:34Z</time>
      </trkpt>
      <trkpt lat="42.5183" lon="2.49108">
        <ele>1681.8</ele>
        <time>2024-07-14T07:15:42Z</time>
      </trkpt>
      <trkpt lat="42.5183" lon="2.49119">
        <ele>1685.4</ele>
        <time>2024-07-14T07:15:49Z</time>
      </trkpt>
      <trkpt lat="42.51829" lon="2.49132">
        <ele>1684.2</ele>
        <time>2024-07-14T07:15:56Z</time>
      </trkpt>
      <trkpt lat="42.51829" lon="2.49134">
        <ele>1684</ele>
        <time>2024-07-14T07:15:57Z</time>
      </trkpt>
      <trkpt lat="42.51831" lon="2.49148">
        <ele>1684</ele>
        <time>2024-07-14T07:16:05Z</time>
      </trkpt>
      <trkpt lat="42.51831" lon="2.49151">
        <ele>1684</ele>
        <time>2024-07-14T07:16:07Z</time>
      </trkpt>
      <trkpt lat="42.51832" lon="2.49156">
        <ele>1684.2</ele>
        <time>2024-07-14T07:16:10Z</time>
      </trkpt>
      <trkpt lat="42.51832" lon="2.49157">
        <ele>1684.2</ele>
        <time>2024-07-14T07:16:11Z</time>
      </trkpt>
      <trkpt lat="42.51831" lon="2.49159">
        <ele>1683.8</ele>
        <time>2024-07-14T07:16:13Z</time>
      </trkpt>
      <trkpt lat="42.51831" lon="2.49165">
        <ele>1682</ele>
        <time>2024-07-14T07:16:17Z</time>
      </trkpt>
      <trkpt lat="42.51831" lon="2.49167">
        <ele>1681.2</ele>
        <time>2024-07-14T07:16:18Z</time>
      </trkpt>
      <trkpt lat="42.51832" lon="2.49172">
        <ele>1678.6</ele>
        <time>2024-07-14T07:16:21Z</time>
      </trkpt>
      <trkpt lat="42.51828" lon="2.49178">
        <ele>1676</ele>
        <time>2024-07-14T07:16:25Z</time>
      </trkpt>
      <trkpt lat="42.51828" lon="2.4918">
        <ele>1674.8</ele>
        <time>2024-07-14T07:16:27Z</time>
      </trkpt>
      <trkpt lat="42.51828" lon="2.49185">
        <ele>1673</ele>
        <time>2024-07-14T07:16:30Z</time>
      </trkpt>
      <trkpt lat="42.51828" lon="2.49187">
        <ele>1672.2</ele>
        <time>2024-07-14T07:16:31Z</time>
      </trkpt>
      <trkpt lat="42.5183" lon="2.49192">
        <ele>1671</ele>
        <time>2024-07-14T07:16:34Z</time>
      </trkpt>
      <trkpt lat="42.51829" lon="2.49198">
        <ele>1670.4</ele>
        <time>2024-07-14T07:16:37Z</time>
      </trkpt>
      <trkpt lat="42.51829" lon="2.49202">
        <ele>1670.2</ele>
        <time>2024-07-14T07:16:40Z</time>
      </trkpt>
      <trkpt lat="42.51831" lon="2.49207">
        <ele>1669.4</ele>
        <time>2024-07-14T07:16:43Z</time>
      </trkpt>
      <trkpt lat="42.51831" lon="2.49209">
        <ele>1669.2</ele>
        <time>2024-07-14T07:16:44Z</time>
      </trkpt>
      <trkpt lat="42.51831" lon="2.49217">
        <ele>1668.8</ele>
        <time>2024-07-14T07:16:49Z</time>
      </trkpt>
      <trkpt lat="42.51832" lon="2.49221">
        <ele>1668.6</ele>
        <time>2024-07-14T07:16:51Z</time>
      </trkpt>
      <trkpt lat="42.51832" lon="2.49226">
        <ele>1668.8</ele>
        <time>2024-07-14T07:16:54Z</time>
      </trkpt>
      <trkpt lat="42.51832" lon="2.49228">
        <ele>1668.8</ele>
        <time>2024-07-14T07:16:55Z</time>
      </trkpt>
      <trkpt lat="42.51831" lon="2.49235">
        <ele>1668.4</ele>
        <time>2024-07-14T07:16:59Z</time>
      </trkpt>
      <trkpt lat="42.51832" lon="2.4924">
        <ele>1667.6</ele>
        <time>2024-07-14T07:17:02Z</time>
      </trkpt>
      <trkpt lat="42.51832" lon="2.49245">
        <ele>1667</ele>
        <time>2024-07-14T07:17:05Z</time>
      </trkpt>
      <trkpt lat="42.51831" lon="2.49249">
        <ele>1666.8</ele>
        <time>2024-07-14T07:17:08Z</time>
      </trkpt>
      <trkpt lat="42.5183" lon="2.49249">
        <ele>1666.8</ele>
        <time>2024-07-14T07:17:09Z</time>
      </trkpt>
      <trkpt lat="42.51825" lon="2.4925">
        <ele>1667</ele>
        <time>2024-07-14T07:17:13Z</time>
      </trkpt>
      <trkpt lat="42.51814" lon="2.49246">
        <ele>1669.4</ele>
        <time>2024-07-14T07:17:21Z</time>
      </trkpt>
      <trkpt lat="42.51807" lon="2.49248">
        <ele>1670.4</ele>
        <time>2024-07-14T07:17:26Z</time>
      </trkpt>
      <trkpt lat="42.51805" lon="2.49245">
        <ele>1670.6</ele>
        <time>2024-07-14T07:17:29Z</time>
      </trkpt>
      <trkpt lat="42.51807" lon="2.49242">
        <ele>1669.4</ele>
        <time>2024-07-14T07:17:35Z</time>
      </trkpt>
      <trkpt lat="42.51805" lon="2.49242">
        <ele>1669.6</ele>
        <time>2024-07-14T07:17:41Z</time>
      </trkpt>
      <trkpt lat="42.51806" lon="2.49244">
        <ele>1670.2</ele>
        <time>2024-07-14T07:17:49Z</time>
      </trkpt>
      <trkpt lat="42.51805" lon="2.49241">
        <ele>1670</ele>
        <time>2024-07-14T07:17:55Z</time>
      </trkpt>
      <trkpt lat="42.51804" lon="2.4924">
        <ele>1667</ele>
        <time>2024-07-14T07:18:02Z</time>
      </trkpt>
      <trkpt lat="42.51804" lon="2.4924">
        <ele>1666</ele>
        <time>2024-07-14T07:18:15Z</time>
      </trkpt>
      <trkpt lat="42.51801" lon="2.49247">
        <ele>1664.6</ele>
        <time>2024-07-14T07:18:54Z</time>
      </trkpt>
      <trkpt lat="42.51798" lon="2.49248">
        <ele>1660</ele>
        <time>2024-07-14T07:19:31Z</time>
      </trkpt>
      <trkpt lat="42.51799" lon="2.49243">
        <ele>1660</ele>
        <time>2024-07-14T07:19:35Z</time>
      </trkpt>
      <trkpt lat="42.518" lon="2.49239">
        <ele>1660.2</ele>
        <time>2024-07-14T07:19:39Z</time>
      </trkpt>
      <trkpt lat="42.518" lon="2.49237">
        <ele>1660.4</ele>
        <time>2024-07-14T07:19:45Z</time>
      </trkpt>
      <trkpt lat="42.51799" lon="2.49239">
        <ele>1660.2</ele>
        <time>2024-07-14T07:19:52Z</time>
      </trkpt>
      <trkpt lat="42.51798" lon="2.49242">
        <ele>1660</ele>
        <time>2024-07-14T07:20:00Z</time>
      </trkpt>
      <trkpt lat="42.518" lon="2.49237">
        <ele>1663.2</ele>
        <time>2024-07-14T07:21:20Z</time>
      </trkpt>
      <trkpt lat="42.51792" lon="2.4924">
        <ele>1661.8</ele>
        <time>2024-07-14T07:21:26Z</time>
      </trkpt>
      <trkpt lat="42.51784" lon="2.49242">
        <ele>1662</ele>
        <time>2024-07-14T07:21:34Z</time>
      </trkpt>
      <trkpt lat="42.51783" lon="2.49241">
        <ele>1662.4</ele>
        <time>2024-07-14T07:21:35Z</time>
      </trkpt>
      <trkpt lat="42.51779" lon="2.49241">
        <ele>1663.6</ele>
        <time>2024-07-14T07:21:39Z</time>
      </trkpt>
      <trkpt lat="42.51777" lon="2.49242">
        <ele>1663.8</ele>
        <time>2024-07-14T07:21:40Z</time>
      </trkpt>
      <trkpt lat="42.51774" lon="2.49242">
        <ele>1664.2</ele>
        <time>2024-07-14T07:21:42Z</time>
      </trkpt>
      <trkpt lat="42.51768" lon="2.49238">
        <ele>1665</ele>
        <time>2024-07-14T07:21:46Z</time>
      </trkpt>
      <trkpt lat="42.51761" lon="2.49236">
        <ele>1666</ele>
        <time>2024-07-14T07:21:52Z</time>
      </trkpt>
      <trkpt lat="42.51759" lon="2.49235">
        <ele>1666.2</ele>
        <time>2024-07-14T07:21:53Z</time>
      </trkpt>
      <trkpt lat="42.51754" lon="2.49235">
        <ele>1666</ele>
        <time>2024-07-14T07:21:57Z</time>
      </trkpt>
      <trkpt lat="42.5175" lon="2.49234">
        <ele>1665.8</ele>
        <time>2024-07-14T07:22:00Z</time>
      </trkpt>
      <trkpt lat="42.51743" lon="2.49231">
        <ele>1664.8</ele>
        <time>2024-07-14T07:22:08Z</time>
      </trkpt>
      <trkpt lat="42.5174" lon="2.49232">
        <ele>1665</ele>
        <time>2024-07-14T07:22:10Z</time>
      </trkpt>
      <trkpt lat="42.51736" lon="2.49232">
        <ele>1665.2</ele>
        <time>2024-07-14T07:22:12Z</time>
      </trkpt>
      <trkpt lat="42.51732" lon="2.49231">
        <ele>1666.6</ele>
        <time>2024-07-14T07:22:15Z</time>
      </trkpt>
      <trkpt lat="42.51729" lon="2.4923">
        <ele>1668.2</ele>
        <time>2024-07-14T07:22:18Z</time>
      </trkpt>
      <trkpt lat="42.51726" lon="2.49229">
        <ele>1669.6</ele>
        <time>2024-07-14T07:22:20Z</time>
      </trkpt>
      <trkpt lat="42.51725" lon="2.49228">
        <ele>1670.8</ele>
        <time>2024-07-14T07:22:21Z</time>
      </trkpt>
      <trkpt lat="42.51716" lon="2.49223">
        <ele>1673</ele>
        <time>2024-07-14T07:22:29Z</time>
      </trkpt>
      <trkpt lat="42.51709" lon="2.49222">
        <ele>1669</ele>
        <time>2024-07-14T07:22:35Z</time>
      </trkpt>
      <trkpt lat="42.51701" lon="2.49228">
        <ele>1665.8</ele>
        <time>2024-07-14T07:22:45Z</time>
      </trkpt>
      <trkpt lat="42.51694" lon="2.49236">
        <ele>1663</ele>
        <time>2024-07-14T07:22:53Z</time>
      </trkpt>
      <trkpt lat="42.51688" lon="2.49245">
        <ele>1662.4</ele>
        <time>2024-07-14T07:23:01Z</time>
      </trkpt>
      <trkpt lat="42.51686" lon="2.49248">
        <ele>1661.8</ele>
        <time>2024-07-14T07:23:04Z</time>
      </trkpt>
      <trkpt lat="42.51682" lon="2.49252">
        <ele>1660.6</ele>
        <time>2024-07-14T07:23:08Z</time>
      </trkpt>
      <trkpt lat="42.5168" lon="2.49256">
        <ele>1659.4</ele>
        <time>2024-07-14T07:23:11Z</time>
      </trkpt>
      <trkpt lat="42.51678" lon="2.49261">
        <ele>1658.6</ele>
        <time>2024-07-14T07:23:14Z</time>
      </trkpt>
      <trkpt lat="42.51676" lon="2.49272">
        <ele>1660</ele>
        <time>2024-07-14T07:23:21Z</time>
      </trkpt>
      <trkpt lat="42.51673" lon="2.49281">
        <ele>1660.8</ele>
        <time>2024-07-14T07:23:27Z</time>
      </trkpt>
      <trkpt lat="42.51672" lon="2.49286">
        <ele>1660.8</ele>
        <time>2024-07-14T07:23:30Z</time>
      </trkpt>
      <trkpt lat="42.51669" lon="2.49291">
        <ele>1661.6</ele>
        <time>2024-07-14T07:23:35Z</time>
      </trkpt>
      <trkpt lat="42.51668" lon="2.49292">
        <ele>1661.8</ele>
        <time>2024-07-14T07:23:37Z</time>
      </trkpt>
      <trkpt lat="42.51664" lon="2.49298">
        <ele>1664</ele>
        <time>2024-07-14T07:23:43Z</time>
      </trkpt>
      <trkpt lat="42.51666" lon="2.49305">
        <ele>1664.6</ele>
        <time>2024-07-14T07:23:49Z</time>
      </trkpt>
      <trkpt lat="42.51666" lon="2.49306">
        <ele>1664.4</ele>
        <time>2024-07-14T07:23:50Z</time>
      </trkpt>
      <trkpt lat="42.51673" lon="2.49315">
        <ele>1663.2</ele>
        <time>2024-07-14T07:23:58Z</time>
      </trkpt>
      <trkpt lat="42.51674" lon="2.49318">
        <ele>1663.2</ele>
        <time>2024-07-14T07:24:00Z</time>
      </trkpt>
      <trkpt lat="42.51674" lon="2.49322">
        <ele>1662.8</ele>
        <time>2024-07-14T07:24:03Z</time>
      </trkpt>
      <trkpt lat="42.51673" lon="2.49323">
        <ele>1662.6</ele>
        <time>2024-07-14T07:24:04Z</time>
      </trkpt>
      <trkpt lat="42.51669" lon="2.49336">
        <ele>1661.8</ele>
        <time>2024-07-14T07:24:12Z</time>
      </trkpt>
      <trkpt lat="42.51663" lon="2.49346">
        <ele>1662.8</ele>
        <time>2024-07-14T07:24:21Z</time>
      </trkpt>
      <trkpt lat="42.51655" lon="2.49348">
        <ele>1662.6</ele>
        <time>2024-07-14T07:24:29Z</time>
      </trkpt>
      <trkpt lat="42.51645" lon="2.49345">
        <ele>1659.2</ele>
        <time>2024-07-14T07:24:38Z</time>
      </trkpt>
      <trkpt lat="42.51636" lon="2.49341">
        <ele>1657.8</ele>
        <time>2024-07-14T07:24:46Z</time>
      </trkpt>
      <trkpt lat="42.51636" lon="2.49343">
        <ele>1657.8</ele>
        <time>2024-07-14T07:24:48Z</time>
      </trkpt>
      <trkpt lat="42.51637" lon="2.49347">
        <ele>1657.8</ele>
        <time>2024-07-14T07:24:51Z</time>
      </trkpt>
      <trkpt lat="42.51638" lon="2.49349">
        <ele>1658</ele>
        <time>2024-07-14T07:24:52Z</time>
      </trkpt>
      <trkpt lat="42.51635" lon="2.49353">
        <ele>1658.2</ele>
        <time>2024-07-14T07:24:57Z</time>
      </trkpt>
      <trkpt lat="42.51634" lon="2.49353">
        <ele>1658.6</ele>
        <time>2024-07-14T07:24:58Z</time>
      </trkpt>
      <trkpt lat="42.51628" lon="2.49357">
        <ele>1660</ele>
        <time>2024-07-14T07:25:04Z</time>
      </trkpt>
      <trkpt lat="42.5162" lon="2.49361">
        <ele>1661.4</ele>
        <time>2024-07-14T07:25:11Z</time>
      </trkpt>
      <trkpt lat="42.51617" lon="2.49363">
        <ele>1662.8</ele>
        <time>2024-07-14T07:25:15Z</time>
      </trkpt>
      <trkpt lat="42.51616" lon="2.49364">
        <ele>1663.2</ele>
        <time>2024-07-14T07:25:17Z</time>
      </trkpt>
      <trkpt lat="42.51616" lon="2.49365">
        <ele>1663.2</ele>
        <time>2024-07-14T07:25:18Z</time>
      </trkpt>
      <trkpt lat="42.51621" lon="2.49375">
        <ele>1662.2</ele>
        <time>2024-07-14T07:25:27Z</time>
      </trkpt>
      <trkpt lat="42.5163" lon="2.49378">
        <ele>1661.4</ele>
        <time>2024-07-14T07:25:35Z</time>
      </trkpt>
      <trkpt lat="42.51633" lon="2.49383">
        <ele>1660.8</ele>
        <time>2024-07-14T07:25:42Z</time>
      </trkpt>
      <trkpt lat="42.51634" lon="2.49387">
        <ele>1660.6</ele>
        <time>2024-07-14T07:25:45Z</time>
      </trkpt>
      <trkpt lat="42.51634" lon="2.49392">
        <ele>1660.6</ele>
        <time>2024-07-14T07:25:48Z</time>
      </trkpt>
      <trkpt lat="42.51628" lon="2.49405">
        <ele>1659</ele>
        <time>2024-07-14T07:25:57Z</time>
      </trkpt>
      <trkpt lat="42.5162" lon="2.49413">
        <ele>1658.2</ele>
        <time>2024-07-14T07:26:05Z</time>
      </trkpt>
      <trkpt lat="42.51617" lon="2.49416">
        <ele>1658.4</ele>
        <time>2024-07-14T07:26:08Z</time>
      </trkpt>
      <trkpt lat="42.51616" lon="2.49423">
        <ele>1658.6</ele>
        <time>2024-07-14T07:26:12Z</time>
      </trkpt>
      <trkpt lat="42.51616" lon="2.49428">
        <ele>1658.8</ele>
        <time>2024-07-14T07:26:15Z</time>
      </trkpt>
      <trkpt lat="42.51613" lon="2.49436">
        <ele>1660</ele>
        <time>2024-07-14T07:26:20Z</time>
      </trkpt>
      <trkpt lat="42.51607" lon="2.49452">
        <ele>1660.8</ele>
        <time>2024-07-14T07:26:30Z</time>
      </trkpt>
      <trkpt lat="42.51605" lon="2.49456">
        <ele>1660.6</ele>
        <time>2024-07-14T07:26:33Z</time>
      </trkpt>
      <trkpt lat="42.51602" lon="2.49462">
        <ele>1659.8</ele>
        <time>2024-07-14T07:26:37Z</time>
      </trkpt>
      <trkpt lat="42.51599" lon="2.49474">
        <ele>1659.6</ele>
        <time>2024-07-14T07:26:45Z</time>
      </trkpt>
      <trkpt lat="42.516" lon="2.49488">
        <ele>1660.2</ele>
        <time>2024-07-14T07:26:53Z</time>
      </trkpt>
      <trkpt lat="42.51599" lon="2.49501">
        <ele>1660</ele>
        <time>2024-07-14T07:27:01Z</time>
      </trkpt>
      <trkpt lat="42.516" lon="2.49513">
        <ele>1658.4</ele>
        <time>2024-07-14T07:27:08Z</time>
      </trkpt>
      <trkpt lat="42.51597" lon="2.4953">
        <ele>1657</ele>
        <time>2024-07-14T07:27:18Z</time>
      </trkpt>
      <trkpt lat="42.51595" lon="2.49539">
        <ele>1656.6</ele>
        <time>2024-07-14T07:27:24Z</time>
      </trkpt>
      <trkpt lat="42.51592" lon="2.4954">
        <ele>1657</ele>
        <time>2024-07-14T07:27:26Z</time>
      </trkpt>
      <trkpt lat="42.51592" lon="2.49543">
        <ele>1657.6</ele>
        <time>2024-07-14T07:27:28Z</time>
      </trkpt>
      <trkpt lat="42.51595" lon="2.49546">
        <ele>1658.2</ele>
        <time>2024-07-14T07:27:31Z</time>
      </trkpt>
      <trkpt lat="42.51598" lon="2.49549">
        <ele>1658.6</ele>
        <time>2024-07-14T07:27:35Z</time>
      </trkpt>
      <trkpt lat="42.51599" lon="2.49551">
        <ele>1658.8</ele>
        <time>2024-07-14T07:27:37Z</time>
      </trkpt>
      <trkpt lat="42.51599" lon="2.49552">
        <ele>1658.6</ele>
        <time>2024-07-14T07:27:38Z</time>
      </trkpt>
      <trkpt lat="42.51609" lon="2.49561">
        <ele>1658.6</ele>
        <time>2024-07-14T07:27:45Z</time>
      </trkpt>
      <trkpt lat="42.51616" lon="2.49572">
        <ele>1659</ele>
        <time>2024-07-14T07:27:53Z</time>
      </trkpt>
      <trkpt lat="42.51622" lon="2.4958">
        <ele>1659</ele>
        <time>2024-07-14T07:28:00Z</time>
      </trkpt>
      <trkpt lat="42.51629" lon="2.49588">
        <ele>1659.6</ele>
        <time>2024-07-14T07:28:10Z</time>
      </trkpt>
      <trkpt lat="42.51633" lon="2.49594">
        <ele>1660.4</ele>
        <time>2024-07-14T07:28:14Z</time>
      </trkpt>
      <trkpt lat="42.51636" lon="2.49599">
        <ele>1660.6</ele>
        <time>2024-07-14T07:28:17Z</time>
      </trkpt>
      <trkpt lat="42.51639" lon="2.49603">
        <ele>1660.8</ele>
        <time>2024-07-14T07:28:20Z</time>
      </trkpt>
      <trkpt lat="42.5164" lon="2.49605">
        <ele>1661</ele>
        <time>2024-07-14T07:28:23Z</time>
      </trkpt>
      <trkpt lat="42.51644" lon="2.49606">
        <ele>1664.8</ele>
        <time>2024-07-14T07:28:27Z</time>
      </trkpt>
      <trkpt lat="42.51651" lon="2.49611">
        <ele>1666.6</ele>
        <time>2024-07-14T07:28:30Z</time>
      </trkpt>
      <trkpt lat="42.51658" lon="2.49623">
        <ele>1668.2</ele>
        <time>2024-07-14T07:28:37Z</time>
      </trkpt>
      <trkpt lat="42.51664" lon="2.49632">
        <ele>1668.6</ele>
        <time>2024-07-14T07:28:44Z</time>
      </trkpt>
      <trkpt lat="42.51665" lon="2.49639">
        <ele>1669.4</ele>
        <time>2024-07-14T07:28:48Z</time>
      </trkpt>
      <trkpt lat="42.51669" lon="2.49645">
        <ele>1669.8</ele>
        <time>2024-07-14T07:28:51Z</time>
      </trkpt>
      <trkpt lat="42.51671" lon="2.49648">
        <ele>1670</ele>
        <time>2024-07-14T07:28:53Z</time>
      </trkpt>
      <trkpt lat="42.51672" lon="2.49659">
        <ele>1671.8</ele>
        <time>2024-07-14T07:28:59Z</time>
      </trkpt>
      <trkpt lat="42.51671" lon="2.49671">
        <ele>1673</ele>
        <time>2024-07-14T07:29:08Z</time>
      </trkpt>
      <trkpt lat="42.51672" lon="2.49676">
        <ele>1672</ele>
        <time>2024-07-14T07:29:11Z</time>
      </trkpt>
      <trkpt lat="42.51671" lon="2.4968">
        <ele>1671</ele>
        <time>2024-07-14T07:29:13Z</time>
      </trkpt>
      <trkpt lat="42.51671" lon="2.49681">
        <ele>1670.6</ele>
        <time>2024-07-14T07:29:14Z</time>
      </trkpt>
      <trkpt lat="42.51672" lon="2.49685">
        <ele>1669.6</ele>
        <time>2024-07-14T07:29:16Z</time>
      </trkpt>
      <trkpt lat="42.51674" lon="2.49698">
        <ele>1665.2</ele>
        <time>2024-07-14T07:29:24Z</time>
      </trkpt>
      <trkpt lat="42.51669" lon="2.49717">
        <ele>1661.4</ele>
        <time>2024-07-14T07:29:35Z</time>
      </trkpt>
      <trkpt lat="42.51668" lon="2.49723">
        <ele>1661.4</ele>
        <time>2024-07-14T07:29:40Z</time>
      </trkpt>
      <trkpt lat="42.51668" lon="2.49724">
        <ele>1661.6</ele>
        <time>2024-07-14T07:29:41Z</time>
      </trkpt>
      <trkpt lat="42.51671" lon="2.49726">
        <ele>1662.6</ele>
        <time>2024-07-14T07:29:44Z</time>
      </trkpt>
      <trkpt lat="42.51673" lon="2.49729">
        <ele>1663.4</ele>
        <time>2024-07-14T07:29:47Z</time>
      </trkpt>
      <trkpt lat="42.51674" lon="2.4973">
        <ele>1663.6</ele>
        <time>2024-07-14T07:29:48Z</time>
      </trkpt>
      <trkpt lat="42.51681" lon="2.49737">
        <ele>1663</ele>
        <time>2024-07-14T07:29:54Z</time>
      </trkpt>
      <trkpt lat="42.51682" lon="2.49739">
        <ele>1662.8</ele>
        <time>2024-07-14T07:29:55Z</time>
      </trkpt>
      <trkpt lat="42.51685" lon="2.49746">
        <ele>1662.2</ele>
        <time>2024-07-14T07:30:00Z</time>
      </trkpt>
      <trkpt lat="42.51689" lon="2.49758">
        <ele>1660.6</ele>
        <time>2024-07-14T07:30:07Z</time>
      </trkpt>
      <trkpt lat="42.51691" lon="2.49761">
        <ele>1661</ele>
        <time>2024-07-14T07:30:09Z</time>
      </trkpt>
      <trkpt lat="42.51692" lon="2.49766">
        <ele>1661.8</ele>
        <time>2024-07-14T07:30:12Z</time>
      </trkpt>
      <trkpt lat="42.51695" lon="2.49775">
        <ele>1662.2</ele>
        <time>2024-07-14T07:30:17Z</time>
      </trkpt>
      <trkpt lat="42.51696" lon="2.49778">
        <ele>1662.2</ele>
        <time>2024-07-14T07:30:19Z</time>
      </trkpt>
      <trkpt lat="42.51697" lon="2.49781">
        <ele>1662</ele>
        <time>2024-07-14T07:30:21Z</time>
      </trkpt>
      <trkpt lat="42.51696" lon="2.49784">
        <ele>1661.4</ele>
        <time>2024-07-14T07:30:23Z</time>
      </trkpt>
      <trkpt lat="42.51696" lon="2.49785">
        <ele>1661.2</ele>
        <time>2024-07-14T07:30:24Z</time>
      </trkpt>
      <trkpt lat="42.51697" lon="2.49792">
        <ele>1661</ele>
        <time>2024-07-14T07:30:29Z</time>
      </trkpt>
      <trkpt lat="42.51699" lon="2.49799">
        <ele>1660.6</ele>
        <time>2024-07-14T07:30:33Z</time>
      </trkpt>
      <trkpt lat="42.51699" lon="2.49801">
        <ele>1659.8</ele>
        <time>2024-07-14T07:30:35Z</time>
      </trkpt>
      <trkpt lat="42.517" lon="2.49805">
        <ele>1659</ele>
        <time>2024-07-14T07:30:37Z</time>
      </trkpt>
      <trkpt lat="42.51706" lon="2.49811">
        <ele>1657.2</ele>
        <time>2024-07-14T07:30:42Z</time>
      </trkpt>
      <trkpt lat="42.51709" lon="2.49815">
        <ele>1656.8</ele>
        <time>2024-07-14T07:30:46Z</time>
      </trkpt>
      <trkpt lat="42.51711" lon="2.4982">
        <ele>1656.8</ele>
        <time>2024-07-14T07:30:50Z</time>
      </trkpt>
      <trkpt lat="42.51711" lon="2.49821">
        <ele>1656.8</ele>
        <time>2024-07-14T07:30:51Z</time>
      </trkpt>
      <trkpt lat="42.51714" lon="2.4983">
        <ele>1656.2</ele>
        <time>2024-07-14T07:30:57Z</time>
      </trkpt>
      <trkpt lat="42.51713" lon="2.49832">
        <ele>1656</ele>
        <time>2024-07-14T07:30:58Z</time>
      </trkpt>
      <trkpt lat="42.51714" lon="2.49834">
        <ele>1655.8</ele>
        <time>2024-07-14T07:30:59Z</time>
      </trkpt>
      <trkpt lat="42.51718" lon="2.49841">
        <ele>1656</ele>
        <time>2024-07-14T07:31:05Z</time>
      </trkpt>
      <trkpt lat="42.51718" lon="2.49848">
        <ele>1657.2</ele>
        <time>2024-07-14T07:31:10Z</time>
      </trkpt>
      <trkpt lat="42.51719" lon="2.49852">
        <ele>1657.4</ele>
        <time>2024-07-14T07:31:12Z</time>
      </trkpt>
      <trkpt lat="42.51719" lon="2.49852">
        <ele>1657.4</ele>
        <time>2024-07-14T07:31:13Z</time>
      </trkpt>
      <trkpt lat="42.5172" lon="2.49858">
        <ele>1657</ele>
        <time>2024-07-14T07:31:17Z</time>
      </trkpt>
      <trkpt lat="42.5172" lon="2.49859">
        <ele>1656.8</ele>
        <time>2024-07-14T07:31:18Z</time>
      </trkpt>
      <trkpt lat="42.51721" lon="2.4986">
        <ele>1656.4</ele>
        <time>2024-07-14T07:31:25Z</time>
      </trkpt>
      <trkpt lat="42.51722" lon="2.49862">
        <ele>1656.4</ele>
        <time>2024-07-14T07:31:26Z</time>
      </trkpt>
      <trkpt lat="42.51725" lon="2.49871">
        <ele>1656.6</ele>
        <time>2024-07-14T07:31:31Z</time>
      </trkpt>
      <trkpt lat="42.51725" lon="2.49873">
        <ele>1656.6</ele>
        <time>2024-07-14T07:31:32Z</time>
      </trkpt>
      <trkpt lat="42.51728" lon="2.4988">
        <ele>1657.8</ele>
        <time>2024-07-14T07:31:38Z</time>
      </trkpt>
      <trkpt lat="42.51728" lon="2.4988">
        <ele>1658.4</ele>
        <time>2024-07-14T07:31:40Z</time>
      </trkpt>
      <trkpt lat="42.51729" lon="2.49883">
        <ele>1658.8</ele>
        <time>2024-07-14T07:31:42Z</time>
      </trkpt>
      <trkpt lat="42.51743" lon="2.49895">
        <ele>1660.2</ele>
        <time>2024-07-14T07:31:50Z</time>
      </trkpt>
      <trkpt lat="42.51749" lon="2.49908">
        <ele>1660.2</ele>
        <time>2024-07-14T07:32:00Z</time>
      </trkpt>
      <trkpt lat="42.51751" lon="2.49919">
        <ele>1659.8</ele>
        <time>2024-07-14T07:32:08Z</time>
      </trkpt>
      <trkpt lat="42.5175" lon="2.49929">
        <ele>1658</ele>
        <time>2024-07-14T07:32:15Z</time>
      </trkpt>
      <trkpt lat="42.5175" lon="2.49937">
        <ele>1658.4</ele>
        <time>2024-07-14T07:32:20Z</time>
      </trkpt>
      <trkpt lat="42.51751" lon="2.49939">
        <ele>1658.6</ele>
        <time>2024-07-14T07:32:21Z</time>
      </trkpt>
      <trkpt lat="42.51753" lon="2.49952">
        <ele>1660.8</ele>
        <time>2024-07-14T07:32:29Z</time>
      </trkpt>
      <trkpt lat="42.51755" lon="2.49966">
        <ele>1660.6</ele>
        <time>2024-07-14T07:32:38Z</time>
      </trkpt>
      <trkpt lat="42.51761" lon="2.49976">
        <ele>1660</ele>
        <time>2024-07-14T07:32:47Z</time>
      </trkpt>
      <trkpt lat="42.51767" lon="2.49989">
        <ele>1660.8</ele>
        <time>2024-07-14T07:32:55Z</time>
      </trkpt>
      <trkpt lat="42.51771" lon="2.49996">
        <ele>1663.6</ele>
        <time>2024-07-14T07:33:03Z</time>
      </trkpt>
      <trkpt lat="42.51775" lon="2.50004">
        <ele>1664.4</ele>
        <time>2024-07-14T07:33:10Z</time>
      </trkpt>
      <trkpt lat="42.51779" lon="2.50013">
        <ele>1663.8</ele>
        <time>2024-07-14T07:33:16Z</time>
      </trkpt>
      <trkpt lat="42.51779" lon="2.50024">
        <ele>1663.4</ele>
        <time>2024-07-14T07:33:22Z</time>
      </trkpt>
      <trkpt lat="42.51772" lon="2.50035">
        <ele>1661.8</ele>
        <time>2024-07-14T07:33:29Z</time>
      </trkpt>
      <trkpt lat="42.51767" lon="2.50042">
        <ele>1660</ele>
        <time>2024-07-14T07:33:37Z</time>
      </trkpt>
      <trkpt lat="42.5176" lon="2.50052">
        <ele>1661.2</ele>
        <time>2024-07-14T07:33:45Z</time>
      </trkpt>
      <trkpt lat="42.51752" lon="2.50062">
        <ele>1662.8</ele>
        <time>2024-07-14T07:33:53Z</time>
      </trkpt>
      <trkpt lat="42.51745" lon="2.5007">
        <ele>1664</ele>
        <time>2024-07-14T07:34:00Z</time>
      </trkpt>
      <trkpt lat="42.51744" lon="2.50074">
        <ele>1664.2</ele>
        <time>2024-07-14T07:34:06Z</time>
      </trkpt>
      <trkpt lat="42.51745" lon="2.50073">
        <ele>1664.2</ele>
        <time>2024-07-14T07:34:10Z</time>
      </trkpt>
      <trkpt lat="42.51744" lon="2.50071">
        <ele>1663</ele>
        <time>2024-07-14T07:34:15Z</time>
      </trkpt>
      <trkpt lat="42.51745" lon="2.5008">
        <ele>1660.4</ele>
        <time>2024-07-14T07:34:21Z</time>
      </trkpt>
      <trkpt lat="42.51744" lon="2.50085">
        <ele>1659.6</ele>
        <time>2024-07-14T07:34:23Z</time>
      </trkpt>
      <trkpt lat="42.51739" lon="2.5009">
        <ele>1658.8</ele>
        <time>2024-07-14T07:34:27Z</time>
      </trkpt>
      <trkpt lat="42.51733" lon="2.50094">
        <ele>1657.6</ele>
        <time>2024-07-14T07:34:34Z</time>
      </trkpt>
      <trkpt lat="42.51728" lon="2.50106">
        <ele>1654.8</ele>
        <time>2024-07-14T07:34:42Z</time>
      </trkpt>
      <trkpt lat="42.51727" lon="2.50108">
        <ele>1655</ele>
        <time>2024-07-14T07:34:44Z</time>
      </trkpt>
      <trkpt lat="42.51728" lon="2.50109">
        <ele>1656</ele>
        <time>2024-07-14T07:34:47Z</time>
      </trkpt>
      <trkpt lat="42.51728" lon="2.5011">
        <ele>1657.2</ele>
        <time>2024-07-14T07:34:51Z</time>
      </trkpt>
      <trkpt lat="42.51731" lon="2.5011">
        <ele>1658</ele>
        <time>2024-07-14T07:34:56Z</time>
      </trkpt>
      <trkpt lat="42.51733" lon="2.5011">
        <ele>1658.2</ele>
        <time>2024-07-14T07:34:57Z</time>
      </trkpt>
      <trkpt lat="42.51736" lon="2.5011">
        <ele>1659.4</ele>
        <time>2024-07-14T07:35:00Z</time>
      </trkpt>
      <trkpt lat="42.51739" lon="2.5011">
        <ele>1660.6</ele>
        <time>2024-07-14T07:35:02Z</time>
      </trkpt>
      <trkpt lat="42.51742" lon="2.5011">
        <ele>1662</ele>
        <time>2024-07-14T07:35:04Z</time>
      </trkpt>
      <trkpt lat="42.51743" lon="2.50112">
        <ele>1662.6</ele>
        <time>2024-07-14T07:35:05Z</time>
      </trkpt>
      <trkpt lat="42.51751" lon="2.50119">
        <ele>1664.6</ele>
        <time>2024-07-14T07:35:12Z</time>
      </trkpt>
      <trkpt lat="42.51759" lon="2.50126">
        <ele>1664.4</ele>
        <time>2024-07-14T07:35:20Z</time>
      </trkpt>
      <trkpt lat="42.51768" lon="2.50135">
        <ele>1664.4</ele>
        <time>2024-07-14T07:35:27Z</time>
      </trkpt>
      <trkpt lat="42.51773" lon="2.50142">
        <ele>1664.4</ele>
        <time>2024-07-14T07:35:30Z</time>
      </trkpt>
      <trkpt lat="42.51775" lon="2.50143">
        <ele>1664.4</ele>
        <time>2024-07-14T07:35:31Z</time>
      </trkpt>
      <trkpt lat="42.51777" lon="2.50145">
        <ele>1663.2</ele>
        <time>2024-07-14T07:35:34Z</time>
      </trkpt>
      <trkpt lat="42.51778" lon="2.50149">
        <ele>1662.8</ele>
        <time>2024-07-14T07:35:36Z</time>
      </trkpt>
      <trkpt lat="42.51785" lon="2.50153">
        <ele>1662.4</ele>
        <time>2024-07-14T07:35:43Z</time>
      </trkpt>
      <trkpt lat="42.51787" lon="2.50162">
        <ele>1662</ele>
        <time>2024-07-14T07:35:49Z</time>
      </trkpt>
      <trkpt lat="42.51788" lon="2.50163">
        <ele>1661.8</ele>
        <time>2024-07-14T07:35:50Z</time>
      </trkpt>
      <trkpt lat="42.51793" lon="2.50167">
        <ele>1661</ele>
        <time>2024-07-14T07:35:54Z</time>
      </trkpt>
      <trkpt lat="42.51795" lon="2.50171">
        <ele>1660.8</ele>
        <time>2024-07-14T07:35:57Z</time>
      </trkpt>
      <trkpt lat="42.51803" lon="2.50181">
        <ele>1660.4</ele>
        <time>2024-07-14T07:36:06Z</time>
      </trkpt>
      <trkpt lat="42.51808" lon="2.50191">
        <ele>1658.6</ele>
        <time>2024-07-14T07:36:14Z</time>
      </trkpt>
      <trkpt lat="42.51811" lon="2.50202">
        <ele>1658.2</ele>
        <time>2024-07-14T07:36:22Z</time>
      </trkpt>
      <trkpt lat="42.51815" lon="2.50214">
        <ele>1657.2</ele>
        <time>2024-07-14T07:36:28Z</time>
      </trkpt>
      <trkpt lat="42.51815" lon="2.50216">
        <ele>1657.4</ele>
        <time>2024-07-14T07:36:29Z</time>
      </trkpt>
      <trkpt lat="42.51816" lon="2.50221">
        <ele>1658.2</ele>
        <time>2024-07-14T07:36:33Z</time>
      </trkpt>
      <trkpt lat="42.51819" lon="2.50224">
        <ele>1658.6</ele>
        <time>2024-07-14T07:36:35Z</time>
      </trkpt>
      <trkpt lat="42.51823" lon="2.50235">
        <ele>1660.8</ele>
        <time>2024-07-14T07:36:43Z</time>
      </trkpt>
      <trkpt lat="42.51826" lon="2.50248">
        <ele>1662.8</ele>
        <time>2024-07-14T07:36:50Z</time>
      </trkpt>
      <trkpt lat="42.51827" lon="2.50248">
        <ele>1663</ele>
        <time>2024-07-14T07:36:51Z</time>
      </trkpt>
      <trkpt lat="42.51832" lon="2.50259">
        <ele>1662.8</ele>
        <time>2024-07-14T07:36:57Z</time>
      </trkpt>
      <trkpt lat="42.51835" lon="2.50276">
        <ele>1664</ele>
        <time>2024-07-14T07:37:05Z</time>
      </trkpt>
      <trkpt lat="42.51836" lon="2.50285">
        <ele>1664.2</ele>
        <time>2024-07-14T07:37:11Z</time>
      </trkpt>
      <trkpt lat="42.51837" lon="2.50292">
        <ele>1663.8</ele>
        <time>2024-07-14T07:37:16Z</time>
      </trkpt>
      <trkpt lat="42.51838" lon="2.50294">
        <ele>1663.6</ele>
        <time>2024-07-14T07:37:18Z</time>
      </trkpt>
      <trkpt lat="42.51839" lon="2.50295">
        <ele>1663.4</ele>
        <time>2024-07-14T07:37:19Z</time>
      </trkpt>
      <trkpt lat="42.51844" lon="2.50307">
        <ele>1662.2</ele>
        <time>2024-07-14T07:37:26Z</time>
      </trkpt>
      <trkpt lat="42.51847" lon="2.50316">
        <ele>1661</ele>
        <time>2024-07-14T07:37:32Z</time>
      </trkpt>
      <trkpt lat="42.51849" lon="2.50323">
        <ele>1657.8</ele>
        <time>2024-07-14T07:37:37Z</time>
      </trkpt>
      <trkpt lat="42.51849" lon="2.50325">
        <ele>1656.8</ele>
        <time>2024-07-14T07:37:39Z</time>
      </trkpt>
      <trkpt lat="42.5185" lon="2.50336">
        <ele>1655.8</ele>
        <time>2024-07-14T07:37:48Z</time>
      </trkpt>
      <trkpt lat="42.51852" lon="2.50347">
        <ele>1656.8</ele>
        <time>2024-07-14T07:37:58Z</time>
      </trkpt>
      <trkpt lat="42.51851" lon="2.50351">
        <ele>1656.8</ele>
        <time>2024-07-14T07:38:02Z</time>
      </trkpt>
      <trkpt lat="42.51851" lon="2.50354">
        <ele>1656.6</ele>
        <time>2024-07-14T07:38:04Z</time>
      </trkpt>
      <trkpt lat="42.51851" lon="2.50355">
        <ele>1656.6</ele>
        <time>2024-07-14T07:38:05Z</time>
      </trkpt>
      <trkpt lat="42.51851" lon="2.50362">
        <ele>1655</ele>
        <time>2024-07-14T07:38:10Z</time>
      </trkpt>
      <trkpt lat="42.51849" lon="2.50371">
        <ele>1653.6</ele>
        <time>2024-07-14T07:38:15Z</time>
      </trkpt>
      <trkpt lat="42.51848" lon="2.50373">
        <ele>1653.4</ele>
        <time>2024-07-14T07:38:17Z</time>
      </trkpt>
      <trkpt lat="42.51851" lon="2.50376">
        <ele>1654.6</ele>
        <time>2024-07-14T07:38:22Z</time>
      </trkpt>
      <trkpt lat="42.51852" lon="2.50377">
        <ele>1655.2</ele>
        <time>2024-07-14T07:38:23Z</time>
      </trkpt>
      <trkpt lat="42.51857" lon="2.50386">
        <ele>1657.8</ele>
        <time>2024-07-14T07:38:30Z</time>
      </trkpt>
      <trkpt lat="42.51859" lon="2.50393">
        <ele>1658.6</ele>
        <time>2024-07-14T07:38:34Z</time>
      </trkpt>
      <trkpt lat="42.5186" lon="2.50398">
        <ele>1659.6</ele>
        <time>2024-07-14T07:38:37Z</time>
      </trkpt>
      <trkpt lat="42.51862" lon="2.50407">
        <ele>1660.8</ele>
        <time>2024-07-14T07:38:43Z</time>
      </trkpt>
      <trkpt lat="42.51864" lon="2.50415">
        <ele>1661.2</ele>
        <time>2024-07-14T07:38:51Z</time>
      </trkpt>
      <trkpt lat="42.51867" lon="2.50423">
        <ele>1661.2</ele>
        <time>2024-07-14T07:38:57Z</time>
      </trkpt>
      <trkpt lat="42.51868" lon="2.50429">
        <ele>1661.6</ele>
        <time>2024-07-14T07:39:03Z</time>
      </trkpt>
      <trkpt lat="42.51872" lon="2.50434">
        <ele>1661.8</ele>
        <time>2024-07-14T07:39:08Z</time>
      </trkpt>
      <trkpt lat="42.51875" lon="2.50442">
        <ele>1662.4</ele>
        <time>2024-07-14T07:39:13Z</time>
      </trkpt>
      <trkpt lat="42.51876" lon="2.50445">
        <ele>1662.4</ele>
        <time>2024-07-14T07:39:15Z</time>
      </trkpt>
      <trkpt lat="42.51878" lon="2.50451">
        <ele>1660.2</ele>
        <time>2024-07-14T07:39:21Z</time>
      </trkpt>
      <trkpt lat="42.51879" lon="2.50456">
        <ele>1659</ele>
        <time>2024-07-14T07:39:24Z</time>
      </trkpt>
      <trkpt lat="42.51879" lon="2.50459">
        <ele>1658.6</ele>
        <time>2024-07-14T07:39:26Z</time>
      </trkpt>
      <trkpt lat="42.51882" lon="2.5047">
        <ele>1660.4</ele>
        <time>2024-07-14T07:39:34Z</time>
      </trkpt>
      <trkpt lat="42.51884" lon="2.50472">
        <ele>1660.8</ele>
        <time>2024-07-14T07:39:35Z</time>
      </trkpt>
      <trkpt lat="42.51886" lon="2.50477">
        <ele>1661.6</ele>
        <time>2024-07-14T07:39:38Z</time>
      </trkpt>
      <trkpt lat="42.51887" lon="2.50482">
        <ele>1662.4</ele>
        <time>2024-07-14T07:39:40Z</time>
      </trkpt>
      <trkpt lat="42.5189" lon="2.50495">
        <ele>1664.8</ele>
        <time>2024-07-14T07:39:47Z</time>
      </trkpt>
      <trkpt lat="42.5189" lon="2.50496">
        <ele>1665</ele>
        <time>2024-07-14T07:39:48Z</time>
      </trkpt>
      <trkpt lat="42.51891" lon="2.50498">
        <ele>1665.4</ele>
        <time>2024-07-14T07:39:50Z</time>
      </trkpt>
      <trkpt lat="42.51889" lon="2.505">
        <ele>1665.4</ele>
        <time>2024-07-14T07:39:52Z</time>
      </trkpt>
      <trkpt lat="42.51891" lon="2.50505">
        <ele>1664.4</ele>
        <time>2024-07-14T07:39:56Z</time>
      </trkpt>
      <trkpt lat="42.51891" lon="2.50507">
        <ele>1664.2</ele>
        <time>2024-07-14T07:39:57Z</time>
      </trkpt>
      <trkpt lat="42.51891" lon="2.50513">
        <ele>1663.8</ele>
        <time>2024-07-14T07:40:00Z</time>
      </trkpt>
      <trkpt lat="42.51894" lon="2.5052">
        <ele>1663.4</ele>
        <time>2024-07-14T07:40:04Z</time>
      </trkpt>
      <trkpt lat="42.51895" lon="2.50522">
        <ele>1663.2</ele>
        <time>2024-07-14T07:40:05Z</time>
      </trkpt>
      <trkpt lat="42.51898" lon="2.50526">
        <ele>1663</ele>
        <time>2024-07-14T07:40:08Z</time>
      </trkpt>
      <trkpt lat="42.51898" lon="2.50527">
        <ele>1662.8</ele>
        <time>2024-07-14T07:40:09Z</time>
      </trkpt>
      <trkpt lat="42.51902" lon="2.50535">
        <ele>1663.4</ele>
        <time>2024-07-14T07:40:16Z</time>
      </trkpt>
      <trkpt lat="42.51903" lon="2.50536">
        <ele>1663.4</ele>
        <time>2024-07-14T07:40:17Z</time>
      </trkpt>
      <trkpt lat="42.51903" lon="2.5054">
        <ele>1663.2</ele>
        <time>2024-07-14T07:40:19Z</time>
      </trkpt>
      <trkpt lat="42.51903" lon="2.50542">
        <ele>1662.6</ele>
        <time>2024-07-14T07:40:22Z</time>
      </trkpt>
      <trkpt lat="42.51903" lon="2.50543">
        <ele>1662.4</ele>
        <time>2024-07-14T07:40:23Z</time>
      </trkpt>
      <trkpt lat="42.51903" lon="2.50545">
        <ele>1662</ele>
        <time>2024-07-14T07:40:25Z</time>
      </trkpt>
      <trkpt lat="42.51905" lon="2.50549">
        <ele>1659.8</ele>
        <time>2024-07-14T07:40:30Z</time>
      </trkpt>
      <trkpt lat="42.51911" lon="2.50555">
        <ele>1657.2</ele>
        <time>2024-07-14T07:40:36Z</time>
      </trkpt>
      <trkpt lat="42.51915" lon="2.50564">
        <ele>1655</ele>
        <time>2024-07-14T07:40:43Z</time>
      </trkpt>
      <trkpt lat="42.51923" lon="2.50575">
        <ele>1655.8</ele>
        <time>2024-07-14T07:40:51Z</time>
      </trkpt>
      <trkpt lat="42.51929" lon="2.50586">
        <ele>1656</ele>
        <time>2024-07-14T07:40:59Z</time>
      </trkpt>
      <trkpt lat="42.51932" lon="2.50588">
        <ele>1656</ele>
        <time>2024-07-14T07:41:02Z</time>
      </trkpt>
      <trkpt lat="42.51933" lon="2.50593">
        <ele>1655.2</ele>
        <time>2024-07-14T07:41:05Z</time>
      </trkpt>
      <trkpt lat="42.51936" lon="2.50597">
        <ele>1654</ele>
        <time>2024-07-14T07:41:08Z</time>
      </trkpt>
      <trkpt lat="42.51938" lon="2.50602">
        <ele>1652.6</ele>
        <time>2024-07-14T07:41:12Z</time>
      </trkpt>
      <trkpt lat="42.51943" lon="2.5061">
        <ele>1653.2</ele>
        <time>2024-07-14T07:41:17Z</time>
      </trkpt>
      <trkpt lat="42.51942" lon="2.50614">
        <ele>1654</ele>
        <time>2024-07-14T07:41:20Z</time>
      </trkpt>
      <trkpt lat="42.51946" lon="2.50623">
        <ele>1656.8</ele>
        <time>2024-07-14T07:41:25Z</time>
      </trkpt>
      <trkpt lat="42.51947" lon="2.5063">
        <ele>1659.4</ele>
        <time>2024-07-14T07:41:28Z</time>
      </trkpt>
      <trkpt lat="42.51947" lon="2.50639">
        <ele>1660.8</ele>
        <time>2024-07-14T07:41:34Z</time>
      </trkpt>
      <trkpt lat="42.51946" lon="2.50642">
        <ele>1660.6</ele>
        <time>2024-07-14T07:41:36Z</time>
      </trkpt>
      <trkpt lat="42.5195" lon="2.50654">
        <ele>1660.2</ele>
        <time>2024-07-14T07:41:43Z</time>
      </trkpt>
      <trkpt lat="42.51952" lon="2.50666">
        <ele>1660.4</ele>
        <time>2024-07-14T07:41:50Z</time>
      </trkpt>
      <trkpt lat="42.51951" lon="2.50668">
        <ele>1660.6</ele>
        <time>2024-07-14T07:41:52Z</time>
      </trkpt>
      <trkpt lat="42.51951" lon="2.50674">
        <ele>1660.4</ele>
        <time>2024-07-14T07:41:57Z</time>
      </trkpt>
      <trkpt lat="42.51951" lon="2.50679">
        <ele>1660.2</ele>
        <time>2024-07-14T07:41:59Z</time>
      </trkpt>
      <trkpt lat="42.51951" lon="2.50684">
        <ele>1661</ele>
        <time>2024-07-14T07:42:02Z</time>
      </trkpt>
      <trkpt lat="42.51949" lon="2.50694">
        <ele>1660</ele>
        <time>2024-07-14T07:42:09Z</time>
      </trkpt>
      <trkpt lat="42.51948" lon="2.50706">
        <ele>1657.6</ele>
        <time>2024-07-14T07:42:16Z</time>
      </trkpt>
      <trkpt lat="42.51949" lon="2.5072">
        <ele>1658.8</ele>
        <time>2024-07-14T07:42:24Z</time>
      </trkpt>
      <trkpt lat="42.51949" lon="2.50722">
        <ele>1659</ele>
        <time>2024-07-14T07:42:25Z</time>
      </trkpt>
      <trkpt lat="42.51949" lon="2.5073">
        <ele>1660</ele>
        <time>2024-07-14T07:42:29Z</time>
      </trkpt>
      <trkpt lat="42.5195" lon="2.50732">
        <ele>1660</ele>
        <time>2024-07-14T07:42:30Z</time>
      </trkpt>
      <trkpt lat="42.51948" lon="2.50743">
        <ele>1660.6</ele>
        <time>2024-07-14T07:42:36Z</time>
      </trkpt>
      <trkpt lat="42.51948" lon="2.50744">
        <ele>1660.8</ele>
        <time>2024-07-14T07:42:37Z</time>
      </trkpt>
      <trkpt lat="42.51947" lon="2.50747">
        <ele>1660.8</ele>
        <time>2024-07-14T07:42:39Z</time>
      </trkpt>
      <trkpt lat="42.51947" lon="2.50751">
        <ele>1661</ele>
        <time>2024-07-14T07:42:42Z</time>
      </trkpt>
      <trkpt lat="42.51942" lon="2.50761">
        <ele>1662.4</ele>
        <time>2024-07-14T07:42:50Z</time>
      </trkpt>
      <trkpt lat="42.51941" lon="2.50764">
        <ele>1662.6</ele>
        <time>2024-07-14T07:42:52Z</time>
      </trkpt>
      <trkpt lat="42.51939" lon="2.5077">
        <ele>1663</ele>
        <time>2024-07-14T07:42:56Z</time>
      </trkpt>
      <trkpt lat="42.51937" lon="2.50774">
        <ele>1662.8</ele>
        <time>2024-07-14T07:42:58Z</time>
      </trkpt>
      <trkpt lat="42.51939" lon="2.50782">
        <ele>1662.4</ele>
        <time>2024-07-14T07:43:02Z</time>
      </trkpt>
      <trkpt lat="42.5194" lon="2.5079">
        <ele>1662</ele>
        <time>2024-07-14T07:43:08Z</time>
      </trkpt>
      <trkpt lat="42.51939" lon="2.50791">
        <ele>1662</ele>
        <time>2024-07-14T07:43:09Z</time>
      </trkpt>
      <trkpt lat="42.51937" lon="2.50794">
        <ele>1662.8</ele>
        <time>2024-07-14T07:43:13Z</time>
      </trkpt>
      <trkpt lat="42.51938" lon="2.50796">
        <ele>1663</ele>
        <time>2024-07-14T07:43:20Z</time>
      </trkpt>
      <trkpt lat="42.51934" lon="2.50806">
        <ele>1660.6</ele>
        <time>2024-07-14T07:43:27Z</time>
      </trkpt>
      <trkpt lat="42.5193" lon="2.50812">
        <ele>1659.2</ele>
        <time>2024-07-14T07:43:33Z</time>
      </trkpt>
      <trkpt lat="42.51924" lon="2.50819">
        <ele>1657.4</ele>
        <time>2024-07-14T07:43:39Z</time>
      </trkpt>
      <trkpt lat="42.51923" lon="2.5082">
        <ele>1656.8</ele>
        <time>2024-07-14T07:43:40Z</time>
      </trkpt>
      <trkpt lat="42.51917" lon="2.50828">
        <ele>1654</ele>
        <time>2024-07-14T07:43:49Z</time>
      </trkpt>
      <trkpt lat="42.51917" lon="2.50835">
        <ele>1653.8</ele>
        <time>2024-07-14T07:43:54Z</time>
      </trkpt>
      <trkpt lat="42.51917" lon="2.50841">
        <ele>1653.6</ele>
        <time>2024-07-14T07:43:57Z</time>
      </trkpt>
      <trkpt lat="42.51917" lon="2.50843">
        <ele>1653.8</ele>
        <time>2024-07-14T07:43:58Z</time>
      </trkpt>
      <trkpt lat="42.51916" lon="2.50852">
        <ele>1653.6</ele>
        <time>2024-07-14T07:44:03Z</time>
      </trkpt>
      <trkpt lat="42.51916" lon="2.50854">
        <ele>1653.6</ele>
        <time>2024-07-14T07:44:04Z</time>
      </trkpt>
      <trkpt lat="42.51915" lon="2.50858">
        <ele>1653.4</ele>
        <time>2024-07-14T07:44:06Z</time>
      </trkpt>
      <trkpt lat="42.51915" lon="2.50865">
        <ele>1653.2</ele>
        <time>2024-07-14T07:44:10Z</time>
      </trkpt>
      <trkpt lat="42.51917" lon="2.50872">
        <ele>1653.6</ele>
        <time>2024-07-14T07:44:16Z</time>
      </trkpt>
      <trkpt lat="42.51914" lon="2.50881">
        <ele>1654.4</ele>
        <time>2024-07-14T07:44:23Z</time>
      </trkpt>
      <trkpt lat="42.51913" lon="2.50882">
        <ele>1654.4</ele>
        <time>2024-07-14T07:44:24Z</time>
      </trkpt>
      <trkpt lat="42.51907" lon="2.50888">
        <ele>1653.8</ele>
        <time>2024-07-14T07:44:30Z</time>
      </trkpt>
      <trkpt lat="42.519" lon="2.50901">
        <ele>1654</ele>
        <time>2024-07-14T07:44:41Z</time>
      </trkpt>
      <trkpt lat="42.51897" lon="2.50902">
        <ele>1656</ele>
        <time>2024-07-14T07:44:48Z</time>
      </trkpt>
      <trkpt lat="42.51894" lon="2.50908">
        <ele>1657.4</ele>
        <time>2024-07-14T07:44:54Z</time>
      </trkpt>
      <trkpt lat="42.51885" lon="2.50914">
        <ele>1658.2</ele>
        <time>2024-07-14T07:45:01Z</time>
      </trkpt>
      <trkpt lat="42.51874" lon="2.50915">
        <ele>1657.8</ele>
        <time>2024-07-14T07:45:09Z</time>
      </trkpt>
      <trkpt lat="42.51872" lon="2.50914">
        <ele>1657.8</ele>
        <time>2024-07-14T07:45:10Z</time>
      </trkpt>
      <trkpt lat="42.51871" lon="2.50913">
        <ele>1658.4</ele>
        <time>2024-07-14T07:45:13Z</time>
      </trkpt>
      <trkpt lat="42.51868" lon="2.5091">
        <ele>1659.8</ele>
        <time>2024-07-14T07:45:20Z</time>
      </trkpt>
      <trkpt lat="42.51864" lon="2.50907">
        <ele>1660.4</ele>
        <time>2024-07-14T07:45:27Z</time>
      </trkpt>
      <trkpt lat="42.51862" lon="2.50908">
        <ele>1659.6</ele>
        <time>2024-07-14T07:45:36Z</time>
      </trkpt>
      <trkpt lat="42.51861" lon="2.50908">
        <ele>1658.2</ele>
        <time>2024-07-14T07:45:48Z</time>
      </trkpt>
      <trkpt lat="42.51852" lon="2.50909">
        <ele>1658</ele>
        <time>2024-07-14T07:45:55Z</time>
      </trkpt>
      <trkpt lat="42.5185" lon="2.50909">
        <ele>1658</ele>
        <time>2024-07-14T07:45:56Z</time>
      </trkpt>
      <trkpt lat="42.51846" lon="2.50908">
        <ele>1658.2</ele>
        <time>2024-07-14T07:46:00Z</time>
      </trkpt>
      <trkpt lat="42.51843" lon="2.50909">
        <ele>1658.8</ele>
        <time>2024-07-14T07:46:03Z</time>
      </trkpt>
      <trkpt lat="42.51832" lon="2.50912">
        <ele>1659.2</ele>
        <time>2024-07-14T07:46:10Z</time>
      </trkpt>
      <trkpt lat="42.51826" lon="2.50915">
        <ele>1662</ele>
        <time>2024-07-14T07:46:19Z</time>
      </trkpt>
      <trkpt lat="42.51821" lon="2.50916">
        <ele>1663.8</ele>
        <time>2024-07-14T07:46:22Z</time>
      </trkpt>
      <trkpt lat="42.51817" lon="2.50917">
        <ele>1665.2</ele>
        <time>2024-07-14T07:46:25Z</time>
      </trkpt>
      <trkpt lat="42.51815" lon="2.50917">
        <ele>1665.8</ele>
        <time>2024-07-14T07:46:27Z</time>
      </trkpt>
      <trkpt lat="42.51811" lon="2.50919">
        <ele>1666.4</ele>
        <time>2024-07-14T07:46:31Z</time>
      </trkpt>
      <trkpt lat="42.51809" lon="2.5092">
        <ele>1666.8</ele>
        <time>2024-07-14T07:46:32Z</time>
      </trkpt>
      <trkpt lat="42.51805" lon="2.50925">
        <ele>1667.4</ele>
        <time>2024-07-14T07:46:37Z</time>
      </trkpt>
      <trkpt lat="42.51798" lon="2.50929">
        <ele>1668.8</ele>
        <time>2024-07-14T07:46:44Z</time>
      </trkpt>
      <trkpt lat="42.51792" lon="2.50928">
        <ele>1668.4</ele>
        <time>2024-07-14T07:46:49Z</time>
      </trkpt>
      <trkpt lat="42.51788" lon="2.50927">
        <ele>1668</ele>
        <time>2024-07-14T07:46:51Z</time>
      </trkpt>
      <trkpt lat="42.51784" lon="2.50927">
        <ele>1664.8</ele>
        <time>2024-07-14T07:46:56Z</time>
      </trkpt>
      <trkpt lat="42.51781" lon="2.50927">
        <ele>1663.6</ele>
        <time>2024-07-14T07:46:58Z</time>
      </trkpt>
      <trkpt lat="42.5178" lon="2.50928">
        <ele>1663</ele>
        <time>2024-07-14T07:46:59Z</time>
      </trkpt>
      <trkpt lat="42.51773" lon="2.50931">
        <ele>1661.4</ele>
        <time>2024-07-14T07:47:04Z</time>
      </trkpt>
      <trkpt lat="42.51767" lon="2.50935">
        <ele>1661.6</ele>
        <time>2024-07-14T07:47:09Z</time>
      </trkpt>
      <trkpt lat="42.51766" lon="2.50936">
        <ele>1661.6</ele>
        <time>2024-07-14T07:47:10Z</time>
      </trkpt>
      <trkpt lat="42.51757" lon="2.5094">
        <ele>1662.4</ele>
        <time>2024-07-14T07:47:17Z</time>
      </trkpt>
      <trkpt lat="42.51753" lon="2.50941">
        <ele>1663.4</ele>
        <time>2024-07-14T07:47:20Z</time>
      </trkpt>
      <trkpt lat="42.5175" lon="2.50942">
        <ele>1663.8</ele>
        <time>2024-07-14T07:47:23Z</time>
      </trkpt>
      <trkpt lat="42.51746" lon="2.50947">
        <ele>1663.8</ele>
        <time>2024-07-14T07:47:27Z</time>
      </trkpt>
      <trkpt lat="42.5174" lon="2.50949">
        <ele>1663.6</ele>
        <time>2024-07-14T07:47:31Z</time>
      </trkpt>
      <trkpt lat="42.51732" lon="2.50955">
        <ele>1663.6</ele>
        <time>2024-07-14T07:47:39Z</time>
      </trkpt>
      <trkpt lat="42.5173" lon="2.50955">
        <ele>1664</ele>
        <time>2024-07-14T07:47:41Z</time>
      </trkpt>
      <trkpt lat="42.51726" lon="2.50959">
        <ele>1665</ele>
        <time>2024-07-14T07:47:45Z</time>
      </trkpt>
      <trkpt lat="42.51726" lon="2.50963">
        <ele>1665</ele>
        <time>2024-07-14T07:47:52Z</time>
      </trkpt>
      <trkpt lat="42.51728" lon="2.50964">
        <ele>1664</ele>
        <time>2024-07-14T07:47:54Z</time>
      </trkpt>
      <trkpt lat="42.51732" lon="2.50967">
        <ele>1661.4</ele>
        <time>2024-07-14T07:47:58Z</time>
      </trkpt>
      <trkpt lat="42.51733" lon="2.50969">
        <ele>1660.8</ele>
        <time>2024-07-14T07:47:59Z</time>
      </trkpt>
      <trkpt lat="42.51735" lon="2.50976">
        <ele>1657.8</ele>
        <time>2024-07-14T07:48:04Z</time>
      </trkpt>
      <trkpt lat="42.51739" lon="2.50982">
        <ele>1657</ele>
        <time>2024-07-14T07:48:08Z</time>
      </trkpt>
      <trkpt lat="42.5174" lon="2.50986">
        <ele>1656.6</ele>
        <time>2024-07-14T07:48:11Z</time>
      </trkpt>
      <trkpt lat="42.51744" lon="2.50999">
        <ele>1657.2</ele>
        <time>2024-07-14T07:48:19Z</time>
      </trkpt>
      <trkpt lat="42.51744" lon="2.51">
        <ele>1657.4</ele>
        <time>2024-07-14T07:48:20Z</time>
      </trkpt>
      <trkpt lat="42.51744" lon="2.51005">
        <ele>1658</ele>
        <time>2024-07-14T07:48:23Z</time>
      </trkpt>
      <trkpt lat="42.51747" lon="2.51013">
        <ele>1658.8</ele>
        <time>2024-07-14T07:48:26Z</time>
      </trkpt>
      <trkpt lat="42.51749" lon="2.51019">
        <ele>1659.6</ele>
        <time>2024-07-14T07:48:30Z</time>
      </trkpt>
      <trkpt lat="42.51748" lon="2.51025">
        <ele>1661.6</ele>
        <time>2024-07-14T07:48:34Z</time>
      </trkpt>
      <trkpt lat="42.51748" lon="2.51038">
        <ele>1664.6</ele>
        <time>2024-07-14T07:48:41Z</time>
      </trkpt>
      <trkpt lat="42.51748" lon="2.51039">
        <ele>1665</ele>
        <time>2024-07-14T07:48:42Z</time>
      </trkpt>
      <trkpt lat="42.51749" lon="2.51052">
        <ele>1667</ele>
        <time>2024-07-14T07:48:47Z</time>
      </trkpt>
      <trkpt lat="42.51749" lon="2.51054">
        <ele>1667.2</ele>
        <time>2024-07-14T07:48:48Z</time>
      </trkpt>
      <trkpt lat="42.5175" lon="2.51066">
        <ele>1666.2</ele>
        <time>2024-07-14T07:48:56Z</time>
      </trkpt>
      <trkpt lat="42.51751" lon="2.51071">
        <ele>1666</ele>
        <time>2024-07-14T07:48:59Z</time>
      </trkpt>
      <trkpt lat="42.51751" lon="2.5108">
        <ele>1665.6</ele>
        <time>2024-07-14T07:49:03Z</time>
      </trkpt>
      <trkpt lat="42.51748" lon="2.51089">
        <ele>1665</ele>
        <time>2024-07-14T07:49:10Z</time>
      </trkpt>
      <trkpt lat="42.51749" lon="2.51091">
        <ele>1664.8</ele>
        <time>2024-07-14T07:49:12Z</time>
      </trkpt>
      <trkpt lat="42.5175" lon="2.511">
        <ele>1663.2</ele>
        <time>2024-07-14T07:49:18Z</time>
      </trkpt>
      <trkpt lat="42.51751" lon="2.51103">
        <ele>1663.2</ele>
        <time>2024-07-14T07:49:20Z</time>
      </trkpt>
      <trkpt lat="42.51752" lon="2.51108">
        <ele>1663.4</ele>
        <time>2024-07-14T07:49:23Z</time>
      </trkpt>
      <trkpt lat="42.51752" lon="2.5111">
        <ele>1663.4</ele>
        <time>2024-07-14T07:49:25Z</time>
      </trkpt>
      <trkpt lat="42.51753" lon="2.51111">
        <ele>1663.4</ele>
        <time>2024-07-14T07:49:26Z</time>
      </trkpt>
      <trkpt lat="42.51752" lon="2.51113">
        <ele>1663.4</ele>
        <time>2024-07-14T07:49:28Z</time>
      </trkpt>
      <trkpt lat="42.51746" lon="2.51118">
        <ele>1662.6</ele>
        <time>2024-07-14T07:49:31Z</time>
      </trkpt>
      <trkpt lat="42.51746" lon="2.51126">
        <ele>1660</ele>
        <time>2024-07-14T07:49:35Z</time>
      </trkpt>
      <trkpt lat="42.51746" lon="2.51129">
        <ele>1659.2</ele>
        <time>2024-07-14T07:49:37Z</time>
      </trkpt>
      <trkpt lat="42.51747" lon="2.51133">
        <ele>1658.6</ele>
        <time>2024-07-14T07:49:40Z</time>
      </trkpt>
      <trkpt lat="42.51747" lon="2.51137">
        <ele>1658.6</ele>
        <time>2024-07-14T07:49:43Z</time>
      </trkpt>
      <trkpt lat="42.51747" lon="2.5114">
        <ele>1658.6</ele>
        <time>2024-07-14T07:49:45Z</time>
      </trkpt>
      <trkpt lat="42.51746" lon="2.51148">
        <ele>1658.6</ele>
        <time>2024-07-14T07:49:49Z</time>
      </trkpt>
      <trkpt lat="42.51745" lon="2.51155">
        <ele>1658</ele>
        <time>2024-07-14T07:49:53Z</time>
      </trkpt>
      <trkpt lat="42.51743" lon="2.51158">
        <ele>1657.6</ele>
        <time>2024-07-14T07:49:55Z</time>
      </trkpt>
      <trkpt lat="42.51734" lon="2.51169">
        <ele>1657.6</ele>
        <time>2024-07-14T07:50:04Z</time>
      </trkpt>
      <trkpt lat="42.51727" lon="2.51181">
        <ele>1660</ele>
        <time>2024-07-14T07:50:13Z</time>
      </trkpt>
      <trkpt lat="42.5172" lon="2.51189">
        <ele>1662.6</ele>
        <time>2024-07-14T07:50:20Z</time>
      </trkpt>
      <trkpt lat="42.51718" lon="2.51194">
        <ele>1664</ele>
        <time>2024-07-14T07:50:23Z</time>
      </trkpt>
      <trkpt lat="42.51716" lon="2.51201">
        <ele>1665.8</ele>
        <time>2024-07-14T07:50:27Z</time>
      </trkpt>
      <trkpt lat="42.51716" lon="2.51203">
        <ele>1666</ele>
        <time>2024-07-14T07:50:29Z</time>
      </trkpt>
      <trkpt lat="42.51714" lon="2.51209">
        <ele>1665.8</ele>
        <time>2024-07-14T07:50:33Z</time>
      </trkpt>
      <trkpt lat="42.51709" lon="2.51214">
        <ele>1664.4</ele>
        <time>2024-07-14T07:50:36Z</time>
      </trkpt>
      <trkpt lat="42.51707" lon="2.51222">
        <ele>1662.4</ele>
        <time>2024-07-14T07:50:40Z</time>
      </trkpt>
      <trkpt lat="42.51708" lon="2.51226">
        <ele>1661.6</ele>
        <time>2024-07-14T07:50:42Z</time>
      </trkpt>
      <trkpt lat="42.51704" lon="2.51238">
        <ele>1662.2</ele>
        <time>2024-07-14T07:50:49Z</time>
      </trkpt>
      <trkpt lat="42.51704" lon="2.51245">
        <ele>1662.8</ele>
        <time>2024-07-14T07:50:53Z</time>
      </trkpt>
      <trkpt lat="42.51701" lon="2.5125">
        <ele>1662.4</ele>
        <time>2024-07-14T07:50:56Z</time>
      </trkpt>
      <trkpt lat="42.517" lon="2.51256">
        <ele>1661.6</ele>
        <time>2024-07-14T07:51:02Z</time>
      </trkpt>
      <trkpt lat="42.51694" lon="2.51272">
        <ele>1662.4</ele>
        <time>2024-07-14T07:51:09Z</time>
      </trkpt>
      <trkpt lat="42.5169" lon="2.51278">
        <ele>1664.2</ele>
        <time>2024-07-14T07:51:14Z</time>
      </trkpt>
      <trkpt lat="42.5169" lon="2.5128">
        <ele>1664.4</ele>
        <time>2024-07-14T07:51:15Z</time>
      </trkpt>
      <trkpt lat="42.51688" lon="2.51288">
        <ele>1662.8</ele>
        <time>2024-07-14T07:51:20Z</time>
      </trkpt>
      <trkpt lat="42.51687" lon="2.5129">
        <ele>1662.2</ele>
        <time>2024-07-14T07:51:22Z</time>
      </trkpt>
      <trkpt lat="42.51676" lon="2.51296">
        <ele>1662.2</ele>
        <time>2024-07-14T07:51:30Z</time>
      </trkpt>
      <trkpt lat="42.51675" lon="2.51305">
        <ele>1662</ele>
        <time>2024-07-14T07:51:33Z</time>
      </trkpt>
      <trkpt lat="42.5167" lon="2.51309">
        <ele>1660.4</ele>
        <time>2024-07-14T07:51:37Z</time>
      </trkpt>
      <trkpt lat="42.51668" lon="2.51309">
        <ele>1659.4</ele>
        <time>2024-07-14T07:51:41Z</time>
      </trkpt>
      <trkpt lat="42.51666" lon="2.5131">
        <ele>1659.4</ele>
        <time>2024-07-14T07:51:42Z</time>
      </trkpt>
      <trkpt lat="42.51663" lon="2.51312">
        <ele>1659.8</ele>
        <time>2024-07-14T07:51:44Z</time>
      </trkpt>
      <trkpt lat="42.51652" lon="2.51314">
        <ele>1660.4</ele>
        <time>2024-07-14T07:51:48Z</time>
      </trkpt>
      <trkpt lat="42.51648" lon="2.51315">
        <ele>1660.4</ele>
        <time>2024-07-14T07:51:51Z</time>
      </trkpt>
      <trkpt lat="42.51646" lon="2.51313">
        <ele>1659.6</ele>
        <time>2024-07-14T07:51:53Z</time>
      </trkpt>
      <trkpt lat="42.51644" lon="2.51314">
        <ele>1659</ele>
        <time>2024-07-14T07:51:54Z</time>
      </trkpt>
      <trkpt lat="42.51639" lon="2.51308">
        <ele>1656.4</ele>
        <time>2024-07-14T07:51:59Z</time>
      </trkpt>
      <trkpt lat="42.51639" lon="2.51304">
        <ele>1656</ele>
        <time>2024-07-14T07:52:01Z</time>
      </trkpt>
      <trkpt lat="42.51635" lon="2.51304">
        <ele>1656.6</ele>
        <time>2024-07-14T07:52:05Z</time>
      </trkpt>
      <trkpt lat="42.51635" lon="2.51303">
        <ele>1656.8</ele>
        <time>2024-07-14T07:52:06Z</time>
      </trkpt>
      <trkpt lat="42.51627" lon="2.513">
        <ele>1657.8</ele>
        <time>2024-07-14T07:52:12Z</time>
      </trkpt>
      <trkpt lat="42.51624" lon="2.51301">
        <ele>1658</ele>
        <time>2024-07-14T07:52:16Z</time>
      </trkpt>
      <trkpt lat="42.51623" lon="2.51303">
        <ele>1658.6</ele>
        <time>2024-07-14T07:52:18Z</time>
      </trkpt>
      <trkpt lat="42.51614" lon="2.51307">
        <ele>1661.6</ele>
        <time>2024-07-14T07:52:23Z</time>
      </trkpt>
      <trkpt lat="42.5161" lon="2.51306">
        <ele>1662.4</ele>
        <time>2024-07-14T07:52:26Z</time>
      </trkpt>
      <trkpt lat="42.51609" lon="2.51306">
        <ele>1662.4</ele>
        <time>2024-07-14T07:52:28Z</time>
      </trkpt>
      <trkpt lat="42.51606" lon="2.51309">
        <ele>1662.6</ele>
        <time>2024-07-14T07:52:30Z</time>
      </trkpt>
      <trkpt lat="42.51593" lon="2.51309">
        <ele>1664.2</ele>
        <time>2024-07-14T07:52:36Z</time>
      </trkpt>
      <trkpt lat="42.51584" lon="2.51306">
        <ele>1664</ele>
        <time>2024-07-14T07:52:42Z</time>
      </trkpt>
      <trkpt lat="42.51582" lon="2.51306">
        <ele>1663.8</ele>
        <time>2024-07-14T07:52:44Z</time>
      </trkpt>
      <trkpt lat="42.51578" lon="2.5131">
        <ele>1663.8</ele>
        <time>2024-07-14T07:52:48Z</time>
      </trkpt>
      <trkpt lat="42.51573" lon="2.5131">
        <ele>1667.2</ele>
        <time>2024-07-14T07:52:53Z</time>
      </trkpt>
      <trkpt lat="42.5157" lon="2.51311">
        <ele>1672</ele>
        <time>2024-07-14T07:53:00Z</time>
      </trkpt>
      <trkpt lat="42.51566" lon="2.51315">
        <ele>1673</ele>
        <time>2024-07-14T07:53:04Z</time>
      </trkpt>
      <trkpt lat="42.51565" lon="2.51316">
        <ele>1673.4</ele>
        <time>2024-07-14T07:53:06Z</time>
      </trkpt>
      <trkpt lat="42.51559" lon="2.51319">
        <ele>1672</ele>
        <time>2024-07-14T07:53:13Z</time>
      </trkpt>
      <trkpt lat="42.51553" lon="2.51327">
        <ele>1671.2</ele>
        <time>2024-07-14T07:53:20Z</time>
      </trkpt>
      <trkpt lat="42.51543" lon="2.51336">
        <ele>1670</ele>
        <time>2024-07-14T07:53:28Z</time>
      </trkpt>
      <trkpt lat="42.51535" lon="2.51339">
        <ele>1669.6</ele>
        <time>2024-07-14T07:53:34Z</time>
      </trkpt>
      <trkpt lat="42.51533" lon="2.51342">
        <ele>1668.4</ele>
        <time>2024-07-14T07:53:36Z</time>
      </trkpt>
      <trkpt lat="42.51529" lon="2.51347">
        <ele>1666.6</ele>
        <time>2024-07-14T07:53:40Z</time>
      </trkpt>
      <trkpt lat="42.5153" lon="2.51354">
        <ele>1667.2</ele>
        <time>2024-07-14T07:53:45Z</time>
      </trkpt>
      <trkpt lat="42.51529" lon="2.51356">
        <ele>1667.2</ele>
        <time>2024-07-14T07:53:47Z</time>
      </trkpt>
      <trkpt lat="42.51522" lon="2.51362">
        <ele>1667.2</ele>
        <time>2024-07-14T07:53:53Z</time>
      </trkpt>
      <trkpt lat="42.51518" lon="2.5136">
        <ele>1665.8</ele>
        <time>2024-07-14T07:53:56Z</time>
      </trkpt>
      <trkpt lat="42.51515" lon="2.5136">
        <ele>1664.4</ele>
        <time>2024-07-14T07:53:58Z</time>
      </trkpt>
      <trkpt lat="42.51512" lon="2.51359">
        <ele>1663</ele>
        <time>2024-07-14T07:54:01Z</time>
      </trkpt>
      <trkpt lat="42.51508" lon="2.51358">
        <ele>1662</ele>
        <time>2024-07-14T07:54:04Z</time>
      </trkpt>
      <trkpt lat="42.51501" lon="2.51361">
        <ele>1660.4</ele>
        <time>2024-07-14T07:54:08Z</time>
      </trkpt>
      <trkpt lat="42.515" lon="2.51364">
        <ele>1660</ele>
        <time>2024-07-14T07:54:11Z</time>
      </trkpt>
      <trkpt lat="42.51492" lon="2.5137">
        <ele>1662</ele>
        <time>2024-07-14T07:54:19Z</time>
      </trkpt>
      <trkpt lat="42.5149" lon="2.5137">
        <ele>1662</ele>
        <time>2024-07-14T07:54:20Z</time>
      </trkpt>
      <trkpt lat="42.51489" lon="2.51371">
        <ele>1661.4</ele>
        <time>2024-07-14T07:54:23Z</time>
      </trkpt>
      <trkpt lat="42.51483" lon="2.51372">
        <ele>1660.8</ele>
        <time>2024-07-14T07:54:29Z</time>
      </trkpt>
      <trkpt lat="42.51475" lon="2.51372">
        <ele>1660.8</ele>
        <time>2024-07-14T07:54:36Z</time>
      </trkpt>
      <trkpt lat="42.51474" lon="2.51373">
        <ele>1660.8</ele>
        <time>2024-07-14T07:54:39Z</time>
      </trkpt>
      <trkpt lat="42.51473" lon="2.51376">
        <ele>1660.6</ele>
        <time>2024-07-14T07:54:42Z</time>
      </trkpt>
      <trkpt lat="42.51469" lon="2.51381">
        <ele>1661</ele>
        <time>2024-07-14T07:54:48Z</time>
      </trkpt>
      <trkpt lat="42.51467" lon="2.51386">
        <ele>1661</ele>
        <time>2024-07-14T07:54:53Z</time>
      </trkpt>
      <trkpt lat="42.51466" lon="2.51395">
        <ele>1660.2</ele>
        <time>2024-07-14T07:55:00Z</time>
      </trkpt>
      <trkpt lat="42.51465" lon="2.51399">
        <ele>1660</ele>
        <time>2024-07-14T07:55:03Z</time>
      </trkpt>
      <trkpt lat="42.51462" lon="2.51401">
        <ele>1659.4</ele>
        <time>2024-07-14T07:55:06Z</time>
      </trkpt>
      <trkpt lat="42.51461" lon="2.51402">
        <ele>1659.2</ele>
        <time>2024-07-14T07:55:07Z</time>
      </trkpt>
      <trkpt lat="42.5145" lon="2.51408">
        <ele>1661.2</ele>
        <time>2024-07-14T07:55:16Z</time>
      </trkpt>
      <trkpt lat="42.51442" lon="2.51411">
        <ele>1661.2</ele>
        <time>2024-07-14T07:55:23Z</time>
      </trkpt>
      <trkpt lat="42.51435" lon="2.51417">
        <ele>1660.6</ele>
        <time>2024-07-14T07:55:29Z</time>
      </trkpt>
      <trkpt lat="42.51433" lon="2.51419">
        <ele>1660.4</ele>
        <time>2024-07-14T07:55:31Z</time>
      </trkpt>
      <trkpt lat="42.51432" lon="2.51426">
        <ele>1659.2</ele>
        <time>2024-07-14T07:55:37Z</time>
      </trkpt>
      <trkpt lat="42.51431" lon="2.51429">
        <ele>1659</ele>
        <time>2024-07-14T07:55:38Z</time>
      </trkpt>
      <trkpt lat="42.51426" lon="2.51434">
        <ele>1660.2</ele>
        <time>2024-07-14T07:55:43Z</time>
      </trkpt>
      <trkpt lat="42.51426" lon="2.51435">
        <ele>1660.4</ele>
        <time>2024-07-14T07:55:44Z</time>
      </trkpt>
      <trkpt lat="42.51424" lon="2.51436">
        <ele>1660.6</ele>
        <time>2024-07-14T07:55:45Z</time>
      </trkpt>
      <trkpt lat="42.51421" lon="2.51436">
        <ele>1661</ele>
        <time>2024-07-14T07:55:47Z</time>
      </trkpt>
      <trkpt lat="42.51418" lon="2.51437">
        <ele>1660.6</ele>
        <time>2024-07-14T07:55:50Z</time>
      </trkpt>
      <trkpt lat="42.51416" lon="2.51439">
        <ele>1660</ele>
        <time>2024-07-14T07:55:52Z</time>
      </trkpt>
      <trkpt lat="42.5141" lon="2.51445">
        <ele>1659</ele>
        <time>2024-07-14T07:55:58Z</time>
      </trkpt>
      <trkpt lat="42.51409" lon="2.51446">
        <ele>1659</ele>
        <time>2024-07-14T07:55:59Z</time>
      </trkpt>
      <trkpt lat="42.514" lon="2.51451">
        <ele>1659.4</ele>
        <time>2024-07-14T07:56:06Z</time>
      </trkpt>
      <trkpt lat="42.51394" lon="2.51451">
        <ele>1660.8</ele>
        <time>2024-07-14T07:56:13Z</time>
      </trkpt>
      <trkpt lat="42.51388" lon="2.5145">
        <ele>1661.2</ele>
        <time>2024-07-14T07:56:20Z</time>
      </trkpt>
      <trkpt lat="42.51387" lon="2.51455">
        <ele>1659.4</ele>
        <time>2024-07-14T07:56:28Z</time>
      </trkpt>
      <trkpt lat="42.51392" lon="2.51461">
        <ele>1658.8</ele>
        <time>2024-07-14T07:56:34Z</time>
      </trkpt>
      <trkpt lat="42.514" lon="2.51469">
        <ele>1660</ele>
        <time>2024-07-14T07:56:41Z</time>
      </trkpt>
      <trkpt lat="42.5141" lon="2.51477">
        <ele>1661.8</ele>
        <time>2024-07-14T07:56:48Z</time>
      </trkpt>
      <trkpt lat="42.51411" lon="2.51478">
        <ele>1662</ele>
        <time>2024-07-14T07:56:49Z</time>
      </trkpt>
      <trkpt lat="42.51411" lon="2.51485">
        <ele>1663.6</ele>
        <time>2024-07-14T07:56:55Z</time>
      </trkpt>
      <trkpt lat="42.51416" lon="2.5149">
        <ele>1661.8</ele>
        <time>2024-07-14T07:57:03Z</time>
      </trkpt>
      <trkpt lat="42.5142" lon="2.51494">
        <ele>1659</ele>
        <time>2024-07-14T07:57:13Z</time>
      </trkpt>
      <trkpt lat="42.51422" lon="2.51496">
        <ele>1658.8</ele>
        <time>2024-07-14T07:57:16Z</time>
      </trkpt>
      <trkpt lat="42.51424" lon="2.51501">
        <ele>1659</ele>
        <time>2024-07-14T07:57:19Z</time>
      </trkpt>
      <trkpt lat="42.51425" lon="2.51502">
        <ele>1659.2</ele>
        <time>2024-07-14T07:57:20Z</time>
      </trkpt>
      <trkpt lat="42.51427" lon="2.51506">
        <ele>1659.4</ele>
        <time>2024-07-14T07:57:23Z</time>
      </trkpt>
      <trkpt lat="42.51428" lon="2.51511">
        <ele>1659.4</ele>
        <time>2024-07-14T07:57:27Z</time>
      </trkpt>
      <trkpt lat="42.51435" lon="2.51516">
        <ele>1660.8</ele>
        <time>2024-07-14T07:57:35Z</time>
      </trkpt>
      <trkpt lat="42.51442" lon="2.51517">
        <ele>1664.8</ele>
        <time>2024-07-14T07:57:41Z</time>
      </trkpt>
      <trkpt lat="42.51444" lon="2.51517">
        <ele>1665</ele>
        <time>2024-07-14T07:57:43Z</time>
      </trkpt>
      <trkpt lat="42.5145" lon="2.51522">
        <ele>1665.4</ele>
        <time>2024-07-14T07:57:48Z</time>
      </trkpt>
      <trkpt lat="42.51455" lon="2.51523">
        <ele>1666.4</ele>
        <time>2024-07-14T07:57:53Z</time>
      </trkpt>
      <trkpt lat="42.51459" lon="2.51521">
        <ele>1668.2</ele>
        <time>2024-07-14T07:58:01Z</time>
      </trkpt>
      <trkpt lat="42.51462" lon="2.51521">
        <ele>1667.4</ele>
        <time>2024-07-14T07:58:06Z</time>
      </trkpt>
      <trkpt lat="42.51464" lon="2.51523">
        <ele>1667.2</ele>
        <time>2024-07-14T07:58:08Z</time>
      </trkpt>
      <trkpt lat="42.51465" lon="2.51527">
        <ele>1667</ele>
        <time>2024-07-14T07:58:10Z</time>
      </trkpt>
      <trkpt lat="42.51465" lon="2.51528">
        <ele>1666.8</ele>
        <time>2024-07-14T07:58:11Z</time>
      </trkpt>
      <trkpt lat="42.51464" lon="2.51532">
        <ele>1666.6</ele>
        <time>2024-07-14T07:58:13Z</time>
      </trkpt>
      <trkpt lat="42.51462" lon="2.5154">
        <ele>1664.6</ele>
        <time>2024-07-14T07:58:18Z</time>
      </trkpt>
      <trkpt lat="42.51461" lon="2.51543">
        <ele>1663.6</ele>
        <time>2024-07-14T07:58:20Z</time>
      </trkpt>
      <trkpt lat="42.51463" lon="2.5155">
        <ele>1662.4</ele>
        <time>2024-07-14T07:58:23Z</time>
      </trkpt>
      <trkpt lat="42.51465" lon="2.51559">
        <ele>1660.8</ele>
        <time>2024-07-14T07:58:28Z</time>
      </trkpt>
      <trkpt lat="42.51463" lon="2.51563">
        <ele>1660.4</ele>
        <time>2024-07-14T07:58:31Z</time>
      </trkpt>
      <trkpt lat="42.51462" lon="2.51577">
        <ele>1660</ele>
        <time>2024-07-14T07:58:40Z</time>
      </trkpt>
      <trkpt lat="42.51463" lon="2.51578">
        <ele>1660</ele>
        <time>2024-07-14T07:58:41Z</time>
      </trkpt>
      <trkpt lat="42.51464" lon="2.51582">
        <ele>1660</ele>
        <time>2024-07-14T07:58:45Z</time>
      </trkpt>
      <trkpt lat="42.51464" lon="2.51582">
        <ele>1660</ele>
        <time>2024-07-14T07:58:46Z</time>
      </trkpt>
      <trkpt lat="42.51464" lon="2.51582">
        <ele>1660</ele>
        <time>2024-07-14T07:58:47Z</time>
      </trkpt>
      <trkpt lat="42.51464" lon="2.51585">
        <ele>1659.8</ele>
        <time>2024-07-14T07:58:49Z</time>
      </trkpt>
      <trkpt lat="42.51466" lon="2.51592">
        <ele>1658.6</ele>
        <time>2024-07-14T07:58:51Z</time>
      </trkpt>
      <trkpt lat="42.51467" lon="2.516">
        <ele>1657.4</ele>
        <time>2024-07-14T07:58:56Z</time>
      </trkpt>
      <trkpt lat="42.51468" lon="2.51603">
        <ele>1657.2</ele>
        <time>2024-07-14T07:58:58Z</time>
      </trkpt>
      <trkpt lat="42.51469" lon="2.51616">
        <ele>1656.8</ele>
        <time>2024-07-14T07:59:04Z</time>
      </trkpt>
      <trkpt lat="42.51471" lon="2.51618">
        <ele>1657.8</ele>
        <time>2024-07-14T07:59:10Z</time>
      </trkpt>
      <trkpt lat="42.51474" lon="2.51622">
        <ele>1659.6</ele>
        <time>2024-07-14T07:59:13Z</time>
      </trkpt>
      <trkpt lat="42.51473" lon="2.51627">
        <ele>1661.8</ele>
        <time>2024-07-14T07:59:17Z</time>
      </trkpt>
      <trkpt lat="42.51479" lon="2.51635">
        <ele>1662.4</ele>
        <time>2024-07-14T07:59:25Z</time>
      </trkpt>
      <trkpt lat="42.51484" lon="2.5164">
        <ele>1661.8</ele>
        <time>2024-07-14T07:59:32Z</time>
      </trkpt>
      <trkpt lat="42.51492" lon="2.51644">
        <ele>1659.2</ele>
        <time>2024-07-14T07:59:40Z</time>
      </trkpt>
      <trkpt lat="42.51497" lon="2.51645">
        <ele>1657</ele>
        <time>2024-07-14T07:59:47Z</time>
      </trkpt>
      <trkpt lat="42.5151" lon="2.51649">
        <ele>1657.8</ele>
        <time>2024-07-14T07:59:58Z</time>
      </trkpt>
      <trkpt lat="42.51517" lon="2.51654">
        <ele>1656.4</ele>
        <time>2024-07-14T08:00:06Z</time>
      </trkpt>
      <trkpt lat="42.51524" lon="2.51662">
        <ele>1653</ele>
        <time>2024-07-14T08:00:12Z</time>
      </trkpt>
      <trkpt lat="42.5153" lon="2.51666">
        <ele>1648.2</ele>
        <time>2024-07-14T08:00:18Z</time>
      </trkpt>
      <trkpt lat="42.51532" lon="2.51668">
        <ele>1647.6</ele>
        <time>2024-07-14T08:00:20Z</time>
      </trkpt>
      <trkpt lat="42.51536" lon="2.51671">
        <ele>1645.8</ele>
        <time>2024-07-14T08:00:25Z</time>
      </trkpt>
      <trkpt lat="42.51546" lon="2.51679">
        <ele>1645.2</ele>
        <time>2024-07-14T08:00:33Z</time>
      </trkpt>
      <trkpt lat="42.51557" lon="2.51687">
        <ele>1643.8</ele>
        <time>2024-07-14T08:00:42Z</time>
      </trkpt>
      <trkpt lat="42.51565" lon="2.51693">
        <ele>1642.4</ele>
        <time>2024-07-14T08:00:49Z</time>
      </trkpt>
      <trkpt lat="42.5157" lon="2.51702">
        <ele>1642.2</ele>
        <time>2024-07-14T08:00:56Z</time>
      </trkpt>
      <trkpt lat="42.51578" lon="2.5171">
        <ele>1640.8</ele>
        <time>2024-07-14T08:01:03Z</time>
      </trkpt>
      <trkpt lat="42.51584" lon="2.51716">
        <ele>1638.4</ele>
        <time>2024-07-14T08:01:09Z</time>
      </trkpt>
      <trkpt lat="42.51584" lon="2.51718">
        <ele>1638.2</ele>
        <time>2024-07-14T08:01:10Z</time>
      </trkpt>
      <trkpt lat="42.51585" lon="2.51721">
        <ele>1637.2</ele>
        <time>2024-07-14T08:01:12Z</time>
      </trkpt>
      <trkpt lat="42.51589" lon="2.51729">
        <ele>1635.6</ele>
        <time>2024-07-14T08:01:16Z</time>
      </trkpt>
      <trkpt lat="42.5159" lon="2.51738">
        <ele>1632.6</ele>
        <time>2024-07-14T08:01:22Z</time>
      </trkpt>
      <trkpt lat="42.51592" lon="2.51741">
        <ele>1630.2</ele>
        <time>2024-07-14T08:01:25Z</time>
      </trkpt>
      <trkpt lat="42.51595" lon="2.51747">
        <ele>1628.4</ele>
        <time>2024-07-14T08:01:28Z</time>
      </trkpt>
      <trkpt lat="42.51594" lon="2.51762">
        <ele>1627.4</ele>
        <time>2024-07-14T08:01:36Z</time>
      </trkpt>
      <trkpt lat="42.51592" lon="2.51768">
        <ele>1628</ele>
        <time>2024-07-14T08:01:40Z</time>
      </trkpt>
      <trkpt lat="42.51594" lon="2.51772">
        <ele>1628.6</ele>
        <time>2024-07-14T08:01:43Z</time>
      </trkpt>
      <trkpt lat="42.51594" lon="2.51773">
        <ele>1628.8</ele>
        <time>2024-07-14T08:01:44Z</time>
      </trkpt>
      <trkpt lat="42.51595" lon="2.51775">
        <ele>1628.8</ele>
        <time>2024-07-14T08:01:46Z</time>
      </trkpt>
      <trkpt lat="42.51595" lon="2.51776">
        <ele>1629</ele>
        <time>2024-07-14T08:01:47Z</time>
      </trkpt>
      <trkpt lat="42.51592" lon="2.51784">
        <ele>1627.2</ele>
        <time>2024-07-14T08:01:54Z</time>
      </trkpt>
      <trkpt lat="42.5159" lon="2.5179">
        <ele>1626</ele>
        <time>2024-07-14T08:02:00Z</time>
      </trkpt>
      <trkpt lat="42.5159" lon="2.51802">
        <ele>1624.4</ele>
        <time>2024-07-14T08:02:08Z</time>
      </trkpt>
      <trkpt lat="42.5159" lon="2.51808">
        <ele>1625.4</ele>
        <time>2024-07-14T08:02:11Z</time>
      </trkpt>
      <trkpt lat="42.51591" lon="2.51813">
        <ele>1626.2</ele>
        <time>2024-07-14T08:02:14Z</time>
      </trkpt>
      <trkpt lat="42.51592" lon="2.51817">
        <ele>1626.8</ele>
        <time>2024-07-14T08:02:16Z</time>
      </trkpt>
      <trkpt lat="42.51592" lon="2.51822">
        <ele>1628</ele>
        <time>2024-07-14T08:02:19Z</time>
      </trkpt>
      <trkpt lat="42.51592" lon="2.51832">
        <ele>1628.6</ele>
        <time>2024-07-14T08:02:26Z</time>
      </trkpt>
      <trkpt lat="42.51584" lon="2.51838">
        <ele>1626.8</ele>
        <time>2024-07-14T08:02:31Z</time>
      </trkpt>
      <trkpt lat="42.51581" lon="2.51841">
        <ele>1625.6</ele>
        <time>2024-07-14T08:02:33Z</time>
      </trkpt>
      <trkpt lat="42.5158" lon="2.51845">
        <ele>1623.8</ele>
        <time>2024-07-14T08:02:36Z</time>
      </trkpt>
      <trkpt lat="42.51579" lon="2.51847">
        <ele>1623.2</ele>
        <time>2024-07-14T08:02:38Z</time>
      </trkpt>
      <trkpt lat="42.51579" lon="2.51848">
        <ele>1623</ele>
        <time>2024-07-14T08:02:39Z</time>
      </trkpt>
      <trkpt lat="42.51578" lon="2.5185">
        <ele>1622.8</ele>
        <time>2024-07-14T08:02:41Z</time>
      </trkpt>
      <trkpt lat="42.51577" lon="2.51854">
        <ele>1622.6</ele>
        <time>2024-07-14T08:02:43Z</time>
      </trkpt>
      <trkpt lat="42.51576" lon="2.51856">
        <ele>1622.4</ele>
        <time>2024-07-14T08:02:44Z</time>
      </trkpt>
      <trkpt lat="42.5157" lon="2.51866">
        <ele>1621</ele>
        <time>2024-07-14T08:02:50Z</time>
      </trkpt>
      <trkpt lat="42.51563" lon="2.51881">
        <ele>1617.6</ele>
        <time>2024-07-14T08:02:58Z</time>
      </trkpt>
      <trkpt lat="42.51566" lon="2.51889">
        <ele>1617.2</ele>
        <time>2024-07-14T08:03:02Z</time>
      </trkpt>
      <trkpt lat="42.51567" lon="2.51894">
        <ele>1617.4</ele>
        <time>2024-07-14T08:03:05Z</time>
      </trkpt>
      <trkpt lat="42.51569" lon="2.51895">
        <ele>1620.2</ele>
        <time>2024-07-14T08:03:09Z</time>
      </trkpt>
      <trkpt lat="42.51572" lon="2.51895">
        <ele>1620.8</ele>
        <time>2024-07-14T08:03:10Z</time>
      </trkpt>
      <trkpt lat="42.5158" lon="2.51901">
        <ele>1621.8</ele>
        <time>2024-07-14T08:03:18Z</time>
      </trkpt>
      <trkpt lat="42.51582" lon="2.51903">
        <ele>1625.8</ele>
        <time>2024-07-14T08:03:24Z</time>
      </trkpt>
      <trkpt lat="42.51588" lon="2.5191">
        <ele>1627.4</ele>
        <time>2024-07-14T08:03:29Z</time>
      </trkpt>
      <trkpt lat="42.51591" lon="2.51917">
        <ele>1627.4</ele>
        <time>2024-07-14T08:03:33Z</time>
      </trkpt>
      <trkpt lat="42.51592" lon="2.51919">
        <ele>1625.8</ele>
        <time>2024-07-14T08:03:35Z</time>
      </trkpt>
      <trkpt lat="42.51593" lon="2.51923">
        <ele>1621.6</ele>
        <time>2024-07-14T08:03:39Z</time>
      </trkpt>
      <trkpt lat="42.51594" lon="2.51925">
        <ele>1620.6</ele>
        <time>2024-07-14T08:03:40Z</time>
      </trkpt>
      <trkpt lat="42.51596" lon="2.51931">
        <ele>1618</ele>
        <time>2024-07-14T08:03:44Z</time>
      </trkpt>
      <trkpt lat="42.51602" lon="2.51941">
        <ele>1615</ele>
        <time>2024-07-14T08:03:51Z</time>
      </trkpt>
      <trkpt lat="42.51609" lon="2.51948">
        <ele>1616.4</ele>
        <time>2024-07-14T08:03:58Z</time>
      </trkpt>
      <trkpt lat="42.51614" lon="2.51955">
        <ele>1620</ele>
        <time>2024-07-14T08:04:03Z</time>
      </trkpt>
      <trkpt lat="42.51615" lon="2.51957">
        <ele>1620.8</ele>
        <time>2024-07-14T08:04:05Z</time>
      </trkpt>
      <trkpt lat="42.51617" lon="2.51957">
        <ele>1621</ele>
        <time>2024-07-14T08:04:07Z</time>
      </trkpt>
      <trkpt lat="42.51619" lon="2.51957">
        <ele>1621</ele>
        <time>2024-07-14T08:04:10Z</time>
      </trkpt>
      <trkpt lat="42.51625" lon="2.51959">
        <ele>1620.4</ele>
        <time>2024-07-14T08:04:18Z</time>
      </trkpt>
      <trkpt lat="42.51633" lon="2.51963">
        <ele>1618.2</ele>
        <time>2024-07-14T08:04:24Z</time>
      </trkpt>
      <trkpt lat="42.5164" lon="2.51963">
        <ele>1617.6</ele>
        <time>2024-07-14T08:04:31Z</time>
      </trkpt>
      <trkpt lat="42.51643" lon="2.51965">
        <ele>1617</ele>
        <time>2024-07-14T08:04:33Z</time>
      </trkpt>
      <trkpt lat="42.51648" lon="2.51964">
        <ele>1615.6</ele>
        <time>2024-07-14T08:04:37Z</time>
      </trkpt>
      <trkpt lat="42.51654" lon="2.51967">
        <ele>1613.8</ele>
        <time>2024-07-14T08:04:41Z</time>
      </trkpt>
      <trkpt lat="42.51655" lon="2.51969">
        <ele>1612.8</ele>
        <time>2024-07-14T08:04:43Z</time>
      </trkpt>
      <trkpt lat="42.51662" lon="2.51981">
        <ele>1606.4</ele>
        <time>2024-07-14T08:04:51Z</time>
      </trkpt>
      <trkpt lat="42.51667" lon="2.51986">
        <ele>1603.4</ele>
        <time>2024-07-14T08:04:56Z</time>
      </trkpt>
      <trkpt lat="42.51668" lon="2.51987">
        <ele>1602.8</ele>
        <time>2024-07-14T08:04:57Z</time>
      </trkpt>
      <trkpt lat="42.51669" lon="2.51989">
        <ele>1602</ele>
        <time>2024-07-14T08:04:59Z</time>
      </trkpt>
      <trkpt lat="42.51674" lon="2.51993">
        <ele>1600.4</ele>
        <time>2024-07-14T08:05:04Z</time>
      </trkpt>
      <trkpt lat="42.51681" lon="2.51997">
        <ele>1597.6</ele>
        <time>2024-07-14T08:05:11Z</time>
      </trkpt>
      <trkpt lat="42.51682" lon="2.51998">
        <ele>1597.6</ele>
        <time>2024-07-14T08:05:12Z</time>
      </trkpt>
      <trkpt lat="42.51688" lon="2.52007">
        <ele>1599.2</ele>
        <time>2024-07-14T08:05:18Z</time>
      </trkpt>
      <trkpt lat="42.51692" lon="2.52011">
        <ele>1599.8</ele>
        <time>2024-07-14T08:05:21Z</time>
      </trkpt>
      <trkpt lat="42.51696" lon="2.52016">
        <ele>1599.8</ele>
        <time>2024-07-14T08:05:25Z</time>
      </trkpt>
      <trkpt lat="42.51697" lon="2.5202">
        <ele>1598.2</ele>
        <time>2024-07-14T08:05:28Z</time>
      </trkpt>
      <trkpt lat="42.51698" lon="2.52024">
        <ele>1595.8</ele>
        <time>2024-07-14T08:05:32Z</time>
      </trkpt>
      <trkpt lat="42.517" lon="2.52029">
        <ele>1594.8</ele>
        <time>2024-07-14T08:05:35Z</time>
      </trkpt>
      <trkpt lat="42.51701" lon="2.52032">
        <ele>1594.8</ele>
        <time>2024-07-14T08:05:37Z</time>
      </trkpt>
      <trkpt lat="42.51704" lon="2.52037">
        <ele>1595.4</ele>
        <time>2024-07-14T08:05:41Z</time>
      </trkpt>
      <trkpt lat="42.51704" lon="2.52038">
        <ele>1595.6</ele>
        <time>2024-07-14T08:05:42Z</time>
      </trkpt>
      <trkpt lat="42.51706" lon="2.52042">
        <ele>1596</ele>
        <time>2024-07-14T08:05:45Z</time>
      </trkpt>
      <trkpt lat="42.51706" lon="2.52043">
        <ele>1595.8</ele>
        <time>2024-07-14T08:05:46Z</time>
      </trkpt>
      <trkpt lat="42.51706" lon="2.52045">
        <ele>1594.8</ele>
        <time>2024-07-14T08:05:51Z</time>
      </trkpt>
      <trkpt lat="42.51707" lon="2.52045">
        <ele>1594</ele>
        <time>2024-07-14T08:06:01Z</time>
      </trkpt>
      <trkpt lat="42.51708" lon="2.52056">
        <ele>1597.6</ele>
        <time>2024-07-14T08:07:19Z</time>
      </trkpt>
      <trkpt lat="42.51709" lon="2.52067">
        <ele>1598.2</ele>
        <time>2024-07-14T08:07:27Z</time>
      </trkpt>
      <trkpt lat="42.5171" lon="2.52074">
        <ele>1597.4</ele>
        <time>2024-07-14T08:07:33Z</time>
      </trkpt>
      <trkpt lat="42.5171" lon="2.52075">
        <ele>1596</ele>
        <time>2024-07-14T08:07:42Z</time>
      </trkpt>
      <trkpt lat="42.51712" lon="2.52083">
        <ele>1595.2</ele>
        <time>2024-07-14T08:08:01Z</time>
      </trkpt>
      <trkpt lat="42.51712" lon="2.52091">
        <ele>1594</ele>
        <time>2024-07-14T08:08:05Z</time>
      </trkpt>
      <trkpt lat="42.51712" lon="2.52094">
        <ele>1593.2</ele>
        <time>2024-07-14T08:08:07Z</time>
      </trkpt>
      <trkpt lat="42.51713" lon="2.52108">
        <ele>1587.8</ele>
        <time>2024-07-14T08:08:16Z</time>
      </trkpt>
      <trkpt lat="42.51712" lon="2.52109">
        <ele>1587.4</ele>
        <time>2024-07-14T08:08:17Z</time>
      </trkpt>
      <trkpt lat="42.5171" lon="2.52113">
        <ele>1586.2</ele>
        <time>2024-07-14T08:08:20Z</time>
      </trkpt>
      <trkpt lat="42.51711" lon="2.52115">
        <ele>1586</ele>
        <time>2024-07-14T08:08:21Z</time>
      </trkpt>
      <trkpt lat="42.51711" lon="2.5212">
        <ele>1585</ele>
        <time>2024-07-14T08:08:24Z</time>
      </trkpt>
      <trkpt lat="42.51713" lon="2.52126">
        <ele>1584</ele>
        <time>2024-07-14T08:08:28Z</time>
      </trkpt>
      <trkpt lat="42.51714" lon="2.52129">
        <ele>1584.2</ele>
        <time>2024-07-14T08:08:30Z</time>
      </trkpt>
      <trkpt lat="42.51716" lon="2.52135">
        <ele>1584.8</ele>
        <time>2024-07-14T08:08:35Z</time>
      </trkpt>
      <trkpt lat="42.51713" lon="2.52145">
        <ele>1585</ele>
        <time>2024-07-14T08:08:40Z</time>
      </trkpt>
      <trkpt lat="42.51713" lon="2.52149">
        <ele>1584.6</ele>
        <time>2024-07-14T08:08:43Z</time>
      </trkpt>
      <trkpt lat="42.51712" lon="2.52154">
        <ele>1583.8</ele>
        <time>2024-07-14T08:08:46Z</time>
      </trkpt>
      <trkpt lat="42.51714" lon="2.52159">
        <ele>1582.4</ele>
        <time>2024-07-14T08:08:49Z</time>
      </trkpt>
      <trkpt lat="42.51715" lon="2.52164">
        <ele>1580.8</ele>
        <time>2024-07-14T08:08:52Z</time>
      </trkpt>
      <trkpt lat="42.51715" lon="2.52169">
        <ele>1579.8</ele>
        <time>2024-07-14T08:08:55Z</time>
      </trkpt>
      <trkpt lat="42.51715" lon="2.52178">
        <ele>1580.2</ele>
        <time>2024-07-14T08:09:02Z</time>
      </trkpt>
      <trkpt lat="42.51715" lon="2.52179">
        <ele>1580.4</ele>
        <time>2024-07-14T08:09:03Z</time>
      </trkpt>
      <trkpt lat="42.51715" lon="2.52183">
        <ele>1580.2</ele>
        <time>2024-07-14T08:09:05Z</time>
      </trkpt>
      <trkpt lat="42.51715" lon="2.52186">
        <ele>1580</ele>
        <time>2024-07-14T08:09:07Z</time>
      </trkpt>
      <trkpt lat="42.51715" lon="2.52189">
        <ele>1580</ele>
        <time>2024-07-14T08:09:09Z</time>
      </trkpt>
      <trkpt lat="42.51715" lon="2.52192">
        <ele>1579.8</ele>
        <time>2024-07-14T08:09:11Z</time>
      </trkpt>
      <trkpt lat="42.51714" lon="2.52199">
        <ele>1579.8</ele>
        <time>2024-07-14T08:09:15Z</time>
      </trkpt>
      <trkpt lat="42.51714" lon="2.52206">
        <ele>1579.8</ele>
        <time>2024-07-14T08:09:19Z</time>
      </trkpt>
      <trkpt lat="42.51714" lon="2.52211">
        <ele>1579</ele>
        <time>2024-07-14T08:09:22Z</time>
      </trkpt>
      <trkpt lat="42.51714" lon="2.52214">
        <ele>1578</ele>
        <time>2024-07-14T08:09:24Z</time>
      </trkpt>
      <trkpt lat="42.51714" lon="2.52217">
        <ele>1576.6</ele>
        <time>2024-07-14T08:09:27Z</time>
      </trkpt>
      <trkpt lat="42.51714" lon="2.52218">
        <ele>1576.4</ele>
        <time>2024-07-14T08:09:28Z</time>
      </trkpt>
      <trkpt lat="42.51713" lon="2.5222">
        <ele>1575.6</ele>
        <time>2024-07-14T08:09:30Z</time>
      </trkpt>
      <trkpt lat="42.51714" lon="2.52226">
        <ele>1574.8</ele>
        <time>2024-07-14T08:09:33Z</time>
      </trkpt>
      <trkpt lat="42.51712" lon="2.52236">
        <ele>1574.6</ele>
        <time>2024-07-14T08:09:38Z</time>
      </trkpt>
      <trkpt lat="42.51713" lon="2.52239">
        <ele>1574.8</ele>
        <time>2024-07-14T08:09:40Z</time>
      </trkpt>
      <trkpt lat="42.51713" lon="2.52246">
        <ele>1574.6</ele>
        <time>2024-07-14T08:09:44Z</time>
      </trkpt>
      <trkpt lat="42.51713" lon="2.5225">
        <ele>1574</ele>
        <time>2024-07-14T08:09:47Z</time>
      </trkpt>
      <trkpt lat="42.51711" lon="2.5226">
        <ele>1572.6</ele>
        <time>2024-07-14T08:09:54Z</time>
      </trkpt>
      <trkpt lat="42.51711" lon="2.52271">
        <ele>1571.2</ele>
        <time>2024-07-14T08:10:02Z</time>
      </trkpt>
      <trkpt lat="42.51712" lon="2.52275">
        <ele>1571</ele>
        <time>2024-07-14T08:10:04Z</time>
      </trkpt>
      <trkpt lat="42.51711" lon="2.52281">
        <ele>1570.8</ele>
        <time>2024-07-14T08:10:09Z</time>
      </trkpt>
      <trkpt lat="42.5171" lon="2.52294">
        <ele>1570.6</ele>
        <time>2024-07-14T08:10:15Z</time>
      </trkpt>
      <trkpt lat="42.51711" lon="2.52298">
        <ele>1571</ele>
        <time>2024-07-14T08:10:20Z</time>
      </trkpt>
      <trkpt lat="42.51711" lon="2.5231">
        <ele>1572.2</ele>
        <time>2024-07-14T08:10:26Z</time>
      </trkpt>
      <trkpt lat="42.51711" lon="2.52314">
        <ele>1572.2</ele>
        <time>2024-07-14T08:10:29Z</time>
      </trkpt>
      <trkpt lat="42.5171" lon="2.5232">
        <ele>1570.6</ele>
        <time>2024-07-14T08:10:33Z</time>
      </trkpt>
      <trkpt lat="42.5171" lon="2.52324">
        <ele>1569.2</ele>
        <time>2024-07-14T08:10:35Z</time>
      </trkpt>
      <trkpt lat="42.51709" lon="2.5233">
        <ele>1567.6</ele>
        <time>2024-07-14T08:10:39Z</time>
      </trkpt>
      <trkpt lat="42.51708" lon="2.52333">
        <ele>1567.2</ele>
        <time>2024-07-14T08:10:41Z</time>
      </trkpt>
      <trkpt lat="42.51708" lon="2.52339">
        <ele>1566.2</ele>
        <time>2024-07-14T08:10:46Z</time>
      </trkpt>
      <trkpt lat="42.51708" lon="2.52342">
        <ele>1566.2</ele>
        <time>2024-07-14T08:10:47Z</time>
      </trkpt>
      <trkpt lat="42.51708" lon="2.52343">
        <ele>1566.2</ele>
        <time>2024-07-14T08:10:48Z</time>
      </trkpt>
      <trkpt lat="42.51706" lon="2.52348">
        <ele>1566.4</ele>
        <time>2024-07-14T08:10:51Z</time>
      </trkpt>
      <trkpt lat="42.51706" lon="2.5235">
        <ele>1566.4</ele>
        <time>2024-07-14T08:10:52Z</time>
      </trkpt>
      <trkpt lat="42.51706" lon="2.52361">
        <ele>1566.2</ele>
        <time>2024-07-14T08:10:57Z</time>
      </trkpt>
      <trkpt lat="42.51705" lon="2.52364">
        <ele>1565.8</ele>
        <time>2024-07-14T08:10:59Z</time>
      </trkpt>
      <trkpt lat="42.51705" lon="2.5237">
        <ele>1565.4</ele>
        <time>2024-07-14T08:11:03Z</time>
      </trkpt>
      <trkpt lat="42.51703" lon="2.52381">
        <ele>1563.8</ele>
        <time>2024-07-14T08:11:10Z</time>
      </trkpt>
      <trkpt lat="42.51703" lon="2.52382">
        <ele>1563.2</ele>
        <time>2024-07-14T08:11:11Z</time>
      </trkpt>
      <trkpt lat="42.51706" lon="2.52391">
        <ele>1561.8</ele>
        <time>2024-07-14T08:11:16Z</time>
      </trkpt>
      <trkpt lat="42.51706" lon="2.52392">
        <ele>1561.6</ele>
        <time>2024-07-14T08:11:17Z</time>
      </trkpt>
      <trkpt lat="42.51706" lon="2.52394">
        <ele>1561.6</ele>
        <time>2024-07-14T08:11:18Z</time>
      </trkpt>
      <trkpt lat="42.51707" lon="2.52397">
        <ele>1561.2</ele>
        <time>2024-07-14T08:11:20Z</time>
      </trkpt>
      <trkpt lat="42.51708" lon="2.524">
        <ele>1560.8</ele>
        <time>2024-07-14T08:11:22Z</time>
      </trkpt>
      <trkpt lat="42.51707" lon="2.52401">
        <ele>1560.6</ele>
        <time>2024-07-14T08:11:23Z</time>
      </trkpt>
      <trkpt lat="42.51705" lon="2.52404">
        <ele>1560.2</ele>
        <time>2024-07-14T08:11:25Z</time>
      </trkpt>
      <trkpt lat="42.51703" lon="2.5241">
        <ele>1560</ele>
        <time>2024-07-14T08:11:28Z</time>
      </trkpt>
      <trkpt lat="42.51703" lon="2.52413">
        <ele>1560</ele>
        <time>2024-07-14T08:11:30Z</time>
      </trkpt>
      <trkpt lat="42.51702" lon="2.52423">
        <ele>1562.2</ele>
        <time>2024-07-14T08:11:36Z</time>
      </trkpt>
      <trkpt lat="42.51703" lon="2.52425">
        <ele>1562.6</ele>
        <time>2024-07-14T08:11:38Z</time>
      </trkpt>
      <trkpt lat="42.51705" lon="2.52427">
        <ele>1562.8</ele>
        <time>2024-07-14T08:11:40Z</time>
      </trkpt>
      <trkpt lat="42.51705" lon="2.52432">
        <ele>1563</ele>
        <time>2024-07-14T08:11:43Z</time>
      </trkpt>
      <trkpt lat="42.51704" lon="2.52447">
        <ele>1561.8</ele>
        <time>2024-07-14T08:11:50Z</time>
      </trkpt>
      <trkpt lat="42.51701" lon="2.52456">
        <ele>1557.6</ele>
        <time>2024-07-14T08:11:56Z</time>
      </trkpt>
      <trkpt lat="42.51701" lon="2.52459">
        <ele>1557</ele>
        <time>2024-07-14T08:11:58Z</time>
      </trkpt>
      <trkpt lat="42.51702" lon="2.52467">
        <ele>1556.4</ele>
        <time>2024-07-14T08:12:06Z</time>
      </trkpt>
      <trkpt lat="42.51705" lon="2.52465">
        <ele>1557.2</ele>
        <time>2024-07-14T08:12:13Z</time>
      </trkpt>
      <trkpt lat="42.51703" lon="2.52463">
        <ele>1556.2</ele>
        <time>2024-07-14T08:12:18Z</time>
      </trkpt>
      <trkpt lat="42.51702" lon="2.52457">
        <ele>1553</ele>
        <time>2024-07-14T08:12:24Z</time>
      </trkpt>
      <trkpt lat="42.51705" lon="2.5245">
        <ele>1546</ele>
        <time>2024-07-14T08:12:31Z</time>
      </trkpt>
      <trkpt lat="42.51708" lon="2.52443">
        <ele>1543.2</ele>
        <time>2024-07-14T08:12:36Z</time>
      </trkpt>
      <trkpt lat="42.51712" lon="2.52436">
        <ele>1543</ele>
        <time>2024-07-14T08:12:42Z</time>
      </trkpt>
      <trkpt lat="42.51716" lon="2.52428">
        <ele>1544.6</ele>
        <time>2024-07-14T08:12:48Z</time>
      </trkpt>
      <trkpt lat="42.51723" lon="2.52417">
        <ele>1547</ele>
        <time>2024-07-14T08:12:56Z</time>
      </trkpt>
      <trkpt lat="42.51725" lon="2.52416">
        <ele>1547.2</ele>
        <time>2024-07-14T08:12:57Z</time>
      </trkpt>
      <trkpt lat="42.51728" lon="2.52409">
        <ele>1547.6</ele>
        <time>2024-07-14T08:13:02Z</time>
      </trkpt>
      <trkpt lat="42.5173" lon="2.52399">
        <ele>1546.6</ele>
        <time>2024-07-14T08:13:10Z</time>
      </trkpt>
      <trkpt lat="42.51733" lon="2.52389">
        <ele>1545.8</ele>
        <time>2024-07-14T08:13:17Z</time>
      </trkpt>
      <trkpt lat="42.5173" lon="2.52382">
        <ele>1541.8</ele>
        <time>2024-07-14T08:13:22Z</time>
      </trkpt>
      <trkpt lat="42.51737" lon="2.52374">
        <ele>1539</ele>
        <time>2024-07-14T08:13:28Z</time>
      </trkpt>
      <trkpt lat="42.51742" lon="2.52367">
        <ele>1539</ele>
        <time>2024-07-14T08:13:33Z</time>
      </trkpt>
      <trkpt lat="42.51749" lon="2.5236">
        <ele>1538.8</ele>
        <time>2024-07-14T08:13:39Z</time>
      </trkpt>
      <trkpt lat="42.51748" lon="2.52356">
        <ele>1538.8</ele>
        <time>2024-07-14T08:13:40Z</time>
      </trkpt>
      <trkpt lat="42.51746" lon="2.52349">
        <ele>1538.6</ele>
        <time>2024-07-14T08:13:43Z</time>
      </trkpt>
      <trkpt lat="42.51747" lon="2.52345">
        <ele>1538</ele>
        <time>2024-07-14T08:13:47Z</time>
      </trkpt>
      <trkpt lat="42.51751" lon="2.52343">
        <ele>1536.4</ele>
        <time>2024-07-14T08:13:50Z</time>
      </trkpt>
      <trkpt lat="42.51753" lon="2.5234">
        <ele>1534.8</ele>
        <time>2024-07-14T08:13:52Z</time>
      </trkpt>
      <trkpt lat="42.51753" lon="2.52337">
        <ele>1533.8</ele>
        <time>2024-07-14T08:13:54Z</time>
      </trkpt>
      <trkpt lat="42.51755" lon="2.52333">
        <ele>1532.8</ele>
        <time>2024-07-14T08:13:56Z</time>
      </trkpt>
      <trkpt lat="42.51759" lon="2.52325">
        <ele>1530.4</ele>
        <time>2024-07-14T08:14:02Z</time>
      </trkpt>
      <trkpt lat="42.5176" lon="2.52322">
        <ele>1530</ele>
        <time>2024-07-14T08:14:04Z</time>
      </trkpt>
      <trkpt lat="42.51762" lon="2.52315">
        <ele>1529.8</ele>
        <time>2024-07-14T08:14:08Z</time>
      </trkpt>
      <trkpt lat="42.51763" lon="2.52311">
        <ele>1529.4</ele>
        <time>2024-07-14T08:14:11Z</time>
      </trkpt>
      <trkpt lat="42.51764" lon="2.52309">
        <ele>1529.2</ele>
        <time>2024-07-14T08:14:12Z</time>
      </trkpt>
      <trkpt lat="42.51765" lon="2.52306">
        <ele>1529.4</ele>
        <time>2024-07-14T08:14:14Z</time>
      </trkpt>
      <trkpt lat="42.51765" lon="2.52305">
        <ele>1529.6</ele>
        <time>2024-07-14T08:14:15Z</time>
      </trkpt>
      <trkpt lat="42.51768" lon="2.523">
        <ele>1529.8</ele>
        <time>2024-07-14T08:14:20Z</time>
      </trkpt>
      <trkpt lat="42.51768" lon="2.52298">
        <ele>1529.4</ele>
        <time>2024-07-14T08:14:21Z</time>
      </trkpt>
      <trkpt lat="42.51769" lon="2.52294">
        <ele>1529.2</ele>
        <time>2024-07-14T08:14:22Z</time>
      </trkpt>
      <trkpt lat="42.51775" lon="2.52286">
        <ele>1528</ele>
        <time>2024-07-14T08:14:27Z</time>
      </trkpt>
      <trkpt lat="42.51778" lon="2.52282">
        <ele>1528</ele>
        <time>2024-07-14T08:14:30Z</time>
      </trkpt>
      <trkpt lat="42.5178" lon="2.52275">
        <ele>1528.6</ele>
        <time>2024-07-14T08:14:34Z</time>
      </trkpt>
      <trkpt lat="42.51784" lon="2.52266">
        <ele>1530</ele>
        <time>2024-07-14T08:14:41Z</time>
      </trkpt>
      <trkpt lat="42.51784" lon="2.52264">
        <ele>1530.4</ele>
        <time>2024-07-14T08:14:42Z</time>
      </trkpt>
      <trkpt lat="42.51784" lon="2.52262">
        <ele>1530.8</ele>
        <time>2024-07-14T08:14:44Z</time>
      </trkpt>
      <trkpt lat="42.51787" lon="2.52257">
        <ele>1531.2</ele>
        <time>2024-07-14T08:14:48Z</time>
      </trkpt>
      <trkpt lat="42.5179" lon="2.5225">
        <ele>1530.6</ele>
        <time>2024-07-14T08:14:54Z</time>
      </trkpt>
      <trkpt lat="42.51791" lon="2.52246">
        <ele>1530</ele>
        <time>2024-07-14T08:14:56Z</time>
      </trkpt>
      <trkpt lat="42.51791" lon="2.52245">
        <ele>1529.6</ele>
        <time>2024-07-14T08:14:57Z</time>
      </trkpt>
      <trkpt lat="42.51796" lon="2.52236">
        <ele>1528</ele>
        <time>2024-07-14T08:15:02Z</time>
      </trkpt>
      <trkpt lat="42.51797" lon="2.52228">
        <ele>1527.4</ele>
        <time>2024-07-14T08:15:09Z</time>
      </trkpt>
      <trkpt lat="42.51798" lon="2.52227">
        <ele>1527.4</ele>
        <time>2024-07-14T08:15:10Z</time>
      </trkpt>
      <trkpt lat="42.518" lon="2.52219">
        <ele>1528.6</ele>
        <time>2024-07-14T08:15:15Z</time>
      </trkpt>
      <trkpt lat="42.51802" lon="2.52218">
        <ele>1528.8</ele>
        <time>2024-07-14T08:15:17Z</time>
      </trkpt>
      <trkpt lat="42.51806" lon="2.52212">
        <ele>1528.6</ele>
        <time>2024-07-14T08:15:22Z</time>
      </trkpt>
      <trkpt lat="42.51806" lon="2.52208">
        <ele>1528.6</ele>
        <time>2024-07-14T08:15:24Z</time>
      </trkpt>
      <trkpt lat="42.51807" lon="2.52205">
        <ele>1528.6</ele>
        <time>2024-07-14T08:15:26Z</time>
      </trkpt>
      <trkpt lat="42.51807" lon="2.52201">
        <ele>1528.6</ele>
        <time>2024-07-14T08:15:28Z</time>
      </trkpt>
      <trkpt lat="42.51808" lon="2.52198">
        <ele>1527.8</ele>
        <time>2024-07-14T08:15:31Z</time>
      </trkpt>
      <trkpt lat="42.51809" lon="2.52195">
        <ele>1527.4</ele>
        <time>2024-07-14T08:15:33Z</time>
      </trkpt>
      <trkpt lat="42.51806" lon="2.5219">
        <ele>1526.4</ele>
        <time>2024-07-14T08:15:37Z</time>
      </trkpt>
      <trkpt lat="42.51808" lon="2.52187">
        <ele>1525.8</ele>
        <time>2024-07-14T08:15:40Z</time>
      </trkpt>
      <trkpt lat="42.51811" lon="2.52188">
        <ele>1524.8</ele>
        <time>2024-07-14T08:15:46Z</time>
      </trkpt>
      <trkpt lat="42.51812" lon="2.52196">
        <ele>1524</ele>
        <time>2024-07-14T08:15:51Z</time>
      </trkpt>
      <trkpt lat="42.51813" lon="2.52198">
        <ele>1523.6</ele>
        <time>2024-07-14T08:15:52Z</time>
      </trkpt>
      <trkpt lat="42.51812" lon="2.52201">
        <ele>1523.4</ele>
        <time>2024-07-14T08:15:53Z</time>
      </trkpt>
      <trkpt lat="42.51812" lon="2.52204">
        <ele>1523</ele>
        <time>2024-07-14T08:15:55Z</time>
      </trkpt>
      <trkpt lat="42.51812" lon="2.52208">
        <ele>1522.8</ele>
        <time>2024-07-14T08:15:57Z</time>
      </trkpt>
      <trkpt lat="42.51813" lon="2.52213">
        <ele>1522.6</ele>
        <time>2024-07-14T08:16:00Z</time>
      </trkpt>
      <trkpt lat="42.51812" lon="2.52219">
        <ele>1522</ele>
        <time>2024-07-14T08:16:04Z</time>
      </trkpt>
      <trkpt lat="42.51811" lon="2.52222">
        <ele>1521.6</ele>
        <time>2024-07-14T08:16:06Z</time>
      </trkpt>
      <trkpt lat="42.51812" lon="2.52227">
        <ele>1521.2</ele>
        <time>2024-07-14T08:16:09Z</time>
      </trkpt>
      <trkpt lat="42.51816" lon="2.52236">
        <ele>1521</ele>
        <time>2024-07-14T08:16:12Z</time>
      </trkpt>
      <trkpt lat="42.5182" lon="2.52245">
        <ele>1519.6</ele>
        <time>2024-07-14T08:16:20Z</time>
      </trkpt>
      <trkpt lat="42.5182" lon="2.52246">
        <ele>1519.8</ele>
        <time>2024-07-14T08:16:21Z</time>
      </trkpt>
      <trkpt lat="42.51822" lon="2.52257">
        <ele>1520.4</ele>
        <time>2024-07-14T08:16:26Z</time>
      </trkpt>
      <trkpt lat="42.51822" lon="2.52269">
        <ele>1519.4</ele>
        <time>2024-07-14T08:16:32Z</time>
      </trkpt>
      <trkpt lat="42.51821" lon="2.52271">
        <ele>1518.2</ele>
        <time>2024-07-14T08:16:34Z</time>
      </trkpt>
      <trkpt lat="42.51822" lon="2.52274">
        <ele>1517.2</ele>
        <time>2024-07-14T08:16:37Z</time>
      </trkpt>
      <trkpt lat="42.5182" lon="2.52283">
        <ele>1515.4</ele>
        <time>2024-07-14T08:16:42Z</time>
      </trkpt>
      <trkpt lat="42.5182" lon="2.52283">
        <ele>1515</ele>
        <time>2024-07-14T08:16:43Z</time>
      </trkpt>
      <trkpt lat="42.51818" lon="2.52286">
        <ele>1514</ele>
        <time>2024-07-14T08:16:46Z</time>
      </trkpt>
      <trkpt lat="42.51816" lon="2.52291">
        <ele>1513.4</ele>
        <time>2024-07-14T08:16:49Z</time>
      </trkpt>
      <trkpt lat="42.51821" lon="2.52301">
        <ele>1510.8</ele>
        <time>2024-07-14T08:16:56Z</time>
      </trkpt>
      <trkpt lat="42.51821" lon="2.52304">
        <ele>1510.2</ele>
        <time>2024-07-14T08:16:57Z</time>
      </trkpt>
      <trkpt lat="42.51821" lon="2.52312">
        <ele>1508.6</ele>
        <time>2024-07-14T08:17:01Z</time>
      </trkpt>
      <trkpt lat="42.5182" lon="2.52315">
        <ele>1508.2</ele>
        <time>2024-07-14T08:17:03Z</time>
      </trkpt>
      <trkpt lat="42.51819" lon="2.52315">
        <ele>1507.8</ele>
        <time>2024-07-14T08:17:05Z</time>
      </trkpt>
      <trkpt lat="42.5182" lon="2.52319">
        <ele>1507.6</ele>
        <time>2024-07-14T08:17:07Z</time>
      </trkpt>
      <trkpt lat="42.51818" lon="2.52329">
        <ele>1505</ele>
        <time>2024-07-14T08:17:13Z</time>
      </trkpt>
      <trkpt lat="42.51816" lon="2.52335">
        <ele>1503.4</ele>
        <time>2024-07-14T08:17:16Z</time>
      </trkpt>
      <trkpt lat="42.51816" lon="2.52338">
        <ele>1502.2</ele>
        <time>2024-07-14T08:17:19Z</time>
      </trkpt>
      <trkpt lat="42.51816" lon="2.52339">
        <ele>1501.8</ele>
        <time>2024-07-14T08:17:20Z</time>
      </trkpt>
      <trkpt lat="42.51815" lon="2.52344">
        <ele>1501.4</ele>
        <time>2024-07-14T08:17:23Z</time>
      </trkpt>
      <trkpt lat="42.51815" lon="2.52346">
        <ele>1501.2</ele>
        <time>2024-07-14T08:17:25Z</time>
      </trkpt>
      <trkpt lat="42.51817" lon="2.52347">
        <ele>1501</ele>
        <time>2024-07-14T08:17:26Z</time>
      </trkpt>
      <trkpt lat="42.51817" lon="2.52348">
        <ele>1501</ele>
        <time>2024-07-14T08:17:27Z</time>
      </trkpt>
      <trkpt lat="42.51817" lon="2.52352">
        <ele>1500.8</ele>
        <time>2024-07-14T08:17:29Z</time>
      </trkpt>
      <trkpt lat="42.51816" lon="2.52357">
        <ele>1500.4</ele>
        <time>2024-07-14T08:17:31Z</time>
      </trkpt>
      <trkpt lat="42.51815" lon="2.5237">
        <ele>1497.4</ele>
        <time>2024-07-14T08:17:39Z</time>
      </trkpt>
      <trkpt lat="42.51814" lon="2.52377">
        <ele>1495</ele>
        <time>2024-07-14T08:17:44Z</time>
      </trkpt>
      <trkpt lat="42.51814" lon="2.52379">
        <ele>1494.6</ele>
        <time>2024-07-14T08:17:45Z</time>
      </trkpt>
      <trkpt lat="42.51811" lon="2.52394">
        <ele>1493.4</ele>
        <time>2024-07-14T08:17:53Z</time>
      </trkpt>
      <trkpt lat="42.5181" lon="2.52399">
        <ele>1493.6</ele>
        <time>2024-07-14T08:17:56Z</time>
      </trkpt>
      <trkpt lat="42.51807" lon="2.52404">
        <ele>1493.6</ele>
        <time>2024-07-14T08:17:59Z</time>
      </trkpt>
      <trkpt lat="42.51806" lon="2.52407">
        <ele>1493.2</ele>
        <time>2024-07-14T08:18:02Z</time>
      </trkpt>
      <trkpt lat="42.51804" lon="2.52414">
        <ele>1492.4</ele>
        <time>2024-07-14T08:18:06Z</time>
      </trkpt>
      <trkpt lat="42.51803" lon="2.52415">
        <ele>1492.2</ele>
        <time>2024-07-14T08:18:07Z</time>
      </trkpt>
      <trkpt lat="42.51806" lon="2.52422">
        <ele>1491.4</ele>
        <time>2024-07-14T08:18:11Z</time>
      </trkpt>
      <trkpt lat="42.51807" lon="2.52438">
        <ele>1489.2</ele>
        <time>2024-07-14T08:18:18Z</time>
      </trkpt>
      <trkpt lat="42.51806" lon="2.52441">
        <ele>1488.8</ele>
        <time>2024-07-14T08:18:21Z</time>
      </trkpt>
      <trkpt lat="42.51806" lon="2.52442">
        <ele>1488.8</ele>
        <time>2024-07-14T08:18:23Z</time>
      </trkpt>
      <trkpt lat="42.51808" lon="2.52445">
        <ele>1489.2</ele>
        <time>2024-07-14T08:18:29Z</time>
      </trkpt>
      <trkpt lat="42.51809" lon="2.52448">
        <ele>1489.2</ele>
        <time>2024-07-14T08:18:35Z</time>
      </trkpt>
      <trkpt lat="42.51808" lon="2.52449">
        <ele>1490.8</ele>
        <time>2024-07-14T08:18:40Z</time>
      </trkpt>
      <trkpt lat="42.51809" lon="2.52449">
        <ele>1491.6</ele>
        <time>2024-07-14T08:18:46Z</time>
      </trkpt>
      <trkpt lat="42.51808" lon="2.52452">
        <ele>1489.4</ele>
        <time>2024-07-14T08:18:56Z</time>
      </trkpt>
      <trkpt lat="42.51808" lon="2.52452">
        <ele>1488.6</ele>
        <time>2024-07-14T08:19:17Z</time>
      </trkpt>
      <trkpt lat="42.51801" lon="2.52454">
        <ele>1484</ele>
        <time>2024-07-14T08:23:35Z</time>
      </trkpt>
      <trkpt lat="42.51798" lon="2.52462">
        <ele>1483.6</ele>
        <time>2024-07-14T08:23:41Z</time>
      </trkpt>
      <trkpt lat="42.51799" lon="2.52461">
        <ele>1483</ele>
        <time>2024-07-14T08:23:47Z</time>
      </trkpt>
      <trkpt lat="42.51797" lon="2.52468">
        <ele>1482.2</ele>
        <time>2024-07-14T08:23:53Z</time>
      </trkpt>
      <trkpt lat="42.51794" lon="2.52477">
        <ele>1480.8</ele>
        <time>2024-07-14T08:23:59Z</time>
      </trkpt>
      <trkpt lat="42.51789" lon="2.52492">
        <ele>1480.4</ele>
        <time>2024-07-14T08:24:08Z</time>
      </trkpt>
      <trkpt lat="42.51786" lon="2.52507">
        <ele>1478.8</ele>
        <time>2024-07-14T08:24:16Z</time>
      </trkpt>
      <trkpt lat="42.51784" lon="2.52518">
        <ele>1479.2</ele>
        <time>2024-07-14T08:24:23Z</time>
      </trkpt>
      <trkpt lat="42.51784" lon="2.5252">
        <ele>1479.2</ele>
        <time>2024-07-14T08:24:24Z</time>
      </trkpt>
      <trkpt lat="42.51783" lon="2.52522">
        <ele>1479.4</ele>
        <time>2024-07-14T08:24:25Z</time>
      </trkpt>
      <trkpt lat="42.51783" lon="2.52531">
        <ele>1479.4</ele>
        <time>2024-07-14T08:24:31Z</time>
      </trkpt>
      <trkpt lat="42.51783" lon="2.52535">
        <ele>1479.4</ele>
        <time>2024-07-14T08:24:36Z</time>
      </trkpt>
      <trkpt lat="42.51783" lon="2.52538">
        <ele>1479.8</ele>
        <time>2024-07-14T08:24:38Z</time>
      </trkpt>
      <trkpt lat="42.51782" lon="2.52544">
        <ele>1480.6</ele>
        <time>2024-07-14T08:24:42Z</time>
      </trkpt>
      <trkpt lat="42.5178" lon="2.52557">
        <ele>1481.6</ele>
        <time>2024-07-14T08:24:49Z</time>
      </trkpt>
      <trkpt lat="42.51777" lon="2.52573">
        <ele>1481.4</ele>
        <time>2024-07-14T08:24:59Z</time>
      </trkpt>
      <trkpt lat="42.51776" lon="2.52587">
        <ele>1481.8</ele>
        <time>2024-07-14T08:25:08Z</time>
      </trkpt>
      <trkpt lat="42.51775" lon="2.52588">
        <ele>1482</ele>
        <time>2024-07-14T08:25:13Z</time>
      </trkpt>
      <trkpt lat="42.51774" lon="2.52596">
        <ele>1482</ele>
        <time>2024-07-14T08:25:19Z</time>
      </trkpt>
      <trkpt lat="42.51768" lon="2.52603">
        <ele>1481.4</ele>
        <time>2024-07-14T08:25:26Z</time>
      </trkpt>
      <trkpt lat="42.51765" lon="2.52604">
        <ele>1480.8</ele>
        <time>2024-07-14T08:25:29Z</time>
      </trkpt>
      <trkpt lat="42.51762" lon="2.52607">
        <ele>1480.4</ele>
        <time>2024-07-14T08:25:32Z</time>
      </trkpt>
      <trkpt lat="42.51761" lon="2.52607">
        <ele>1480.2</ele>
        <time>2024-07-14T08:25:33Z</time>
      </trkpt>
      <trkpt lat="42.51756" lon="2.5261">
        <ele>1479.2</ele>
        <time>2024-07-14T08:25:38Z</time>
      </trkpt>
      <trkpt lat="42.51751" lon="2.52613">
        <ele>1478.4</ele>
        <time>2024-07-14T08:25:43Z</time>
      </trkpt>
      <trkpt lat="42.51749" lon="2.52615">
        <ele>1478.4</ele>
        <time>2024-07-14T08:25:45Z</time>
      </trkpt>
      <trkpt lat="42.51746" lon="2.52618">
        <ele>1481</ele>
        <time>2024-07-14T08:25:50Z</time>
      </trkpt>
      <trkpt lat="42.51739" lon="2.52624">
        <ele>1486.6</ele>
        <time>2024-07-14T08:25:56Z</time>
      </trkpt>
      <trkpt lat="42.51737" lon="2.52624">
        <ele>1487.4</ele>
        <time>2024-07-14T08:25:57Z</time>
      </trkpt>
      <trkpt lat="42.51729" lon="2.52627">
        <ele>1489.2</ele>
        <time>2024-07-14T08:26:03Z</time>
      </trkpt>
      <trkpt lat="42.51716" lon="2.52634">
        <ele>1489.4</ele>
        <time>2024-07-14T08:26:09Z</time>
      </trkpt>
      <trkpt lat="42.51712" lon="2.52633">
        <ele>1485.4</ele>
        <time>2024-07-14T08:26:15Z</time>
      </trkpt>
      <trkpt lat="42.51717" lon="2.52626">
        <ele>1482</ele>
        <time>2024-07-14T08:26:21Z</time>
      </trkpt>
      <trkpt lat="42.51718" lon="2.52624">
        <ele>1481.6</ele>
        <time>2024-07-14T08:26:26Z</time>
      </trkpt>
      <trkpt lat="42.51714" lon="2.52626">
        <ele>1482.2</ele>
        <time>2024-07-14T08:26:32Z</time>
      </trkpt>
      <trkpt lat="42.51714" lon="2.52626">
        <ele>1481</ele>
        <time>2024-07-14T08:26:45Z</time>
      </trkpt>
      <trkpt lat="42.51712" lon="2.52628">
        <ele>1480.6</ele>
        <time>2024-07-14T08:26:57Z</time>
      </trkpt>
      <trkpt lat="42.51709" lon="2.52634">
        <ele>1481</ele>
        <time>2024-07-14T08:27:04Z</time>
      </trkpt>
      <trkpt lat="42.51709" lon="2.52634">
        <ele>1483.4</ele>
        <time>2024-07-14T08:27:09Z</time>
      </trkpt>
      <trkpt lat="42.51707" lon="2.52633">
        <ele>1485</ele>
        <time>2024-07-14T08:27:14Z</time>
      </trkpt>
      <trkpt lat="42.51703" lon="2.52638">
        <ele>1485</ele>
        <time>2024-07-14T08:27:21Z</time>
      </trkpt>
      <trkpt lat="42.51703" lon="2.5264">
        <ele>1485.8</ele>
        <time>2024-07-14T08:27:26Z</time>
      </trkpt>
      <trkpt lat="42.517" lon="2.52641">
        <ele>1489.2</ele>
        <time>2024-07-14T08:27:31Z</time>
      </trkpt>
      <trkpt lat="42.51698" lon="2.52639">
        <ele>1489.8</ele>
        <time>2024-07-14T08:27:36Z</time>
      </trkpt>
      <trkpt lat="42.51694" lon="2.52639">
        <ele>1489.6</ele>
        <time>2024-07-14T08:27:40Z</time>
      </trkpt>
      <trkpt lat="42.51694" lon="2.5264">
        <ele>1489.6</ele>
        <time>2024-07-14T08:27:41Z</time>
      </trkpt>
      <trkpt lat="42.51689" lon="2.52642">
        <ele>1489.8</ele>
        <time>2024-07-14T08:27:46Z</time>
      </trkpt>
      <trkpt lat="42.51684" lon="2.5264">
        <ele>1489.6</ele>
        <time>2024-07-14T08:27:50Z</time>
      </trkpt>
      <trkpt lat="42.51684" lon="2.52639">
        <ele>1489</ele>
        <time>2024-07-14T08:27:51Z</time>
      </trkpt>
      <trkpt lat="42.51683" lon="2.52638">
        <ele>1486.4</ele>
        <time>2024-07-14T08:27:56Z</time>
      </trkpt>
      <trkpt lat="42.51683" lon="2.52639">
        <ele>1485.8</ele>
        <time>2024-07-14T08:28:05Z</time>
      </trkpt>
      <trkpt lat="42.51683" lon="2.52638">
        <ele>1486.4</ele>
        <time>2024-07-14T08:28:22Z</time>
      </trkpt>
      <trkpt lat="42.5167" lon="2.52639">
        <ele>1484.4</ele>
        <time>2024-07-14T08:28:46Z</time>
      </trkpt>
      <trkpt lat="42.51662" lon="2.52642">
        <ele>1482.2</ele>
        <time>2024-07-14T08:28:51Z</time>
      </trkpt>
      <trkpt lat="42.51657" lon="2.52644">
        <ele>1481.2</ele>
        <time>2024-07-14T08:28:57Z</time>
      </trkpt>
      <trkpt lat="42.51652" lon="2.52645">
        <ele>1482.2</ele>
        <time>2024-07-14T08:29:03Z</time>
      </trkpt>
      <trkpt lat="42.51648" lon="2.52645">
        <ele>1483</ele>
        <time>2024-07-14T08:29:08Z</time>
      </trkpt>
      <trkpt lat="42.51643" lon="2.52646">
        <ele>1484</ele>
        <time>2024-07-14T08:29:13Z</time>
      </trkpt>
      <trkpt lat="42.51637" lon="2.52643">
        <ele>1489.8</ele>
        <time>2024-07-14T08:29:21Z</time>
      </trkpt>
      <trkpt lat="42.51634" lon="2.52644">
        <ele>1491.4</ele>
        <time>2024-07-14T08:29:26Z</time>
      </trkpt>
      <trkpt lat="42.51631" lon="2.52647">
        <ele>1491.4</ele>
        <time>2024-07-14T08:29:29Z</time>
      </trkpt>
      <trkpt lat="42.51629" lon="2.52652">
        <ele>1491</ele>
        <time>2024-07-14T08:29:33Z</time>
      </trkpt>
      <trkpt lat="42.51628" lon="2.52654">
        <ele>1490.8</ele>
        <time>2024-07-14T08:29:35Z</time>
      </trkpt>
      <trkpt lat="42.51621" lon="2.52656">
        <ele>1491.8</ele>
        <time>2024-07-14T08:29:41Z</time>
      </trkpt>
      <trkpt lat="42.51615" lon="2.52657">
        <ele>1491.6</ele>
        <time>2024-07-14T08:29:46Z</time>
      </trkpt>
      <trkpt lat="42.51614" lon="2.52658">
        <ele>1491.4</ele>
        <time>2024-07-14T08:29:47Z</time>
      </trkpt>
      <trkpt lat="42.51613" lon="2.52658">
        <ele>1491.2</ele>
        <time>2024-07-14T08:29:48Z</time>
      </trkpt>
      <trkpt lat="42.51609" lon="2.5266">
        <ele>1491.6</ele>
        <time>2024-07-14T08:29:54Z</time>
      </trkpt>
      <trkpt lat="42.51608" lon="2.5266">
        <ele>1492.6</ele>
        <time>2024-07-14T08:29:59Z</time>
      </trkpt>
      <trkpt lat="42.51606" lon="2.52662">
        <ele>1493.4</ele>
        <time>2024-07-14T08:30:02Z</time>
      </trkpt>
      <trkpt lat="42.51605" lon="2.52663">
        <ele>1493.4</ele>
        <time>2024-07-14T08:30:03Z</time>
      </trkpt>
      <trkpt lat="42.51599" lon="2.52665">
        <ele>1493.2</ele>
        <time>2024-07-14T08:30:09Z</time>
      </trkpt>
      <trkpt lat="42.51597" lon="2.52665">
        <ele>1492.8</ele>
        <time>2024-07-14T08:30:11Z</time>
      </trkpt>
      <trkpt lat="42.51594" lon="2.52669">
        <ele>1492.8</ele>
        <time>2024-07-14T08:30:15Z</time>
      </trkpt>
      <trkpt lat="42.51592" lon="2.52671">
        <ele>1493.2</ele>
        <time>2024-07-14T08:30:17Z</time>
      </trkpt>
      <trkpt lat="42.51591" lon="2.52673">
        <ele>1494.2</ele>
        <time>2024-07-14T08:30:19Z</time>
      </trkpt>
      <trkpt lat="42.51589" lon="2.52674">
        <ele>1495.8</ele>
        <time>2024-07-14T08:30:21Z</time>
      </trkpt>
      <trkpt lat="42.51584" lon="2.52675">
        <ele>1497.8</ele>
        <time>2024-07-14T08:30:25Z</time>
      </trkpt>
      <trkpt lat="42.51581" lon="2.52675">
        <ele>1498.8</ele>
        <time>2024-07-14T08:30:27Z</time>
      </trkpt>
      <trkpt lat="42.51576" lon="2.52678">
        <ele>1501.4</ele>
        <time>2024-07-14T08:30:31Z</time>
      </trkpt>
      <trkpt lat="42.51572" lon="2.52679">
        <ele>1502</ele>
        <time>2024-07-14T08:30:33Z</time>
      </trkpt>
      <trkpt lat="42.51568" lon="2.52682">
        <ele>1502.4</ele>
        <time>2024-07-14T08:30:36Z</time>
      </trkpt>
      <trkpt lat="42.51565" lon="2.52688">
        <ele>1500</ele>
        <time>2024-07-14T08:30:40Z</time>
      </trkpt>
      <trkpt lat="42.51562" lon="2.5269">
        <ele>1499.4</ele>
        <time>2024-07-14T08:30:42Z</time>
      </trkpt>
      <trkpt lat="42.51558" lon="2.52691">
        <ele>1498.8</ele>
        <time>2024-07-14T08:30:46Z</time>
      </trkpt>
      <trkpt lat="42.51556" lon="2.52693">
        <ele>1498.6</ele>
        <time>2024-07-14T08:30:48Z</time>
      </trkpt>
      <trkpt lat="42.51551" lon="2.52695">
        <ele>1498.2</ele>
        <time>2024-07-14T08:30:51Z</time>
      </trkpt>
      <trkpt lat="42.51546" lon="2.52697">
        <ele>1500.2</ele>
        <time>2024-07-14T08:30:56Z</time>
      </trkpt>
      <trkpt lat="42.51546" lon="2.52698">
        <ele>1501.4</ele>
        <time>2024-07-14T08:30:58Z</time>
      </trkpt>
      <trkpt lat="42.51545" lon="2.52699">
        <ele>1502.2</ele>
        <time>2024-07-14T08:30:59Z</time>
      </trkpt>
      <trkpt lat="42.51538" lon="2.52706">
        <ele>1505</ele>
        <time>2024-07-14T08:31:06Z</time>
      </trkpt>
      <trkpt lat="42.51532" lon="2.52713">
        <ele>1507.6</ele>
        <time>2024-07-14T08:31:10Z</time>
      </trkpt>
      <trkpt lat="42.5153" lon="2.52719">
        <ele>1508.6</ele>
        <time>2024-07-14T08:31:13Z</time>
      </trkpt>
      <trkpt lat="42.51519" lon="2.52719">
        <ele>1511.4</ele>
        <time>2024-07-14T08:31:19Z</time>
      </trkpt>
      <trkpt lat="42.51514" lon="2.52717">
        <ele>1511.6</ele>
        <time>2024-07-14T08:31:24Z</time>
      </trkpt>
      <trkpt lat="42.51507" lon="2.52725">
        <ele>1511</ele>
        <time>2024-07-14T08:31:30Z</time>
      </trkpt>
      <trkpt lat="42.51506" lon="2.52726">
        <ele>1511</ele>
        <time>2024-07-14T08:31:31Z</time>
      </trkpt>
      <trkpt lat="42.515" lon="2.52723">
        <ele>1508</ele>
        <time>2024-07-14T08:31:39Z</time>
      </trkpt>
      <trkpt lat="42.51496" lon="2.52726">
        <ele>1505</ele>
        <time>2024-07-14T08:31:46Z</time>
      </trkpt>
      <trkpt lat="42.5149" lon="2.52725">
        <ele>1506</ele>
        <time>2024-07-14T08:31:54Z</time>
      </trkpt>
      <trkpt lat="42.51487" lon="2.52729">
        <ele>1507.2</ele>
        <time>2024-07-14T08:31:59Z</time>
      </trkpt>
      <trkpt lat="42.51484" lon="2.52732">
        <ele>1509.6</ele>
        <time>2024-07-14T08:32:05Z</time>
      </trkpt>
      <trkpt lat="42.51471" lon="2.52737">
        <ele>1510.2</ele>
        <time>2024-07-14T08:32:13Z</time>
      </trkpt>
      <trkpt lat="42.51457" lon="2.52741">
        <ele>1510.6</ele>
        <time>2024-07-14T08:32:19Z</time>
      </trkpt>
      <trkpt lat="42.51446" lon="2.52741">
        <ele>1509.6</ele>
        <time>2024-07-14T08:32:26Z</time>
      </trkpt>
      <trkpt lat="42.51446" lon="2.52741">
        <ele>1509.6</ele>
        <time>2024-07-14T08:32:27Z</time>
      </trkpt>
      <trkpt lat="42.51441" lon="2.52737">
        <ele>1510.4</ele>
        <time>2024-07-14T08:32:34Z</time>
      </trkpt>
      <trkpt lat="42.51436" lon="2.52728">
        <ele>1511.4</ele>
        <time>2024-07-14T08:32:41Z</time>
      </trkpt>
      <trkpt lat="42.51433" lon="2.52725">
        <ele>1510.4</ele>
        <time>2024-07-14T08:32:45Z</time>
      </trkpt>
      <trkpt lat="42.51432" lon="2.5272">
        <ele>1509.8</ele>
        <time>2024-07-14T08:32:47Z</time>
      </trkpt>
      <trkpt lat="42.51427" lon="2.52713">
        <ele>1507.8</ele>
        <time>2024-07-14T08:32:53Z</time>
      </trkpt>
      <trkpt lat="42.51425" lon="2.5271">
        <ele>1507.2</ele>
        <time>2024-07-14T08:32:56Z</time>
      </trkpt>
      <trkpt lat="42.51422" lon="2.52699">
        <ele>1508.2</ele>
        <time>2024-07-14T08:33:02Z</time>
      </trkpt>
      <trkpt lat="42.51419" lon="2.52697">
        <ele>1511.8</ele>
        <time>2024-07-14T08:33:07Z</time>
      </trkpt>
      <trkpt lat="42.51417" lon="2.52683">
        <ele>1514.4</ele>
        <time>2024-07-14T08:33:13Z</time>
      </trkpt>
      <trkpt lat="42.51415" lon="2.52678">
        <ele>1515.6</ele>
        <time>2024-07-14T08:33:20Z</time>
      </trkpt>
      <trkpt lat="42.51413" lon="2.52672">
        <ele>1517</ele>
        <time>2024-07-14T08:33:26Z</time>
      </trkpt>
      <trkpt lat="42.5141" lon="2.52665">
        <ele>1518.6</ele>
        <time>2024-07-14T08:33:33Z</time>
      </trkpt>
      <trkpt lat="42.51403" lon="2.52657">
        <ele>1520</ele>
        <time>2024-07-14T08:33:39Z</time>
      </trkpt>
      <trkpt lat="42.51402" lon="2.52654">
        <ele>1520.6</ele>
        <time>2024-07-14T08:33:40Z</time>
      </trkpt>
      <trkpt lat="42.514" lon="2.5265">
        <ele>1522</ele>
        <time>2024-07-14T08:33:45Z</time>
      </trkpt>
      <trkpt lat="42.51395" lon="2.5264">
        <ele>1524.2</ele>
        <time>2024-07-14T08:33:52Z</time>
      </trkpt>
      <trkpt lat="42.51394" lon="2.52639">
        <ele>1524.2</ele>
        <time>2024-07-14T08:33:53Z</time>
      </trkpt>
      <trkpt lat="42.51392" lon="2.52628">
        <ele>1521.4</ele>
        <time>2024-07-14T08:34:01Z</time>
      </trkpt>
      <trkpt lat="42.51389" lon="2.52623">
        <ele>1522.2</ele>
        <time>2024-07-14T08:34:07Z</time>
      </trkpt>
      <trkpt lat="42.51386" lon="2.5262">
        <ele>1522</ele>
        <time>2024-07-14T08:34:11Z</time>
      </trkpt>
      <trkpt lat="42.51385" lon="2.5262">
        <ele>1521.8</ele>
        <time>2024-07-14T08:34:12Z</time>
      </trkpt>
      <trkpt lat="42.51381" lon="2.52619">
        <ele>1521.2</ele>
        <time>2024-07-14T08:34:16Z</time>
      </trkpt>
      <trkpt lat="42.51379" lon="2.52619">
        <ele>1521.2</ele>
        <time>2024-07-14T08:34:18Z</time>
      </trkpt>
      <trkpt lat="42.51376" lon="2.52617">
        <ele>1521.4</ele>
        <time>2024-07-14T08:34:21Z</time>
      </trkpt>
      <trkpt lat="42.51373" lon="2.52616">
        <ele>1522</ele>
        <time>2024-07-14T08:34:23Z</time>
      </trkpt>
      <trkpt lat="42.51371" lon="2.52616">
        <ele>1522.6</ele>
        <time>2024-07-14T08:34:25Z</time>
      </trkpt>
      <trkpt lat="42.51368" lon="2.52616">
        <ele>1523.2</ele>
        <time>2024-07-14T08:34:27Z</time>
      </trkpt>
      <trkpt lat="42.51367" lon="2.52616">
        <ele>1523.2</ele>
        <time>2024-07-14T08:34:28Z</time>
      </trkpt>
      <trkpt lat="42.51357" lon="2.52611">
        <ele>1522.2</ele>
        <time>2024-07-14T08:34:38Z</time>
      </trkpt>
      <trkpt lat="42.51349" lon="2.52602">
        <ele>1524</ele>
        <time>2024-07-14T08:34:46Z</time>
      </trkpt>
      <trkpt lat="42.51347" lon="2.52599">
        <ele>1524.6</ele>
        <time>2024-07-14T08:34:52Z</time>
      </trkpt>
      <trkpt lat="42.51345" lon="2.52596">
        <ele>1525</ele>
        <time>2024-07-14T08:34:54Z</time>
      </trkpt>
      <trkpt lat="42.51344" lon="2.52592">
        <ele>1526</ele>
        <time>2024-07-14T08:34:58Z</time>
      </trkpt>
      <trkpt lat="42.51341" lon="2.52589">
        <ele>1527.6</ele>
        <time>2024-07-14T08:35:04Z</time>
      </trkpt>
      <trkpt lat="42.51336" lon="2.52582">
        <ele>1529.4</ele>
        <time>2024-07-14T08:35:12Z</time>
      </trkpt>
      <trkpt lat="42.51334" lon="2.52582">
        <ele>1529.4</ele>
        <time>2024-07-14T08:35:13Z</time>
      </trkpt>
      <trkpt lat="42.51333" lon="2.52581">
        <ele>1529.2</ele>
        <time>2024-07-14T08:35:14Z</time>
      </trkpt>
      <trkpt lat="42.51331" lon="2.52579">
        <ele>1528.8</ele>
        <time>2024-07-14T08:35:18Z</time>
      </trkpt>
      <trkpt lat="42.51325" lon="2.52574">
        <ele>1530.2</ele>
        <time>2024-07-14T08:35:26Z</time>
      </trkpt>
      <trkpt lat="42.51323" lon="2.5257">
        <ele>1532.2</ele>
        <time>2024-07-14T08:35:31Z</time>
      </trkpt>
      <trkpt lat="42.51318" lon="2.52565">
        <ele>1535.2</ele>
        <time>2024-07-14T08:35:37Z</time>
      </trkpt>
      <trkpt lat="42.51313" lon="2.52562">
        <ele>1538.2</ele>
        <time>2024-07-14T08:35:43Z</time>
      </trkpt>
      <trkpt lat="42.51309" lon="2.52559">
        <ele>1538.4</ele>
        <time>2024-07-14T08:35:49Z</time>
      </trkpt>
      <trkpt lat="42.51306" lon="2.52557">
        <ele>1539.4</ele>
        <time>2024-07-14T08:35:56Z</time>
      </trkpt>
      <trkpt lat="42.51304" lon="2.52557">
        <ele>1541.8</ele>
        <time>2024-07-14T08:36:03Z</time>
      </trkpt>
      <trkpt lat="42.51299" lon="2.52555">
        <ele>1544.4</ele>
        <time>2024-07-14T08:36:09Z</time>
      </trkpt>
      <trkpt lat="42.51296" lon="2.52553">
        <ele>1545</ele>
        <time>2024-07-14T08:36:15Z</time>
      </trkpt>
      <trkpt lat="42.51288" lon="2.5255">
        <ele>1545.6</ele>
        <time>2024-07-14T08:36:23Z</time>
      </trkpt>
      <trkpt lat="42.51282" lon="2.52546">
        <ele>1547.6</ele>
        <time>2024-07-14T08:36:29Z</time>
      </trkpt>
      <trkpt lat="42.51279" lon="2.52546">
        <ele>1549.6</ele>
        <time>2024-07-14T08:36:35Z</time>
      </trkpt>
      <trkpt lat="42.51274" lon="2.52547">
        <ele>1552.2</ele>
        <time>2024-07-14T08:36:42Z</time>
      </trkpt>
      <trkpt lat="42.51272" lon="2.52544">
        <ele>1555.4</ele>
        <time>2024-07-14T08:36:48Z</time>
      </trkpt>
      <trkpt lat="42.51273" lon="2.52539">
        <ele>1557.2</ele>
        <time>2024-07-14T08:36:52Z</time>
      </trkpt>
      <trkpt lat="42.51275" lon="2.52536">
        <ele>1558</ele>
        <time>2024-07-14T08:36:58Z</time>
      </trkpt>
      <trkpt lat="42.51275" lon="2.52533">
        <ele>1558.2</ele>
        <time>2024-07-14T08:37:03Z</time>
      </trkpt>
      <trkpt lat="42.51271" lon="2.5253">
        <ele>1558.2</ele>
        <time>2024-07-14T08:37:09Z</time>
      </trkpt>
      <trkpt lat="42.51267" lon="2.52533">
        <ele>1554.2</ele>
        <time>2024-07-14T08:37:16Z</time>
      </trkpt>
      <trkpt lat="42.51268" lon="2.52531">
        <ele>1554.2</ele>
        <time>2024-07-14T08:37:22Z</time>
      </trkpt>
      <trkpt lat="42.51265" lon="2.52527">
        <ele>1558</ele>
        <time>2024-07-14T08:37:28Z</time>
      </trkpt>
      <trkpt lat="42.51263" lon="2.52526">
        <ele>1561</ele>
        <time>2024-07-14T08:37:34Z</time>
      </trkpt>
      <trkpt lat="42.5126" lon="2.52525">
        <ele>1560.8</ele>
        <time>2024-07-14T08:37:40Z</time>
      </trkpt>
      <trkpt lat="42.51261" lon="2.52526">
        <ele>1562</ele>
        <time>2024-07-14T08:37:48Z</time>
      </trkpt>
      <trkpt lat="42.5126" lon="2.52528">
        <ele>1563</ele>
        <time>2024-07-14T08:37:56Z</time>
      </trkpt>
      <trkpt lat="42.5126" lon="2.52527">
        <ele>1565</ele>
        <time>2024-07-14T08:38:04Z</time>
      </trkpt>
      <trkpt lat="42.51259" lon="2.52528">
        <ele>1566.8</ele>
        <time>2024-07-14T08:38:12Z</time>
      </trkpt>
      <trkpt lat="42.51254" lon="2.52526">
        <ele>1567.2</ele>
        <time>2024-07-14T08:38:20Z</time>
      </trkpt>
      <trkpt lat="42.51248" lon="2.52523">
        <ele>1567.6</ele>
        <time>2024-07-14T08:38:26Z</time>
      </trkpt>
      <trkpt lat="42.51247" lon="2.52524">
        <ele>1567.6</ele>
        <time>2024-07-14T08:38:27Z</time>
      </trkpt>
      <trkpt lat="42.51247" lon="2.52524">
        <ele>1567.6</ele>
        <time>2024-07-14T08:38:29Z</time>
      </trkpt>
      <trkpt lat="42.51243" lon="2.52529">
        <ele>1568.8</ele>
        <time>2024-07-14T08:38:34Z</time>
      </trkpt>
      <trkpt lat="42.51241" lon="2.52529">
        <ele>1572.2</ele>
        <time>2024-07-14T08:38:40Z</time>
      </trkpt>
      <trkpt lat="42.51239" lon="2.52527">
        <ele>1575.6</ele>
        <time>2024-07-14T08:38:46Z</time>
      </trkpt>
      <trkpt lat="42.51237" lon="2.52521">
        <ele>1576.6</ele>
        <time>2024-07-14T08:38:51Z</time>
      </trkpt>
      <trkpt lat="42.51234" lon="2.5252">
        <ele>1573.8</ele>
        <time>2024-07-14T08:38:57Z</time>
      </trkpt>
      <trkpt lat="42.51234" lon="2.52518">
        <ele>1573</ele>
        <time>2024-07-14T08:39:01Z</time>
      </trkpt>
      <trkpt lat="42.51235" lon="2.52516">
        <ele>1573</ele>
        <time>2024-07-14T08:39:07Z</time>
      </trkpt>
      <trkpt lat="42.51236" lon="2.52507">
        <ele>1573.8</ele>
        <time>2024-07-14T08:39:12Z</time>
      </trkpt>
      <trkpt lat="42.51237" lon="2.52507">
        <ele>1575</ele>
        <time>2024-07-14T08:39:17Z</time>
      </trkpt>
      <trkpt lat="42.51236" lon="2.52504">
        <ele>1576.6</ele>
        <time>2024-07-14T08:39:25Z</time>
      </trkpt>
      <trkpt lat="42.51232" lon="2.525">
        <ele>1575.6</ele>
        <time>2024-07-14T08:39:32Z</time>
      </trkpt>
      <trkpt lat="42.51228" lon="2.525">
        <ele>1576.8</ele>
        <time>2024-07-14T08:39:39Z</time>
      </trkpt>
      <trkpt lat="42.51226" lon="2.52498">
        <ele>1577</ele>
        <time>2024-07-14T08:39:44Z</time>
      </trkpt>
      <trkpt lat="42.5122" lon="2.52493">
        <ele>1577</ele>
        <time>2024-07-14T08:39:53Z</time>
      </trkpt>
      <trkpt lat="42.5122" lon="2.52493">
        <ele>1576.4</ele>
        <time>2024-07-14T08:39:59Z</time>
      </trkpt>
      <trkpt lat="42.51222" lon="2.52489">
        <ele>1579.2</ele>
        <time>2024-07-14T08:40:06Z</time>
      </trkpt>
      <trkpt lat="42.51221" lon="2.52488">
        <ele>1586.2</ele>
        <time>2024-07-14T08:40:15Z</time>
      </trkpt>
      <trkpt lat="42.51219" lon="2.52484">
        <ele>1588.4</ele>
        <time>2024-07-14T08:40:22Z</time>
      </trkpt>
      <trkpt lat="42.51214" lon="2.5248">
        <ele>1588.6</ele>
        <time>2024-07-14T08:40:26Z</time>
      </trkpt>
      <trkpt lat="42.51209" lon="2.5248">
        <ele>1588.8</ele>
        <time>2024-07-14T08:40:33Z</time>
      </trkpt>
      <trkpt lat="42.51206" lon="2.5248">
        <ele>1590</ele>
        <time>2024-07-14T08:40:38Z</time>
      </trkpt>
      <trkpt lat="42.51204" lon="2.52482">
        <ele>1591</ele>
        <time>2024-07-14T08:40:43Z</time>
      </trkpt>
      <trkpt lat="42.51201" lon="2.52481">
        <ele>1592</ele>
        <time>2024-07-14T08:40:51Z</time>
      </trkpt>
      <trkpt lat="42.512" lon="2.52478">
        <ele>1593</ele>
        <time>2024-07-14T08:40:57Z</time>
      </trkpt>
      <trkpt lat="42.51203" lon="2.52476">
        <ele>1593.8</ele>
        <time>2024-07-14T08:41:03Z</time>
      </trkpt>
      <trkpt lat="42.51202" lon="2.52476">
        <ele>1595</ele>
        <time>2024-07-14T08:41:07Z</time>
      </trkpt>
      <trkpt lat="42.512" lon="2.52474">
        <ele>1597.8</ele>
        <time>2024-07-14T08:41:12Z</time>
      </trkpt>
      <trkpt lat="42.51197" lon="2.52474">
        <ele>1598.8</ele>
        <time>2024-07-14T08:41:16Z</time>
      </trkpt>
      <trkpt lat="42.51193" lon="2.52477">
        <ele>1599.2</ele>
        <time>2024-07-14T08:41:22Z</time>
      </trkpt>
      <trkpt lat="42.51191" lon="2.52472">
        <ele>1598.6</ele>
        <time>2024-07-14T08:41:28Z</time>
      </trkpt>
      <trkpt lat="42.51189" lon="2.52472">
        <ele>1599.4</ele>
        <time>2024-07-14T08:41:35Z</time>
      </trkpt>
      <trkpt lat="42.51187" lon="2.52466">
        <ele>1600</ele>
        <time>2024-07-14T08:41:44Z</time>
      </trkpt>
      <trkpt lat="42.51187" lon="2.5246">
        <ele>1602.6</ele>
        <time>2024-07-14T08:41:52Z</time>
      </trkpt>
      <trkpt lat="42.51186" lon="2.52458">
        <ele>1603.8</ele>
        <time>2024-07-14T08:41:57Z</time>
      </trkpt>
      <trkpt lat="42.51183" lon="2.52461">
        <ele>1604.8</ele>
        <time>2024-07-14T08:42:04Z</time>
      </trkpt>
      <trkpt lat="42.51177" lon="2.5246">
        <ele>1606.4</ele>
        <time>2024-07-14T08:42:13Z</time>
      </trkpt>
      <trkpt lat="42.51174" lon="2.52456">
        <ele>1607.4</ele>
        <time>2024-07-14T08:42:20Z</time>
      </trkpt>
      <trkpt lat="42.51166" lon="2.52451">
        <ele>1608.4</ele>
        <time>2024-07-14T08:42:29Z</time>
      </trkpt>
      <trkpt lat="42.5116" lon="2.52452">
        <ele>1610</ele>
        <time>2024-07-14T08:42:33Z</time>
      </trkpt>
      <trkpt lat="42.51159" lon="2.52447">
        <ele>1611</ele>
        <time>2024-07-14T08:42:36Z</time>
      </trkpt>
      <trkpt lat="42.51158" lon="2.5244">
        <ele>1611.4</ele>
        <time>2024-07-14T08:42:44Z</time>
      </trkpt>
      <trkpt lat="42.51158" lon="2.5244">
        <ele>1610.8</ele>
        <time>2024-07-14T08:42:53Z</time>
      </trkpt>
      <trkpt lat="42.51155" lon="2.52434">
        <ele>1610.6</ele>
        <time>2024-07-14T08:43:14Z</time>
      </trkpt>
      <trkpt lat="42.51144" lon="2.52424">
        <ele>1607.4</ele>
        <time>2024-07-14T08:43:24Z</time>
      </trkpt>
      <trkpt lat="42.51141" lon="2.52422">
        <ele>1606</ele>
        <time>2024-07-14T08:43:27Z</time>
      </trkpt>
      <trkpt lat="42.51139" lon="2.5242">
        <ele>1605.4</ele>
        <time>2024-07-14T08:43:30Z</time>
      </trkpt>
      <trkpt lat="42.51137" lon="2.5242">
        <ele>1605.4</ele>
        <time>2024-07-14T08:43:31Z</time>
      </trkpt>
      <trkpt lat="42.51134" lon="2.52418">
        <ele>1605.8</ele>
        <time>2024-07-14T08:43:34Z</time>
      </trkpt>
      <trkpt lat="42.51132" lon="2.52417">
        <ele>1606.4</ele>
        <time>2024-07-14T08:43:36Z</time>
      </trkpt>
      <trkpt lat="42.51126" lon="2.52415">
        <ele>1607.4</ele>
        <time>2024-07-14T08:43:41Z</time>
      </trkpt>
      <trkpt lat="42.51117" lon="2.52407">
        <ele>1607</ele>
        <time>2024-07-14T08:43:51Z</time>
      </trkpt>
      <trkpt lat="42.51108" lon="2.52409">
        <ele>1606.8</ele>
        <time>2024-07-14T08:44:00Z</time>
      </trkpt>
      <trkpt lat="42.51099" lon="2.52407">
        <ele>1605.2</ele>
        <time>2024-07-14T08:44:09Z</time>
      </trkpt>
      <trkpt lat="42.5109" lon="2.52407">
        <ele>1603.6</ele>
        <time>2024-07-14T08:44:17Z</time>
      </trkpt>
      <trkpt lat="42.51089" lon="2.52406">
        <ele>1603.6</ele>
        <time>2024-07-14T08:44:18Z</time>
      </trkpt>
      <trkpt lat="42.51086" lon="2.52406">
        <ele>1604</ele>
        <time>2024-07-14T08:44:22Z</time>
      </trkpt>
      <trkpt lat="42.51083" lon="2.52406">
        <ele>1604.2</ele>
        <time>2024-07-14T08:44:25Z</time>
      </trkpt>
      <trkpt lat="42.5108" lon="2.52405">
        <ele>1604.2</ele>
        <time>2024-07-14T08:44:31Z</time>
      </trkpt>
      <trkpt lat="42.51075" lon="2.524">
        <ele>1605.2</ele>
        <time>2024-07-14T08:44:39Z</time>
      </trkpt>
      <trkpt lat="42.51069" lon="2.52398">
        <ele>1609.4</ele>
        <time>2024-07-14T08:44:48Z</time>
      </trkpt>
      <trkpt lat="42.51066" lon="2.52398">
        <ele>1610.2</ele>
        <time>2024-07-14T08:44:54Z</time>
      </trkpt>
      <trkpt lat="42.51062" lon="2.52401">
        <ele>1609.2</ele>
        <time>2024-07-14T08:45:01Z</time>
      </trkpt>
      <trkpt lat="42.51061" lon="2.52402">
        <ele>1608.4</ele>
        <time>2024-07-14T08:45:06Z</time>
      </trkpt>
      <trkpt lat="42.51061" lon="2.52403">
        <ele>1608.2</ele>
        <time>2024-07-14T08:45:12Z</time>
      </trkpt>
      <trkpt lat="42.51058" lon="2.52406">
        <ele>1609</ele>
        <time>2024-07-14T08:45:19Z</time>
      </trkpt>
      <trkpt lat="42.51058" lon="2.52407">
        <ele>1609</ele>
        <time>2024-07-14T08:45:20Z</time>
      </trkpt>
      <trkpt lat="42.51056" lon="2.52409">
        <ele>1607.6</ele>
        <time>2024-07-14T08:45:27Z</time>
      </trkpt>
      <trkpt lat="42.51059" lon="2.5241">
        <ele>1605</ele>
        <time>2024-07-14T08:45:32Z</time>
      </trkpt>
      <trkpt lat="42.51063" lon="2.52409">
        <ele>1603.4</ele>
        <time>2024-07-14T08:45:38Z</time>
      </trkpt>
      <trkpt lat="42.5107" lon="2.52414">
        <ele>1603</ele>
        <time>2024-07-14T08:45:44Z</time>
      </trkpt>
      <trkpt lat="42.51072" lon="2.52418">
        <ele>1602.8</ele>
        <time>2024-07-14T08:45:49Z</time>
      </trkpt>
      <trkpt lat="42.51077" lon="2.5242">
        <ele>1601.2</ele>
        <time>2024-07-14T08:45:52Z</time>
      </trkpt>
      <trkpt lat="42.51084" lon="2.52428">
        <ele>1596</ele>
        <time>2024-07-14T08:46:00Z</time>
      </trkpt>
      <trkpt lat="42.51083" lon="2.52437">
        <ele>1596</ele>
        <time>2024-07-14T08:46:08Z</time>
      </trkpt>
      <trkpt lat="42.51082" lon="2.52439">
        <ele>1596.2</ele>
        <time>2024-07-14T08:46:09Z</time>
      </trkpt>
      <trkpt lat="42.51082" lon="2.52442">
        <ele>1597.2</ele>
        <time>2024-07-14T08:46:12Z</time>
      </trkpt>
      <trkpt lat="42.51081" lon="2.52448">
        <ele>1599.8</ele>
        <time>2024-07-14T08:46:18Z</time>
      </trkpt>
      <trkpt lat="42.51081" lon="2.52452">
        <ele>1601.6</ele>
        <time>2024-07-14T08:46:23Z</time>
      </trkpt>
      <trkpt lat="42.51081" lon="2.52454">
        <ele>1602.4</ele>
        <time>2024-07-14T08:46:29Z</time>
      </trkpt>
      <trkpt lat="42.51079" lon="2.52455">
        <ele>1602.4</ele>
        <time>2024-07-14T08:46:30Z</time>
      </trkpt>
      <trkpt lat="42.51076" lon="2.52461">
        <ele>1601.8</ele>
        <time>2024-07-14T08:46:34Z</time>
      </trkpt>
      <trkpt lat="42.51073" lon="2.52467">
        <ele>1597</ele>
        <time>2024-07-14T08:46:41Z</time>
      </trkpt>
      <trkpt lat="42.51068" lon="2.52473">
        <ele>1594.4</ele>
        <time>2024-07-14T08:46:47Z</time>
      </trkpt>
      <trkpt lat="42.5107" lon="2.52472">
        <ele>1594.4</ele>
        <time>2024-07-14T08:46:53Z</time>
      </trkpt>
      <trkpt lat="42.5107" lon="2.52469">
        <ele>1596.2</ele>
        <time>2024-07-14T08:46:58Z</time>
      </trkpt>
      <trkpt lat="42.5107" lon="2.52465">
        <ele>1598.4</ele>
        <time>2024-07-14T08:47:06Z</time>
      </trkpt>
      <trkpt lat="42.51069" lon="2.52459">
        <ele>1599.4</ele>
        <time>2024-07-14T08:47:12Z</time>
      </trkpt>
      <trkpt lat="42.51068" lon="2.52454">
        <ele>1602.8</ele>
        <time>2024-07-14T08:47:19Z</time>
      </trkpt>
      <trkpt lat="42.51066" lon="2.52449">
        <ele>1608</ele>
        <time>2024-07-14T08:47:27Z</time>
      </trkpt>
      <trkpt lat="42.5106" lon="2.52445">
        <ele>1610.4</ele>
        <time>2024-07-14T08:47:34Z</time>
      </trkpt>
      <trkpt lat="42.51059" lon="2.52444">
        <ele>1611.4</ele>
        <time>2024-07-14T08:47:41Z</time>
      </trkpt>
      <trkpt lat="42.51058" lon="2.52448">
        <ele>1612.6</ele>
        <time>2024-07-14T08:47:49Z</time>
      </trkpt>
      <trkpt lat="42.51054" lon="2.52452">
        <ele>1612</ele>
        <time>2024-07-14T08:47:54Z</time>
      </trkpt>
      <trkpt lat="42.51056" lon="2.52461">
        <ele>1611</ele>
        <time>2024-07-14T08:48:01Z</time>
      </trkpt>
      <trkpt lat="42.51053" lon="2.52462">
        <ele>1611.4</ele>
        <time>2024-07-14T08:48:06Z</time>
      </trkpt>
      <trkpt lat="42.5105" lon="2.52458">
        <ele>1610.8</ele>
        <time>2024-07-14T08:48:13Z</time>
      </trkpt>
      <trkpt lat="42.51048" lon="2.52452">
        <ele>1610.8</ele>
        <time>2024-07-14T08:48:18Z</time>
      </trkpt>
      <trkpt lat="42.51047" lon="2.52444">
        <ele>1615.8</ele>
        <time>2024-07-14T08:48:26Z</time>
      </trkpt>
      <trkpt lat="42.5105" lon="2.52439">
        <ele>1619.6</ele>
        <time>2024-07-14T08:48:33Z</time>
      </trkpt>
      <trkpt lat="42.51049" lon="2.52434">
        <ele>1625.2</ele>
        <time>2024-07-14T08:48:41Z</time>
      </trkpt>
      <trkpt lat="42.51045" lon="2.52437">
        <ele>1625.8</ele>
        <time>2024-07-14T08:48:50Z</time>
      </trkpt>
      <trkpt lat="42.51043" lon="2.52445">
        <ele>1625.6</ele>
        <time>2024-07-14T08:48:58Z</time>
      </trkpt>
      <trkpt lat="42.51043" lon="2.52452">
        <ele>1625.2</ele>
        <time>2024-07-14T08:49:04Z</time>
      </trkpt>
      <trkpt lat="42.5104" lon="2.52461">
        <ele>1625</ele>
        <time>2024-07-14T08:49:11Z</time>
      </trkpt>
      <trkpt lat="42.5104" lon="2.52468">
        <ele>1625.2</ele>
        <time>2024-07-14T08:49:18Z</time>
      </trkpt>
      <trkpt lat="42.51039" lon="2.52474">
        <ele>1625.6</ele>
        <time>2024-07-14T08:49:25Z</time>
      </trkpt>
      <trkpt lat="42.51038" lon="2.52478">
        <ele>1626.2</ele>
        <time>2024-07-14T08:49:31Z</time>
      </trkpt>
      <trkpt lat="42.51036" lon="2.52483">
        <ele>1627.4</ele>
        <time>2024-07-14T08:49:37Z</time>
      </trkpt>
      <trkpt lat="42.51035" lon="2.5249">
        <ele>1628.6</ele>
        <time>2024-07-14T08:49:44Z</time>
      </trkpt>
      <trkpt lat="42.51034" lon="2.52495">
        <ele>1629</ele>
        <time>2024-07-14T08:49:47Z</time>
      </trkpt>
      <trkpt lat="42.51032" lon="2.52499">
        <ele>1630</ele>
        <time>2024-07-14T08:49:53Z</time>
      </trkpt>
      <trkpt lat="42.51028" lon="2.52506">
        <ele>1631.8</ele>
        <time>2024-07-14T08:50:00Z</time>
      </trkpt>
      <trkpt lat="42.51026" lon="2.52511">
        <ele>1632.6</ele>
        <time>2024-07-14T08:50:07Z</time>
      </trkpt>
      <trkpt lat="42.51025" lon="2.52514">
        <ele>1632.8</ele>
        <time>2024-07-14T08:50:09Z</time>
      </trkpt>
      <trkpt lat="42.51026" lon="2.52518">
        <ele>1633.4</ele>
        <time>2024-07-14T08:50:14Z</time>
      </trkpt>
      <trkpt lat="42.51025" lon="2.52522">
        <ele>1635.6</ele>
        <time>2024-07-14T08:50:19Z</time>
      </trkpt>
      <trkpt lat="42.51024" lon="2.52525">
        <ele>1637.8</ele>
        <time>2024-07-14T08:50:25Z</time>
      </trkpt>
      <trkpt lat="42.51022" lon="2.5253">
        <ele>1640</ele>
        <time>2024-07-14T08:50:32Z</time>
      </trkpt>
      <trkpt lat="42.51022" lon="2.52536">
        <ele>1640.8</ele>
        <time>2024-07-14T08:50:38Z</time>
      </trkpt>
      <trkpt lat="42.51019" lon="2.52541">
        <ele>1641.6</ele>
        <time>2024-07-14T08:50:43Z</time>
      </trkpt>
      <trkpt lat="42.51016" lon="2.5255">
        <ele>1642.4</ele>
        <time>2024-07-14T08:50:51Z</time>
      </trkpt>
      <trkpt lat="42.51015" lon="2.52558">
        <ele>1644.6</ele>
        <time>2024-07-14T08:50:58Z</time>
      </trkpt>
      <trkpt lat="42.51011" lon="2.52565">
        <ele>1646</ele>
        <time>2024-07-14T08:51:06Z</time>
      </trkpt>
      <trkpt lat="42.5101" lon="2.52568">
        <ele>1646.2</ele>
        <time>2024-07-14T08:51:09Z</time>
      </trkpt>
      <trkpt lat="42.51008" lon="2.5257">
        <ele>1646.2</ele>
        <time>2024-07-14T08:51:14Z</time>
      </trkpt>
      <trkpt lat="42.51008" lon="2.52577">
        <ele>1647.8</ele>
        <time>2024-07-14T08:51:22Z</time>
      </trkpt>
      <trkpt lat="42.51008" lon="2.52585">
        <ele>1647.6</ele>
        <time>2024-07-14T08:51:28Z</time>
      </trkpt>
      <trkpt lat="42.51007" lon="2.52589">
        <ele>1646.2</ele>
        <time>2024-07-14T08:51:35Z</time>
      </trkpt>
      <trkpt lat="42.5101" lon="2.52592">
        <ele>1646.4</ele>
        <time>2024-07-14T08:51:39Z</time>
      </trkpt>
      <trkpt lat="42.5101" lon="2.52594">
        <ele>1647</ele>
        <time>2024-07-14T08:51:41Z</time>
      </trkpt>
      <trkpt lat="42.5101" lon="2.52596">
        <ele>1647.4</ele>
        <time>2024-07-14T08:51:42Z</time>
      </trkpt>
      <trkpt lat="42.5101" lon="2.52598">
        <ele>1648.4</ele>
        <time>2024-07-14T08:51:44Z</time>
      </trkpt>
      <trkpt lat="42.51009" lon="2.52599">
        <ele>1649.4</ele>
        <time>2024-07-14T08:51:46Z</time>
      </trkpt>
      <trkpt lat="42.51006" lon="2.52606">
        <ele>1651.4</ele>
        <time>2024-07-14T08:51:54Z</time>
      </trkpt>
      <trkpt lat="42.51006" lon="2.52607">
        <ele>1651.6</ele>
        <time>2024-07-14T08:51:55Z</time>
      </trkpt>
      <trkpt lat="42.51005" lon="2.52614">
        <ele>1653.4</ele>
        <time>2024-07-14T08:52:00Z</time>
      </trkpt>
      <trkpt lat="42.51005" lon="2.5262">
        <ele>1656.8</ele>
        <time>2024-07-14T08:52:06Z</time>
      </trkpt>
      <trkpt lat="42.51004" lon="2.52629">
        <ele>1662.8</ele>
        <time>2024-07-14T08:52:13Z</time>
      </trkpt>
      <trkpt lat="42.51003" lon="2.5263">
        <ele>1663.6</ele>
        <time>2024-07-14T08:52:14Z</time>
      </trkpt>
      <trkpt lat="42.51001" lon="2.52633">
        <ele>1665.4</ele>
        <time>2024-07-14T08:52:18Z</time>
      </trkpt>
      <trkpt lat="42.51001" lon="2.52634">
        <ele>1665.8</ele>
        <time>2024-07-14T08:52:19Z</time>
      </trkpt>
      <trkpt lat="42.51001" lon="2.52639">
        <ele>1666.8</ele>
        <time>2024-07-14T08:52:26Z</time>
      </trkpt>
      <trkpt lat="42.51002" lon="2.52649">
        <ele>1667.2</ele>
        <time>2024-07-14T08:52:34Z</time>
      </trkpt>
      <trkpt lat="42.51003" lon="2.52655">
        <ele>1667.4</ele>
        <time>2024-07-14T08:52:40Z</time>
      </trkpt>
      <trkpt lat="42.50998" lon="2.52664">
        <ele>1668.4</ele>
        <time>2024-07-14T08:52:47Z</time>
      </trkpt>
      <trkpt lat="42.51" lon="2.52669">
        <ele>1668.2</ele>
        <time>2024-07-14T08:52:52Z</time>
      </trkpt>
      <trkpt lat="42.51" lon="2.52671">
        <ele>1668.2</ele>
        <time>2024-07-14T08:52:54Z</time>
      </trkpt>
      <trkpt lat="42.51" lon="2.52676">
        <ele>1668.8</ele>
        <time>2024-07-14T08:53:03Z</time>
      </trkpt>
      <trkpt lat="42.51" lon="2.52676">
        <ele>1669.6</ele>
        <time>2024-07-14T08:53:13Z</time>
      </trkpt>
      <trkpt lat="42.50996" lon="2.52679">
        <ele>1669.8</ele>
        <time>2024-07-14T08:53:37Z</time>
      </trkpt>
      <trkpt lat="42.50994" lon="2.52677">
        <ele>1670.6</ele>
        <time>2024-07-14T08:53:42Z</time>
      </trkpt>
      <trkpt lat="42.50994" lon="2.52679">
        <ele>1671.8</ele>
        <time>2024-07-14T08:53:47Z</time>
      </trkpt>
      <trkpt lat="42.50985" lon="2.52682">
        <ele>1672</ele>
        <time>2024-07-14T08:53:52Z</time>
      </trkpt>
      <trkpt lat="42.50984" lon="2.52682">
        <ele>1671.8</ele>
        <time>2024-07-14T08:53:57Z</time>
      </trkpt>
      <trkpt lat="42.50985" lon="2.52686">
        <ele>1672</ele>
        <time>2024-07-14T08:54:02Z</time>
      </trkpt>
      <trkpt lat="42.50984" lon="2.52691">
        <ele>1672.6</ele>
        <time>2024-07-14T08:54:07Z</time>
      </trkpt>
      <trkpt lat="42.50984" lon="2.52699">
        <ele>1676.2</ele>
        <time>2024-07-14T08:54:14Z</time>
      </trkpt>
      <trkpt lat="42.50984" lon="2.52708">
        <ele>1677</ele>
        <time>2024-07-14T08:54:21Z</time>
      </trkpt>
      <trkpt lat="42.50985" lon="2.52715">
        <ele>1675.4</ele>
        <time>2024-07-14T08:54:27Z</time>
      </trkpt>
      <trkpt lat="42.5099" lon="2.52724">
        <ele>1675.4</ele>
        <time>2024-07-14T08:54:33Z</time>
      </trkpt>
      <trkpt lat="42.5099" lon="2.52727">
        <ele>1676.8</ele>
        <time>2024-07-14T08:54:36Z</time>
      </trkpt>
      <trkpt lat="42.50994" lon="2.52733">
        <ele>1678</ele>
        <time>2024-07-14T08:54:40Z</time>
      </trkpt>
      <trkpt lat="42.50993" lon="2.52737">
        <ele>1679</ele>
        <time>2024-07-14T08:54:44Z</time>
      </trkpt>
      <trkpt lat="42.50993" lon="2.52742">
        <ele>1680.2</ele>
        <time>2024-07-14T08:54:48Z</time>
      </trkpt>
      <trkpt lat="42.50992" lon="2.5275">
        <ele>1681.4</ele>
        <time>2024-07-14T08:54:56Z</time>
      </trkpt>
      <trkpt lat="42.5099" lon="2.52759">
        <ele>1682</ele>
        <time>2024-07-14T08:55:06Z</time>
      </trkpt>
      <trkpt lat="42.50988" lon="2.52768">
        <ele>1684</ele>
        <time>2024-07-14T08:55:13Z</time>
      </trkpt>
      <trkpt lat="42.50987" lon="2.52771">
        <ele>1684.2</ele>
        <time>2024-07-14T08:55:15Z</time>
      </trkpt>
      <trkpt lat="42.50987" lon="2.52772">
        <ele>1684.4</ele>
        <time>2024-07-14T08:55:16Z</time>
      </trkpt>
      <trkpt lat="42.50983" lon="2.52782">
        <ele>1687.2</ele>
        <time>2024-07-14T08:55:24Z</time>
      </trkpt>
      <trkpt lat="42.50981" lon="2.52786">
        <ele>1688.8</ele>
        <time>2024-07-14T08:55:30Z</time>
      </trkpt>
      <trkpt lat="42.50979" lon="2.52787">
        <ele>1689.2</ele>
        <time>2024-07-14T08:55:35Z</time>
      </trkpt>
      <trkpt lat="42.50975" lon="2.52791">
        <ele>1690.8</ele>
        <time>2024-07-14T08:55:41Z</time>
      </trkpt>
      <trkpt lat="42.5097" lon="2.52796">
        <ele>1692</ele>
        <time>2024-07-14T08:55:48Z</time>
      </trkpt>
      <trkpt lat="42.50963" lon="2.528">
        <ele>1693.8</ele>
        <time>2024-07-14T08:55:56Z</time>
      </trkpt>
      <trkpt lat="42.50962" lon="2.528">
        <ele>1694</ele>
        <time>2024-07-14T08:55:57Z</time>
      </trkpt>
      <trkpt lat="42.5096" lon="2.52803">
        <ele>1696.2</ele>
        <time>2024-07-14T08:56:02Z</time>
      </trkpt>
      <trkpt lat="42.50956" lon="2.52803">
        <ele>1698.8</ele>
        <time>2024-07-14T08:56:07Z</time>
      </trkpt>
      <trkpt lat="42.50954" lon="2.52804">
        <ele>1699.2</ele>
        <time>2024-07-14T08:56:11Z</time>
      </trkpt>
      <trkpt lat="42.50947" lon="2.52807">
        <ele>1698.6</ele>
        <time>2024-07-14T08:56:18Z</time>
      </trkpt>
      <trkpt lat="42.5094" lon="2.52809">
        <ele>1698.6</ele>
        <time>2024-07-14T08:56:27Z</time>
      </trkpt>
      <trkpt lat="42.50937" lon="2.52811">
        <ele>1699</ele>
        <time>2024-07-14T08:56:34Z</time>
      </trkpt>
      <trkpt lat="42.5093" lon="2.52815">
        <ele>1699.4</ele>
        <time>2024-07-14T08:56:41Z</time>
      </trkpt>
      <trkpt lat="42.50925" lon="2.52816">
        <ele>1698</ele>
        <time>2024-07-14T08:56:47Z</time>
      </trkpt>
      <trkpt lat="42.50922" lon="2.52816">
        <ele>1697.2</ele>
        <time>2024-07-14T08:56:52Z</time>
      </trkpt>
      <trkpt lat="42.50915" lon="2.52816">
        <ele>1697.8</ele>
        <time>2024-07-14T08:56:59Z</time>
      </trkpt>
      <trkpt lat="42.50907" lon="2.52817">
        <ele>1699.2</ele>
        <time>2024-07-14T08:57:08Z</time>
      </trkpt>
      <trkpt lat="42.50903" lon="2.52817">
        <ele>1698.4</ele>
        <time>2024-07-14T08:57:13Z</time>
      </trkpt>
      <trkpt lat="42.50899" lon="2.52821">
        <ele>1698.4</ele>
        <time>2024-07-14T08:57:16Z</time>
      </trkpt>
      <trkpt lat="42.50895" lon="2.52828">
        <ele>1702.4</ele>
        <time>2024-07-14T08:57:24Z</time>
      </trkpt>
      <trkpt lat="42.50894" lon="2.52828">
        <ele>1703</ele>
        <time>2024-07-14T08:57:25Z</time>
      </trkpt>
      <trkpt lat="42.5089" lon="2.52829">
        <ele>1704.6</ele>
        <time>2024-07-14T08:57:29Z</time>
      </trkpt>
      <trkpt lat="42.50888" lon="2.52831">
        <ele>1705.2</ele>
        <time>2024-07-14T08:57:31Z</time>
      </trkpt>
      <trkpt lat="42.50884" lon="2.52832">
        <ele>1706.6</ele>
        <time>2024-07-14T08:57:37Z</time>
      </trkpt>
      <trkpt lat="42.50883" lon="2.52832">
        <ele>1706.8</ele>
        <time>2024-07-14T08:57:38Z</time>
      </trkpt>
      <trkpt lat="42.50879" lon="2.52833">
        <ele>1704.2</ele>
        <time>2024-07-14T08:57:44Z</time>
      </trkpt>
      <trkpt lat="42.50875" lon="2.52834">
        <ele>1701.8</ele>
        <time>2024-07-14T08:57:50Z</time>
      </trkpt>
      <trkpt lat="42.50873" lon="2.52836">
        <ele>1701.4</ele>
        <time>2024-07-14T08:57:52Z</time>
      </trkpt>
      <trkpt lat="42.50869" lon="2.52838">
        <ele>1701.6</ele>
        <time>2024-07-14T08:57:56Z</time>
      </trkpt>
      <trkpt lat="42.50867" lon="2.52839">
        <ele>1702.6</ele>
        <time>2024-07-14T08:57:59Z</time>
      </trkpt>
      <trkpt lat="42.50866" lon="2.5284">
        <ele>1703.8</ele>
        <time>2024-07-14T08:58:01Z</time>
      </trkpt>
      <trkpt lat="42.50865" lon="2.52841">
        <ele>1704.4</ele>
        <time>2024-07-14T08:58:02Z</time>
      </trkpt>
      <trkpt lat="42.50863" lon="2.52843">
        <ele>1705.6</ele>
        <time>2024-07-14T08:58:04Z</time>
      </trkpt>
      <trkpt lat="42.5086" lon="2.52846">
        <ele>1706.6</ele>
        <time>2024-07-14T08:58:07Z</time>
      </trkpt>
      <trkpt lat="42.50852" lon="2.52849">
        <ele>1707</ele>
        <time>2024-07-14T08:58:14Z</time>
      </trkpt>
      <trkpt lat="42.50848" lon="2.52844">
        <ele>1706.2</ele>
        <time>2024-07-14T08:58:19Z</time>
      </trkpt>
      <trkpt lat="42.50846" lon="2.52845">
        <ele>1706</ele>
        <time>2024-07-14T08:58:21Z</time>
      </trkpt>
      <trkpt lat="42.50843" lon="2.52847">
        <ele>1705.6</ele>
        <time>2024-07-14T08:58:25Z</time>
      </trkpt>
      <trkpt lat="42.5084" lon="2.52851">
        <ele>1706.6</ele>
        <time>2024-07-14T08:58:30Z</time>
      </trkpt>
      <trkpt lat="42.5084" lon="2.52852">
        <ele>1706.6</ele>
        <time>2024-07-14T08:58:31Z</time>
      </trkpt>
      <trkpt lat="42.50838" lon="2.52859">
        <ele>1707.6</ele>
        <time>2024-07-14T08:58:36Z</time>
      </trkpt>
      <trkpt lat="42.50837" lon="2.52859">
        <ele>1708</ele>
        <time>2024-07-14T08:58:37Z</time>
      </trkpt>
      <trkpt lat="42.50823" lon="2.52868">
        <ele>1709.6</ele>
        <time>2024-07-14T08:58:45Z</time>
      </trkpt>
      <trkpt lat="42.5082" lon="2.5287">
        <ele>1709.6</ele>
        <time>2024-07-14T08:58:50Z</time>
      </trkpt>
      <trkpt lat="42.50819" lon="2.52871">
        <ele>1709.6</ele>
        <time>2024-07-14T08:58:52Z</time>
      </trkpt>
      <trkpt lat="42.50817" lon="2.52875">
        <ele>1709.8</ele>
        <time>2024-07-14T08:58:58Z</time>
      </trkpt>
      <trkpt lat="42.50809" lon="2.52879">
        <ele>1711.6</ele>
        <time>2024-07-14T08:59:05Z</time>
      </trkpt>
      <trkpt lat="42.50803" lon="2.52882">
        <ele>1714</ele>
        <time>2024-07-14T08:59:10Z</time>
      </trkpt>
      <trkpt lat="42.50797" lon="2.52885">
        <ele>1714.6</ele>
        <time>2024-07-14T08:59:17Z</time>
      </trkpt>
      <trkpt lat="42.50794" lon="2.52891">
        <ele>1714.4</ele>
        <time>2024-07-14T08:59:24Z</time>
      </trkpt>
      <trkpt lat="42.50788" lon="2.52895">
        <ele>1714.6</ele>
        <time>2024-07-14T08:59:29Z</time>
      </trkpt>
      <trkpt lat="42.50787" lon="2.52896">
        <ele>1714.6</ele>
        <time>2024-07-14T08:59:30Z</time>
      </trkpt>
      <trkpt lat="42.50784" lon="2.529">
        <ele>1716.4</ele>
        <time>2024-07-14T08:59:36Z</time>
      </trkpt>
      <trkpt lat="42.50781" lon="2.52904">
        <ele>1719.8</ele>
        <time>2024-07-14T08:59:44Z</time>
      </trkpt>
      <trkpt lat="42.50778" lon="2.52905">
        <ele>1719.8</ele>
        <time>2024-07-14T08:59:45Z</time>
      </trkpt>
      <trkpt lat="42.50773" lon="2.52908">
        <ele>1718.6</ele>
        <time>2024-07-14T08:59:48Z</time>
      </trkpt>
      <trkpt lat="42.50773" lon="2.5291">
        <ele>1717.4</ele>
        <time>2024-07-14T08:59:50Z</time>
      </trkpt>
      <trkpt lat="42.50768" lon="2.52912">
        <ele>1715.8</ele>
        <time>2024-07-14T08:59:55Z</time>
      </trkpt>
      <trkpt lat="42.50765" lon="2.52917">
        <ele>1714.4</ele>
        <time>2024-07-14T09:00:03Z</time>
      </trkpt>
      <trkpt lat="42.5076" lon="2.5292">
        <ele>1714.4</ele>
        <time>2024-07-14T09:00:06Z</time>
      </trkpt>
      <trkpt lat="42.50757" lon="2.52924">
        <ele>1715</ele>
        <time>2024-07-14T09:00:09Z</time>
      </trkpt>
      <trkpt lat="42.50756" lon="2.52926">
        <ele>1715.4</ele>
        <time>2024-07-14T09:00:10Z</time>
      </trkpt>
      <trkpt lat="42.50753" lon="2.5293">
        <ele>1716.6</ele>
        <time>2024-07-14T09:00:14Z</time>
      </trkpt>
      <trkpt lat="42.50752" lon="2.52932">
        <ele>1717</ele>
        <time>2024-07-14T09:00:16Z</time>
      </trkpt>
      <trkpt lat="42.50748" lon="2.52934">
        <ele>1717.6</ele>
        <time>2024-07-14T09:00:20Z</time>
      </trkpt>
      <trkpt lat="42.50746" lon="2.52935">
        <ele>1717.6</ele>
        <time>2024-07-14T09:00:23Z</time>
      </trkpt>
      <trkpt lat="42.50737" lon="2.52945">
        <ele>1717.8</ele>
        <time>2024-07-14T09:00:31Z</time>
      </trkpt>
      <trkpt lat="42.50731" lon="2.52948">
        <ele>1718</ele>
        <time>2024-07-14T09:00:35Z</time>
      </trkpt>
      <trkpt lat="42.50729" lon="2.52948">
        <ele>1718.2</ele>
        <time>2024-07-14T09:00:37Z</time>
      </trkpt>
      <trkpt lat="42.50722" lon="2.52952">
        <ele>1720.2</ele>
        <time>2024-07-14T09:00:46Z</time>
      </trkpt>
      <trkpt lat="42.50716" lon="2.52957">
        <ele>1721.8</ele>
        <time>2024-07-14T09:00:54Z</time>
      </trkpt>
      <trkpt lat="42.50712" lon="2.52962">
        <ele>1721</ele>
        <time>2024-07-14T09:01:01Z</time>
      </trkpt>
      <trkpt lat="42.50712" lon="2.52962">
        <ele>1720.8</ele>
        <time>2024-07-14T09:01:03Z</time>
      </trkpt>
      <trkpt lat="42.50707" lon="2.52962">
        <ele>1720.8</ele>
        <time>2024-07-14T09:01:07Z</time>
      </trkpt>
      <trkpt lat="42.50702" lon="2.52967">
        <ele>1719.4</ele>
        <time>2024-07-14T09:01:14Z</time>
      </trkpt>
      <trkpt lat="42.50694" lon="2.52978">
        <ele>1719.6</ele>
        <time>2024-07-14T09:01:23Z</time>
      </trkpt>
      <trkpt lat="42.50692" lon="2.52978">
        <ele>1720.4</ele>
        <time>2024-07-14T09:01:26Z</time>
      </trkpt>
      <trkpt lat="42.5069" lon="2.52979">
        <ele>1720.8</ele>
        <time>2024-07-14T09:01:28Z</time>
      </trkpt>
      <trkpt lat="42.5069" lon="2.52981">
        <ele>1721</ele>
        <time>2024-07-14T09:01:30Z</time>
      </trkpt>
      <trkpt lat="42.5069" lon="2.52983">
        <ele>1721</ele>
        <time>2024-07-14T09:01:32Z</time>
      </trkpt>
      <trkpt lat="42.50688" lon="2.52986">
        <ele>1721.2</ele>
        <time>2024-07-14T09:01:35Z</time>
      </trkpt>
      <trkpt lat="42.50684" lon="2.52994">
        <ele>1723</ele>
        <time>2024-07-14T09:01:43Z</time>
      </trkpt>
      <trkpt lat="42.50678" lon="2.53">
        <ele>1726.2</ele>
        <time>2024-07-14T09:01:49Z</time>
      </trkpt>
      <trkpt lat="42.50676" lon="2.53004">
        <ele>1726.8</ele>
        <time>2024-07-14T09:01:53Z</time>
      </trkpt>
      <trkpt lat="42.50675" lon="2.53005">
        <ele>1726.8</ele>
        <time>2024-07-14T09:01:54Z</time>
      </trkpt>
      <trkpt lat="42.50674" lon="2.53006">
        <ele>1726.8</ele>
        <time>2024-07-14T09:01:55Z</time>
      </trkpt>
      <trkpt lat="42.5067" lon="2.53013">
        <ele>1726</ele>
        <time>2024-07-14T09:02:01Z</time>
      </trkpt>
      <trkpt lat="42.50669" lon="2.53018">
        <ele>1725.4</ele>
        <time>2024-07-14T09:02:07Z</time>
      </trkpt>
      <trkpt lat="42.5067" lon="2.53019">
        <ele>1725.2</ele>
        <time>2024-07-14T09:02:09Z</time>
      </trkpt>
      <trkpt lat="42.50667" lon="2.53022">
        <ele>1725</ele>
        <time>2024-07-14T09:02:11Z</time>
      </trkpt>
      <trkpt lat="42.50667" lon="2.53024">
        <ele>1724.8</ele>
        <time>2024-07-14T09:02:13Z</time>
      </trkpt>
      <trkpt lat="42.50667" lon="2.53035">
        <ele>1724.2</ele>
        <time>2024-07-14T09:02:22Z</time>
      </trkpt>
      <trkpt lat="42.50662" lon="2.53039">
        <ele>1723</ele>
        <time>2024-07-14T09:02:26Z</time>
      </trkpt>
      <trkpt lat="42.50659" lon="2.53039">
        <ele>1722.4</ele>
        <time>2024-07-14T09:02:29Z</time>
      </trkpt>
      <trkpt lat="42.50657" lon="2.53041">
        <ele>1722.2</ele>
        <time>2024-07-14T09:02:31Z</time>
      </trkpt>
      <trkpt lat="42.50656" lon="2.53044">
        <ele>1722.2</ele>
        <time>2024-07-14T09:02:33Z</time>
      </trkpt>
      <trkpt lat="42.50655" lon="2.53047">
        <ele>1722.4</ele>
        <time>2024-07-14T09:02:35Z</time>
      </trkpt>
      <trkpt lat="42.5065" lon="2.53057">
        <ele>1726</ele>
        <time>2024-07-14T09:02:44Z</time>
      </trkpt>
      <trkpt lat="42.50647" lon="2.5306">
        <ele>1727.6</ele>
        <time>2024-07-14T09:02:47Z</time>
      </trkpt>
      <trkpt lat="42.50645" lon="2.53061">
        <ele>1728.4</ele>
        <time>2024-07-14T09:02:50Z</time>
      </trkpt>
      <trkpt lat="42.50641" lon="2.53063">
        <ele>1728.8</ele>
        <time>2024-07-14T09:02:54Z</time>
      </trkpt>
      <trkpt lat="42.50641" lon="2.53064">
        <ele>1728.4</ele>
        <time>2024-07-14T09:02:56Z</time>
      </trkpt>
      <trkpt lat="42.50638" lon="2.53065">
        <ele>1727.6</ele>
        <time>2024-07-14T09:02:58Z</time>
      </trkpt>
      <trkpt lat="42.50638" lon="2.53069">
        <ele>1726</ele>
        <time>2024-07-14T09:03:01Z</time>
      </trkpt>
      <trkpt lat="42.50632" lon="2.53081">
        <ele>1724.8</ele>
        <time>2024-07-14T09:03:09Z</time>
      </trkpt>
      <trkpt lat="42.50634" lon="2.53085">
        <ele>1724.8</ele>
        <time>2024-07-14T09:03:15Z</time>
      </trkpt>
      <trkpt lat="42.50629" lon="2.53096">
        <ele>1727.2</ele>
        <time>2024-07-14T09:03:22Z</time>
      </trkpt>
      <trkpt lat="42.50628" lon="2.53097">
        <ele>1727.6</ele>
        <time>2024-07-14T09:03:23Z</time>
      </trkpt>
      <trkpt lat="42.50624" lon="2.53104">
        <ele>1728.4</ele>
        <time>2024-07-14T09:03:31Z</time>
      </trkpt>
      <trkpt lat="42.50623" lon="2.53108">
        <ele>1729.4</ele>
        <time>2024-07-14T09:03:34Z</time>
      </trkpt>
      <trkpt lat="42.50619" lon="2.5311">
        <ele>1731</ele>
        <time>2024-07-14T09:03:38Z</time>
      </trkpt>
      <trkpt lat="42.50614" lon="2.53114">
        <ele>1731.4</ele>
        <time>2024-07-14T09:03:43Z</time>
      </trkpt>
      <trkpt lat="42.50614" lon="2.53114">
        <ele>1731.4</ele>
        <time>2024-07-14T09:03:44Z</time>
      </trkpt>
      <trkpt lat="42.50615" lon="2.53124">
        <ele>1730.2</ele>
        <time>2024-07-14T09:03:50Z</time>
      </trkpt>
      <trkpt lat="42.50616" lon="2.53136">
        <ele>1729</ele>
        <time>2024-07-14T09:03:58Z</time>
      </trkpt>
      <trkpt lat="42.50615" lon="2.53138">
        <ele>1729</ele>
        <time>2024-07-14T09:03:59Z</time>
      </trkpt>
      <trkpt lat="42.50614" lon="2.53147">
        <ele>1725.8</ele>
        <time>2024-07-14T09:04:06Z</time>
      </trkpt>
      <trkpt lat="42.50618" lon="2.53152">
        <ele>1724.2</ele>
        <time>2024-07-14T09:04:11Z</time>
      </trkpt>
      <trkpt lat="42.5062" lon="2.53161">
        <ele>1724.2</ele>
        <time>2024-07-14T09:04:16Z</time>
      </trkpt>
      <trkpt lat="42.50619" lon="2.53165">
        <ele>1724.4</ele>
        <time>2024-07-14T09:04:18Z</time>
      </trkpt>
      <trkpt lat="42.50621" lon="2.53167">
        <ele>1724.6</ele>
        <time>2024-07-14T09:04:20Z</time>
      </trkpt>
      <trkpt lat="42.50627" lon="2.53171">
        <ele>1725</ele>
        <time>2024-07-14T09:04:24Z</time>
      </trkpt>
      <trkpt lat="42.50628" lon="2.53174">
        <ele>1725.8</ele>
        <time>2024-07-14T09:04:27Z</time>
      </trkpt>
      <trkpt lat="42.50627" lon="2.53184">
        <ele>1726.4</ele>
        <time>2024-07-14T09:04:33Z</time>
      </trkpt>
      <trkpt lat="42.50627" lon="2.53186">
        <ele>1726.2</ele>
        <time>2024-07-14T09:04:34Z</time>
      </trkpt>
      <trkpt lat="42.50631" lon="2.53198">
        <ele>1724.6</ele>
        <time>2024-07-14T09:04:44Z</time>
      </trkpt>
      <trkpt lat="42.5063" lon="2.53201">
        <ele>1724.8</ele>
        <time>2024-07-14T09:04:46Z</time>
      </trkpt>
      <trkpt lat="42.50632" lon="2.53204">
        <ele>1725</ele>
        <time>2024-07-14T09:04:48Z</time>
      </trkpt>
      <trkpt lat="42.50635" lon="2.53211">
        <ele>1726.2</ele>
        <time>2024-07-14T09:04:52Z</time>
      </trkpt>
      <trkpt lat="42.50637" lon="2.53214">
        <ele>1727.2</ele>
        <time>2024-07-14T09:04:55Z</time>
      </trkpt>
      <trkpt lat="42.50639" lon="2.53222">
        <ele>1729.8</ele>
        <time>2024-07-14T09:05:00Z</time>
      </trkpt>
      <trkpt lat="42.5064" lon="2.53225">
        <ele>1730.4</ele>
        <time>2024-07-14T09:05:02Z</time>
      </trkpt>
      <trkpt lat="42.50646" lon="2.53233">
        <ele>1730.8</ele>
        <time>2024-07-14T09:05:09Z</time>
      </trkpt>
      <trkpt lat="42.50648" lon="2.53233">
        <ele>1730.8</ele>
        <time>2024-07-14T09:05:10Z</time>
      </trkpt>
      <trkpt lat="42.5065" lon="2.53235">
        <ele>1730.8</ele>
        <time>2024-07-14T09:05:11Z</time>
      </trkpt>
      <trkpt lat="42.50652" lon="2.53246">
        <ele>1730.4</ele>
        <time>2024-07-14T09:05:17Z</time>
      </trkpt>
      <trkpt lat="42.50651" lon="2.53247">
        <ele>1729.8</ele>
        <time>2024-07-14T09:05:18Z</time>
      </trkpt>
      <trkpt lat="42.50649" lon="2.53252">
        <ele>1728.8</ele>
        <time>2024-07-14T09:05:21Z</time>
      </trkpt>
      <trkpt lat="42.50651" lon="2.53253">
        <ele>1728.4</ele>
        <time>2024-07-14T09:05:22Z</time>
      </trkpt>
      <trkpt lat="42.50655" lon="2.53261">
        <ele>1726.2</ele>
        <time>2024-07-14T09:05:29Z</time>
      </trkpt>
      <trkpt lat="42.50662" lon="2.53269">
        <ele>1724</ele>
        <time>2024-07-14T09:05:35Z</time>
      </trkpt>
      <trkpt lat="42.50664" lon="2.53271">
        <ele>1723.8</ele>
        <time>2024-07-14T09:05:37Z</time>
      </trkpt>
      <trkpt lat="42.50666" lon="2.53272">
        <ele>1723.8</ele>
        <time>2024-07-14T09:05:39Z</time>
      </trkpt>
      <trkpt lat="42.50666" lon="2.53273">
        <ele>1725</ele>
        <time>2024-07-14T09:05:41Z</time>
      </trkpt>
      <trkpt lat="42.50669" lon="2.53275">
        <ele>1730.4</ele>
        <time>2024-07-14T09:05:46Z</time>
      </trkpt>
      <trkpt lat="42.50672" lon="2.53275">
        <ele>1731</ele>
        <time>2024-07-14T09:05:47Z</time>
      </trkpt>
      <trkpt lat="42.50677" lon="2.53276">
        <ele>1732.2</ele>
        <time>2024-07-14T09:05:50Z</time>
      </trkpt>
      <trkpt lat="42.50691" lon="2.5328">
        <ele>1732.6</ele>
        <time>2024-07-14T09:05:55Z</time>
      </trkpt>
      <trkpt lat="42.50704" lon="2.53293">
        <ele>1730.4</ele>
        <time>2024-07-14T09:06:05Z</time>
      </trkpt>
      <trkpt lat="42.50705" lon="2.53295">
        <ele>1730.4</ele>
        <time>2024-07-14T09:06:08Z</time>
      </trkpt>
      <trkpt lat="42.50708" lon="2.533">
        <ele>1731</ele>
        <time>2024-07-14T09:06:12Z</time>
      </trkpt>
      <trkpt lat="42.50714" lon="2.53303">
        <ele>1731.4</ele>
        <time>2024-07-14T09:06:15Z</time>
      </trkpt>
      <trkpt lat="42.50715" lon="2.53306">
        <ele>1731.6</ele>
        <time>2024-07-14T09:06:17Z</time>
      </trkpt>
      <trkpt lat="42.50714" lon="2.53308">
        <ele>1731.8</ele>
        <time>2024-07-14T09:06:18Z</time>
      </trkpt>
      <trkpt lat="42.50716" lon="2.5331">
        <ele>1731.8</ele>
        <time>2024-07-14T09:06:20Z</time>
      </trkpt>
      <trkpt lat="42.50717" lon="2.53313">
        <ele>1731.6</ele>
        <time>2024-07-14T09:06:23Z</time>
      </trkpt>
      <trkpt lat="42.50716" lon="2.53316">
        <ele>1731.4</ele>
        <time>2024-07-14T09:06:25Z</time>
      </trkpt>
      <trkpt lat="42.50716" lon="2.53325">
        <ele>1730.2</ele>
        <time>2024-07-14T09:06:31Z</time>
      </trkpt>
      <trkpt lat="42.50715" lon="2.53334">
        <ele>1726.4</ele>
        <time>2024-07-14T09:06:37Z</time>
      </trkpt>
      <trkpt lat="42.50715" lon="2.53345">
        <ele>1724.8</ele>
        <time>2024-07-14T09:06:45Z</time>
      </trkpt>
      <trkpt lat="42.50715" lon="2.53347">
        <ele>1724.8</ele>
        <time>2024-07-14T09:06:46Z</time>
      </trkpt>
      <trkpt lat="42.50717" lon="2.53354">
        <ele>1725.8</ele>
        <time>2024-07-14T09:06:51Z</time>
      </trkpt>
      <trkpt lat="42.50723" lon="2.53359">
        <ele>1727.4</ele>
        <time>2024-07-14T09:06:55Z</time>
      </trkpt>
      <trkpt lat="42.50723" lon="2.53363">
        <ele>1728.2</ele>
        <time>2024-07-14T09:06:57Z</time>
      </trkpt>
      <trkpt lat="42.50724" lon="2.53366">
        <ele>1729</ele>
        <time>2024-07-14T09:06:59Z</time>
      </trkpt>
      <trkpt lat="42.50723" lon="2.53371">
        <ele>1729.4</ele>
        <time>2024-07-14T09:07:02Z</time>
      </trkpt>
      <trkpt lat="42.50722" lon="2.53373">
        <ele>1729.6</ele>
        <time>2024-07-14T09:07:03Z</time>
      </trkpt>
      <trkpt lat="42.50724" lon="2.53376">
        <ele>1729.2</ele>
        <time>2024-07-14T09:07:05Z</time>
      </trkpt>
      <trkpt lat="42.50724" lon="2.5338">
        <ele>1729</ele>
        <time>2024-07-14T09:07:07Z</time>
      </trkpt>
      <trkpt lat="42.50723" lon="2.53383">
        <ele>1728.8</ele>
        <time>2024-07-14T09:07:09Z</time>
      </trkpt>
      <trkpt lat="42.50725" lon="2.53386">
        <ele>1727.8</ele>
        <time>2024-07-14T09:07:11Z</time>
      </trkpt>
      <trkpt lat="42.50727" lon="2.53388">
        <ele>1727.2</ele>
        <time>2024-07-14T09:07:12Z</time>
      </trkpt>
      <trkpt lat="42.50727" lon="2.53404">
        <ele>1725.6</ele>
        <time>2024-07-14T09:07:19Z</time>
      </trkpt>
      <trkpt lat="42.5073" lon="2.53412">
        <ele>1723.8</ele>
        <time>2024-07-14T09:07:26Z</time>
      </trkpt>
      <trkpt lat="42.50728" lon="2.53415">
        <ele>1723.2</ele>
        <time>2024-07-14T09:07:28Z</time>
      </trkpt>
      <trkpt lat="42.50728" lon="2.53419">
        <ele>1722.8</ele>
        <time>2024-07-14T09:07:30Z</time>
      </trkpt>
      <trkpt lat="42.50727" lon="2.53426">
        <ele>1722.4</ele>
        <time>2024-07-14T09:07:33Z</time>
      </trkpt>
      <trkpt lat="42.50732" lon="2.53427">
        <ele>1722.4</ele>
        <time>2024-07-14T09:07:35Z</time>
      </trkpt>
      <trkpt lat="42.5074" lon="2.53432">
        <ele>1725.4</ele>
        <time>2024-07-14T09:07:39Z</time>
      </trkpt>
      <trkpt lat="42.50739" lon="2.53438">
        <ele>1728</ele>
        <time>2024-07-14T09:07:42Z</time>
      </trkpt>
      <trkpt lat="42.50739" lon="2.53441">
        <ele>1728.8</ele>
        <time>2024-07-14T09:07:45Z</time>
      </trkpt>
      <trkpt lat="42.50742" lon="2.53444">
        <ele>1729</ele>
        <time>2024-07-14T09:07:48Z</time>
      </trkpt>
      <trkpt lat="42.50741" lon="2.53446">
        <ele>1729.2</ele>
        <time>2024-07-14T09:07:49Z</time>
      </trkpt>
      <trkpt lat="42.50745" lon="2.53453">
        <ele>1730</ele>
        <time>2024-07-14T09:07:53Z</time>
      </trkpt>
      <trkpt lat="42.50746" lon="2.53456">
        <ele>1730.2</ele>
        <time>2024-07-14T09:07:55Z</time>
      </trkpt>
      <trkpt lat="42.50749" lon="2.53459">
        <ele>1730.4</ele>
        <time>2024-07-14T09:07:57Z</time>
      </trkpt>
      <trkpt lat="42.50752" lon="2.53462">
        <ele>1731</ele>
        <time>2024-07-14T09:07:59Z</time>
      </trkpt>
      <trkpt lat="42.50754" lon="2.53466">
        <ele>1732.2</ele>
        <time>2024-07-14T09:08:01Z</time>
      </trkpt>
      <trkpt lat="42.50759" lon="2.53471">
        <ele>1734.2</ele>
        <time>2024-07-14T09:08:05Z</time>
      </trkpt>
      <trkpt lat="42.50761" lon="2.53472">
        <ele>1735</ele>
        <time>2024-07-14T09:08:06Z</time>
      </trkpt>
      <trkpt lat="42.50764" lon="2.53477">
        <ele>1736.8</ele>
        <time>2024-07-14T09:08:09Z</time>
      </trkpt>
      <trkpt lat="42.50764" lon="2.53479">
        <ele>1737</ele>
        <time>2024-07-14T09:08:10Z</time>
      </trkpt>
      <trkpt lat="42.50767" lon="2.53488">
        <ele>1736.4</ele>
        <time>2024-07-14T09:08:16Z</time>
      </trkpt>
      <trkpt lat="42.50769" lon="2.53493">
        <ele>1736</ele>
        <time>2024-07-14T09:08:19Z</time>
      </trkpt>
      <trkpt lat="42.50766" lon="2.53497">
        <ele>1736.4</ele>
        <time>2024-07-14T09:08:22Z</time>
      </trkpt>
      <trkpt lat="42.50764" lon="2.53497">
        <ele>1736.6</ele>
        <time>2024-07-14T09:08:23Z</time>
      </trkpt>
      <trkpt lat="42.50766" lon="2.53503">
        <ele>1737.2</ele>
        <time>2024-07-14T09:08:27Z</time>
      </trkpt>
      <trkpt lat="42.50766" lon="2.53505">
        <ele>1737.4</ele>
        <time>2024-07-14T09:08:28Z</time>
      </trkpt>
      <trkpt lat="42.50769" lon="2.53508">
        <ele>1737.4</ele>
        <time>2024-07-14T09:08:30Z</time>
      </trkpt>
      <trkpt lat="42.50769" lon="2.5351">
        <ele>1737.4</ele>
        <time>2024-07-14T09:08:32Z</time>
      </trkpt>
      <trkpt lat="42.50768" lon="2.53512">
        <ele>1737.4</ele>
        <time>2024-07-14T09:08:33Z</time>
      </trkpt>
      <trkpt lat="42.50768" lon="2.53513">
        <ele>1737.2</ele>
        <time>2024-07-14T09:08:34Z</time>
      </trkpt>
      <trkpt lat="42.50772" lon="2.53521">
        <ele>1736</ele>
        <time>2024-07-14T09:08:39Z</time>
      </trkpt>
      <trkpt lat="42.50775" lon="2.53522">
        <ele>1735.8</ele>
        <time>2024-07-14T09:08:41Z</time>
      </trkpt>
      <trkpt lat="42.50779" lon="2.53527">
        <ele>1736.8</ele>
        <time>2024-07-14T09:08:44Z</time>
      </trkpt>
      <trkpt lat="42.50778" lon="2.53529">
        <ele>1737.4</ele>
        <time>2024-07-14T09:08:45Z</time>
      </trkpt>
      <trkpt lat="42.50777" lon="2.53533">
        <ele>1738</ele>
        <time>2024-07-14T09:08:47Z</time>
      </trkpt>
      <trkpt lat="42.50779" lon="2.53537">
        <ele>1737.8</ele>
        <time>2024-07-14T09:08:50Z</time>
      </trkpt>
      <trkpt lat="42.5078" lon="2.53541">
        <ele>1737.4</ele>
        <time>2024-07-14T09:08:52Z</time>
      </trkpt>
      <trkpt lat="42.50783" lon="2.53555">
        <ele>1736.4</ele>
        <time>2024-07-14T09:09:01Z</time>
      </trkpt>
      <trkpt lat="42.50784" lon="2.53562">
        <ele>1736</ele>
        <time>2024-07-14T09:09:05Z</time>
      </trkpt>
      <trkpt lat="42.50782" lon="2.53563">
        <ele>1736</ele>
        <time>2024-07-14T09:09:06Z</time>
      </trkpt>
      <trkpt lat="42.50782" lon="2.53566">
        <ele>1736</ele>
        <time>2024-07-14T09:09:08Z</time>
      </trkpt>
      <trkpt lat="42.50781" lon="2.53573">
        <ele>1736</ele>
        <time>2024-07-14T09:09:12Z</time>
      </trkpt>
      <trkpt lat="42.5078" lon="2.53588">
        <ele>1734.6</ele>
        <time>2024-07-14T09:09:19Z</time>
      </trkpt>
      <trkpt lat="42.50777" lon="2.53596">
        <ele>1733.6</ele>
        <time>2024-07-14T09:09:26Z</time>
      </trkpt>
      <trkpt lat="42.50776" lon="2.53598">
        <ele>1733.6</ele>
        <time>2024-07-14T09:09:27Z</time>
      </trkpt>
      <trkpt lat="42.50777" lon="2.53601">
        <ele>1733.2</ele>
        <time>2024-07-14T09:09:29Z</time>
      </trkpt>
      <trkpt lat="42.50778" lon="2.53605">
        <ele>1732.8</ele>
        <time>2024-07-14T09:09:31Z</time>
      </trkpt>
      <trkpt lat="42.50772" lon="2.53615">
        <ele>1732.2</ele>
        <time>2024-07-14T09:09:37Z</time>
      </trkpt>
      <trkpt lat="42.50771" lon="2.53629">
        <ele>1731.6</ele>
        <time>2024-07-14T09:09:44Z</time>
      </trkpt>
      <trkpt lat="42.50764" lon="2.5364">
        <ele>1732.6</ele>
        <time>2024-07-14T09:09:52Z</time>
      </trkpt>
      <trkpt lat="42.50759" lon="2.53645">
        <ele>1733.6</ele>
        <time>2024-07-14T09:09:57Z</time>
      </trkpt>
      <trkpt lat="42.5076" lon="2.53649">
        <ele>1733.8</ele>
        <time>2024-07-14T09:09:59Z</time>
      </trkpt>
      <trkpt lat="42.5076" lon="2.53652">
        <ele>1733.8</ele>
        <time>2024-07-14T09:10:00Z</time>
      </trkpt>
      <trkpt lat="42.50756" lon="2.53665">
        <ele>1735</ele>
        <time>2024-07-14T09:10:08Z</time>
      </trkpt>
      <trkpt lat="42.50756" lon="2.53669">
        <ele>1735</ele>
        <time>2024-07-14T09:10:11Z</time>
      </trkpt>
      <trkpt lat="42.50756" lon="2.53674">
        <ele>1734.4</ele>
        <time>2024-07-14T09:10:14Z</time>
      </trkpt>
      <trkpt lat="42.50756" lon="2.53675">
        <ele>1734.4</ele>
        <time>2024-07-14T09:10:15Z</time>
      </trkpt>
      <trkpt lat="42.50755" lon="2.53679">
        <ele>1734</ele>
        <time>2024-07-14T09:10:19Z</time>
      </trkpt>
      <trkpt lat="42.50755" lon="2.53681">
        <ele>1734.2</ele>
        <time>2024-07-14T09:10:21Z</time>
      </trkpt>
      <trkpt lat="42.50754" lon="2.53691">
        <ele>1734.6</ele>
        <time>2024-07-14T09:10:27Z</time>
      </trkpt>
      <trkpt lat="42.50751" lon="2.53703">
        <ele>1735.6</ele>
        <time>2024-07-14T09:10:34Z</time>
      </trkpt>
      <trkpt lat="42.50747" lon="2.53717">
        <ele>1734.4</ele>
        <time>2024-07-14T09:10:42Z</time>
      </trkpt>
      <trkpt lat="42.50744" lon="2.53727">
        <ele>1734.6</ele>
        <time>2024-07-14T09:10:49Z</time>
      </trkpt>
      <trkpt lat="42.50739" lon="2.53739">
        <ele>1735.2</ele>
        <time>2024-07-14T09:10:56Z</time>
      </trkpt>
      <trkpt lat="42.50735" lon="2.53751">
        <ele>1735.4</ele>
        <time>2024-07-14T09:11:03Z</time>
      </trkpt>
      <trkpt lat="42.50733" lon="2.53754">
        <ele>1735.6</ele>
        <time>2024-07-14T09:11:06Z</time>
      </trkpt>
      <trkpt lat="42.50733" lon="2.53758">
        <ele>1735.6</ele>
        <time>2024-07-14T09:11:08Z</time>
      </trkpt>
      <trkpt lat="42.50725" lon="2.53772">
        <ele>1737</ele>
        <time>2024-07-14T09:11:16Z</time>
      </trkpt>
      <trkpt lat="42.50723" lon="2.53776">
        <ele>1737.2</ele>
        <time>2024-07-14T09:11:20Z</time>
      </trkpt>
      <trkpt lat="42.50724" lon="2.5378">
        <ele>1737.2</ele>
        <time>2024-07-14T09:11:22Z</time>
      </trkpt>
      <trkpt lat="42.50723" lon="2.53781">
        <ele>1736.8</ele>
        <time>2024-07-14T09:11:23Z</time>
      </trkpt>
      <trkpt lat="42.50719" lon="2.5379">
        <ele>1736.2</ele>
        <time>2024-07-14T09:11:29Z</time>
      </trkpt>
      <trkpt lat="42.50718" lon="2.53801">
        <ele>1736</ele>
        <time>2024-07-14T09:11:37Z</time>
      </trkpt>
      <trkpt lat="42.50716" lon="2.53807">
        <ele>1736</ele>
        <time>2024-07-14T09:11:42Z</time>
      </trkpt>
      <trkpt lat="42.50716" lon="2.53809">
        <ele>1736.8</ele>
        <time>2024-07-14T09:12:05Z</time>
      </trkpt>
      <trkpt lat="42.5071" lon="2.53821">
        <ele>1735.8</ele>
        <time>2024-07-14T09:12:12Z</time>
      </trkpt>
      <trkpt lat="42.50709" lon="2.53824">
        <ele>1735.2</ele>
        <time>2024-07-14T09:12:14Z</time>
      </trkpt>
      <trkpt lat="42.50708" lon="2.53826">
        <ele>1734</ele>
        <time>2024-07-14T09:12:17Z</time>
      </trkpt>
      <trkpt lat="42.50707" lon="2.53827">
        <ele>1730.4</ele>
        <time>2024-07-14T09:12:33Z</time>
      </trkpt>
      <trkpt lat="42.50704" lon="2.53836">
        <ele>1729.6</ele>
        <time>2024-07-14T09:12:51Z</time>
      </trkpt>
      <trkpt lat="42.50702" lon="2.53847">
        <ele>1735.2</ele>
        <time>2024-07-14T09:12:57Z</time>
      </trkpt>
      <trkpt lat="42.50699" lon="2.53856">
        <ele>1742.4</ele>
        <time>2024-07-14T09:13:04Z</time>
      </trkpt>
      <trkpt lat="42.50696" lon="2.53862">
        <ele>1742.6</ele>
        <time>2024-07-14T09:13:10Z</time>
      </trkpt>
      <trkpt lat="42.50692" lon="2.53875">
        <ele>1740.6</ele>
        <time>2024-07-14T09:13:19Z</time>
      </trkpt>
      <trkpt lat="42.50692" lon="2.53875">
        <ele>1739.2</ele>
        <time>2024-07-14T09:13:25Z</time>
      </trkpt>
      <trkpt lat="42.50687" lon="2.53881">
        <ele>1738.2</ele>
        <time>2024-07-14T09:14:10Z</time>
      </trkpt>
      <trkpt lat="42.50683" lon="2.53885">
        <ele>1737.6</ele>
        <time>2024-07-14T09:14:13Z</time>
      </trkpt>
      <trkpt lat="42.50677" lon="2.53894">
        <ele>1737.2</ele>
        <time>2024-07-14T09:14:17Z</time>
      </trkpt>
      <trkpt lat="42.50675" lon="2.53898">
        <ele>1737</ele>
        <time>2024-07-14T09:14:20Z</time>
      </trkpt>
      <trkpt lat="42.50673" lon="2.53904">
        <ele>1736.8</ele>
        <time>2024-07-14T09:14:23Z</time>
      </trkpt>
      <trkpt lat="42.50669" lon="2.53918">
        <ele>1736.4</ele>
        <time>2024-07-14T09:14:31Z</time>
      </trkpt>
      <trkpt lat="42.50665" lon="2.53932">
        <ele>1734</ele>
        <time>2024-07-14T09:14:41Z</time>
      </trkpt>
      <trkpt lat="42.50661" lon="2.53947">
        <ele>1733</ele>
        <time>2024-07-14T09:14:51Z</time>
      </trkpt>
      <trkpt lat="42.50655" lon="2.53955">
        <ele>1733.8</ele>
        <time>2024-07-14T09:14:59Z</time>
      </trkpt>
      <trkpt lat="42.50654" lon="2.53957">
        <ele>1734.6</ele>
        <time>2024-07-14T09:15:06Z</time>
      </trkpt>
      <trkpt lat="42.50655" lon="2.53957">
        <ele>1733.8</ele>
        <time>2024-07-14T09:33:14Z</time>
      </trkpt>
      <trkpt lat="42.50655" lon="2.53959">
        <ele>1737.6</ele>
        <time>2024-07-14T10:05:43Z</time>
      </trkpt>
      <trkpt lat="42.50653" lon="2.53967">
        <ele>1737.6</ele>
        <time>2024-07-14T10:05:48Z</time>
      </trkpt>
      <trkpt lat="42.50651" lon="2.53979">
        <ele>1737.2</ele>
        <time>2024-07-14T10:05:57Z</time>
      </trkpt>
      <trkpt lat="42.50647" lon="2.53987">
        <ele>1736</ele>
        <time>2024-07-14T10:06:07Z</time>
      </trkpt>
      <trkpt lat="42.50646" lon="2.53991">
        <ele>1735</ele>
        <time>2024-07-14T10:06:12Z</time>
      </trkpt>
      <trkpt lat="42.5064" lon="2.54005">
        <ele>1732.2</ele>
        <time>2024-07-14T10:06:24Z</time>
      </trkpt>
      <trkpt lat="42.50634" lon="2.54015">
        <ele>1730.8</ele>
        <time>2024-07-14T10:06:35Z</time>
      </trkpt>
      <trkpt lat="42.5063" lon="2.54022">
        <ele>1729.2</ele>
        <time>2024-07-14T10:06:43Z</time>
      </trkpt>
      <trkpt lat="42.50627" lon="2.54021">
        <ele>1728.6</ele>
        <time>2024-07-14T10:06:48Z</time>
      </trkpt>
      <trkpt lat="42.50624" lon="2.54024">
        <ele>1727.6</ele>
        <time>2024-07-14T10:06:54Z</time>
      </trkpt>
      <trkpt lat="42.5062" lon="2.54024">
        <ele>1725.8</ele>
        <time>2024-07-14T10:07:03Z</time>
      </trkpt>
      <trkpt lat="42.50614" lon="2.54031">
        <ele>1723</ele>
        <time>2024-07-14T10:07:15Z</time>
      </trkpt>
      <trkpt lat="42.50611" lon="2.54035">
        <ele>1721.2</ele>
        <time>2024-07-14T10:07:23Z</time>
      </trkpt>
      <trkpt lat="42.50607" lon="2.54037">
        <ele>1718.8</ele>
        <time>2024-07-14T10:07:31Z</time>
      </trkpt>
      <trkpt lat="42.50602" lon="2.54039">
        <ele>1716.4</ele>
        <time>2024-07-14T10:07:40Z</time>
      </trkpt>
      <trkpt lat="42.50597" lon="2.54046">
        <ele>1713.6</ele>
        <time>2024-07-14T10:07:49Z</time>
      </trkpt>
      <trkpt lat="42.50594" lon="2.54049">
        <ele>1712.8</ele>
        <time>2024-07-14T10:07:56Z</time>
      </trkpt>
      <trkpt lat="42.5059" lon="2.54054">
        <ele>1712</ele>
        <time>2024-07-14T10:08:04Z</time>
      </trkpt>
      <trkpt lat="42.50584" lon="2.54055">
        <ele>1710.4</ele>
        <time>2024-07-14T10:08:12Z</time>
      </trkpt>
      <trkpt lat="42.5058" lon="2.5406">
        <ele>1705.4</ele>
        <time>2024-07-14T10:08:21Z</time>
      </trkpt>
      <trkpt lat="42.50574" lon="2.54065">
        <ele>1702.6</ele>
        <time>2024-07-14T10:08:29Z</time>
      </trkpt>
      <trkpt lat="42.50569" lon="2.54071">
        <ele>1701.4</ele>
        <time>2024-07-14T10:08:36Z</time>
      </trkpt>
      <trkpt lat="42.50565" lon="2.54078">
        <ele>1700</ele>
        <time>2024-07-14T10:08:42Z</time>
      </trkpt>
      <trkpt lat="42.50562" lon="2.54086">
        <ele>1697.6</ele>
        <time>2024-07-14T10:08:50Z</time>
      </trkpt>
      <trkpt lat="42.50563" lon="2.54094">
        <ele>1695.6</ele>
        <time>2024-07-14T10:08:56Z</time>
      </trkpt>
      <trkpt lat="42.50562" lon="2.541">
        <ele>1693.2</ele>
        <time>2024-07-14T10:09:01Z</time>
      </trkpt>
      <trkpt lat="42.5056" lon="2.54105">
        <ele>1692</ele>
        <time>2024-07-14T10:09:06Z</time>
      </trkpt>
      <trkpt lat="42.50558" lon="2.54108">
        <ele>1691.8</ele>
        <time>2024-07-14T10:09:08Z</time>
      </trkpt>
      <trkpt lat="42.50555" lon="2.54111">
        <ele>1692.2</ele>
        <time>2024-07-14T10:09:12Z</time>
      </trkpt>
      <trkpt lat="42.50554" lon="2.54117">
        <ele>1694.6</ele>
        <time>2024-07-14T10:09:17Z</time>
      </trkpt>
      <trkpt lat="42.50553" lon="2.5412">
        <ele>1695.4</ele>
        <time>2024-07-14T10:09:20Z</time>
      </trkpt>
      <trkpt lat="42.50553" lon="2.54122">
        <ele>1695.4</ele>
        <time>2024-07-14T10:09:21Z</time>
      </trkpt>
      <trkpt lat="42.50551" lon="2.54128">
        <ele>1694.8</ele>
        <time>2024-07-14T10:09:25Z</time>
      </trkpt>
      <trkpt lat="42.50549" lon="2.54131">
        <ele>1694.2</ele>
        <time>2024-07-14T10:09:27Z</time>
      </trkpt>
      <trkpt lat="42.50538" lon="2.5414">
        <ele>1690.2</ele>
        <time>2024-07-14T10:09:37Z</time>
      </trkpt>
      <trkpt lat="42.50535" lon="2.5414">
        <ele>1689</ele>
        <time>2024-07-14T10:09:39Z</time>
      </trkpt>
      <trkpt lat="42.50529" lon="2.54145">
        <ele>1685.6</ele>
        <time>2024-07-14T10:09:44Z</time>
      </trkpt>
      <trkpt lat="42.50527" lon="2.54154">
        <ele>1684</ele>
        <time>2024-07-14T10:09:52Z</time>
      </trkpt>
      <trkpt lat="42.50527" lon="2.54156">
        <ele>1684</ele>
        <time>2024-07-14T10:09:54Z</time>
      </trkpt>
      <trkpt lat="42.50524" lon="2.54164">
        <ele>1683.4</ele>
        <time>2024-07-14T10:09:59Z</time>
      </trkpt>
      <trkpt lat="42.50518" lon="2.54176">
        <ele>1682.4</ele>
        <time>2024-07-14T10:10:08Z</time>
      </trkpt>
      <trkpt lat="42.50512" lon="2.54192">
        <ele>1680.6</ele>
        <time>2024-07-14T10:10:19Z</time>
      </trkpt>
      <trkpt lat="42.50502" lon="2.54202">
        <ele>1681.8</ele>
        <time>2024-07-14T10:10:29Z</time>
      </trkpt>
      <trkpt lat="42.50495" lon="2.54207">
        <ele>1681</ele>
        <time>2024-07-14T10:10:36Z</time>
      </trkpt>
      <trkpt lat="42.50493" lon="2.54209">
        <ele>1680.6</ele>
        <time>2024-07-14T10:10:38Z</time>
      </trkpt>
      <trkpt lat="42.50484" lon="2.54216">
        <ele>1679.8</ele>
        <time>2024-07-14T10:10:47Z</time>
      </trkpt>
      <trkpt lat="42.50478" lon="2.54217">
        <ele>1678.6</ele>
        <time>2024-07-14T10:10:54Z</time>
      </trkpt>
      <trkpt lat="42.50473" lon="2.5422">
        <ele>1677.6</ele>
        <time>2024-07-14T10:11:01Z</time>
      </trkpt>
      <trkpt lat="42.50472" lon="2.54221">
        <ele>1677.4</ele>
        <time>2024-07-14T10:11:02Z</time>
      </trkpt>
      <trkpt lat="42.50468" lon="2.54223">
        <ele>1676.4</ele>
        <time>2024-07-14T10:11:07Z</time>
      </trkpt>
      <trkpt lat="42.50466" lon="2.54224">
        <ele>1675.6</ele>
        <time>2024-07-14T10:11:10Z</time>
      </trkpt>
      <trkpt lat="42.5046" lon="2.54229">
        <ele>1673.8</ele>
        <time>2024-07-14T10:11:17Z</time>
      </trkpt>
      <trkpt lat="42.50456" lon="2.54236">
        <ele>1673.6</ele>
        <time>2024-07-14T10:11:24Z</time>
      </trkpt>
      <trkpt lat="42.50456" lon="2.54238">
        <ele>1673.6</ele>
        <time>2024-07-14T10:11:26Z</time>
      </trkpt>
      <trkpt lat="42.50452" lon="2.54249">
        <ele>1672.4</ele>
        <time>2024-07-14T10:11:35Z</time>
      </trkpt>
      <trkpt lat="42.50447" lon="2.5426">
        <ele>1671.4</ele>
        <time>2024-07-14T10:11:43Z</time>
      </trkpt>
      <trkpt lat="42.50443" lon="2.54273">
        <ele>1670.6</ele>
        <time>2024-07-14T10:11:52Z</time>
      </trkpt>
      <trkpt lat="42.50442" lon="2.54277">
        <ele>1670.2</ele>
        <time>2024-07-14T10:11:54Z</time>
      </trkpt>
      <trkpt lat="42.50441" lon="2.54285">
        <ele>1669</ele>
        <time>2024-07-14T10:11:59Z</time>
      </trkpt>
      <trkpt lat="42.50435" lon="2.54297">
        <ele>1668.2</ele>
        <time>2024-07-14T10:12:08Z</time>
      </trkpt>
      <trkpt lat="42.5043" lon="2.54307">
        <ele>1667.2</ele>
        <time>2024-07-14T10:12:16Z</time>
      </trkpt>
      <trkpt lat="42.50427" lon="2.54322">
        <ele>1665.6</ele>
        <time>2024-07-14T10:12:27Z</time>
      </trkpt>
      <trkpt lat="42.50422" lon="2.54338">
        <ele>1663.8</ele>
        <time>2024-07-14T10:12:38Z</time>
      </trkpt>
      <trkpt lat="42.50417" lon="2.54354">
        <ele>1661.6</ele>
        <time>2024-07-14T10:12:48Z</time>
      </trkpt>
      <trkpt lat="42.50415" lon="2.54374">
        <ele>1658.8</ele>
        <time>2024-07-14T10:13:00Z</time>
      </trkpt>
      <trkpt lat="42.50416" lon="2.54384">
        <ele>1656.6</ele>
        <time>2024-07-14T10:13:07Z</time>
      </trkpt>
      <trkpt lat="42.50417" lon="2.54386">
        <ele>1656.2</ele>
        <time>2024-07-14T10:13:08Z</time>
      </trkpt>
      <trkpt lat="42.50416" lon="2.54402">
        <ele>1654.4</ele>
        <time>2024-07-14T10:13:16Z</time>
      </trkpt>
      <trkpt lat="42.50417" lon="2.54415">
        <ele>1652.2</ele>
        <time>2024-07-14T10:13:25Z</time>
      </trkpt>
      <trkpt lat="42.50418" lon="2.54417">
        <ele>1651.4</ele>
        <time>2024-07-14T10:13:28Z</time>
      </trkpt>
      <trkpt lat="42.50419" lon="2.54424">
        <ele>1651</ele>
        <time>2024-07-14T10:13:32Z</time>
      </trkpt>
      <trkpt lat="42.50421" lon="2.54441">
        <ele>1650.2</ele>
        <time>2024-07-14T10:13:42Z</time>
      </trkpt>
      <trkpt lat="42.50421" lon="2.54453">
        <ele>1648.8</ele>
        <time>2024-07-14T10:13:50Z</time>
      </trkpt>
      <trkpt lat="42.50422" lon="2.54456">
        <ele>1648.2</ele>
        <time>2024-07-14T10:13:53Z</time>
      </trkpt>
      <trkpt lat="42.50422" lon="2.54462">
        <ele>1646.6</ele>
        <time>2024-07-14T10:13:57Z</time>
      </trkpt>
      <trkpt lat="42.50423" lon="2.54468">
        <ele>1645.2</ele>
        <time>2024-07-14T10:14:00Z</time>
      </trkpt>
      <trkpt lat="42.50424" lon="2.54474">
        <ele>1643.6</ele>
        <time>2024-07-14T10:14:04Z</time>
      </trkpt>
      <trkpt lat="42.50426" lon="2.54483">
        <ele>1642.2</ele>
        <time>2024-07-14T10:14:11Z</time>
      </trkpt>
      <trkpt lat="42.50426" lon="2.54487">
        <ele>1641.8</ele>
        <time>2024-07-14T10:14:13Z</time>
      </trkpt>
      <trkpt lat="42.50427" lon="2.54494">
        <ele>1641.2</ele>
        <time>2024-07-14T10:14:17Z</time>
      </trkpt>
      <trkpt lat="42.5043" lon="2.54503">
        <ele>1640</ele>
        <time>2024-07-14T10:14:22Z</time>
      </trkpt>
      <trkpt lat="42.50432" lon="2.54507">
        <ele>1639.2</ele>
        <time>2024-07-14T10:14:24Z</time>
      </trkpt>
      <trkpt lat="42.50436" lon="2.54521">
        <ele>1638.8</ele>
        <time>2024-07-14T10:14:32Z</time>
      </trkpt>
      <trkpt lat="42.50438" lon="2.54536">
        <ele>1638.6</ele>
        <time>2024-07-14T10:14:41Z</time>
      </trkpt>
      <trkpt lat="42.50438" lon="2.54549">
        <ele>1637.6</ele>
        <time>2024-07-14T10:14:48Z</time>
      </trkpt>
      <trkpt lat="42.50438" lon="2.54551">
        <ele>1637.4</ele>
        <time>2024-07-14T10:14:49Z</time>
      </trkpt>
      <trkpt lat="42.50438" lon="2.54564">
        <ele>1634.8</ele>
        <time>2024-07-14T10:14:57Z</time>
      </trkpt>
      <trkpt lat="42.50437" lon="2.54574">
        <ele>1633.4</ele>
        <time>2024-07-14T10:15:05Z</time>
      </trkpt>
      <trkpt lat="42.50437" lon="2.54576">
        <ele>1632.8</ele>
        <time>2024-07-14T10:15:11Z</time>
      </trkpt>
      <trkpt lat="42.50437" lon="2.54589">
        <ele>1632.2</ele>
        <time>2024-07-14T10:15:19Z</time>
      </trkpt>
      <trkpt lat="42.50438" lon="2.54606">
        <ele>1630</ele>
        <time>2024-07-14T10:15:29Z</time>
      </trkpt>
      <trkpt lat="42.50437" lon="2.5462">
        <ele>1627.2</ele>
        <time>2024-07-14T10:15:37Z</time>
      </trkpt>
      <trkpt lat="42.50438" lon="2.54635">
        <ele>1624.6</ele>
        <time>2024-07-14T10:15:44Z</time>
      </trkpt>
      <trkpt lat="42.50438" lon="2.5465">
        <ele>1622.2</ele>
        <time>2024-07-14T10:15:52Z</time>
      </trkpt>
      <trkpt lat="42.50438" lon="2.54667">
        <ele>1619</ele>
        <time>2024-07-14T10:16:01Z</time>
      </trkpt>
      <trkpt lat="42.50438" lon="2.54685">
        <ele>1616.2</ele>
        <time>2024-07-14T10:16:10Z</time>
      </trkpt>
      <trkpt lat="42.50439" lon="2.54696">
        <ele>1614.8</ele>
        <time>2024-07-14T10:16:17Z</time>
      </trkpt>
      <trkpt lat="42.50442" lon="2.54708">
        <ele>1613.4</ele>
        <time>2024-07-14T10:16:23Z</time>
      </trkpt>
      <trkpt lat="42.50442" lon="2.54712">
        <ele>1613</ele>
        <time>2024-07-14T10:16:25Z</time>
      </trkpt>
      <trkpt lat="42.50443" lon="2.54727">
        <ele>1612</ele>
        <time>2024-07-14T10:16:33Z</time>
      </trkpt>
      <trkpt lat="42.50443" lon="2.54746">
        <ele>1610.6</ele>
        <time>2024-07-14T10:16:43Z</time>
      </trkpt>
      <trkpt lat="42.50443" lon="2.54764">
        <ele>1607.8</ele>
        <time>2024-07-14T10:16:52Z</time>
      </trkpt>
      <trkpt lat="42.50442" lon="2.54771">
        <ele>1606.8</ele>
        <time>2024-07-14T10:16:56Z</time>
      </trkpt>
      <trkpt lat="42.50443" lon="2.54775">
        <ele>1606.2</ele>
        <time>2024-07-14T10:16:58Z</time>
      </trkpt>
      <trkpt lat="42.50445" lon="2.54792">
        <ele>1603.6</ele>
        <time>2024-07-14T10:17:06Z</time>
      </trkpt>
      <trkpt lat="42.50445" lon="2.54809">
        <ele>1602.8</ele>
        <time>2024-07-14T10:17:15Z</time>
      </trkpt>
      <trkpt lat="42.50443" lon="2.54823">
        <ele>1601</ele>
        <time>2024-07-14T10:17:23Z</time>
      </trkpt>
      <trkpt lat="42.50443" lon="2.54839">
        <ele>1597.4</ele>
        <time>2024-07-14T10:17:33Z</time>
      </trkpt>
      <trkpt lat="42.50441" lon="2.54854">
        <ele>1592.4</ele>
        <time>2024-07-14T10:17:42Z</time>
      </trkpt>
      <trkpt lat="42.50433" lon="2.54868">
        <ele>1588.4</ele>
        <time>2024-07-14T10:17:52Z</time>
      </trkpt>
      <trkpt lat="42.50426" lon="2.54886">
        <ele>1584.8</ele>
        <time>2024-07-14T10:18:03Z</time>
      </trkpt>
      <trkpt lat="42.5042" lon="2.54901">
        <ele>1579.6</ele>
        <time>2024-07-14T10:18:14Z</time>
      </trkpt>
      <trkpt lat="42.50417" lon="2.54912">
        <ele>1576.6</ele>
        <time>2024-07-14T10:18:22Z</time>
      </trkpt>
      <trkpt lat="42.50415" lon="2.54924">
        <ele>1573.6</ele>
        <time>2024-07-14T10:18:31Z</time>
      </trkpt>
      <trkpt lat="42.50415" lon="2.54926">
        <ele>1573.2</ele>
        <time>2024-07-14T10:18:33Z</time>
      </trkpt>
      <trkpt lat="42.50416" lon="2.5493">
        <ele>1572</ele>
        <time>2024-07-14T10:18:37Z</time>
      </trkpt>
      <trkpt lat="42.50417" lon="2.54933">
        <ele>1570.2</ele>
        <time>2024-07-14T10:18:44Z</time>
      </trkpt>
      <trkpt lat="42.50417" lon="2.54933">
        <ele>1569.8</ele>
        <time>2024-07-14T10:18:57Z</time>
      </trkpt>
      <trkpt lat="42.50423" lon="2.54937">
        <ele>1571.4</ele>
        <time>2024-07-14T10:20:40Z</time>
      </trkpt>
      <trkpt lat="42.50437" lon="2.54943">
        <ele>1569.2</ele>
        <time>2024-07-14T10:20:50Z</time>
      </trkpt>
      <trkpt lat="42.50451" lon="2.54954">
        <ele>1568.4</ele>
        <time>2024-07-14T10:21:03Z</time>
      </trkpt>
      <trkpt lat="42.50452" lon="2.54957">
        <ele>1568.2</ele>
        <time>2024-07-14T10:21:06Z</time>
      </trkpt>
      <trkpt lat="42.50451" lon="2.54957">
        <ele>1567.6</ele>
        <time>2024-07-14T10:21:09Z</time>
      </trkpt>
      <trkpt lat="42.50448" lon="2.54957">
        <ele>1566.8</ele>
        <time>2024-07-14T10:21:16Z</time>
      </trkpt>
      <trkpt lat="42.50444" lon="2.54962">
        <ele>1567</ele>
        <time>2024-07-14T10:21:33Z</time>
      </trkpt>
      <trkpt lat="42.50434" lon="2.54969">
        <ele>1565.4</ele>
        <time>2024-07-14T10:21:40Z</time>
      </trkpt>
      <trkpt lat="42.50428" lon="2.54972">
        <ele>1562</ele>
        <time>2024-07-14T10:21:48Z</time>
      </trkpt>
      <trkpt lat="42.50421" lon="2.54978">
        <ele>1560.2</ele>
        <time>2024-07-14T10:21:57Z</time>
      </trkpt>
      <trkpt lat="42.50413" lon="2.54984">
        <ele>1558.6</ele>
        <time>2024-07-14T10:22:06Z</time>
      </trkpt>
      <trkpt lat="42.50405" lon="2.54989">
        <ele>1557</ele>
        <time>2024-07-14T10:22:15Z</time>
      </trkpt>
      <trkpt lat="42.50394" lon="2.54997">
        <ele>1554.2</ele>
        <time>2024-07-14T10:22:25Z</time>
      </trkpt>
      <trkpt lat="42.50383" lon="2.55003">
        <ele>1550.2</ele>
        <time>2024-07-14T10:22:35Z</time>
      </trkpt>
      <trkpt lat="42.50373" lon="2.55011">
        <ele>1547.4</ele>
        <time>2024-07-14T10:22:44Z</time>
      </trkpt>
      <trkpt lat="42.50374" lon="2.55015">
        <ele>1546.2</ele>
        <time>2024-07-14T10:22:49Z</time>
      </trkpt>
      <trkpt lat="42.50372" lon="2.5502">
        <ele>1545.6</ele>
        <time>2024-07-14T10:22:52Z</time>
      </trkpt>
      <trkpt lat="42.5037" lon="2.55022">
        <ele>1545</ele>
        <time>2024-07-14T10:22:54Z</time>
      </trkpt>
      <trkpt lat="42.50362" lon="2.55031">
        <ele>1542.8</ele>
        <time>2024-07-14T10:23:02Z</time>
      </trkpt>
      <trkpt lat="42.50356" lon="2.55047">
        <ele>1540.4</ele>
        <time>2024-07-14T10:23:12Z</time>
      </trkpt>
      <trkpt lat="42.50348" lon="2.55063">
        <ele>1538.4</ele>
        <time>2024-07-14T10:23:23Z</time>
      </trkpt>
      <trkpt lat="42.50337" lon="2.55077">
        <ele>1537.2</ele>
        <time>2024-07-14T10:23:33Z</time>
      </trkpt>
      <trkpt lat="42.50327" lon="2.55094">
        <ele>1534.2</ele>
        <time>2024-07-14T10:23:45Z</time>
      </trkpt>
      <trkpt lat="42.50315" lon="2.55106">
        <ele>1530.8</ele>
        <time>2024-07-14T10:23:55Z</time>
      </trkpt>
      <trkpt lat="42.50303" lon="2.55115">
        <ele>1529.2</ele>
        <time>2024-07-14T10:24:05Z</time>
      </trkpt>
      <trkpt lat="42.5029" lon="2.55127">
        <ele>1527.4</ele>
        <time>2024-07-14T10:24:17Z</time>
      </trkpt>
      <trkpt lat="42.50279" lon="2.55128">
        <ele>1526</ele>
        <time>2024-07-14T10:24:26Z</time>
      </trkpt>
      <trkpt lat="42.50273" lon="2.5512">
        <ele>1525.6</ele>
        <time>2024-07-14T10:24:32Z</time>
      </trkpt>
      <trkpt lat="42.5027" lon="2.551">
        <ele>1522.8</ele>
        <time>2024-07-14T10:24:42Z</time>
      </trkpt>
      <trkpt lat="42.50265" lon="2.55079">
        <ele>1520.6</ele>
        <time>2024-07-14T10:24:53Z</time>
      </trkpt>
      <trkpt lat="42.50263" lon="2.55055">
        <ele>1518</ele>
        <time>2024-07-14T10:25:05Z</time>
      </trkpt>
      <trkpt lat="42.5026" lon="2.5503">
        <ele>1516.2</ele>
        <time>2024-07-14T10:25:18Z</time>
      </trkpt>
      <trkpt lat="42.50257" lon="2.55013">
        <ele>1514.6</ele>
        <time>2024-07-14T10:25:27Z</time>
      </trkpt>
      <trkpt lat="42.50257" lon="2.54993">
        <ele>1513.4</ele>
        <time>2024-07-14T10:25:38Z</time>
      </trkpt>
      <trkpt lat="42.5026" lon="2.54974">
        <ele>1513.8</ele>
        <time>2024-07-14T10:25:47Z</time>
      </trkpt>
      <trkpt lat="42.50259" lon="2.54965">
        <ele>1513.8</ele>
        <time>2024-07-14T10:25:53Z</time>
      </trkpt>
      <trkpt lat="42.50258" lon="2.5495">
        <ele>1517</ele>
        <time>2024-07-14T10:26:01Z</time>
      </trkpt>
      <trkpt lat="42.50255" lon="2.54936">
        <ele>1520</ele>
        <time>2024-07-14T10:26:09Z</time>
      </trkpt>
      <trkpt lat="42.50254" lon="2.54934">
        <ele>1521</ele>
        <time>2024-07-14T10:26:14Z</time>
      </trkpt>
      <trkpt lat="42.50255" lon="2.54933">
        <ele>1521.2</ele>
        <time>2024-07-14T10:26:20Z</time>
      </trkpt>
      <trkpt lat="42.50253" lon="2.54934">
        <ele>1521</ele>
        <time>2024-07-14T10:26:42Z</time>
      </trkpt>
      <trkpt lat="42.5025" lon="2.54936">
        <ele>1516.2</ele>
        <time>2024-07-14T10:26:48Z</time>
      </trkpt>
      <trkpt lat="42.50247" lon="2.54943">
        <ele>1506.4</ele>
        <time>2024-07-14T10:26:55Z</time>
      </trkpt>
      <trkpt lat="42.50241" lon="2.54948">
        <ele>1502.8</ele>
        <time>2024-07-14T10:27:02Z</time>
      </trkpt>
      <trkpt lat="42.50232" lon="2.54959">
        <ele>1503.2</ele>
        <time>2024-07-14T10:27:12Z</time>
      </trkpt>
      <trkpt lat="42.50231" lon="2.54968">
        <ele>1502.6</ele>
        <time>2024-07-14T10:27:19Z</time>
      </trkpt>
      <trkpt lat="42.50224" lon="2.54972">
        <ele>1501.4</ele>
        <time>2024-07-14T10:27:27Z</time>
      </trkpt>
      <trkpt lat="42.50223" lon="2.54964">
        <ele>1501.2</ele>
        <time>2024-07-14T10:27:30Z</time>
      </trkpt>
      <trkpt lat="42.50221" lon="2.54961">
        <ele>1500.8</ele>
        <time>2024-07-14T10:27:33Z</time>
      </trkpt>
      <trkpt lat="42.50214" lon="2.54956">
        <ele>1499.4</ele>
        <time>2024-07-14T10:27:41Z</time>
      </trkpt>
      <trkpt lat="42.50213" lon="2.54958">
        <ele>1498.8</ele>
        <time>2024-07-14T10:27:46Z</time>
      </trkpt>
      <trkpt lat="42.50211" lon="2.5496">
        <ele>1498.4</ele>
        <time>2024-07-14T10:27:48Z</time>
      </trkpt>
      <trkpt lat="42.50209" lon="2.54967">
        <ele>1494.4</ele>
        <time>2024-07-14T10:27:54Z</time>
      </trkpt>
      <trkpt lat="42.50206" lon="2.54969">
        <ele>1492.6</ele>
        <time>2024-07-14T10:27:57Z</time>
      </trkpt>
      <trkpt lat="42.50205" lon="2.54965">
        <ele>1491.6</ele>
        <time>2024-07-14T10:28:00Z</time>
      </trkpt>
      <trkpt lat="42.50204" lon="2.54956">
        <ele>1491.4</ele>
        <time>2024-07-14T10:28:05Z</time>
      </trkpt>
      <trkpt lat="42.50204" lon="2.5495">
        <ele>1492</ele>
        <time>2024-07-14T10:28:08Z</time>
      </trkpt>
      <trkpt lat="42.50202" lon="2.54942">
        <ele>1492.8</ele>
        <time>2024-07-14T10:28:15Z</time>
      </trkpt>
      <trkpt lat="42.50202" lon="2.5493">
        <ele>1492.4</ele>
        <time>2024-07-14T10:28:23Z</time>
      </trkpt>
      <trkpt lat="42.50199" lon="2.54914">
        <ele>1491.2</ele>
        <time>2024-07-14T10:28:31Z</time>
      </trkpt>
      <trkpt lat="42.50198" lon="2.54896">
        <ele>1490</ele>
        <time>2024-07-14T10:28:39Z</time>
      </trkpt>
      <trkpt lat="42.50197" lon="2.54883">
        <ele>1487.8</ele>
        <time>2024-07-14T10:28:46Z</time>
      </trkpt>
      <trkpt lat="42.50196" lon="2.54882">
        <ele>1487.2</ele>
        <time>2024-07-14T10:28:47Z</time>
      </trkpt>
      <trkpt lat="42.50194" lon="2.54874">
        <ele>1482.8</ele>
        <time>2024-07-14T10:28:53Z</time>
      </trkpt>
      <trkpt lat="42.50193" lon="2.54861">
        <ele>1481.6</ele>
        <time>2024-07-14T10:29:01Z</time>
      </trkpt>
      <trkpt lat="42.50192" lon="2.54857">
        <ele>1481.4</ele>
        <time>2024-07-14T10:29:04Z</time>
      </trkpt>
      <trkpt lat="42.50192" lon="2.54855">
        <ele>1480.8</ele>
        <time>2024-07-14T10:29:06Z</time>
      </trkpt>
      <trkpt lat="42.50192" lon="2.54854">
        <ele>1480.2</ele>
        <time>2024-07-14T10:29:07Z</time>
      </trkpt>
      <trkpt lat="42.5019" lon="2.54846">
        <ele>1478.6</ele>
        <time>2024-07-14T10:29:12Z</time>
      </trkpt>
      <trkpt lat="42.50188" lon="2.54834">
        <ele>1479</ele>
        <time>2024-07-14T10:29:19Z</time>
      </trkpt>
      <trkpt lat="42.50188" lon="2.54831">
        <ele>1479.2</ele>
        <time>2024-07-14T10:29:21Z</time>
      </trkpt>
      <trkpt lat="42.50186" lon="2.54816">
        <ele>1479.2</ele>
        <time>2024-07-14T10:29:29Z</time>
      </trkpt>
      <trkpt lat="42.50186" lon="2.54805">
        <ele>1480.4</ele>
        <time>2024-07-14T10:29:36Z</time>
      </trkpt>
      <trkpt lat="42.50185" lon="2.54795">
        <ele>1479.8</ele>
        <time>2024-07-14T10:29:41Z</time>
      </trkpt>
      <trkpt lat="42.50185" lon="2.54784">
        <ele>1479.2</ele>
        <time>2024-07-14T10:29:46Z</time>
      </trkpt>
      <trkpt lat="42.50181" lon="2.5478">
        <ele>1479.2</ele>
        <time>2024-07-14T10:29:48Z</time>
      </trkpt>
      <trkpt lat="42.50179" lon="2.54771">
        <ele>1479.4</ele>
        <time>2024-07-14T10:29:53Z</time>
      </trkpt>
      <trkpt lat="42.5018" lon="2.54752">
        <ele>1477.8</ele>
        <time>2024-07-14T10:30:04Z</time>
      </trkpt>
      <trkpt lat="42.50178" lon="2.54743">
        <ele>1477.2</ele>
        <time>2024-07-14T10:30:11Z</time>
      </trkpt>
      <trkpt lat="42.50178" lon="2.54743">
        <ele>1477.2</ele>
        <time>2024-07-14T10:30:12Z</time>
      </trkpt>
      <trkpt lat="42.50176" lon="2.54745">
        <ele>1477</ele>
        <time>2024-07-14T10:30:14Z</time>
      </trkpt>
      <trkpt lat="42.50175" lon="2.5475">
        <ele>1475.8</ele>
        <time>2024-07-14T10:30:18Z</time>
      </trkpt>
      <trkpt lat="42.50174" lon="2.54771">
        <ele>1471.2</ele>
        <time>2024-07-14T10:30:30Z</time>
      </trkpt>
      <trkpt lat="42.50173" lon="2.54787">
        <ele>1471.2</ele>
        <time>2024-07-14T10:30:39Z</time>
      </trkpt>
      <trkpt lat="42.50171" lon="2.54803">
        <ele>1471.8</ele>
        <time>2024-07-14T10:30:49Z</time>
      </trkpt>
      <trkpt lat="42.5017" lon="2.54817">
        <ele>1470.2</ele>
        <time>2024-07-14T10:30:57Z</time>
      </trkpt>
      <trkpt lat="42.50168" lon="2.5483">
        <ele>1465.8</ele>
        <time>2024-07-14T10:31:07Z</time>
      </trkpt>
      <trkpt lat="42.50169" lon="2.54835">
        <ele>1463.6</ele>
        <time>2024-07-14T10:31:15Z</time>
      </trkpt>
      <trkpt lat="42.5017" lon="2.54837">
        <ele>1463.8</ele>
        <time>2024-07-14T10:31:21Z</time>
      </trkpt>
      <trkpt lat="42.5017" lon="2.54837">
        <ele>1465</ele>
        <time>2024-07-14T10:31:36Z</time>
      </trkpt>
      <trkpt lat="42.50174" lon="2.54834">
        <ele>1468.8</ele>
        <time>2024-07-14T10:34:19Z</time>
      </trkpt>
      <trkpt lat="42.50172" lon="2.54831">
        <ele>1470</ele>
        <time>2024-07-14T10:34:25Z</time>
      </trkpt>
      <trkpt lat="42.50172" lon="2.5483">
        <ele>1471.6</ele>
        <time>2024-07-14T10:34:31Z</time>
      </trkpt>
      <trkpt lat="42.50172" lon="2.5483">
        <ele>1472.4</ele>
        <time>2024-07-14T10:34:38Z</time>
      </trkpt>
      <trkpt lat="42.50174" lon="2.54829">
        <ele>1472</ele>
        <time>2024-07-14T10:34:45Z</time>
      </trkpt>
      <trkpt lat="42.50174" lon="2.54833">
        <ele>1470.8</ele>
        <time>2024-07-14T10:34:51Z</time>
      </trkpt>
      <trkpt lat="42.50175" lon="2.54833">
        <ele>1469.2</ele>
        <time>2024-07-14T10:34:55Z</time>
      </trkpt>
      <trkpt lat="42.50176" lon="2.54832">
        <ele>1467.6</ele>
        <time>2024-07-14T10:35:02Z</time>
      </trkpt>
      <trkpt lat="42.50175" lon="2.54831">
        <ele>1467.8</ele>
        <time>2024-07-14T10:35:24Z</time>
      </trkpt>
      <trkpt lat="42.50176" lon="2.54827">
        <ele>1467.8</ele>
        <time>2024-07-14T10:35:29Z</time>
      </trkpt>
      <trkpt lat="42.50177" lon="2.54827">
        <ele>1468</ele>
        <time>2024-07-14T10:35:34Z</time>
      </trkpt>
      <trkpt lat="42.50178" lon="2.54827">
        <ele>1467.8</ele>
        <time>2024-07-14T10:35:40Z</time>
      </trkpt>
      <trkpt lat="42.50177" lon="2.54828">
        <ele>1468</ele>
        <time>2024-07-14T10:35:50Z</time>
      </trkpt>
      <trkpt lat="42.50177" lon="2.54828">
        <ele>1469</ele>
        <time>2024-07-14T10:35:56Z</time>
      </trkpt>
      <trkpt lat="42.50178" lon="2.54828">
        <ele>1470.4</ele>
        <time>2024-07-14T10:36:03Z</time>
      </trkpt>
      <trkpt lat="42.50178" lon="2.54828">
        <ele>1471.4</ele>
        <time>2024-07-14T10:36:23Z</time>
      </trkpt>
      <trkpt lat="42.50181" lon="2.54828">
        <ele>1467</ele>
        <time>2024-07-14T10:37:01Z</time>
      </trkpt>
      <trkpt lat="42.50181" lon="2.5483">
        <ele>1465.2</ele>
        <time>2024-07-14T10:37:09Z</time>
      </trkpt>
      <trkpt lat="42.50181" lon="2.5483">
        <ele>1464.8</ele>
        <time>2024-07-14T10:37:25Z</time>
      </trkpt>
      <trkpt lat="42.50174" lon="2.5484">
        <ele>1466.2</ele>
        <time>2024-07-14T10:37:37Z</time>
      </trkpt>
      <trkpt lat="42.50167" lon="2.54842">
        <ele>1467.2</ele>
        <time>2024-07-14T10:37:41Z</time>
      </trkpt>
      <trkpt lat="42.50164" lon="2.54842">
        <ele>1468.2</ele>
        <time>2024-07-14T10:37:44Z</time>
      </trkpt>
      <trkpt lat="42.50159" lon="2.54843">
        <ele>1469</ele>
        <time>2024-07-14T10:37:46Z</time>
      </trkpt>
      <trkpt lat="42.50159" lon="2.54844">
        <ele>1470.2</ele>
        <time>2024-07-14T10:37:49Z</time>
      </trkpt>
      <trkpt lat="42.50155" lon="2.54844">
        <ele>1471</ele>
        <time>2024-07-14T10:37:53Z</time>
      </trkpt>
      <trkpt lat="42.50161" lon="2.54844">
        <ele>1471.6</ele>
        <time>2024-07-14T10:37:57Z</time>
      </trkpt>
      <trkpt lat="42.50163" lon="2.54843">
        <ele>1472.2</ele>
        <time>2024-07-14T10:38:01Z</time>
      </trkpt>
      <trkpt lat="42.50162" lon="2.54838">
        <ele>1472.4</ele>
        <time>2024-07-14T10:38:07Z</time>
      </trkpt>
      <trkpt lat="42.50165" lon="2.54834">
        <ele>1472.6</ele>
        <time>2024-07-14T10:38:12Z</time>
      </trkpt>
      <trkpt lat="42.50183" lon="2.54834">
        <ele>1445.2</ele>
        <time>2024-07-14T12:06:29Z</time>
      </trkpt>
      <trkpt lat="42.50183" lon="2.54834">
        <ele>1445.2</ele>
        <time>2024-07-14T12:06:31Z</time>
      </trkpt>
      <trkpt lat="42.50179" lon="2.5484">
        <ele>1445.4</ele>
        <time>2024-07-14T12:06:35Z</time>
      </trkpt>
      <trkpt lat="42.50177" lon="2.54852">
        <ele>1445.6</ele>
        <time>2024-07-14T12:06:40Z</time>
      </trkpt>
      <trkpt lat="42.50177" lon="2.54855">
        <ele>1446</ele>
        <time>2024-07-14T12:06:42Z</time>
      </trkpt>
      <trkpt lat="42.50178" lon="2.54862">
        <ele>1446.6</ele>
        <time>2024-07-14T12:06:46Z</time>
      </trkpt>
      <trkpt lat="42.50177" lon="2.54877">
        <ele>1447.4</ele>
        <time>2024-07-14T12:06:54Z</time>
      </trkpt>
      <trkpt lat="42.50177" lon="2.54891">
        <ele>1448.6</ele>
        <time>2024-07-14T12:07:04Z</time>
      </trkpt>
      <trkpt lat="42.50177" lon="2.54911">
        <ele>1447.4</ele>
        <time>2024-07-14T12:07:15Z</time>
      </trkpt>
      <trkpt lat="42.50174" lon="2.54922">
        <ele>1446.8</ele>
        <time>2024-07-14T12:07:23Z</time>
      </trkpt>
      <trkpt lat="42.50172" lon="2.54929">
        <ele>1445.8</ele>
        <time>2024-07-14T12:07:27Z</time>
      </trkpt>
      <trkpt lat="42.50172" lon="2.54933">
        <ele>1445</ele>
        <time>2024-07-14T12:07:30Z</time>
      </trkpt>
      <trkpt lat="42.50163" lon="2.54957">
        <ele>1445.2</ele>
        <time>2024-07-14T12:07:42Z</time>
      </trkpt>
      <trkpt lat="42.50158" lon="2.54976">
        <ele>1446.6</ele>
        <time>2024-07-14T12:07:53Z</time>
      </trkpt>
      <trkpt lat="42.50155" lon="2.54981">
        <ele>1446.2</ele>
        <time>2024-07-14T12:07:58Z</time>
      </trkpt>
      <trkpt lat="42.50155" lon="2.54984">
        <ele>1445.8</ele>
        <time>2024-07-14T12:08:00Z</time>
      </trkpt>
      <trkpt lat="42.50151" lon="2.54998">
        <ele>1446</ele>
        <time>2024-07-14T12:08:11Z</time>
      </trkpt>
      <trkpt lat="42.50148" lon="2.55009">
        <ele>1445.8</ele>
        <time>2024-07-14T12:08:19Z</time>
      </trkpt>
      <trkpt lat="42.50148" lon="2.55011">
        <ele>1445.8</ele>
        <time>2024-07-14T12:08:20Z</time>
      </trkpt>
      <trkpt lat="42.50146" lon="2.55022">
        <ele>1446.6</ele>
        <time>2024-07-14T12:08:27Z</time>
      </trkpt>
      <trkpt lat="42.50144" lon="2.55033">
        <ele>1447.4</ele>
        <time>2024-07-14T12:08:34Z</time>
      </trkpt>
      <trkpt lat="42.50144" lon="2.55034">
        <ele>1447.4</ele>
        <time>2024-07-14T12:08:35Z</time>
      </trkpt>
      <trkpt lat="42.50144" lon="2.5504">
        <ele>1447.2</ele>
        <time>2024-07-14T12:08:39Z</time>
      </trkpt>
      <trkpt lat="42.50144" lon="2.55042">
        <ele>1447.2</ele>
        <time>2024-07-14T12:08:40Z</time>
      </trkpt>
      <trkpt lat="42.50144" lon="2.55049">
        <ele>1446.8</ele>
        <time>2024-07-14T12:08:45Z</time>
      </trkpt>
      <trkpt lat="42.50143" lon="2.5505">
        <ele>1446.8</ele>
        <time>2024-07-14T12:08:46Z</time>
      </trkpt>
      <trkpt lat="42.50143" lon="2.55051">
        <ele>1446.6</ele>
        <time>2024-07-14T12:08:47Z</time>
      </trkpt>
      <trkpt lat="42.50141" lon="2.55061">
        <ele>1445.4</ele>
        <time>2024-07-14T12:08:52Z</time>
      </trkpt>
      <trkpt lat="42.50139" lon="2.55069">
        <ele>1444.8</ele>
        <time>2024-07-14T12:08:57Z</time>
      </trkpt>
      <trkpt lat="42.5014" lon="2.5507">
        <ele>1444.6</ele>
        <time>2024-07-14T12:08:58Z</time>
      </trkpt>
      <trkpt lat="42.50141" lon="2.55071">
        <ele>1444.4</ele>
        <time>2024-07-14T12:08:59Z</time>
      </trkpt>
      <trkpt lat="42.50141" lon="2.55075">
        <ele>1443.8</ele>
        <time>2024-07-14T12:09:01Z</time>
      </trkpt>
      <trkpt lat="42.50142" lon="2.55077">
        <ele>1443.4</ele>
        <time>2024-07-14T12:09:02Z</time>
      </trkpt>
      <trkpt lat="42.50143" lon="2.55085">
        <ele>1441.8</ele>
        <time>2024-07-14T12:09:06Z</time>
      </trkpt>
      <trkpt lat="42.50144" lon="2.55089">
        <ele>1441</ele>
        <time>2024-07-14T12:09:08Z</time>
      </trkpt>
      <trkpt lat="42.50143" lon="2.55093">
        <ele>1440</ele>
        <time>2024-07-14T12:09:12Z</time>
      </trkpt>
      <trkpt lat="42.50143" lon="2.55097">
        <ele>1439.4</ele>
        <time>2024-07-14T12:09:14Z</time>
      </trkpt>
      <trkpt lat="42.50137" lon="2.55107">
        <ele>1438.2</ele>
        <time>2024-07-14T12:09:19Z</time>
      </trkpt>
      <trkpt lat="42.50134" lon="2.5511">
        <ele>1438.2</ele>
        <time>2024-07-14T12:09:23Z</time>
      </trkpt>
      <trkpt lat="42.50132" lon="2.55112">
        <ele>1438.2</ele>
        <time>2024-07-14T12:09:25Z</time>
      </trkpt>
      <trkpt lat="42.5013" lon="2.55115">
        <ele>1438</ele>
        <time>2024-07-14T12:09:27Z</time>
      </trkpt>
      <trkpt lat="42.50125" lon="2.55124">
        <ele>1436.8</ele>
        <time>2024-07-14T12:09:32Z</time>
      </trkpt>
      <trkpt lat="42.50125" lon="2.55132">
        <ele>1436.6</ele>
        <time>2024-07-14T12:09:37Z</time>
      </trkpt>
      <trkpt lat="42.50124" lon="2.55139">
        <ele>1435.6</ele>
        <time>2024-07-14T12:09:42Z</time>
      </trkpt>
      <trkpt lat="42.50121" lon="2.5514">
        <ele>1435.2</ele>
        <time>2024-07-14T12:09:44Z</time>
      </trkpt>
      <trkpt lat="42.50121" lon="2.55148">
        <ele>1434.2</ele>
        <time>2024-07-14T12:09:50Z</time>
      </trkpt>
      <trkpt lat="42.50119" lon="2.55152">
        <ele>1434</ele>
        <time>2024-07-14T12:09:52Z</time>
      </trkpt>
      <trkpt lat="42.50118" lon="2.55156">
        <ele>1433.4</ele>
        <time>2024-07-14T12:09:54Z</time>
      </trkpt>
      <trkpt lat="42.50116" lon="2.55166">
        <ele>1432.6</ele>
        <time>2024-07-14T12:09:58Z</time>
      </trkpt>
      <trkpt lat="42.50116" lon="2.55169">
        <ele>1433.2</ele>
        <time>2024-07-14T12:10:00Z</time>
      </trkpt>
      <trkpt lat="42.50116" lon="2.55175">
        <ele>1433.8</ele>
        <time>2024-07-14T12:10:04Z</time>
      </trkpt>
      <trkpt lat="42.50113" lon="2.5518">
        <ele>1433.8</ele>
        <time>2024-07-14T12:10:08Z</time>
      </trkpt>
      <trkpt lat="42.50113" lon="2.55183">
        <ele>1433.4</ele>
        <time>2024-07-14T12:10:10Z</time>
      </trkpt>
      <trkpt lat="42.50113" lon="2.55184">
        <ele>1433.4</ele>
        <time>2024-07-14T12:10:11Z</time>
      </trkpt>
      <trkpt lat="42.50113" lon="2.55187">
        <ele>1433</ele>
        <time>2024-07-14T12:10:12Z</time>
      </trkpt>
      <trkpt lat="42.50112" lon="2.55191">
        <ele>1431.8</ele>
        <time>2024-07-14T12:10:17Z</time>
      </trkpt>
      <trkpt lat="42.50112" lon="2.55193">
        <ele>1431.6</ele>
        <time>2024-07-14T12:10:18Z</time>
      </trkpt>
      <trkpt lat="42.50114" lon="2.55198">
        <ele>1431.2</ele>
        <time>2024-07-14T12:10:20Z</time>
      </trkpt>
      <trkpt lat="42.50115" lon="2.55202">
        <ele>1430.6</ele>
        <time>2024-07-14T12:10:22Z</time>
      </trkpt>
      <trkpt lat="42.50114" lon="2.55203">
        <ele>1430.6</ele>
        <time>2024-07-14T12:10:23Z</time>
      </trkpt>
      <trkpt lat="42.50113" lon="2.55205">
        <ele>1430</ele>
        <time>2024-07-14T12:10:25Z</time>
      </trkpt>
      <trkpt lat="42.50112" lon="2.55208">
        <ele>1429.6</ele>
        <time>2024-07-14T12:10:27Z</time>
      </trkpt>
      <trkpt lat="42.50111" lon="2.5521">
        <ele>1429.2</ele>
        <time>2024-07-14T12:10:29Z</time>
      </trkpt>
      <trkpt lat="42.5011" lon="2.55213">
        <ele>1428.2</ele>
        <time>2024-07-14T12:10:32Z</time>
      </trkpt>
      <trkpt lat="42.50109" lon="2.55224">
        <ele>1426.4</ele>
        <time>2024-07-14T12:10:38Z</time>
      </trkpt>
      <trkpt lat="42.50109" lon="2.55225">
        <ele>1426.2</ele>
        <time>2024-07-14T12:10:39Z</time>
      </trkpt>
      <trkpt lat="42.50109" lon="2.55226">
        <ele>1426.2</ele>
        <time>2024-07-14T12:10:40Z</time>
      </trkpt>
      <trkpt lat="42.50107" lon="2.55232">
        <ele>1425.8</ele>
        <time>2024-07-14T12:10:44Z</time>
      </trkpt>
      <trkpt lat="42.50104" lon="2.55244">
        <ele>1425.6</ele>
        <time>2024-07-14T12:10:51Z</time>
      </trkpt>
      <trkpt lat="42.50103" lon="2.55257">
        <ele>1426.8</ele>
        <time>2024-07-14T12:11:00Z</time>
      </trkpt>
      <trkpt lat="42.50107" lon="2.5527">
        <ele>1426.2</ele>
        <time>2024-07-14T12:11:08Z</time>
      </trkpt>
      <trkpt lat="42.50116" lon="2.55281">
        <ele>1425.2</ele>
        <time>2024-07-14T12:11:15Z</time>
      </trkpt>
      <trkpt lat="42.50123" lon="2.55301">
        <ele>1424.8</ele>
        <time>2024-07-14T12:11:27Z</time>
      </trkpt>
      <trkpt lat="42.50126" lon="2.55313">
        <ele>1425</ele>
        <time>2024-07-14T12:11:35Z</time>
      </trkpt>
      <trkpt lat="42.50128" lon="2.55318">
        <ele>1424</ele>
        <time>2024-07-14T12:11:40Z</time>
      </trkpt>
      <trkpt lat="42.50131" lon="2.5532">
        <ele>1423.2</ele>
        <time>2024-07-14T12:11:42Z</time>
      </trkpt>
      <trkpt lat="42.50132" lon="2.55324">
        <ele>1421.2</ele>
        <time>2024-07-14T12:11:46Z</time>
      </trkpt>
      <trkpt lat="42.50136" lon="2.55339">
        <ele>1416.6</ele>
        <time>2024-07-14T12:11:57Z</time>
      </trkpt>
      <trkpt lat="42.50139" lon="2.5535">
        <ele>1416</ele>
        <time>2024-07-14T12:12:07Z</time>
      </trkpt>
      <trkpt lat="42.50141" lon="2.55356">
        <ele>1415.6</ele>
        <time>2024-07-14T12:12:11Z</time>
      </trkpt>
      <trkpt lat="42.50142" lon="2.55361">
        <ele>1415.4</ele>
        <time>2024-07-14T12:12:16Z</time>
      </trkpt>
      <trkpt lat="42.50143" lon="2.55365">
        <ele>1415.4</ele>
        <time>2024-07-14T12:12:19Z</time>
      </trkpt>
      <trkpt lat="42.50145" lon="2.55369">
        <ele>1415.8</ele>
        <time>2024-07-14T12:12:23Z</time>
      </trkpt>
      <trkpt lat="42.50145" lon="2.55371">
        <ele>1416.8</ele>
        <time>2024-07-14T12:12:25Z</time>
      </trkpt>
      <trkpt lat="42.50146" lon="2.55379">
        <ele>1418</ele>
        <time>2024-07-14T12:12:29Z</time>
      </trkpt>
      <trkpt lat="42.50148" lon="2.55388">
        <ele>1418.2</ele>
        <time>2024-07-14T12:12:34Z</time>
      </trkpt>
      <trkpt lat="42.50149" lon="2.55394">
        <ele>1417.8</ele>
        <time>2024-07-14T12:12:38Z</time>
      </trkpt>
      <trkpt lat="42.50149" lon="2.55404">
        <ele>1417.2</ele>
        <time>2024-07-14T12:12:44Z</time>
      </trkpt>
      <trkpt lat="42.50149" lon="2.55405">
        <ele>1417</ele>
        <time>2024-07-14T12:12:45Z</time>
      </trkpt>
      <trkpt lat="42.50149" lon="2.55416">
        <ele>1416.6</ele>
        <time>2024-07-14T12:12:51Z</time>
      </trkpt>
      <trkpt lat="42.50149" lon="2.55427">
        <ele>1415.8</ele>
        <time>2024-07-14T12:12:57Z</time>
      </trkpt>
      <trkpt lat="42.50148" lon="2.55428">
        <ele>1415.8</ele>
        <time>2024-07-14T12:12:58Z</time>
      </trkpt>
      <trkpt lat="42.50142" lon="2.55436">
        <ele>1414.6</ele>
        <time>2024-07-14T12:13:04Z</time>
      </trkpt>
      <trkpt lat="42.50137" lon="2.55455">
        <ele>1411.4</ele>
        <time>2024-07-14T12:13:17Z</time>
      </trkpt>
      <trkpt lat="42.50136" lon="2.5547">
        <ele>1408.8</ele>
        <time>2024-07-14T12:13:26Z</time>
      </trkpt>
      <trkpt lat="42.50137" lon="2.55473">
        <ele>1408.4</ele>
        <time>2024-07-14T12:13:28Z</time>
      </trkpt>
      <trkpt lat="42.50136" lon="2.55487">
        <ele>1407.6</ele>
        <time>2024-07-14T12:13:37Z</time>
      </trkpt>
      <trkpt lat="42.50134" lon="2.55503">
        <ele>1405.4</ele>
        <time>2024-07-14T12:13:47Z</time>
      </trkpt>
      <trkpt lat="42.50134" lon="2.55521">
        <ele>1402.6</ele>
        <time>2024-07-14T12:13:57Z</time>
      </trkpt>
      <trkpt lat="42.50135" lon="2.55536">
        <ele>1403</ele>
        <time>2024-07-14T12:14:06Z</time>
      </trkpt>
      <trkpt lat="42.50136" lon="2.55551">
        <ele>1401.2</ele>
        <time>2024-07-14T12:14:15Z</time>
      </trkpt>
      <trkpt lat="42.50137" lon="2.5556">
        <ele>1399</ele>
        <time>2024-07-14T12:14:21Z</time>
      </trkpt>
      <trkpt lat="42.50139" lon="2.55579">
        <ele>1400.4</ele>
        <time>2024-07-14T12:14:32Z</time>
      </trkpt>
      <trkpt lat="42.50149" lon="2.55593">
        <ele>1400.8</ele>
        <time>2024-07-14T12:14:43Z</time>
      </trkpt>
      <trkpt lat="42.50158" lon="2.55598">
        <ele>1400.2</ele>
        <time>2024-07-14T12:14:51Z</time>
      </trkpt>
      <trkpt lat="42.50171" lon="2.55606">
        <ele>1395.4</ele>
        <time>2024-07-14T12:15:04Z</time>
      </trkpt>
      <trkpt lat="42.50175" lon="2.55612">
        <ele>1393</ele>
        <time>2024-07-14T12:15:10Z</time>
      </trkpt>
      <trkpt lat="42.50176" lon="2.55615">
        <ele>1392.6</ele>
        <time>2024-07-14T12:15:12Z</time>
      </trkpt>
      <trkpt lat="42.50173" lon="2.55626">
        <ele>1391.6</ele>
        <time>2024-07-14T12:15:19Z</time>
      </trkpt>
      <trkpt lat="42.50167" lon="2.55631">
        <ele>1390.8</ele>
        <time>2024-07-14T12:15:25Z</time>
      </trkpt>
      <trkpt lat="42.50166" lon="2.55632">
        <ele>1390.8</ele>
        <time>2024-07-14T12:15:26Z</time>
      </trkpt>
      <trkpt lat="42.50167" lon="2.55641">
        <ele>1390</ele>
        <time>2024-07-14T12:15:33Z</time>
      </trkpt>
      <trkpt lat="42.50167" lon="2.55643">
        <ele>1389.8</ele>
        <time>2024-07-14T12:15:39Z</time>
      </trkpt>
      <trkpt lat="42.50166" lon="2.5564">
        <ele>1389.8</ele>
        <time>2024-07-14T12:15:41Z</time>
      </trkpt>
      <trkpt lat="42.50166" lon="2.55637">
        <ele>1389.4</ele>
        <time>2024-07-14T12:15:47Z</time>
      </trkpt>
      <trkpt lat="42.5017" lon="2.55643">
        <ele>1389.4</ele>
        <time>2024-07-14T12:16:14Z</time>
      </trkpt>
      <trkpt lat="42.50177" lon="2.55649">
        <ele>1389.6</ele>
        <time>2024-07-14T12:16:21Z</time>
      </trkpt>
      <trkpt lat="42.50184" lon="2.55649">
        <ele>1388.4</ele>
        <time>2024-07-14T12:16:31Z</time>
      </trkpt>
      <trkpt lat="42.50186" lon="2.5565">
        <ele>1388.4</ele>
        <time>2024-07-14T12:16:33Z</time>
      </trkpt>
      <trkpt lat="42.50192" lon="2.55654">
        <ele>1389.2</ele>
        <time>2024-07-14T12:16:38Z</time>
      </trkpt>
      <trkpt lat="42.50202" lon="2.5566">
        <ele>1387.2</ele>
        <time>2024-07-14T12:16:48Z</time>
      </trkpt>
      <trkpt lat="42.5021" lon="2.55663">
        <ele>1385</ele>
        <time>2024-07-14T12:16:57Z</time>
      </trkpt>
      <trkpt lat="42.50219" lon="2.55668">
        <ele>1384.8</ele>
        <time>2024-07-14T12:17:05Z</time>
      </trkpt>
      <trkpt lat="42.50226" lon="2.55677">
        <ele>1384.2</ele>
        <time>2024-07-14T12:17:13Z</time>
      </trkpt>
      <trkpt lat="42.50226" lon="2.55681">
        <ele>1383</ele>
        <time>2024-07-14T12:17:15Z</time>
      </trkpt>
      <trkpt lat="42.50226" lon="2.55684">
        <ele>1382</ele>
        <time>2024-07-14T12:17:17Z</time>
      </trkpt>
      <trkpt lat="42.50227" lon="2.55686">
        <ele>1381.6</ele>
        <time>2024-07-14T12:17:18Z</time>
      </trkpt>
      <trkpt lat="42.50232" lon="2.55697">
        <ele>1379.4</ele>
        <time>2024-07-14T12:17:27Z</time>
      </trkpt>
      <trkpt lat="42.50233" lon="2.55698">
        <ele>1379.2</ele>
        <time>2024-07-14T12:17:29Z</time>
      </trkpt>
      <trkpt lat="42.50238" lon="2.55701">
        <ele>1379</ele>
        <time>2024-07-14T12:17:35Z</time>
      </trkpt>
      <trkpt lat="42.50239" lon="2.55702">
        <ele>1378.8</ele>
        <time>2024-07-14T12:17:37Z</time>
      </trkpt>
      <trkpt lat="42.50242" lon="2.55702">
        <ele>1378.4</ele>
        <time>2024-07-14T12:17:40Z</time>
      </trkpt>
      <trkpt lat="42.50243" lon="2.55702">
        <ele>1378.2</ele>
        <time>2024-07-14T12:17:41Z</time>
      </trkpt>
      <trkpt lat="42.50254" lon="2.55715">
        <ele>1377.8</ele>
        <time>2024-07-14T12:17:51Z</time>
      </trkpt>
      <trkpt lat="42.5026" lon="2.55724">
        <ele>1374</ele>
        <time>2024-07-14T12:17:58Z</time>
      </trkpt>
      <trkpt lat="42.50261" lon="2.55725">
        <ele>1373.6</ele>
        <time>2024-07-14T12:17:59Z</time>
      </trkpt>
      <trkpt lat="42.50261" lon="2.55727">
        <ele>1372.8</ele>
        <time>2024-07-14T12:18:00Z</time>
      </trkpt>
      <trkpt lat="42.50262" lon="2.55731">
        <ele>1371.6</ele>
        <time>2024-07-14T12:18:03Z</time>
      </trkpt>
      <trkpt lat="42.50264" lon="2.55734">
        <ele>1371</ele>
        <time>2024-07-14T12:18:05Z</time>
      </trkpt>
      <trkpt lat="42.50268" lon="2.5574">
        <ele>1370.4</ele>
        <time>2024-07-14T12:18:08Z</time>
      </trkpt>
      <trkpt lat="42.50269" lon="2.55749">
        <ele>1370.4</ele>
        <time>2024-07-14T12:18:13Z</time>
      </trkpt>
      <trkpt lat="42.50268" lon="2.55757">
        <ele>1369.2</ele>
        <time>2024-07-14T12:18:18Z</time>
      </trkpt>
      <trkpt lat="42.50267" lon="2.5576">
        <ele>1368</ele>
        <time>2024-07-14T12:18:20Z</time>
      </trkpt>
      <trkpt lat="42.50267" lon="2.55761">
        <ele>1367.4</ele>
        <time>2024-07-14T12:18:21Z</time>
      </trkpt>
      <trkpt lat="42.50269" lon="2.55765">
        <ele>1365.8</ele>
        <time>2024-07-14T12:18:24Z</time>
      </trkpt>
      <trkpt lat="42.50268" lon="2.55767">
        <ele>1365</ele>
        <time>2024-07-14T12:18:26Z</time>
      </trkpt>
      <trkpt lat="42.50269" lon="2.55771">
        <ele>1364</ele>
        <time>2024-07-14T12:18:27Z</time>
      </trkpt>
      <trkpt lat="42.5027" lon="2.55776">
        <ele>1362</ele>
        <time>2024-07-14T12:18:32Z</time>
      </trkpt>
      <trkpt lat="42.5027" lon="2.55779">
        <ele>1361.2</ele>
        <time>2024-07-14T12:18:34Z</time>
      </trkpt>
      <trkpt lat="42.50272" lon="2.55782">
        <ele>1360</ele>
        <time>2024-07-14T12:18:37Z</time>
      </trkpt>
      <trkpt lat="42.50271" lon="2.55789">
        <ele>1358.4</ele>
        <time>2024-07-14T12:18:42Z</time>
      </trkpt>
      <trkpt lat="42.50271" lon="2.55794">
        <ele>1357.2</ele>
        <time>2024-07-14T12:18:45Z</time>
      </trkpt>
      <trkpt lat="42.5027" lon="2.55799">
        <ele>1355.8</ele>
        <time>2024-07-14T12:18:48Z</time>
      </trkpt>
      <trkpt lat="42.50267" lon="2.55801">
        <ele>1354.6</ele>
        <time>2024-07-14T12:18:50Z</time>
      </trkpt>
      <trkpt lat="42.50266" lon="2.55801">
        <ele>1354.4</ele>
        <time>2024-07-14T12:18:51Z</time>
      </trkpt>
      <trkpt lat="42.50263" lon="2.55809">
        <ele>1352</ele>
        <time>2024-07-14T12:18:57Z</time>
      </trkpt>
      <trkpt lat="42.50264" lon="2.55812">
        <ele>1351.2</ele>
        <time>2024-07-14T12:18:59Z</time>
      </trkpt>
      <trkpt lat="42.50266" lon="2.55819">
        <ele>1350</ele>
        <time>2024-07-14T12:19:03Z</time>
      </trkpt>
      <trkpt lat="42.50267" lon="2.55824">
        <ele>1350</ele>
        <time>2024-07-14T12:19:06Z</time>
      </trkpt>
      <trkpt lat="42.50267" lon="2.55828">
        <ele>1350.4</ele>
        <time>2024-07-14T12:19:09Z</time>
      </trkpt>
      <trkpt lat="42.50267" lon="2.55834">
        <ele>1350.4</ele>
        <time>2024-07-14T12:19:12Z</time>
      </trkpt>
      <trkpt lat="42.5027" lon="2.55841">
        <ele>1349.8</ele>
        <time>2024-07-14T12:19:18Z</time>
      </trkpt>
      <trkpt lat="42.5027" lon="2.55844">
        <ele>1349.4</ele>
        <time>2024-07-14T12:19:20Z</time>
      </trkpt>
      <trkpt lat="42.50268" lon="2.55849">
        <ele>1348.8</ele>
        <time>2024-07-14T12:19:23Z</time>
      </trkpt>
      <trkpt lat="42.50268" lon="2.55855">
        <ele>1348</ele>
        <time>2024-07-14T12:19:27Z</time>
      </trkpt>
      <trkpt lat="42.50269" lon="2.55859">
        <ele>1347.8</ele>
        <time>2024-07-14T12:19:29Z</time>
      </trkpt>
      <trkpt lat="42.50268" lon="2.55862">
        <ele>1347.8</ele>
        <time>2024-07-14T12:19:30Z</time>
      </trkpt>
      <trkpt lat="42.50265" lon="2.5587">
        <ele>1347.2</ele>
        <time>2024-07-14T12:19:34Z</time>
      </trkpt>
      <trkpt lat="42.50263" lon="2.55878">
        <ele>1346.6</ele>
        <time>2024-07-14T12:19:40Z</time>
      </trkpt>
      <trkpt lat="42.5026" lon="2.5588">
        <ele>1346.6</ele>
        <time>2024-07-14T12:19:43Z</time>
      </trkpt>
      <trkpt lat="42.50258" lon="2.55884">
        <ele>1346.2</ele>
        <time>2024-07-14T12:19:46Z</time>
      </trkpt>
      <trkpt lat="42.50257" lon="2.55885">
        <ele>1346</ele>
        <time>2024-07-14T12:19:47Z</time>
      </trkpt>
      <trkpt lat="42.50258" lon="2.55888">
        <ele>1345.6</ele>
        <time>2024-07-14T12:19:49Z</time>
      </trkpt>
      <trkpt lat="42.5026" lon="2.5589">
        <ele>1345</ele>
        <time>2024-07-14T12:19:52Z</time>
      </trkpt>
      <trkpt lat="42.50265" lon="2.55898">
        <ele>1344.6</ele>
        <time>2024-07-14T12:19:59Z</time>
      </trkpt>
      <trkpt lat="42.50271" lon="2.55907">
        <ele>1345.6</ele>
        <time>2024-07-14T12:20:04Z</time>
      </trkpt>
      <trkpt lat="42.50279" lon="2.55922">
        <ele>1347.2</ele>
        <time>2024-07-14T12:20:12Z</time>
      </trkpt>
      <trkpt lat="42.50288" lon="2.55933">
        <ele>1347.2</ele>
        <time>2024-07-14T12:20:21Z</time>
      </trkpt>
      <trkpt lat="42.50291" lon="2.55945">
        <ele>1345</ele>
        <time>2024-07-14T12:20:29Z</time>
      </trkpt>
      <trkpt lat="42.50284" lon="2.55955">
        <ele>1342.4</ele>
        <time>2024-07-14T12:20:37Z</time>
      </trkpt>
      <trkpt lat="42.50279" lon="2.5597">
        <ele>1338.6</ele>
        <time>2024-07-14T12:20:46Z</time>
      </trkpt>
      <trkpt lat="42.50278" lon="2.55982">
        <ele>1337.4</ele>
        <time>2024-07-14T12:20:53Z</time>
      </trkpt>
      <trkpt lat="42.50277" lon="2.55991">
        <ele>1337.8</ele>
        <time>2024-07-14T12:20:59Z</time>
      </trkpt>
      <trkpt lat="42.50278" lon="2.55993">
        <ele>1338.4</ele>
        <time>2024-07-14T12:21:00Z</time>
      </trkpt>
      <trkpt lat="42.50278" lon="2.55998">
        <ele>1339.2</ele>
        <time>2024-07-14T12:21:04Z</time>
      </trkpt>
      <trkpt lat="42.50278" lon="2.56002">
        <ele>1339.4</ele>
        <time>2024-07-14T12:21:06Z</time>
      </trkpt>
      <trkpt lat="42.50279" lon="2.56004">
        <ele>1339.4</ele>
        <time>2024-07-14T12:21:07Z</time>
      </trkpt>
      <trkpt lat="42.50278" lon="2.56008">
        <ele>1339.8</ele>
        <time>2024-07-14T12:21:10Z</time>
      </trkpt>
      <trkpt lat="42.50278" lon="2.56013">
        <ele>1340</ele>
        <time>2024-07-14T12:21:13Z</time>
      </trkpt>
      <trkpt lat="42.50279" lon="2.5602">
        <ele>1339.2</ele>
        <time>2024-07-14T12:21:18Z</time>
      </trkpt>
      <trkpt lat="42.50279" lon="2.56023">
        <ele>1338.8</ele>
        <time>2024-07-14T12:21:20Z</time>
      </trkpt>
      <trkpt lat="42.50279" lon="2.56025">
        <ele>1338.6</ele>
        <time>2024-07-14T12:21:21Z</time>
      </trkpt>
      <trkpt lat="42.50279" lon="2.56035">
        <ele>1337.2</ele>
        <time>2024-07-14T12:21:27Z</time>
      </trkpt>
      <trkpt lat="42.5028" lon="2.5604">
        <ele>1336.8</ele>
        <time>2024-07-14T12:21:30Z</time>
      </trkpt>
      <trkpt lat="42.50279" lon="2.56045">
        <ele>1336.2</ele>
        <time>2024-07-14T12:21:33Z</time>
      </trkpt>
      <trkpt lat="42.50276" lon="2.56051">
        <ele>1335.8</ele>
        <time>2024-07-14T12:21:37Z</time>
      </trkpt>
      <trkpt lat="42.50274" lon="2.56053">
        <ele>1335.4</ele>
        <time>2024-07-14T12:21:39Z</time>
      </trkpt>
      <trkpt lat="42.50272" lon="2.56061">
        <ele>1333.8</ele>
        <time>2024-07-14T12:21:43Z</time>
      </trkpt>
      <trkpt lat="42.50271" lon="2.56064">
        <ele>1333.2</ele>
        <time>2024-07-14T12:21:45Z</time>
      </trkpt>
      <trkpt lat="42.50272" lon="2.56066">
        <ele>1332.8</ele>
        <time>2024-07-14T12:21:46Z</time>
      </trkpt>
      <trkpt lat="42.50273" lon="2.56072">
        <ele>1332.6</ele>
        <time>2024-07-14T12:21:49Z</time>
      </trkpt>
      <trkpt lat="42.50273" lon="2.56072">
        <ele>1332.6</ele>
        <time>2024-07-14T12:21:50Z</time>
      </trkpt>
      <trkpt lat="42.50273" lon="2.56081">
        <ele>1334.6</ele>
        <time>2024-07-14T12:21:55Z</time>
      </trkpt>
      <trkpt lat="42.50271" lon="2.56085">
        <ele>1335.4</ele>
        <time>2024-07-14T12:21:57Z</time>
      </trkpt>
      <trkpt lat="42.50269" lon="2.56093">
        <ele>1335.8</ele>
        <time>2024-07-14T12:22:03Z</time>
      </trkpt>
      <trkpt lat="42.5027" lon="2.56095">
        <ele>1335.8</ele>
        <time>2024-07-14T12:22:04Z</time>
      </trkpt>
      <trkpt lat="42.50269" lon="2.56098">
        <ele>1335.8</ele>
        <time>2024-07-14T12:22:05Z</time>
      </trkpt>
      <trkpt lat="42.50267" lon="2.56102">
        <ele>1336.2</ele>
        <time>2024-07-14T12:22:08Z</time>
      </trkpt>
      <trkpt lat="42.50266" lon="2.56105">
        <ele>1336.4</ele>
        <time>2024-07-14T12:22:10Z</time>
      </trkpt>
      <trkpt lat="42.50265" lon="2.56108">
        <ele>1335.2</ele>
        <time>2024-07-14T12:22:12Z</time>
      </trkpt>
      <trkpt lat="42.50265" lon="2.56114">
        <ele>1333.4</ele>
        <time>2024-07-14T12:22:15Z</time>
      </trkpt>
      <trkpt lat="42.50263" lon="2.56115">
        <ele>1332.8</ele>
        <time>2024-07-14T12:22:16Z</time>
      </trkpt>
      <trkpt lat="42.5026" lon="2.56124">
        <ele>1331.6</ele>
        <time>2024-07-14T12:22:22Z</time>
      </trkpt>
      <trkpt lat="42.50256" lon="2.56129">
        <ele>1331.8</ele>
        <time>2024-07-14T12:22:26Z</time>
      </trkpt>
      <trkpt lat="42.50254" lon="2.56131">
        <ele>1331.8</ele>
        <time>2024-07-14T12:22:28Z</time>
      </trkpt>
      <trkpt lat="42.50253" lon="2.56132">
        <ele>1331.6</ele>
        <time>2024-07-14T12:22:29Z</time>
      </trkpt>
      <trkpt lat="42.50251" lon="2.56137">
        <ele>1330.6</ele>
        <time>2024-07-14T12:22:32Z</time>
      </trkpt>
      <trkpt lat="42.50251" lon="2.56141">
        <ele>1329</ele>
        <time>2024-07-14T12:22:34Z</time>
      </trkpt>
      <trkpt lat="42.50252" lon="2.56155">
        <ele>1325.8</ele>
        <time>2024-07-14T12:22:40Z</time>
      </trkpt>
      <trkpt lat="42.50248" lon="2.56165">
        <ele>1325.6</ele>
        <time>2024-07-14T12:22:48Z</time>
      </trkpt>
      <trkpt lat="42.50248" lon="2.56166">
        <ele>1325.8</ele>
        <time>2024-07-14T12:22:49Z</time>
      </trkpt>
      <trkpt lat="42.50246" lon="2.56175">
        <ele>1326</ele>
        <time>2024-07-14T12:22:55Z</time>
      </trkpt>
      <trkpt lat="42.50245" lon="2.56183">
        <ele>1325.6</ele>
        <time>2024-07-14T12:23:02Z</time>
      </trkpt>
      <trkpt lat="42.50238" lon="2.5619">
        <ele>1325.4</ele>
        <time>2024-07-14T12:23:11Z</time>
      </trkpt>
      <trkpt lat="42.50237" lon="2.5619">
        <ele>1325.4</ele>
        <time>2024-07-14T12:23:12Z</time>
      </trkpt>
      <trkpt lat="42.50228" lon="2.5619">
        <ele>1325.8</ele>
        <time>2024-07-14T12:23:19Z</time>
      </trkpt>
      <trkpt lat="42.50219" lon="2.56191">
        <ele>1323</ele>
        <time>2024-07-14T12:23:29Z</time>
      </trkpt>
      <trkpt lat="42.50211" lon="2.56185">
        <ele>1320.2</ele>
        <time>2024-07-14T12:23:36Z</time>
      </trkpt>
      <trkpt lat="42.502" lon="2.56176">
        <ele>1318.4</ele>
        <time>2024-07-14T12:23:46Z</time>
      </trkpt>
      <trkpt lat="42.50189" lon="2.56171">
        <ele>1316.8</ele>
        <time>2024-07-14T12:23:56Z</time>
      </trkpt>
      <trkpt lat="42.50186" lon="2.5617">
        <ele>1316.2</ele>
        <time>2024-07-14T12:23:58Z</time>
      </trkpt>
      <trkpt lat="42.50178" lon="2.56168">
        <ele>1314.6</ele>
        <time>2024-07-14T12:24:04Z</time>
      </trkpt>
      <trkpt lat="42.50173" lon="2.56166">
        <ele>1313.6</ele>
        <time>2024-07-14T12:24:08Z</time>
      </trkpt>
      <trkpt lat="42.50171" lon="2.56167">
        <ele>1313.2</ele>
        <time>2024-07-14T12:24:11Z</time>
      </trkpt>
      <trkpt lat="42.50167" lon="2.56166">
        <ele>1312.6</ele>
        <time>2024-07-14T12:24:16Z</time>
      </trkpt>
      <trkpt lat="42.50166" lon="2.56167">
        <ele>1312.4</ele>
        <time>2024-07-14T12:24:17Z</time>
      </trkpt>
      <trkpt lat="42.50161" lon="2.56166">
        <ele>1311.4</ele>
        <time>2024-07-14T12:24:23Z</time>
      </trkpt>
      <trkpt lat="42.50155" lon="2.56167">
        <ele>1307.8</ele>
        <time>2024-07-14T12:24:31Z</time>
      </trkpt>
      <trkpt lat="42.50152" lon="2.56166">
        <ele>1306.8</ele>
        <time>2024-07-14T12:24:35Z</time>
      </trkpt>
      <trkpt lat="42.50151" lon="2.56166">
        <ele>1306.6</ele>
        <time>2024-07-14T12:24:36Z</time>
      </trkpt>
      <trkpt lat="42.50149" lon="2.56166">
        <ele>1306.2</ele>
        <time>2024-07-14T12:24:38Z</time>
      </trkpt>
      <trkpt lat="42.50146" lon="2.56166">
        <ele>1306</ele>
        <time>2024-07-14T12:24:41Z</time>
      </trkpt>
      <trkpt lat="42.50144" lon="2.56165">
        <ele>1306</ele>
        <time>2024-07-14T12:24:42Z</time>
      </trkpt>
      <trkpt lat="42.50139" lon="2.56164">
        <ele>1305.4</ele>
        <time>2024-07-14T12:24:48Z</time>
      </trkpt>
      <trkpt lat="42.50136" lon="2.56164">
        <ele>1304.8</ele>
        <time>2024-07-14T12:24:51Z</time>
      </trkpt>
      <trkpt lat="42.50132" lon="2.56164">
        <ele>1304.4</ele>
        <time>2024-07-14T12:24:55Z</time>
      </trkpt>
      <trkpt lat="42.50121" lon="2.56168">
        <ele>1303.4</ele>
        <time>2024-07-14T12:25:01Z</time>
      </trkpt>
      <trkpt lat="42.50113" lon="2.56168">
        <ele>1303</ele>
        <time>2024-07-14T12:25:10Z</time>
      </trkpt>
      <trkpt lat="42.50104" lon="2.56168">
        <ele>1302.8</ele>
        <time>2024-07-14T12:25:17Z</time>
      </trkpt>
      <trkpt lat="42.50095" lon="2.56165">
        <ele>1300.6</ele>
        <time>2024-07-14T12:25:24Z</time>
      </trkpt>
      <trkpt lat="42.50087" lon="2.56164">
        <ele>1298.8</ele>
        <time>2024-07-14T12:25:32Z</time>
      </trkpt>
      <trkpt lat="42.50086" lon="2.56166">
        <ele>1298.2</ele>
        <time>2024-07-14T12:25:34Z</time>
      </trkpt>
      <trkpt lat="42.50081" lon="2.56169">
        <ele>1297.6</ele>
        <time>2024-07-14T12:25:38Z</time>
      </trkpt>
      <trkpt lat="42.50079" lon="2.56169">
        <ele>1297.4</ele>
        <time>2024-07-14T12:25:39Z</time>
      </trkpt>
      <trkpt lat="42.50074" lon="2.56167">
        <ele>1296.4</ele>
        <time>2024-07-14T12:25:44Z</time>
      </trkpt>
      <trkpt lat="42.50075" lon="2.56167">
        <ele>1294.4</ele>
        <time>2024-07-14T12:25:48Z</time>
      </trkpt>
      <trkpt lat="42.50075" lon="2.56169">
        <ele>1293</ele>
        <time>2024-07-14T12:25:53Z</time>
      </trkpt>
      <trkpt lat="42.50075" lon="2.56169">
        <ele>1293.2</ele>
        <time>2024-07-14T12:26:07Z</time>
      </trkpt>
      <trkpt lat="42.50074" lon="2.56168">
        <ele>1292.4</ele>
        <time>2024-07-14T12:27:00Z</time>
      </trkpt>
      <trkpt lat="42.5007" lon="2.56167">
        <ele>1292.6</ele>
        <time>2024-07-14T12:27:03Z</time>
      </trkpt>
      <trkpt lat="42.50066" lon="2.56167">
        <ele>1292.8</ele>
        <time>2024-07-14T12:27:05Z</time>
      </trkpt>
      <trkpt lat="42.50063" lon="2.56167">
        <ele>1292.8</ele>
        <time>2024-07-14T12:27:07Z</time>
      </trkpt>
      <trkpt lat="42.50061" lon="2.56166">
        <ele>1292.4</ele>
        <time>2024-07-14T12:27:10Z</time>
      </trkpt>
      <trkpt lat="42.50054" lon="2.5617">
        <ele>1289.8</ele>
        <time>2024-07-14T12:27:17Z</time>
      </trkpt>
      <trkpt lat="42.50049" lon="2.5617">
        <ele>1288.6</ele>
        <time>2024-07-14T12:27:22Z</time>
      </trkpt>
      <trkpt lat="42.50046" lon="2.56172">
        <ele>1287.8</ele>
        <time>2024-07-14T12:27:24Z</time>
      </trkpt>
      <trkpt lat="42.50037" lon="2.56173">
        <ele>1286.4</ele>
        <time>2024-07-14T12:27:31Z</time>
      </trkpt>
      <trkpt lat="42.50036" lon="2.56173">
        <ele>1286.4</ele>
        <time>2024-07-14T12:27:32Z</time>
      </trkpt>
      <trkpt lat="42.5003" lon="2.56172">
        <ele>1285.4</ele>
        <time>2024-07-14T12:27:37Z</time>
      </trkpt>
      <trkpt lat="42.50021" lon="2.56168">
        <ele>1284.8</ele>
        <time>2024-07-14T12:27:43Z</time>
      </trkpt>
      <trkpt lat="42.50007" lon="2.5617">
        <ele>1283.2</ele>
        <time>2024-07-14T12:27:53Z</time>
      </trkpt>
      <trkpt lat="42.50002" lon="2.5617">
        <ele>1282</ele>
        <time>2024-07-14T12:28:00Z</time>
      </trkpt>
      <trkpt lat="42.49993" lon="2.5617">
        <ele>1279.4</ele>
        <time>2024-07-14T12:28:07Z</time>
      </trkpt>
      <trkpt lat="42.49984" lon="2.56167">
        <ele>1277.4</ele>
        <time>2024-07-14T12:28:16Z</time>
      </trkpt>
      <trkpt lat="42.49976" lon="2.56165">
        <ele>1276.8</ele>
        <time>2024-07-14T12:28:23Z</time>
      </trkpt>
      <trkpt lat="42.49974" lon="2.56164">
        <ele>1278</ele>
        <time>2024-07-14T12:28:30Z</time>
      </trkpt>
      <trkpt lat="42.49974" lon="2.56165">
        <ele>1278</ele>
        <time>2024-07-14T12:28:38Z</time>
      </trkpt>
      <trkpt lat="42.49968" lon="2.56165">
        <ele>1278</ele>
        <time>2024-07-14T12:28:59Z</time>
      </trkpt>
      <trkpt lat="42.49958" lon="2.56163">
        <ele>1277.2</ele>
        <time>2024-07-14T12:29:06Z</time>
      </trkpt>
      <trkpt lat="42.4995" lon="2.56159">
        <ele>1276</ele>
        <time>2024-07-14T12:29:13Z</time>
      </trkpt>
      <trkpt lat="42.49942" lon="2.56161">
        <ele>1273.4</ele>
        <time>2024-07-14T12:29:21Z</time>
      </trkpt>
      <trkpt lat="42.4993" lon="2.56165">
        <ele>1269.2</ele>
        <time>2024-07-14T12:29:32Z</time>
      </trkpt>
      <trkpt lat="42.49926" lon="2.56167">
        <ele>1268</ele>
        <time>2024-07-14T12:29:35Z</time>
      </trkpt>
      <trkpt lat="42.49922" lon="2.56166">
        <ele>1266.8</ele>
        <time>2024-07-14T12:29:39Z</time>
      </trkpt>
      <trkpt lat="42.4992" lon="2.56166">
        <ele>1266.4</ele>
        <time>2024-07-14T12:29:42Z</time>
      </trkpt>
      <trkpt lat="42.49919" lon="2.56169">
        <ele>1266.2</ele>
        <time>2024-07-14T12:29:44Z</time>
      </trkpt>
      <trkpt lat="42.49918" lon="2.5617">
        <ele>1266.2</ele>
        <time>2024-07-14T12:29:45Z</time>
      </trkpt>
      <trkpt lat="42.49911" lon="2.56177">
        <ele>1265.4</ele>
        <time>2024-07-14T12:29:53Z</time>
      </trkpt>
      <trkpt lat="42.49901" lon="2.56176">
        <ele>1263</ele>
        <time>2024-07-14T12:30:02Z</time>
      </trkpt>
      <trkpt lat="42.49896" lon="2.56175">
        <ele>1261.4</ele>
        <time>2024-07-14T12:30:06Z</time>
      </trkpt>
      <trkpt lat="42.49893" lon="2.56173">
        <ele>1260</ele>
        <time>2024-07-14T12:30:09Z</time>
      </trkpt>
      <trkpt lat="42.49892" lon="2.56174">
        <ele>1258.8</ele>
        <time>2024-07-14T12:30:11Z</time>
      </trkpt>
      <trkpt lat="42.49889" lon="2.56175">
        <ele>1257</ele>
        <time>2024-07-14T12:30:15Z</time>
      </trkpt>
      <trkpt lat="42.4988" lon="2.56177">
        <ele>1254</ele>
        <time>2024-07-14T12:30:24Z</time>
      </trkpt>
      <trkpt lat="42.4987" lon="2.56177">
        <ele>1251.8</ele>
        <time>2024-07-14T12:30:33Z</time>
      </trkpt>
      <trkpt lat="42.49859" lon="2.56173">
        <ele>1249.8</ele>
        <time>2024-07-14T12:30:44Z</time>
      </trkpt>
      <trkpt lat="42.49852" lon="2.56166">
        <ele>1247.8</ele>
        <time>2024-07-14T12:30:53Z</time>
      </trkpt>
      <trkpt lat="42.49847" lon="2.56161">
        <ele>1246.6</ele>
        <time>2024-07-14T12:31:00Z</time>
      </trkpt>
      <trkpt lat="42.49846" lon="2.5616">
        <ele>1246.4</ele>
        <time>2024-07-14T12:31:01Z</time>
      </trkpt>
      <trkpt lat="42.49843" lon="2.56159">
        <ele>1244.2</ele>
        <time>2024-07-14T12:31:07Z</time>
      </trkpt>
      <trkpt lat="42.49838" lon="2.56159">
        <ele>1240.6</ele>
        <time>2024-07-14T12:31:16Z</time>
      </trkpt>
      <trkpt lat="42.49836" lon="2.56161">
        <ele>1240</ele>
        <time>2024-07-14T12:31:18Z</time>
      </trkpt>
      <trkpt lat="42.49833" lon="2.56166">
        <ele>1239</ele>
        <time>2024-07-14T12:31:23Z</time>
      </trkpt>
      <trkpt lat="42.49831" lon="2.56176">
        <ele>1236.6</ele>
        <time>2024-07-14T12:31:32Z</time>
      </trkpt>
      <trkpt lat="42.49831" lon="2.56177">
        <ele>1236.4</ele>
        <time>2024-07-14T12:31:33Z</time>
      </trkpt>
      <trkpt lat="42.49831" lon="2.56183">
        <ele>1235.8</ele>
        <time>2024-07-14T12:31:36Z</time>
      </trkpt>
      <trkpt lat="42.49831" lon="2.56186">
        <ele>1235.8</ele>
        <time>2024-07-14T12:31:39Z</time>
      </trkpt>
      <trkpt lat="42.49832" lon="2.56195">
        <ele>1235.4</ele>
        <time>2024-07-14T12:31:46Z</time>
      </trkpt>
      <trkpt lat="42.49832" lon="2.56196">
        <ele>1235.4</ele>
        <time>2024-07-14T12:31:47Z</time>
      </trkpt>
      <trkpt lat="42.49832" lon="2.56197">
        <ele>1235.2</ele>
        <time>2024-07-14T12:31:48Z</time>
      </trkpt>
      <trkpt lat="42.49832" lon="2.56205">
        <ele>1231</ele>
        <time>2024-07-14T12:31:54Z</time>
      </trkpt>
      <trkpt lat="42.49831" lon="2.56214">
        <ele>1228</ele>
        <time>2024-07-14T12:32:02Z</time>
      </trkpt>
      <trkpt lat="42.49828" lon="2.56214">
        <ele>1227.4</ele>
        <time>2024-07-14T12:32:04Z</time>
      </trkpt>
      <trkpt lat="42.49825" lon="2.56213">
        <ele>1226</ele>
        <time>2024-07-14T12:32:08Z</time>
      </trkpt>
      <trkpt lat="42.4982" lon="2.56213">
        <ele>1224.4</ele>
        <time>2024-07-14T12:32:14Z</time>
      </trkpt>
      <trkpt lat="42.49819" lon="2.56213">
        <ele>1224.2</ele>
        <time>2024-07-14T12:32:15Z</time>
      </trkpt>
      <trkpt lat="42.49816" lon="2.56218">
        <ele>1223.4</ele>
        <time>2024-07-14T12:32:20Z</time>
      </trkpt>
      <trkpt lat="42.49812" lon="2.56224">
        <ele>1221.4</ele>
        <time>2024-07-14T12:32:29Z</time>
      </trkpt>
      <trkpt lat="42.49806" lon="2.56231">
        <ele>1218.6</ele>
        <time>2024-07-14T12:32:38Z</time>
      </trkpt>
      <trkpt lat="42.49799" lon="2.56228">
        <ele>1217.6</ele>
        <time>2024-07-14T12:32:46Z</time>
      </trkpt>
      <trkpt lat="42.49794" lon="2.56225">
        <ele>1215.8</ele>
        <time>2024-07-14T12:32:54Z</time>
      </trkpt>
      <trkpt lat="42.49788" lon="2.56223">
        <ele>1213.2</ele>
        <time>2024-07-14T12:33:03Z</time>
      </trkpt>
      <trkpt lat="42.49782" lon="2.5622">
        <ele>1210.8</ele>
        <time>2024-07-14T12:33:13Z</time>
      </trkpt>
      <trkpt lat="42.49779" lon="2.56219">
        <ele>1209.2</ele>
        <time>2024-07-14T12:33:20Z</time>
      </trkpt>
      <trkpt lat="42.49775" lon="2.56223">
        <ele>1208.2</ele>
        <time>2024-07-14T12:33:28Z</time>
      </trkpt>
      <trkpt lat="42.49772" lon="2.56226">
        <ele>1207.6</ele>
        <time>2024-07-14T12:33:35Z</time>
      </trkpt>
      <trkpt lat="42.49768" lon="2.56227">
        <ele>1205.2</ele>
        <time>2024-07-14T12:33:42Z</time>
      </trkpt>
      <trkpt lat="42.49766" lon="2.56227">
        <ele>1203</ele>
        <time>2024-07-14T12:33:48Z</time>
      </trkpt>
      <trkpt lat="42.49761" lon="2.5623">
        <ele>1200.2</ele>
        <time>2024-07-14T12:33:56Z</time>
      </trkpt>
      <trkpt lat="42.49757" lon="2.56229">
        <ele>1197.4</ele>
        <time>2024-07-14T12:34:03Z</time>
      </trkpt>
      <trkpt lat="42.49756" lon="2.56228">
        <ele>1195.2</ele>
        <time>2024-07-14T12:34:12Z</time>
      </trkpt>
      <trkpt lat="42.49756" lon="2.56228">
        <ele>1194.6</ele>
        <time>2024-07-14T12:34:29Z</time>
      </trkpt>
      <trkpt lat="42.49747" lon="2.56225">
        <ele>1199</ele>
        <time>2024-07-14T12:50:48Z</time>
      </trkpt>
      <trkpt lat="42.49739" lon="2.5623">
        <ele>1198.8</ele>
        <time>2024-07-14T12:50:54Z</time>
      </trkpt>
      <trkpt lat="42.49738" lon="2.56232">
        <ele>1198</ele>
        <time>2024-07-14T12:50:56Z</time>
      </trkpt>
      <trkpt lat="42.49736" lon="2.56237">
        <ele>1194.8</ele>
        <time>2024-07-14T12:50:59Z</time>
      </trkpt>
      <trkpt lat="42.49735" lon="2.56238">
        <ele>1193.8</ele>
        <time>2024-07-14T12:51:00Z</time>
      </trkpt>
      <trkpt lat="42.49733" lon="2.56237">
        <ele>1192.4</ele>
        <time>2024-07-14T12:51:02Z</time>
      </trkpt>
      <trkpt lat="42.4973" lon="2.56233">
        <ele>1189.6</ele>
        <time>2024-07-14T12:51:06Z</time>
      </trkpt>
      <trkpt lat="42.49725" lon="2.56231">
        <ele>1188.2</ele>
        <time>2024-07-14T12:51:10Z</time>
      </trkpt>
      <trkpt lat="42.49723" lon="2.56233">
        <ele>1187.6</ele>
        <time>2024-07-14T12:51:13Z</time>
      </trkpt>
      <trkpt lat="42.49723" lon="2.56234">
        <ele>1187.4</ele>
        <time>2024-07-14T12:51:14Z</time>
      </trkpt>
      <trkpt lat="42.49719" lon="2.56243">
        <ele>1186.2</ele>
        <time>2024-07-14T12:51:22Z</time>
      </trkpt>
      <trkpt lat="42.49718" lon="2.56244">
        <ele>1186.2</ele>
        <time>2024-07-14T12:51:23Z</time>
      </trkpt>
      <trkpt lat="42.49716" lon="2.56245">
        <ele>1185.8</ele>
        <time>2024-07-14T12:51:26Z</time>
      </trkpt>
      <trkpt lat="42.49714" lon="2.56246">
        <ele>1184.6</ele>
        <time>2024-07-14T12:51:29Z</time>
      </trkpt>
      <trkpt lat="42.4971" lon="2.5625">
        <ele>1181</ele>
        <time>2024-07-14T12:51:36Z</time>
      </trkpt>
      <trkpt lat="42.49705" lon="2.56253">
        <ele>1177.8</ele>
        <time>2024-07-14T12:51:42Z</time>
      </trkpt>
      <trkpt lat="42.49703" lon="2.56253">
        <ele>1176.6</ele>
        <time>2024-07-14T12:51:44Z</time>
      </trkpt>
      <trkpt lat="42.49696" lon="2.56255">
        <ele>1173.2</ele>
        <time>2024-07-14T12:51:52Z</time>
      </trkpt>
      <trkpt lat="42.4969" lon="2.56254">
        <ele>1172.4</ele>
        <time>2024-07-14T12:51:58Z</time>
      </trkpt>
      <trkpt lat="42.49687" lon="2.56254">
        <ele>1171.6</ele>
        <time>2024-07-14T12:52:03Z</time>
      </trkpt>
      <trkpt lat="42.49685" lon="2.56258">
        <ele>1170.6</ele>
        <time>2024-07-14T12:52:09Z</time>
      </trkpt>
      <trkpt lat="42.49679" lon="2.56261">
        <ele>1168.6</ele>
        <time>2024-07-14T12:52:16Z</time>
      </trkpt>
      <trkpt lat="42.49671" lon="2.56268">
        <ele>1163.6</ele>
        <time>2024-07-14T12:52:27Z</time>
      </trkpt>
      <trkpt lat="42.49664" lon="2.56273">
        <ele>1160.4</ele>
        <time>2024-07-14T12:52:35Z</time>
      </trkpt>
      <trkpt lat="42.49659" lon="2.56278">
        <ele>1158</ele>
        <time>2024-07-14T12:52:40Z</time>
      </trkpt>
      <trkpt lat="42.49659" lon="2.56279">
        <ele>1157.6</ele>
        <time>2024-07-14T12:52:41Z</time>
      </trkpt>
      <trkpt lat="42.49652" lon="2.56286">
        <ele>1156.4</ele>
        <time>2024-07-14T12:52:48Z</time>
      </trkpt>
      <trkpt lat="42.49649" lon="2.56288">
        <ele>1155.6</ele>
        <time>2024-07-14T12:52:54Z</time>
      </trkpt>
      <trkpt lat="42.49642" lon="2.56289">
        <ele>1154.4</ele>
        <time>2024-07-14T12:53:01Z</time>
      </trkpt>
      <trkpt lat="42.49637" lon="2.56292">
        <ele>1152.4</ele>
        <time>2024-07-14T12:53:07Z</time>
      </trkpt>
      <trkpt lat="42.49636" lon="2.56301">
        <ele>1149.4</ele>
        <time>2024-07-14T12:53:14Z</time>
      </trkpt>
      <trkpt lat="42.4963" lon="2.56308">
        <ele>1148</ele>
        <time>2024-07-14T12:53:22Z</time>
      </trkpt>
      <trkpt lat="42.49626" lon="2.56318">
        <ele>1146.4</ele>
        <time>2024-07-14T12:53:30Z</time>
      </trkpt>
      <trkpt lat="42.4962" lon="2.56326">
        <ele>1144.2</ele>
        <time>2024-07-14T12:53:39Z</time>
      </trkpt>
      <trkpt lat="42.49615" lon="2.56332">
        <ele>1143</ele>
        <time>2024-07-14T12:53:46Z</time>
      </trkpt>
      <trkpt lat="42.49612" lon="2.56331">
        <ele>1141.6</ele>
        <time>2024-07-14T12:53:51Z</time>
      </trkpt>
      <trkpt lat="42.4961" lon="2.56329">
        <ele>1140.2</ele>
        <time>2024-07-14T12:53:56Z</time>
      </trkpt>
      <trkpt lat="42.49605" lon="2.56334">
        <ele>1139.4</ele>
        <time>2024-07-14T12:54:01Z</time>
      </trkpt>
      <trkpt lat="42.49604" lon="2.56335">
        <ele>1139.2</ele>
        <time>2024-07-14T12:54:02Z</time>
      </trkpt>
      <trkpt lat="42.49602" lon="2.56335">
        <ele>1139</ele>
        <time>2024-07-14T12:54:03Z</time>
      </trkpt>
      <trkpt lat="42.496" lon="2.56334">
        <ele>1138.6</ele>
        <time>2024-07-14T12:54:05Z</time>
      </trkpt>
      <trkpt lat="42.49598" lon="2.56332">
        <ele>1138.2</ele>
        <time>2024-07-14T12:54:08Z</time>
      </trkpt>
      <trkpt lat="42.49594" lon="2.56332">
        <ele>1137.2</ele>
        <time>2024-07-14T12:54:13Z</time>
      </trkpt>
      <trkpt lat="42.49589" lon="2.56334">
        <ele>1137</ele>
        <time>2024-07-14T12:54:17Z</time>
      </trkpt>
      <trkpt lat="42.49588" lon="2.56336">
        <ele>1137</ele>
        <time>2024-07-14T12:54:19Z</time>
      </trkpt>
      <trkpt lat="42.49585" lon="2.5634">
        <ele>1138</ele>
        <time>2024-07-14T12:54:24Z</time>
      </trkpt>
      <trkpt lat="42.49576" lon="2.5634">
        <ele>1140.2</ele>
        <time>2024-07-14T12:54:31Z</time>
      </trkpt>
      <trkpt lat="42.49571" lon="2.56341">
        <ele>1138.8</ele>
        <time>2024-07-14T12:54:37Z</time>
      </trkpt>
      <trkpt lat="42.49569" lon="2.56343">
        <ele>1138.2</ele>
        <time>2024-07-14T12:54:39Z</time>
      </trkpt>
      <trkpt lat="42.49564" lon="2.56345">
        <ele>1136.4</ele>
        <time>2024-07-14T12:54:44Z</time>
      </trkpt>
      <trkpt lat="42.49556" lon="2.56349">
        <ele>1133.4</ele>
        <time>2024-07-14T12:54:51Z</time>
      </trkpt>
      <trkpt lat="42.49553" lon="2.56351">
        <ele>1133</ele>
        <time>2024-07-14T12:54:54Z</time>
      </trkpt>
      <trkpt lat="42.49551" lon="2.56354">
        <ele>1132.8</ele>
        <time>2024-07-14T12:54:57Z</time>
      </trkpt>
      <trkpt lat="42.49548" lon="2.56358">
        <ele>1133.2</ele>
        <time>2024-07-14T12:55:00Z</time>
      </trkpt>
      <trkpt lat="42.49543" lon="2.56363">
        <ele>1133.6</ele>
        <time>2024-07-14T12:55:06Z</time>
      </trkpt>
      <trkpt lat="42.49538" lon="2.5637">
        <ele>1132.6</ele>
        <time>2024-07-14T12:55:12Z</time>
      </trkpt>
      <trkpt lat="42.49534" lon="2.56382">
        <ele>1129</ele>
        <time>2024-07-14T12:55:19Z</time>
      </trkpt>
      <trkpt lat="42.49533" lon="2.56391">
        <ele>1126.6</ele>
        <time>2024-07-14T12:55:26Z</time>
      </trkpt>
      <trkpt lat="42.49529" lon="2.56394">
        <ele>1126.4</ele>
        <time>2024-07-14T12:55:30Z</time>
      </trkpt>
      <trkpt lat="42.49527" lon="2.56394">
        <ele>1126.4</ele>
        <time>2024-07-14T12:55:32Z</time>
      </trkpt>
      <trkpt lat="42.49524" lon="2.56395">
        <ele>1124.8</ele>
        <time>2024-07-14T12:55:38Z</time>
      </trkpt>
      <trkpt lat="42.49522" lon="2.56401">
        <ele>1122.4</ele>
        <time>2024-07-14T12:55:44Z</time>
      </trkpt>
      <trkpt lat="42.4952" lon="2.564">
        <ele>1120.2</ele>
        <time>2024-07-14T12:55:49Z</time>
      </trkpt>
      <trkpt lat="42.49518" lon="2.56398">
        <ele>1119.4</ele>
        <time>2024-07-14T12:55:51Z</time>
      </trkpt>
      <trkpt lat="42.49515" lon="2.56397">
        <ele>1116.8</ele>
        <time>2024-07-14T12:55:57Z</time>
      </trkpt>
      <trkpt lat="42.49511" lon="2.56393">
        <ele>1114</ele>
        <time>2024-07-14T12:56:05Z</time>
      </trkpt>
      <trkpt lat="42.49506" lon="2.56387">
        <ele>1110.6</ele>
        <time>2024-07-14T12:56:14Z</time>
      </trkpt>
      <trkpt lat="42.49501" lon="2.56386">
        <ele>1108.2</ele>
        <time>2024-07-14T12:56:22Z</time>
      </trkpt>
      <trkpt lat="42.49499" lon="2.56389">
        <ele>1105.6</ele>
        <time>2024-07-14T12:56:28Z</time>
      </trkpt>
      <trkpt lat="42.49496" lon="2.56389">
        <ele>1103.6</ele>
        <time>2024-07-14T12:56:35Z</time>
      </trkpt>
      <trkpt lat="42.49495" lon="2.56391">
        <ele>1103</ele>
        <time>2024-07-14T12:56:43Z</time>
      </trkpt>
      <trkpt lat="42.49493" lon="2.56395">
        <ele>1101.8</ele>
        <time>2024-07-14T12:56:49Z</time>
      </trkpt>
      <trkpt lat="42.49488" lon="2.56398">
        <ele>1099</ele>
        <time>2024-07-14T12:56:56Z</time>
      </trkpt>
      <trkpt lat="42.49485" lon="2.56402">
        <ele>1096.6</ele>
        <time>2024-07-14T12:57:04Z</time>
      </trkpt>
      <trkpt lat="42.49483" lon="2.56409">
        <ele>1095.4</ele>
        <time>2024-07-14T12:57:10Z</time>
      </trkpt>
      <trkpt lat="42.49481" lon="2.56411">
        <ele>1093.8</ele>
        <time>2024-07-14T12:57:16Z</time>
      </trkpt>
      <trkpt lat="42.49479" lon="2.56416">
        <ele>1092</ele>
        <time>2024-07-14T12:57:22Z</time>
      </trkpt>
      <trkpt lat="42.49477" lon="2.56427">
        <ele>1089</ele>
        <time>2024-07-14T12:57:31Z</time>
      </trkpt>
      <trkpt lat="42.49475" lon="2.5643">
        <ele>1087</ele>
        <time>2024-07-14T12:57:38Z</time>
      </trkpt>
      <trkpt lat="42.49471" lon="2.56435">
        <ele>1085</ele>
        <time>2024-07-14T12:57:45Z</time>
      </trkpt>
      <trkpt lat="42.4947" lon="2.56438">
        <ele>1084.2</ele>
        <time>2024-07-14T12:57:47Z</time>
      </trkpt>
      <trkpt lat="42.49467" lon="2.56446">
        <ele>1082.2</ele>
        <time>2024-07-14T12:57:54Z</time>
      </trkpt>
      <trkpt lat="42.49466" lon="2.56454">
        <ele>1079.4</ele>
        <time>2024-07-14T12:58:01Z</time>
      </trkpt>
      <trkpt lat="42.49461" lon="2.56469">
        <ele>1074.8</ele>
        <time>2024-07-14T12:58:12Z</time>
      </trkpt>
      <trkpt lat="42.4946" lon="2.5647">
        <ele>1074</ele>
        <time>2024-07-14T12:58:17Z</time>
      </trkpt>
      <trkpt lat="42.4946" lon="2.56471">
        <ele>1073.8</ele>
        <time>2024-07-14T12:58:23Z</time>
      </trkpt>
      <trkpt lat="42.4946" lon="2.56471">
        <ele>1074.4</ele>
        <time>2024-07-14T12:58:37Z</time>
      </trkpt>
      <trkpt lat="42.49459" lon="2.56479">
        <ele>1074.6</ele>
        <time>2024-07-14T12:59:11Z</time>
      </trkpt>
      <trkpt lat="42.49454" lon="2.56487">
        <ele>1074</ele>
        <time>2024-07-14T12:59:19Z</time>
      </trkpt>
      <trkpt lat="42.49446" lon="2.56491">
        <ele>1072.2</ele>
        <time>2024-07-14T12:59:28Z</time>
      </trkpt>
      <trkpt lat="42.49438" lon="2.565">
        <ele>1069.8</ele>
        <time>2024-07-14T12:59:37Z</time>
      </trkpt>
      <trkpt lat="42.49438" lon="2.56501">
        <ele>1069.6</ele>
        <time>2024-07-14T12:59:38Z</time>
      </trkpt>
      <trkpt lat="42.49437" lon="2.56501">
        <ele>1069.2</ele>
        <time>2024-07-14T12:59:42Z</time>
      </trkpt>
      <trkpt lat="42.49434" lon="2.56505">
        <ele>1069</ele>
        <time>2024-07-14T12:59:48Z</time>
      </trkpt>
      <trkpt lat="42.49426" lon="2.5651">
        <ele>1069</ele>
        <time>2024-07-14T12:59:56Z</time>
      </trkpt>
      <trkpt lat="42.49419" lon="2.56515">
        <ele>1069</ele>
        <time>2024-07-14T13:00:03Z</time>
      </trkpt>
      <trkpt lat="42.49416" lon="2.56518">
        <ele>1070.6</ele>
        <time>2024-07-14T13:00:09Z</time>
      </trkpt>
      <trkpt lat="42.49408" lon="2.56522">
        <ele>1072.2</ele>
        <time>2024-07-14T13:00:16Z</time>
      </trkpt>
      <trkpt lat="42.49406" lon="2.56523">
        <ele>1072.2</ele>
        <time>2024-07-14T13:00:18Z</time>
      </trkpt>
      <trkpt lat="42.49399" lon="2.56524">
        <ele>1071.8</ele>
        <time>2024-07-14T13:00:24Z</time>
      </trkpt>
      <trkpt lat="42.49391" lon="2.56532">
        <ele>1069.6</ele>
        <time>2024-07-14T13:00:32Z</time>
      </trkpt>
      <trkpt lat="42.49385" lon="2.5654">
        <ele>1068.6</ele>
        <time>2024-07-14T13:00:39Z</time>
      </trkpt>
      <trkpt lat="42.49382" lon="2.56542">
        <ele>1068.8</ele>
        <time>2024-07-14T13:00:41Z</time>
      </trkpt>
      <trkpt lat="42.49377" lon="2.5655">
        <ele>1068.4</ele>
        <time>2024-07-14T13:00:48Z</time>
      </trkpt>
      <trkpt lat="42.49376" lon="2.56551">
        <ele>1068.2</ele>
        <time>2024-07-14T13:00:49Z</time>
      </trkpt>
      <trkpt lat="42.49375" lon="2.56551">
        <ele>1068</ele>
        <time>2024-07-14T13:00:50Z</time>
      </trkpt>
      <trkpt lat="42.4937" lon="2.56557">
        <ele>1066.6</ele>
        <time>2024-07-14T13:00:55Z</time>
      </trkpt>
      <trkpt lat="42.49357" lon="2.56565">
        <ele>1065.8</ele>
        <time>2024-07-14T13:01:05Z</time>
      </trkpt>
      <trkpt lat="42.49356" lon="2.56565">
        <ele>1065.8</ele>
        <time>2024-07-14T13:01:06Z</time>
      </trkpt>
      <trkpt lat="42.4935" lon="2.56573">
        <ele>1064.6</ele>
        <time>2024-07-14T13:01:13Z</time>
      </trkpt>
      <trkpt lat="42.49343" lon="2.56584">
        <ele>1061.4</ele>
        <time>2024-07-14T13:01:22Z</time>
      </trkpt>
      <trkpt lat="42.49338" lon="2.56594">
        <ele>1060.6</ele>
        <time>2024-07-14T13:01:31Z</time>
      </trkpt>
      <trkpt lat="42.49337" lon="2.56596">
        <ele>1060.2</ele>
        <time>2024-07-14T13:01:33Z</time>
      </trkpt>
      <trkpt lat="42.49337" lon="2.566">
        <ele>1059.8</ele>
        <time>2024-07-14T13:01:36Z</time>
      </trkpt>
      <trkpt lat="42.49335" lon="2.5661">
        <ele>1059.8</ele>
        <time>2024-07-14T13:01:42Z</time>
      </trkpt>
      <trkpt lat="42.49335" lon="2.56612">
        <ele>1060</ele>
        <time>2024-07-14T13:01:44Z</time>
      </trkpt>
      <trkpt lat="42.49335" lon="2.56615">
        <ele>1061.4</ele>
        <time>2024-07-14T13:01:49Z</time>
      </trkpt>
      <trkpt lat="42.49335" lon="2.56617">
        <ele>1061.4</ele>
        <time>2024-07-14T13:01:50Z</time>
      </trkpt>
      <trkpt lat="42.49336" lon="2.56628">
        <ele>1060.6</ele>
        <time>2024-07-14T13:01:57Z</time>
      </trkpt>
      <trkpt lat="42.49336" lon="2.56634">
        <ele>1059</ele>
        <time>2024-07-14T13:02:01Z</time>
      </trkpt>
      <trkpt lat="42.49335" lon="2.56641">
        <ele>1056.8</ele>
        <time>2024-07-14T13:02:05Z</time>
      </trkpt>
      <trkpt lat="42.49335" lon="2.56647">
        <ele>1054</ele>
        <time>2024-07-14T13:02:12Z</time>
      </trkpt>
      <trkpt lat="42.49335" lon="2.56646">
        <ele>1053.6</ele>
        <time>2024-07-14T13:02:19Z</time>
      </trkpt>
      <trkpt lat="42.49335" lon="2.56646">
        <ele>1053</ele>
        <time>2024-07-14T13:02:46Z</time>
      </trkpt>
      <trkpt lat="42.49336" lon="2.56653">
        <ele>1052.8</ele>
        <time>2024-07-14T13:03:19Z</time>
      </trkpt>
      <trkpt lat="42.49335" lon="2.56665">
        <ele>1052.6</ele>
        <time>2024-07-14T13:03:26Z</time>
      </trkpt>
      <trkpt lat="42.49327" lon="2.56672">
        <ele>1051.4</ele>
        <time>2024-07-14T13:03:34Z</time>
      </trkpt>
      <trkpt lat="42.49313" lon="2.56678">
        <ele>1050.4</ele>
        <time>2024-07-14T13:03:44Z</time>
      </trkpt>
      <trkpt lat="42.49308" lon="2.56673">
        <ele>1049</ele>
        <time>2024-07-14T13:03:50Z</time>
      </trkpt>
      <trkpt lat="42.49306" lon="2.56672">
        <ele>1048.6</ele>
        <time>2024-07-14T13:03:52Z</time>
      </trkpt>
      <trkpt lat="42.493" lon="2.56671">
        <ele>1047.8</ele>
        <time>2024-07-14T13:03:57Z</time>
      </trkpt>
      <trkpt lat="42.49289" lon="2.56673">
        <ele>1045.8</ele>
        <time>2024-07-14T13:04:06Z</time>
      </trkpt>
      <trkpt lat="42.49278" lon="2.56672">
        <ele>1044.2</ele>
        <time>2024-07-14T13:04:15Z</time>
      </trkpt>
      <trkpt lat="42.49266" lon="2.56671">
        <ele>1042</ele>
        <time>2024-07-14T13:04:25Z</time>
      </trkpt>
      <trkpt lat="42.49264" lon="2.56671">
        <ele>1041.6</ele>
        <time>2024-07-14T13:04:27Z</time>
      </trkpt>
      <trkpt lat="42.49259" lon="2.56672">
        <ele>1041.4</ele>
        <time>2024-07-14T13:04:31Z</time>
      </trkpt>
      <trkpt lat="42.49257" lon="2.56674">
        <ele>1041.2</ele>
        <time>2024-07-14T13:04:33Z</time>
      </trkpt>
      <trkpt lat="42.49257" lon="2.56675">
        <ele>1040.8</ele>
        <time>2024-07-14T13:04:36Z</time>
      </trkpt>
      <trkpt lat="42.49253" lon="2.56677">
        <ele>1040.2</ele>
        <time>2024-07-14T13:04:39Z</time>
      </trkpt>
      <trkpt lat="42.49249" lon="2.56678">
        <ele>1039.8</ele>
        <time>2024-07-14T13:04:42Z</time>
      </trkpt>
      <trkpt lat="42.49239" lon="2.56684">
        <ele>1039.8</ele>
        <time>2024-07-14T13:04:51Z</time>
      </trkpt>
      <trkpt lat="42.49226" lon="2.5669">
        <ele>1036.8</ele>
        <time>2024-07-14T13:05:02Z</time>
      </trkpt>
      <trkpt lat="42.49219" lon="2.56693">
        <ele>1035.8</ele>
        <time>2024-07-14T13:05:08Z</time>
      </trkpt>
      <trkpt lat="42.49217" lon="2.56692">
        <ele>1035.8</ele>
        <time>2024-07-14T13:05:10Z</time>
      </trkpt>
      <trkpt lat="42.49209" lon="2.56688">
        <ele>1035</ele>
        <time>2024-07-14T13:05:16Z</time>
      </trkpt>
      <trkpt lat="42.49198" lon="2.56684">
        <ele>1032.8</ele>
        <time>2024-07-14T13:05:26Z</time>
      </trkpt>
      <trkpt lat="42.49188" lon="2.56681">
        <ele>1032.4</ele>
        <time>2024-07-14T13:05:34Z</time>
      </trkpt>
      <trkpt lat="42.49179" lon="2.56683">
        <ele>1033.6</ele>
        <time>2024-07-14T13:05:42Z</time>
      </trkpt>
      <trkpt lat="42.49177" lon="2.56684">
        <ele>1033.6</ele>
        <time>2024-07-14T13:05:45Z</time>
      </trkpt>
      <trkpt lat="42.49171" lon="2.56688">
        <ele>1033</ele>
        <time>2024-07-14T13:05:50Z</time>
      </trkpt>
      <trkpt lat="42.49166" lon="2.56693">
        <ele>1031.8</ele>
        <time>2024-07-14T13:05:56Z</time>
      </trkpt>
      <trkpt lat="42.49165" lon="2.56693">
        <ele>1031.6</ele>
        <time>2024-07-14T13:05:57Z</time>
      </trkpt>
      <trkpt lat="42.49156" lon="2.56703">
        <ele>1030.2</ele>
        <time>2024-07-14T13:06:07Z</time>
      </trkpt>
      <trkpt lat="42.49153" lon="2.56707">
        <ele>1029.6</ele>
        <time>2024-07-14T13:06:10Z</time>
      </trkpt>
      <trkpt lat="42.49151" lon="2.56711">
        <ele>1028.4</ele>
        <time>2024-07-14T13:06:13Z</time>
      </trkpt>
      <trkpt lat="42.49148" lon="2.56715">
        <ele>1027</ele>
        <time>2024-07-14T13:06:21Z</time>
      </trkpt>
      <trkpt lat="42.49142" lon="2.56719">
        <ele>1024.2</ele>
        <time>2024-07-14T13:07:35Z</time>
      </trkpt>
      <trkpt lat="42.4913" lon="2.56724">
        <ele>1023.6</ele>
        <time>2024-07-14T13:07:43Z</time>
      </trkpt>
      <trkpt lat="42.49121" lon="2.56728">
        <ele>1025.4</ele>
        <time>2024-07-14T13:07:51Z</time>
      </trkpt>
      <trkpt lat="42.49118" lon="2.56728">
        <ele>1026.2</ele>
        <time>2024-07-14T13:07:53Z</time>
      </trkpt>
      <trkpt lat="42.49113" lon="2.56727">
        <ele>1027</ele>
        <time>2024-07-14T13:07:57Z</time>
      </trkpt>
      <trkpt lat="42.49103" lon="2.56725">
        <ele>1027.6</ele>
        <time>2024-07-14T13:08:05Z</time>
      </trkpt>
      <trkpt lat="42.49096" lon="2.56724">
        <ele>1029</ele>
        <time>2024-07-14T13:08:10Z</time>
      </trkpt>
      <trkpt lat="42.49094" lon="2.5672">
        <ele>1029.2</ele>
        <time>2024-07-14T13:08:12Z</time>
      </trkpt>
      <trkpt lat="42.49085" lon="2.56712">
        <ele>1027.6</ele>
        <time>2024-07-14T13:08:20Z</time>
      </trkpt>
      <trkpt lat="42.49075" lon="2.56709">
        <ele>1025.8</ele>
        <time>2024-07-14T13:08:28Z</time>
      </trkpt>
      <trkpt lat="42.49065" lon="2.56716">
        <ele>1024.8</ele>
        <time>2024-07-14T13:08:37Z</time>
      </trkpt>
      <trkpt lat="42.4906" lon="2.56723">
        <ele>1024.8</ele>
        <time>2024-07-14T13:08:43Z</time>
      </trkpt>
      <trkpt lat="42.49058" lon="2.56725">
        <ele>1025</ele>
        <time>2024-07-14T13:08:45Z</time>
      </trkpt>
      <trkpt lat="42.49051" lon="2.56736">
        <ele>1025</ele>
        <time>2024-07-14T13:08:54Z</time>
      </trkpt>
      <trkpt lat="42.49046" lon="2.56747">
        <ele>1024.6</ele>
        <time>2024-07-14T13:09:03Z</time>
      </trkpt>
      <trkpt lat="42.49041" lon="2.56755">
        <ele>1023.8</ele>
        <time>2024-07-14T13:09:11Z</time>
      </trkpt>
      <trkpt lat="42.49035" lon="2.56768">
        <ele>1022.6</ele>
        <time>2024-07-14T13:09:20Z</time>
      </trkpt>
      <trkpt lat="42.49031" lon="2.56778">
        <ele>1021.4</ele>
        <time>2024-07-14T13:09:28Z</time>
      </trkpt>
      <trkpt lat="42.49026" lon="2.56789">
        <ele>1020.6</ele>
        <time>2024-07-14T13:09:36Z</time>
      </trkpt>
      <trkpt lat="42.49025" lon="2.56792">
        <ele>1020.6</ele>
        <time>2024-07-14T13:09:38Z</time>
      </trkpt>
      <trkpt lat="42.49025" lon="2.56795">
        <ele>1020.8</ele>
        <time>2024-07-14T13:09:40Z</time>
      </trkpt>
      <trkpt lat="42.49021" lon="2.56802">
        <ele>1020.4</ele>
        <time>2024-07-14T13:09:45Z</time>
      </trkpt>
      <trkpt lat="42.4902" lon="2.56804">
        <ele>1020.2</ele>
        <time>2024-07-14T13:09:47Z</time>
      </trkpt>
      <trkpt lat="42.49019" lon="2.56811">
        <ele>1019.6</ele>
        <time>2024-07-14T13:09:51Z</time>
      </trkpt>
      <trkpt lat="42.49019" lon="2.56817">
        <ele>1019.6</ele>
        <time>2024-07-14T13:09:55Z</time>
      </trkpt>
      <trkpt lat="42.49018" lon="2.5682">
        <ele>1019.8</ele>
        <time>2024-07-14T13:09:57Z</time>
      </trkpt>
      <trkpt lat="42.49018" lon="2.56821">
        <ele>1019.8</ele>
        <time>2024-07-14T13:09:58Z</time>
      </trkpt>
      <trkpt lat="42.49015" lon="2.5683">
        <ele>1017.2</ele>
        <time>2024-07-14T13:10:05Z</time>
      </trkpt>
      <trkpt lat="42.49014" lon="2.56834">
        <ele>1016</ele>
        <time>2024-07-14T13:10:07Z</time>
      </trkpt>
      <trkpt lat="42.49014" lon="2.5684">
        <ele>1013.6</ele>
        <time>2024-07-14T13:10:11Z</time>
      </trkpt>
      <trkpt lat="42.4901" lon="2.5685">
        <ele>1011.8</ele>
        <time>2024-07-14T13:10:17Z</time>
      </trkpt>
      <trkpt lat="42.49009" lon="2.56858">
        <ele>1011.6</ele>
        <time>2024-07-14T13:10:20Z</time>
      </trkpt>
      <trkpt lat="42.49007" lon="2.56862">
        <ele>1011.8</ele>
        <time>2024-07-14T13:10:23Z</time>
      </trkpt>
      <trkpt lat="42.49002" lon="2.56875">
        <ele>1011.8</ele>
        <time>2024-07-14T13:10:31Z</time>
      </trkpt>
      <trkpt lat="42.48995" lon="2.56887">
        <ele>1011.4</ele>
        <time>2024-07-14T13:10:40Z</time>
      </trkpt>
      <trkpt lat="42.48995" lon="2.56887">
        <ele>1011</ele>
        <time>2024-07-14T13:10:46Z</time>
      </trkpt>
      <trkpt lat="42.48992" lon="2.56893">
        <ele>1010.4</ele>
        <time>2024-07-14T13:11:00Z</time>
      </trkpt>
      <trkpt lat="42.4899" lon="2.56897">
        <ele>1010.4</ele>
        <time>2024-07-14T13:11:02Z</time>
      </trkpt>
      <trkpt lat="42.48986" lon="2.56905">
        <ele>1010</ele>
        <time>2024-07-14T13:11:07Z</time>
      </trkpt>
      <trkpt lat="42.48981" lon="2.56915">
        <ele>1008.6</ele>
        <time>2024-07-14T13:11:14Z</time>
      </trkpt>
      <trkpt lat="42.4898" lon="2.56916">
        <ele>1008.6</ele>
        <time>2024-07-14T13:11:17Z</time>
      </trkpt>
      <trkpt lat="42.48976" lon="2.56924">
        <ele>1007.8</ele>
        <time>2024-07-14T13:11:22Z</time>
      </trkpt>
      <trkpt lat="42.48969" lon="2.56939">
        <ele>1005.2</ele>
        <time>2024-07-14T13:11:33Z</time>
      </trkpt>
      <trkpt lat="42.48965" lon="2.56947">
        <ele>1003.6</ele>
        <time>2024-07-14T13:11:38Z</time>
      </trkpt>
      <trkpt lat="42.48962" lon="2.56952">
        <ele>1002.6</ele>
        <time>2024-07-14T13:11:42Z</time>
      </trkpt>
      <trkpt lat="42.48956" lon="2.56963">
        <ele>1001.2</ele>
        <time>2024-07-14T13:11:51Z</time>
      </trkpt>
      <trkpt lat="42.48947" lon="2.56976">
        <ele>999.6</ele>
        <time>2024-07-14T13:12:01Z</time>
      </trkpt>
      <trkpt lat="42.48945" lon="2.56977">
        <ele>999.2</ele>
        <time>2024-07-14T13:12:02Z</time>
      </trkpt>
      <trkpt lat="42.4894" lon="2.56982">
        <ele>998.4</ele>
        <time>2024-07-14T13:12:07Z</time>
      </trkpt>
      <trkpt lat="42.48932" lon="2.56989">
        <ele>996.8</ele>
        <time>2024-07-14T13:12:14Z</time>
      </trkpt>
      <trkpt lat="42.48924" lon="2.56994">
        <ele>995.8</ele>
        <time>2024-07-14T13:12:22Z</time>
      </trkpt>
      <trkpt lat="42.48914" lon="2.56999">
        <ele>993.6</ele>
        <time>2024-07-14T13:12:30Z</time>
      </trkpt>
      <trkpt lat="42.48907" lon="2.57004">
        <ele>992.4</ele>
        <time>2024-07-14T13:12:37Z</time>
      </trkpt>
      <trkpt lat="42.48896" lon="2.57012">
        <ele>992.4</ele>
        <time>2024-07-14T13:12:46Z</time>
      </trkpt>
      <trkpt lat="42.48886" lon="2.57019">
        <ele>995.4</ele>
        <time>2024-07-14T13:12:55Z</time>
      </trkpt>
      <trkpt lat="42.48877" lon="2.57024">
        <ele>993.2</ele>
        <time>2024-07-14T13:13:03Z</time>
      </trkpt>
      <trkpt lat="42.48869" lon="2.57031">
        <ele>990.4</ele>
        <time>2024-07-14T13:13:10Z</time>
      </trkpt>
      <trkpt lat="42.48865" lon="2.57046">
        <ele>989</ele>
        <time>2024-07-14T13:13:19Z</time>
      </trkpt>
      <trkpt lat="42.48869" lon="2.57059">
        <ele>988.8</ele>
        <time>2024-07-14T13:13:27Z</time>
      </trkpt>
      <trkpt lat="42.48869" lon="2.5706">
        <ele>988.8</ele>
        <time>2024-07-14T13:13:28Z</time>
      </trkpt>
      <trkpt lat="42.48876" lon="2.57061">
        <ele>988.4</ele>
        <time>2024-07-14T13:13:34Z</time>
      </trkpt>
      <trkpt lat="42.48885" lon="2.57059">
        <ele>988</ele>
        <time>2024-07-14T13:13:43Z</time>
      </trkpt>
      <trkpt lat="42.48893" lon="2.57056">
        <ele>986.6</ele>
        <time>2024-07-14T13:13:50Z</time>
      </trkpt>
      <trkpt lat="42.48901" lon="2.57052">
        <ele>985.4</ele>
        <time>2024-07-14T13:13:57Z</time>
      </trkpt>
      <trkpt lat="42.48902" lon="2.57051">
        <ele>985.2</ele>
        <time>2024-07-14T13:13:58Z</time>
      </trkpt>
      <trkpt lat="42.48911" lon="2.57049">
        <ele>985.6</ele>
        <time>2024-07-14T13:14:05Z</time>
      </trkpt>
      <trkpt lat="42.48919" lon="2.57045">
        <ele>986.8</ele>
        <time>2024-07-14T13:14:13Z</time>
      </trkpt>
      <trkpt lat="42.48924" lon="2.57042">
        <ele>988.2</ele>
        <time>2024-07-14T13:14:17Z</time>
      </trkpt>
      <trkpt lat="42.48927" lon="2.5704">
        <ele>989</ele>
        <time>2024-07-14T13:14:20Z</time>
      </trkpt>
      <trkpt lat="42.48929" lon="2.57039">
        <ele>989.4</ele>
        <time>2024-07-14T13:14:22Z</time>
      </trkpt>
      <trkpt lat="42.48931" lon="2.57039">
        <ele>989.4</ele>
        <time>2024-07-14T13:14:24Z</time>
      </trkpt>
      <trkpt lat="42.48934" lon="2.57038">
        <ele>989.6</ele>
        <time>2024-07-14T13:14:26Z</time>
      </trkpt>
      <trkpt lat="42.48942" lon="2.57034">
        <ele>990</ele>
        <time>2024-07-14T13:14:32Z</time>
      </trkpt>
      <trkpt lat="42.48952" lon="2.57027">
        <ele>988.2</ele>
        <time>2024-07-14T13:14:40Z</time>
      </trkpt>
      <trkpt lat="42.48957" lon="2.57025">
        <ele>987</ele>
        <time>2024-07-14T13:14:45Z</time>
      </trkpt>
      <trkpt lat="42.48958" lon="2.57024">
        <ele>986.8</ele>
        <time>2024-07-14T13:14:47Z</time>
      </trkpt>
      <trkpt lat="42.48966" lon="2.57021">
        <ele>985.6</ele>
        <time>2024-07-14T13:14:55Z</time>
      </trkpt>
      <trkpt lat="42.48974" lon="2.5702">
        <ele>983.8</ele>
        <time>2024-07-14T13:15:02Z</time>
      </trkpt>
      <trkpt lat="42.48976" lon="2.57019">
        <ele>984</ele>
        <time>2024-07-14T13:15:04Z</time>
      </trkpt>
      <trkpt lat="42.48987" lon="2.57016">
        <ele>986.2</ele>
        <time>2024-07-14T13:15:11Z</time>
      </trkpt>
      <trkpt lat="42.48988" lon="2.57015">
        <ele>986.2</ele>
        <time>2024-07-14T13:15:12Z</time>
      </trkpt>
      <trkpt lat="42.48998" lon="2.57013">
        <ele>988.4</ele>
        <time>2024-07-14T13:15:20Z</time>
      </trkpt>
      <trkpt lat="42.49009" lon="2.57006">
        <ele>990.8</ele>
        <time>2024-07-14T13:15:29Z</time>
      </trkpt>
      <trkpt lat="42.49019" lon="2.56994">
        <ele>992</ele>
        <time>2024-07-14T13:15:38Z</time>
      </trkpt>
      <trkpt lat="42.49026" lon="2.56988">
        <ele>991</ele>
        <time>2024-07-14T13:15:44Z</time>
      </trkpt>
      <trkpt lat="42.49029" lon="2.56987">
        <ele>990.2</ele>
        <time>2024-07-14T13:15:47Z</time>
      </trkpt>
      <trkpt lat="42.49039" lon="2.56978">
        <ele>988.4</ele>
        <time>2024-07-14T13:15:54Z</time>
      </trkpt>
      <trkpt lat="42.49041" lon="2.56978">
        <ele>988.2</ele>
        <time>2024-07-14T13:15:55Z</time>
      </trkpt>
      <trkpt lat="42.49043" lon="2.56976">
        <ele>988</ele>
        <time>2024-07-14T13:15:56Z</time>
      </trkpt>
      <trkpt lat="42.49044" lon="2.56973">
        <ele>987.8</ele>
        <time>2024-07-14T13:15:59Z</time>
      </trkpt>
      <trkpt lat="42.49044" lon="2.56972">
        <ele>987.8</ele>
        <time>2024-07-14T13:16:00Z</time>
      </trkpt>
      <trkpt lat="42.49048" lon="2.5697">
        <ele>987.2</ele>
        <time>2024-07-14T13:16:04Z</time>
      </trkpt>
      <trkpt lat="42.49049" lon="2.5697">
        <ele>986.4</ele>
        <time>2024-07-14T13:16:06Z</time>
      </trkpt>
      <trkpt lat="42.49053" lon="2.56966">
        <ele>984.8</ele>
        <time>2024-07-14T13:16:10Z</time>
      </trkpt>
      <trkpt lat="42.49057" lon="2.56964">
        <ele>984</ele>
        <time>2024-07-14T13:16:13Z</time>
      </trkpt>
      <trkpt lat="42.49066" lon="2.56955">
        <ele>983.2</ele>
        <time>2024-07-14T13:16:21Z</time>
      </trkpt>
      <trkpt lat="42.49072" lon="2.5695">
        <ele>982.8</ele>
        <time>2024-07-14T13:16:26Z</time>
      </trkpt>
      <trkpt lat="42.49074" lon="2.5695">
        <ele>982.6</ele>
        <time>2024-07-14T13:16:27Z</time>
      </trkpt>
      <trkpt lat="42.49078" lon="2.56944">
        <ele>980.8</ele>
        <time>2024-07-14T13:16:32Z</time>
      </trkpt>
      <trkpt lat="42.49081" lon="2.56943">
        <ele>980</ele>
        <time>2024-07-14T13:16:34Z</time>
      </trkpt>
      <trkpt lat="42.49082" lon="2.56942">
        <ele>979.6</ele>
        <time>2024-07-14T13:16:35Z</time>
      </trkpt>
      <trkpt lat="42.49092" lon="2.56932">
        <ele>978.8</ele>
        <time>2024-07-14T13:16:43Z</time>
      </trkpt>
      <trkpt lat="42.49098" lon="2.5693">
        <ele>978.8</ele>
        <time>2024-07-14T13:16:46Z</time>
      </trkpt>
      <trkpt lat="42.49099" lon="2.56931">
        <ele>978.8</ele>
        <time>2024-07-14T13:16:48Z</time>
      </trkpt>
      <trkpt lat="42.49101" lon="2.56932">
        <ele>979</ele>
        <time>2024-07-14T13:16:50Z</time>
      </trkpt>
      <trkpt lat="42.49109" lon="2.56932">
        <ele>980.2</ele>
        <time>2024-07-14T13:16:56Z</time>
      </trkpt>
      <trkpt lat="42.49119" lon="2.5693">
        <ele>983.6</ele>
        <time>2024-07-14T13:17:03Z</time>
      </trkpt>
      <trkpt lat="42.49125" lon="2.56929">
        <ele>984.2</ele>
        <time>2024-07-14T13:17:08Z</time>
      </trkpt>
      <trkpt lat="42.49126" lon="2.5693">
        <ele>983.8</ele>
        <time>2024-07-14T13:17:09Z</time>
      </trkpt>
      <trkpt lat="42.49133" lon="2.56933">
        <ele>982.2</ele>
        <time>2024-07-14T13:17:16Z</time>
      </trkpt>
      <trkpt lat="42.49139" lon="2.56936">
        <ele>981.8</ele>
        <time>2024-07-14T13:17:22Z</time>
      </trkpt>
      <trkpt lat="42.49149" lon="2.56939">
        <ele>980.6</ele>
        <time>2024-07-14T13:17:29Z</time>
      </trkpt>
      <trkpt lat="42.49155" lon="2.56943">
        <ele>979</ele>
        <time>2024-07-14T13:17:34Z</time>
      </trkpt>
      <trkpt lat="42.49157" lon="2.56946">
        <ele>978</ele>
        <time>2024-07-14T13:17:36Z</time>
      </trkpt>
      <trkpt lat="42.4917" lon="2.56952">
        <ele>973.2</ele>
        <time>2024-07-14T13:17:45Z</time>
      </trkpt>
      <trkpt lat="42.4918" lon="2.56958">
        <ele>968.6</ele>
        <time>2024-07-14T13:17:54Z</time>
      </trkpt>
      <trkpt lat="42.49189" lon="2.56962">
        <ele>966.2</ele>
        <time>2024-07-14T13:18:01Z</time>
      </trkpt>
      <trkpt lat="42.492" lon="2.56966">
        <ele>964.4</ele>
        <time>2024-07-14T13:18:10Z</time>
      </trkpt>
      <trkpt lat="42.492" lon="2.56966">
        <ele>963.4</ele>
        <time>2024-07-14T13:18:19Z</time>
      </trkpt>
      <trkpt lat="42.49198" lon="2.56967">
        <ele>963.6</ele>
        <time>2024-07-14T13:18:25Z</time>
      </trkpt>
      <trkpt lat="42.49198" lon="2.56966">
        <ele>962.6</ele>
        <time>2024-07-14T13:18:33Z</time>
      </trkpt>
      <trkpt lat="42.49192" lon="2.56973">
        <ele>961.8</ele>
        <time>2024-07-14T13:18:43Z</time>
      </trkpt>
      <trkpt lat="42.49191" lon="2.56984">
        <ele>957</ele>
        <time>2024-07-14T13:18:49Z</time>
      </trkpt>
      <trkpt lat="42.4919" lon="2.5699">
        <ele>952.8</ele>
        <time>2024-07-14T13:18:56Z</time>
      </trkpt>
      <trkpt lat="42.49188" lon="2.56997">
        <ele>950.4</ele>
        <time>2024-07-14T13:19:03Z</time>
      </trkpt>
      <trkpt lat="42.49184" lon="2.57006">
        <ele>949.8</ele>
        <time>2024-07-14T13:19:09Z</time>
      </trkpt>
      <trkpt lat="42.49183" lon="2.57008">
        <ele>949.8</ele>
        <time>2024-07-14T13:19:10Z</time>
      </trkpt>
      <trkpt lat="42.49179" lon="2.57011">
        <ele>949.8</ele>
        <time>2024-07-14T13:19:13Z</time>
      </trkpt>
      <trkpt lat="42.49171" lon="2.57021">
        <ele>947.6</ele>
        <time>2024-07-14T13:19:22Z</time>
      </trkpt>
      <trkpt lat="42.49165" lon="2.57025">
        <ele>943</ele>
        <time>2024-07-14T13:19:30Z</time>
      </trkpt>
      <trkpt lat="42.49162" lon="2.57028">
        <ele>942.6</ele>
        <time>2024-07-14T13:19:33Z</time>
      </trkpt>
      <trkpt lat="42.49162" lon="2.5703">
        <ele>942.6</ele>
        <time>2024-07-14T13:19:35Z</time>
      </trkpt>
      <trkpt lat="42.49163" lon="2.57034">
        <ele>941.6</ele>
        <time>2024-07-14T13:19:40Z</time>
      </trkpt>
      <trkpt lat="42.49163" lon="2.57035">
        <ele>941.2</ele>
        <time>2024-07-14T13:19:41Z</time>
      </trkpt>
      <trkpt lat="42.49164" lon="2.57039">
        <ele>937.8</ele>
        <time>2024-07-14T13:19:46Z</time>
      </trkpt>
      <trkpt lat="42.49159" lon="2.57042">
        <ele>935.2</ele>
        <time>2024-07-14T13:19:51Z</time>
      </trkpt>
      <trkpt lat="42.49156" lon="2.57044">
        <ele>934</ele>
        <time>2024-07-14T13:19:57Z</time>
      </trkpt>
      <trkpt lat="42.49158" lon="2.5705">
        <ele>934</ele>
        <time>2024-07-14T13:20:03Z</time>
      </trkpt>
      <trkpt lat="42.49159" lon="2.57056">
        <ele>931</ele>
        <time>2024-07-14T13:20:10Z</time>
      </trkpt>
      <trkpt lat="42.49161" lon="2.57059">
        <ele>928.4</ele>
        <time>2024-07-14T13:20:16Z</time>
      </trkpt>
      <trkpt lat="42.49163" lon="2.57066">
        <ele>927.6</ele>
        <time>2024-07-14T13:20:22Z</time>
      </trkpt>
      <trkpt lat="42.49162" lon="2.57077">
        <ele>926.6</ele>
        <time>2024-07-14T13:20:28Z</time>
      </trkpt>
      <trkpt lat="42.4916" lon="2.57092">
        <ele>925</ele>
        <time>2024-07-14T13:20:36Z</time>
      </trkpt>
      <trkpt lat="42.49156" lon="2.57101">
        <ele>921.6</ele>
        <time>2024-07-14T13:20:43Z</time>
      </trkpt>
      <trkpt lat="42.49149" lon="2.57122">
        <ele>919</ele>
        <time>2024-07-14T13:20:52Z</time>
      </trkpt>
      <trkpt lat="42.49148" lon="2.57124">
        <ele>919</ele>
        <time>2024-07-14T13:20:53Z</time>
      </trkpt>
      <trkpt lat="42.4914" lon="2.57136">
        <ele>919</ele>
        <time>2024-07-14T13:21:00Z</time>
      </trkpt>
      <trkpt lat="42.49134" lon="2.57139">
        <ele>918.4</ele>
        <time>2024-07-14T13:21:03Z</time>
      </trkpt>
      <trkpt lat="42.49132" lon="2.57141">
        <ele>918.2</ele>
        <time>2024-07-14T13:21:05Z</time>
      </trkpt>
      <trkpt lat="42.49128" lon="2.57146">
        <ele>918.6</ele>
        <time>2024-07-14T13:21:08Z</time>
      </trkpt>
      <trkpt lat="42.49127" lon="2.57147">
        <ele>919.2</ele>
        <time>2024-07-14T13:21:09Z</time>
      </trkpt>
      <trkpt lat="42.49121" lon="2.57154">
        <ele>920.8</ele>
        <time>2024-07-14T13:21:14Z</time>
      </trkpt>
      <trkpt lat="42.49118" lon="2.57157">
        <ele>921</ele>
        <time>2024-07-14T13:21:16Z</time>
      </trkpt>
      <trkpt lat="42.49117" lon="2.57161">
        <ele>921.2</ele>
        <time>2024-07-14T13:21:18Z</time>
      </trkpt>
      <trkpt lat="42.49115" lon="2.57162">
        <ele>921.2</ele>
        <time>2024-07-14T13:21:20Z</time>
      </trkpt>
      <trkpt lat="42.49114" lon="2.57164">
        <ele>921.6</ele>
        <time>2024-07-14T13:21:21Z</time>
      </trkpt>
      <trkpt lat="42.49109" lon="2.57168">
        <ele>923</ele>
        <time>2024-07-14T13:21:25Z</time>
      </trkpt>
      <trkpt lat="42.49108" lon="2.57171">
        <ele>923.4</ele>
        <time>2024-07-14T13:21:28Z</time>
      </trkpt>
      <trkpt lat="42.49109" lon="2.57173">
        <ele>923.2</ele>
        <time>2024-07-14T13:21:32Z</time>
      </trkpt>
      <trkpt lat="42.49108" lon="2.57178">
        <ele>922.8</ele>
        <time>2024-07-14T13:21:38Z</time>
      </trkpt>
      <trkpt lat="42.49108" lon="2.57179">
        <ele>922.8</ele>
        <time>2024-07-14T13:21:39Z</time>
      </trkpt>
      <trkpt lat="42.49112" lon="2.57183">
        <ele>922.4</ele>
        <time>2024-07-14T13:21:43Z</time>
      </trkpt>
      <trkpt lat="42.49113" lon="2.57191">
        <ele>921</ele>
        <time>2024-07-14T13:21:47Z</time>
      </trkpt>
      <trkpt lat="42.49112" lon="2.57194">
        <ele>920</ele>
        <time>2024-07-14T13:21:50Z</time>
      </trkpt>
      <trkpt lat="42.49107" lon="2.57202">
        <ele>918.6</ele>
        <time>2024-07-14T13:21:55Z</time>
      </trkpt>
      <trkpt lat="42.49105" lon="2.57208">
        <ele>917.8</ele>
        <time>2024-07-14T13:21:57Z</time>
      </trkpt>
      <trkpt lat="42.49101" lon="2.57222">
        <ele>914.4</ele>
        <time>2024-07-14T13:22:06Z</time>
      </trkpt>
      <trkpt lat="42.49098" lon="2.57234">
        <ele>913.8</ele>
        <time>2024-07-14T13:22:13Z</time>
      </trkpt>
      <trkpt lat="42.49097" lon="2.57236">
        <ele>913.6</ele>
        <time>2024-07-14T13:22:14Z</time>
      </trkpt>
      <trkpt lat="42.49098" lon="2.57252">
        <ele>913.6</ele>
        <time>2024-07-14T13:22:24Z</time>
      </trkpt>
      <trkpt lat="42.49098" lon="2.57254">
        <ele>913.6</ele>
        <time>2024-07-14T13:22:26Z</time>
      </trkpt>
      <trkpt lat="42.49098" lon="2.57257">
        <ele>913.4</ele>
        <time>2024-07-14T13:22:28Z</time>
      </trkpt>
      <trkpt lat="42.49097" lon="2.57264">
        <ele>913.2</ele>
        <time>2024-07-14T13:22:31Z</time>
      </trkpt>
      <trkpt lat="42.49097" lon="2.5728">
        <ele>909.6</ele>
        <time>2024-07-14T13:22:39Z</time>
      </trkpt>
      <trkpt lat="42.49096" lon="2.57287">
        <ele>908.4</ele>
        <time>2024-07-14T13:22:43Z</time>
      </trkpt>
      <trkpt lat="42.49095" lon="2.57291">
        <ele>908.2</ele>
        <time>2024-07-14T13:22:46Z</time>
      </trkpt>
      <trkpt lat="42.49089" lon="2.57306">
        <ele>907.8</ele>
        <time>2024-07-14T13:22:55Z</time>
      </trkpt>
      <trkpt lat="42.49078" lon="2.57324">
        <ele>904.4</ele>
        <time>2024-07-14T13:23:05Z</time>
      </trkpt>
      <trkpt lat="42.49075" lon="2.57331">
        <ele>903.6</ele>
        <time>2024-07-14T13:23:10Z</time>
      </trkpt>
      <trkpt lat="42.49075" lon="2.57332">
        <ele>903</ele>
        <time>2024-07-14T13:23:12Z</time>
      </trkpt>
      <trkpt lat="42.49076" lon="2.57338">
        <ele>900.8</ele>
        <time>2024-07-14T13:23:18Z</time>
      </trkpt>
      <trkpt lat="42.49077" lon="2.5734">
        <ele>900.8</ele>
        <time>2024-07-14T13:23:19Z</time>
      </trkpt>
      <trkpt lat="42.49077" lon="2.57343">
        <ele>901.2</ele>
        <time>2024-07-14T13:23:22Z</time>
      </trkpt>
      <trkpt lat="42.49077" lon="2.57348">
        <ele>903</ele>
        <time>2024-07-14T13:23:25Z</time>
      </trkpt>
      <trkpt lat="42.49075" lon="2.57364">
        <ele>903.8</ele>
        <time>2024-07-14T13:23:33Z</time>
      </trkpt>
      <trkpt lat="42.49074" lon="2.57369">
        <ele>902.8</ele>
        <time>2024-07-14T13:23:36Z</time>
      </trkpt>
      <trkpt lat="42.49071" lon="2.57377">
        <ele>902.2</ele>
        <time>2024-07-14T13:23:39Z</time>
      </trkpt>
      <trkpt lat="42.49069" lon="2.5739">
        <ele>900.2</ele>
        <time>2024-07-14T13:23:46Z</time>
      </trkpt>
      <trkpt lat="42.49066" lon="2.57406">
        <ele>900.8</ele>
        <time>2024-07-14T13:23:55Z</time>
      </trkpt>
      <trkpt lat="42.49064" lon="2.57421">
        <ele>901.6</ele>
        <time>2024-07-14T13:24:03Z</time>
      </trkpt>
      <trkpt lat="42.49062" lon="2.57436">
        <ele>901</ele>
        <time>2024-07-14T13:24:11Z</time>
      </trkpt>
      <trkpt lat="42.49058" lon="2.57456">
        <ele>899.2</ele>
        <time>2024-07-14T13:24:22Z</time>
      </trkpt>
      <trkpt lat="42.49056" lon="2.57472">
        <ele>898.2</ele>
        <time>2024-07-14T13:24:32Z</time>
      </trkpt>
      <trkpt lat="42.49054" lon="2.57485">
        <ele>899.2</ele>
        <time>2024-07-14T13:24:39Z</time>
      </trkpt>
      <trkpt lat="42.49052" lon="2.57492">
        <ele>900</ele>
        <time>2024-07-14T13:24:43Z</time>
      </trkpt>
      <trkpt lat="42.49048" lon="2.57496">
        <ele>900.2</ele>
        <time>2024-07-14T13:24:46Z</time>
      </trkpt>
      <trkpt lat="42.49042" lon="2.57504">
        <ele>899</ele>
        <time>2024-07-14T13:24:52Z</time>
      </trkpt>
      <trkpt lat="42.49041" lon="2.57505">
        <ele>899</ele>
        <time>2024-07-14T13:24:53Z</time>
      </trkpt>
      <trkpt lat="42.49038" lon="2.57514">
        <ele>898</ele>
        <time>2024-07-14T13:25:01Z</time>
      </trkpt>
      <trkpt lat="42.49034" lon="2.57521">
        <ele>896.4</ele>
        <time>2024-07-14T13:25:14Z</time>
      </trkpt>
      <trkpt lat="42.4903" lon="2.57526">
        <ele>896.6</ele>
        <time>2024-07-14T13:25:18Z</time>
      </trkpt>
      <trkpt lat="42.49027" lon="2.57529">
        <ele>896.8</ele>
        <time>2024-07-14T13:25:21Z</time>
      </trkpt>
      <trkpt lat="42.49023" lon="2.5754">
        <ele>896.4</ele>
        <time>2024-07-14T13:25:28Z</time>
      </trkpt>
      <trkpt lat="42.49016" lon="2.57552">
        <ele>894</ele>
        <time>2024-07-14T13:25:36Z</time>
      </trkpt>
      <trkpt lat="42.49011" lon="2.57566">
        <ele>891.4</ele>
        <time>2024-07-14T13:25:45Z</time>
      </trkpt>
      <trkpt lat="42.49008" lon="2.57573">
        <ele>891.6</ele>
        <time>2024-07-14T13:25:49Z</time>
      </trkpt>
      <trkpt lat="42.49006" lon="2.57579">
        <ele>891.4</ele>
        <time>2024-07-14T13:25:53Z</time>
      </trkpt>
      <trkpt lat="42.48998" lon="2.57591">
        <ele>891.2</ele>
        <time>2024-07-14T13:26:01Z</time>
      </trkpt>
      <trkpt lat="42.48997" lon="2.57592">
        <ele>891.2</ele>
        <time>2024-07-14T13:26:02Z</time>
      </trkpt>
      <trkpt lat="42.48996" lon="2.57595">
        <ele>891.4</ele>
        <time>2024-07-14T13:26:04Z</time>
      </trkpt>
      <trkpt lat="42.48994" lon="2.57601">
        <ele>891.8</ele>
        <time>2024-07-14T13:26:08Z</time>
      </trkpt>
      <trkpt lat="42.48993" lon="2.57603">
        <ele>892</ele>
        <time>2024-07-14T13:26:09Z</time>
      </trkpt>
      <trkpt lat="42.48986" lon="2.57618">
        <ele>893.6</ele>
        <time>2024-07-14T13:26:17Z</time>
      </trkpt>
      <trkpt lat="42.48982" lon="2.57626">
        <ele>895.2</ele>
        <time>2024-07-14T13:26:24Z</time>
      </trkpt>
      <trkpt lat="42.48982" lon="2.57628">
        <ele>895</ele>
        <time>2024-07-14T13:26:25Z</time>
      </trkpt>
      <trkpt lat="42.48981" lon="2.57637">
        <ele>893.8</ele>
        <time>2024-07-14T13:26:31Z</time>
      </trkpt>
      <trkpt lat="42.48976" lon="2.57649">
        <ele>892.4</ele>
        <time>2024-07-14T13:26:39Z</time>
      </trkpt>
      <trkpt lat="42.48972" lon="2.57655">
        <ele>890.6</ele>
        <time>2024-07-14T13:26:43Z</time>
      </trkpt>
      <trkpt lat="42.48971" lon="2.57658">
        <ele>890</ele>
        <time>2024-07-14T13:26:45Z</time>
      </trkpt>
      <trkpt lat="42.48971" lon="2.57658">
        <ele>890</ele>
        <time>2024-07-14T13:26:46Z</time>
      </trkpt>
      <trkpt lat="42.48967" lon="2.57666">
        <ele>890</ele>
        <time>2024-07-14T13:26:51Z</time>
      </trkpt>
      <trkpt lat="42.48965" lon="2.57669">
        <ele>890</ele>
        <time>2024-07-14T13:26:53Z</time>
      </trkpt>
      <trkpt lat="42.48962" lon="2.5768">
        <ele>889.4</ele>
        <time>2024-07-14T13:27:00Z</time>
      </trkpt>
      <trkpt lat="42.48963" lon="2.57681">
        <ele>889.2</ele>
        <time>2024-07-14T13:27:01Z</time>
      </trkpt>
      <trkpt lat="42.48961" lon="2.57686">
        <ele>887.6</ele>
        <time>2024-07-14T13:27:06Z</time>
      </trkpt>
      <trkpt lat="42.48957" lon="2.57696">
        <ele>888</ele>
        <time>2024-07-14T13:27:14Z</time>
      </trkpt>
      <trkpt lat="42.48955" lon="2.57708">
        <ele>888.4</ele>
        <time>2024-07-14T13:27:22Z</time>
      </trkpt>
      <trkpt lat="42.48954" lon="2.57709">
        <ele>888.4</ele>
        <time>2024-07-14T13:27:23Z</time>
      </trkpt>
      <trkpt lat="42.48953" lon="2.57711">
        <ele>888.2</ele>
        <time>2024-07-14T13:27:27Z</time>
      </trkpt>
      <trkpt lat="42.48949" lon="2.57715">
        <ele>887.4</ele>
        <time>2024-07-14T13:27:31Z</time>
      </trkpt>
      <trkpt lat="42.48947" lon="2.5772">
        <ele>886.8</ele>
        <time>2024-07-14T13:27:34Z</time>
      </trkpt>
      <trkpt lat="42.48945" lon="2.57722">
        <ele>887</ele>
        <time>2024-07-14T13:27:37Z</time>
      </trkpt>
      <trkpt lat="42.48942" lon="2.57726">
        <ele>887.8</ele>
        <time>2024-07-14T13:27:41Z</time>
      </trkpt>
      <trkpt lat="42.48936" lon="2.57736">
        <ele>887.2</ele>
        <time>2024-07-14T13:27:48Z</time>
      </trkpt>
      <trkpt lat="42.48936" lon="2.5774">
        <ele>886.4</ele>
        <time>2024-07-14T13:27:51Z</time>
      </trkpt>
      <trkpt lat="42.48937" lon="2.57743">
        <ele>885.8</ele>
        <time>2024-07-14T13:27:53Z</time>
      </trkpt>
      <trkpt lat="42.48937" lon="2.57743">
        <ele>885.6</ele>
        <time>2024-07-14T13:27:54Z</time>
      </trkpt>
      <trkpt lat="42.48943" lon="2.57745">
        <ele>883</ele>
        <time>2024-07-14T13:28:01Z</time>
      </trkpt>
      <trkpt lat="42.48946" lon="2.57747">
        <ele>882.4</ele>
        <time>2024-07-14T13:28:04Z</time>
      </trkpt>
      <trkpt lat="42.48951" lon="2.57749">
        <ele>880.2</ele>
        <time>2024-07-14T13:28:09Z</time>
      </trkpt>
      <trkpt lat="42.48953" lon="2.57748">
        <ele>879.6</ele>
        <time>2024-07-14T13:28:13Z</time>
      </trkpt>
      <trkpt lat="42.48954" lon="2.57746">
        <ele>879.4</ele>
        <time>2024-07-14T13:28:16Z</time>
      </trkpt>
      <trkpt lat="42.48957" lon="2.57745">
        <ele>879.6</ele>
        <time>2024-07-14T13:28:22Z</time>
      </trkpt>
      <trkpt lat="42.48958" lon="2.57744">
        <ele>880</ele>
        <time>2024-07-14T13:28:28Z</time>
      </trkpt>
      <trkpt lat="42.4896" lon="2.57746">
        <ele>878</ele>
        <time>2024-07-14T13:28:34Z</time>
      </trkpt>
      <trkpt lat="42.48965" lon="2.57745">
        <ele>875</ele>
        <time>2024-07-14T13:28:40Z</time>
      </trkpt>
      <trkpt lat="42.48968" lon="2.57751">
        <ele>872.4</ele>
        <time>2024-07-14T13:28:46Z</time>
      </trkpt>
      <trkpt lat="42.48965" lon="2.5776">
        <ele>871</ele>
        <time>2024-07-14T13:28:52Z</time>
      </trkpt>
      <trkpt lat="42.48964" lon="2.5776">
        <ele>870.8</ele>
        <time>2024-07-14T13:28:53Z</time>
      </trkpt>
      <trkpt lat="42.48966" lon="2.57764">
        <ele>870</ele>
        <time>2024-07-14T13:28:58Z</time>
      </trkpt>
      <trkpt lat="42.48965" lon="2.57769">
        <ele>869.8</ele>
        <time>2024-07-14T13:29:01Z</time>
      </trkpt>
      <trkpt lat="42.48964" lon="2.5777">
        <ele>869</ele>
        <time>2024-07-14T13:29:04Z</time>
      </trkpt>
      <trkpt lat="42.4896" lon="2.57774">
        <ele>868</ele>
        <time>2024-07-14T13:29:11Z</time>
      </trkpt>
      <trkpt lat="42.48958" lon="2.57782">
        <ele>867</ele>
        <time>2024-07-14T13:29:17Z</time>
      </trkpt>
      <trkpt lat="42.48952" lon="2.57795">
        <ele>864.6</ele>
        <time>2024-07-14T13:29:25Z</time>
      </trkpt>
      <trkpt lat="42.4895" lon="2.57798">
        <ele>864.2</ele>
        <time>2024-07-14T13:29:30Z</time>
      </trkpt>
      <trkpt lat="42.4895" lon="2.57799">
        <ele>864</ele>
        <time>2024-07-14T13:29:31Z</time>
      </trkpt>
      <trkpt lat="42.48949" lon="2.57803">
        <ele>862.4</ele>
        <time>2024-07-14T13:29:35Z</time>
      </trkpt>
      <trkpt lat="42.48948" lon="2.57804">
        <ele>862</ele>
        <time>2024-07-14T13:29:36Z</time>
      </trkpt>
      <trkpt lat="42.48944" lon="2.57806">
        <ele>861.4</ele>
        <time>2024-07-14T13:29:38Z</time>
      </trkpt>
      <trkpt lat="42.48942" lon="2.57806">
        <ele>861</ele>
        <time>2024-07-14T13:29:40Z</time>
      </trkpt>
      <trkpt lat="42.48934" lon="2.57809">
        <ele>859</ele>
        <time>2024-07-14T13:29:47Z</time>
      </trkpt>
      <trkpt lat="42.48928" lon="2.57813">
        <ele>858.2</ele>
        <time>2024-07-14T13:29:53Z</time>
      </trkpt>
      <trkpt lat="42.48925" lon="2.57815">
        <ele>858.4</ele>
        <time>2024-07-14T13:29:56Z</time>
      </trkpt>
      <trkpt lat="42.48925" lon="2.57818">
        <ele>859</ele>
        <time>2024-07-14T13:30:00Z</time>
      </trkpt>
      <trkpt lat="42.48924" lon="2.57822">
        <ele>858.8</ele>
        <time>2024-07-14T13:30:06Z</time>
      </trkpt>
      <trkpt lat="42.48922" lon="2.57824">
        <ele>856.2</ele>
        <time>2024-07-14T13:30:09Z</time>
      </trkpt>
      <trkpt lat="42.48921" lon="2.57827">
        <ele>854.4</ele>
        <time>2024-07-14T13:30:12Z</time>
      </trkpt>
      <trkpt lat="42.48919" lon="2.5783">
        <ele>852.6</ele>
        <time>2024-07-14T13:30:17Z</time>
      </trkpt>
      <trkpt lat="42.48915" lon="2.57839">
        <ele>853.6</ele>
        <time>2024-07-14T13:30:23Z</time>
      </trkpt>
      <trkpt lat="42.48912" lon="2.57845">
        <ele>853.8</ele>
        <time>2024-07-14T13:30:29Z</time>
      </trkpt>
      <trkpt lat="42.48909" lon="2.5785">
        <ele>853.8</ele>
        <time>2024-07-14T13:30:36Z</time>
      </trkpt>
      <trkpt lat="42.48906" lon="2.57857">
        <ele>851.8</ele>
        <time>2024-07-14T13:30:44Z</time>
      </trkpt>
      <trkpt lat="42.48904" lon="2.57862">
        <ele>850.4</ele>
        <time>2024-07-14T13:30:49Z</time>
      </trkpt>
      <trkpt lat="42.48901" lon="2.57866">
        <ele>848.2</ele>
        <time>2024-07-14T13:30:52Z</time>
      </trkpt>
      <trkpt lat="42.48897" lon="2.57867">
        <ele>844.2</ele>
        <time>2024-07-14T13:30:57Z</time>
      </trkpt>
      <trkpt lat="42.48895" lon="2.57868">
        <ele>842</ele>
        <time>2024-07-14T13:31:00Z</time>
      </trkpt>
      <trkpt lat="42.48893" lon="2.57871">
        <ele>840.2</ele>
        <time>2024-07-14T13:31:04Z</time>
      </trkpt>
      <trkpt lat="42.4889" lon="2.57878">
        <ele>835.4</ele>
        <time>2024-07-14T13:31:10Z</time>
      </trkpt>
      <trkpt lat="42.48886" lon="2.57884">
        <ele>831.6</ele>
        <time>2024-07-14T13:31:17Z</time>
      </trkpt>
      <trkpt lat="42.48883" lon="2.57891">
        <ele>827.8</ele>
        <time>2024-07-14T13:31:26Z</time>
      </trkpt>
      <trkpt lat="42.48878" lon="2.57895">
        <ele>825.4</ele>
        <time>2024-07-14T13:31:32Z</time>
      </trkpt>
      <trkpt lat="42.48872" lon="2.57903">
        <ele>825</ele>
        <time>2024-07-14T13:31:39Z</time>
      </trkpt>
      <trkpt lat="42.48869" lon="2.57905">
        <ele>825.2</ele>
        <time>2024-07-14T13:31:45Z</time>
      </trkpt>
      <trkpt lat="42.48865" lon="2.57909">
        <ele>824.6</ele>
        <time>2024-07-14T13:31:49Z</time>
      </trkpt>
      <trkpt lat="42.48864" lon="2.57912">
        <ele>823.6</ele>
        <time>2024-07-14T13:31:51Z</time>
      </trkpt>
      <trkpt lat="42.4886" lon="2.57916">
        <ele>821.6</ele>
        <time>2024-07-14T13:31:55Z</time>
      </trkpt>
      <trkpt lat="42.48858" lon="2.5792">
        <ele>821</ele>
        <time>2024-07-14T13:31:57Z</time>
      </trkpt>
      <trkpt lat="42.48855" lon="2.57923">
        <ele>820.8</ele>
        <time>2024-07-14T13:32:04Z</time>
      </trkpt>
      <trkpt lat="42.48853" lon="2.57928">
        <ele>820.8</ele>
        <time>2024-07-14T13:32:11Z</time>
      </trkpt>
      <trkpt lat="42.48849" lon="2.57933">
        <ele>819.2</ele>
        <time>2024-07-14T13:32:16Z</time>
      </trkpt>
      <trkpt lat="42.48846" lon="2.57937">
        <ele>818.2</ele>
        <time>2024-07-14T13:32:22Z</time>
      </trkpt>
      <trkpt lat="42.48847" lon="2.57939">
        <ele>818</ele>
        <time>2024-07-14T13:32:27Z</time>
      </trkpt>
      <trkpt lat="42.48846" lon="2.57945">
        <ele>818</ele>
        <time>2024-07-14T13:32:32Z</time>
      </trkpt>
      <trkpt lat="42.48843" lon="2.57948">
        <ele>816.6</ele>
        <time>2024-07-14T13:32:38Z</time>
      </trkpt>
      <trkpt lat="42.48836" lon="2.57954">
        <ele>812.8</ele>
        <time>2024-07-14T13:32:46Z</time>
      </trkpt>
      <trkpt lat="42.48827" lon="2.57955">
        <ele>810.8</ele>
        <time>2024-07-14T13:32:53Z</time>
      </trkpt>
      <trkpt lat="42.48821" lon="2.57954">
        <ele>810.2</ele>
        <time>2024-07-14T13:32:58Z</time>
      </trkpt>
      <trkpt lat="42.48817" lon="2.57955">
        <ele>810</ele>
        <time>2024-07-14T13:33:01Z</time>
      </trkpt>
      <trkpt lat="42.48805" lon="2.57959">
        <ele>809</ele>
        <time>2024-07-14T13:33:10Z</time>
      </trkpt>
      <trkpt lat="42.48793" lon="2.57952">
        <ele>810.4</ele>
        <time>2024-07-14T13:33:18Z</time>
      </trkpt>
      <trkpt lat="42.48781" lon="2.57948">
        <ele>807.4</ele>
        <time>2024-07-14T13:33:27Z</time>
      </trkpt>
      <trkpt lat="42.4877" lon="2.57941">
        <ele>808</ele>
        <time>2024-07-14T13:33:37Z</time>
      </trkpt>
      <trkpt lat="42.48763" lon="2.57936">
        <ele>807.2</ele>
        <time>2024-07-14T13:33:44Z</time>
      </trkpt>
      <trkpt lat="42.48755" lon="2.57933">
        <ele>804.8</ele>
        <time>2024-07-14T13:33:51Z</time>
      </trkpt>
      <trkpt lat="42.48754" lon="2.57932">
        <ele>804.4</ele>
        <time>2024-07-14T13:33:52Z</time>
      </trkpt>
      <trkpt lat="42.48743" lon="2.57924">
        <ele>800.8</ele>
        <time>2024-07-14T13:34:01Z</time>
      </trkpt>
      <trkpt lat="42.48736" lon="2.57912">
        <ele>799.6</ele>
        <time>2024-07-14T13:34:09Z</time>
      </trkpt>
      <trkpt lat="42.48729" lon="2.57892">
        <ele>798</ele>
        <time>2024-07-14T13:34:20Z</time>
      </trkpt>
      <trkpt lat="42.48718" lon="2.57878">
        <ele>796.8</ele>
        <time>2024-07-14T13:34:31Z</time>
      </trkpt>
      <trkpt lat="42.48709" lon="2.57864">
        <ele>798.2</ele>
        <time>2024-07-14T13:34:41Z</time>
      </trkpt>
      <trkpt lat="42.48705" lon="2.5785">
        <ele>796.2</ele>
        <time>2024-07-14T13:34:49Z</time>
      </trkpt>
      <trkpt lat="42.48705" lon="2.57846">
        <ele>795.6</ele>
        <time>2024-07-14T13:34:51Z</time>
      </trkpt>
      <trkpt lat="42.48704" lon="2.5784">
        <ele>795.2</ele>
        <time>2024-07-14T13:34:55Z</time>
      </trkpt>
      <trkpt lat="42.48699" lon="2.57829">
        <ele>795.8</ele>
        <time>2024-07-14T13:35:03Z</time>
      </trkpt>
      <trkpt lat="42.48692" lon="2.57817">
        <ele>796.8</ele>
        <time>2024-07-14T13:35:12Z</time>
      </trkpt>
      <trkpt lat="42.48682" lon="2.57807">
        <ele>796.4</ele>
        <time>2024-07-14T13:35:21Z</time>
      </trkpt>
      <trkpt lat="42.48674" lon="2.57802">
        <ele>797.2</ele>
        <time>2024-07-14T13:35:29Z</time>
      </trkpt>
      <trkpt lat="42.48673" lon="2.57801">
        <ele>797.4</ele>
        <time>2024-07-14T13:35:30Z</time>
      </trkpt>
      <trkpt lat="42.48664" lon="2.57802">
        <ele>798.4</ele>
        <time>2024-07-14T13:35:37Z</time>
      </trkpt>
      <trkpt lat="42.48655" lon="2.57805">
        <ele>800.8</ele>
        <time>2024-07-14T13:35:45Z</time>
      </trkpt>
      <trkpt lat="42.48649" lon="2.57804">
        <ele>802</ele>
        <time>2024-07-14T13:35:53Z</time>
      </trkpt>
      <trkpt lat="42.48643" lon="2.57805">
        <ele>802.8</ele>
        <time>2024-07-14T13:35:58Z</time>
      </trkpt>
      <trkpt lat="42.48634" lon="2.57806">
        <ele>804</ele>
        <time>2024-07-14T13:36:05Z</time>
      </trkpt>
      <trkpt lat="42.48618" lon="2.57798">
        <ele>805.6</ele>
        <time>2024-07-14T13:36:16Z</time>
      </trkpt>
      <trkpt lat="42.48615" lon="2.57795">
        <ele>805.6</ele>
        <time>2024-07-14T13:36:19Z</time>
      </trkpt>
      <trkpt lat="42.48611" lon="2.57791">
        <ele>803.8</ele>
        <time>2024-07-14T13:36:23Z</time>
      </trkpt>
      <trkpt lat="42.48603" lon="2.57785">
        <ele>800</ele>
        <time>2024-07-14T13:36:31Z</time>
      </trkpt>
      <trkpt lat="42.48601" lon="2.57785">
        <ele>799.8</ele>
        <time>2024-07-14T13:36:32Z</time>
      </trkpt>
      <trkpt lat="42.48596" lon="2.57784">
        <ele>801.4</ele>
        <time>2024-07-14T13:36:40Z</time>
      </trkpt>
      <trkpt lat="42.48601" lon="2.57786">
        <ele>802.4</ele>
        <time>2024-07-14T13:36:49Z</time>
      </trkpt>
      <trkpt lat="42.48607" lon="2.57788">
        <ele>802.4</ele>
        <time>2024-07-14T13:36:55Z</time>
      </trkpt>
      <trkpt lat="42.48611" lon="2.57791">
        <ele>803</ele>
        <time>2024-07-14T13:36:59Z</time>
      </trkpt>
      <trkpt lat="42.48613" lon="2.57792">
        <ele>804</ele>
        <time>2024-07-14T13:37:01Z</time>
      </trkpt>
      <trkpt lat="42.4862" lon="2.57794">
        <ele>806.2</ele>
        <time>2024-07-14T13:37:07Z</time>
      </trkpt>
      <trkpt lat="42.48623" lon="2.57794">
        <ele>806</ele>
        <time>2024-07-14T13:37:09Z</time>
      </trkpt>
      <trkpt lat="42.48624" lon="2.57794">
        <ele>805.6</ele>
        <time>2024-07-14T13:37:10Z</time>
      </trkpt>
      <trkpt lat="42.48627" lon="2.57796">
        <ele>805</ele>
        <time>2024-07-14T13:37:14Z</time>
      </trkpt>
      <trkpt lat="42.48639" lon="2.57797">
        <ele>803.4</ele>
        <time>2024-07-14T13:37:21Z</time>
      </trkpt>
      <trkpt lat="42.48642" lon="2.57796">
        <ele>802.8</ele>
        <time>2024-07-14T13:37:22Z</time>
      </trkpt>
      <trkpt lat="42.48645" lon="2.57797">
        <ele>802.6</ele>
        <time>2024-07-14T13:37:25Z</time>
      </trkpt>
      <trkpt lat="42.48649" lon="2.57798">
        <ele>802.6</ele>
        <time>2024-07-14T13:37:27Z</time>
      </trkpt>
      <trkpt lat="42.48653" lon="2.57798">
        <ele>803.6</ele>
        <time>2024-07-14T13:37:32Z</time>
      </trkpt>
      <trkpt lat="42.48662" lon="2.57797">
        <ele>803.8</ele>
        <time>2024-07-14T13:37:39Z</time>
      </trkpt>
      <trkpt lat="42.48674" lon="2.57794">
        <ele>804.4</ele>
        <time>2024-07-14T13:37:46Z</time>
      </trkpt>
      <trkpt lat="42.48678" lon="2.57799">
        <ele>804.6</ele>
        <time>2024-07-14T13:37:50Z</time>
      </trkpt>
      <trkpt lat="42.4868" lon="2.578">
        <ele>804.2</ele>
        <time>2024-07-14T13:37:52Z</time>
      </trkpt>
      <trkpt lat="42.48688" lon="2.57808">
        <ele>801.4</ele>
        <time>2024-07-14T13:38:00Z</time>
      </trkpt>
      <trkpt lat="42.48697" lon="2.57816">
        <ele>798.8</ele>
        <time>2024-07-14T13:38:08Z</time>
      </trkpt>
      <trkpt lat="42.48704" lon="2.57827">
        <ele>796</ele>
        <time>2024-07-14T13:38:16Z</time>
      </trkpt>
      <trkpt lat="42.48708" lon="2.57839">
        <ele>794.8</ele>
        <time>2024-07-14T13:38:23Z</time>
      </trkpt>
      <trkpt lat="42.4871" lon="2.57854">
        <ele>793</ele>
        <time>2024-07-14T13:38:32Z</time>
      </trkpt>
      <trkpt lat="42.48716" lon="2.57863">
        <ele>792</ele>
        <time>2024-07-14T13:38:38Z</time>
      </trkpt>
      <trkpt lat="42.48721" lon="2.57872">
        <ele>792.2</ele>
        <time>2024-07-14T13:38:45Z</time>
      </trkpt>
      <trkpt lat="42.48728" lon="2.57884">
        <ele>794.2</ele>
        <time>2024-07-14T13:38:53Z</time>
      </trkpt>
      <trkpt lat="42.48732" lon="2.57894">
        <ele>795</ele>
        <time>2024-07-14T13:39:00Z</time>
      </trkpt>
      <trkpt lat="42.48734" lon="2.57896">
        <ele>795.4</ele>
        <time>2024-07-14T13:39:02Z</time>
      </trkpt>
      <trkpt lat="42.48735" lon="2.57899">
        <ele>795.8</ele>
        <time>2024-07-14T13:39:04Z</time>
      </trkpt>
      <trkpt lat="42.48736" lon="2.57903">
        <ele>796.4</ele>
        <time>2024-07-14T13:39:07Z</time>
      </trkpt>
      <trkpt lat="42.48743" lon="2.57915">
        <ele>799.2</ele>
        <time>2024-07-14T13:39:17Z</time>
      </trkpt>
      <trkpt lat="42.48749" lon="2.57921">
        <ele>801</ele>
        <time>2024-07-14T13:39:24Z</time>
      </trkpt>
      <trkpt lat="42.48752" lon="2.57923">
        <ele>801.6</ele>
        <time>2024-07-14T13:39:29Z</time>
      </trkpt>
      <trkpt lat="42.48754" lon="2.57924">
        <ele>801.8</ele>
        <time>2024-07-14T13:39:31Z</time>
      </trkpt>
      <trkpt lat="42.48759" lon="2.57927">
        <ele>802.4</ele>
        <time>2024-07-14T13:39:36Z</time>
      </trkpt>
      <trkpt lat="42.48767" lon="2.57933">
        <ele>803</ele>
        <time>2024-07-14T13:39:45Z</time>
      </trkpt>
      <trkpt lat="42.48772" lon="2.57935">
        <ele>803.4</ele>
        <time>2024-07-14T13:39:49Z</time>
      </trkpt>
      <trkpt lat="42.48774" lon="2.57936">
        <ele>803.8</ele>
        <time>2024-07-14T13:39:51Z</time>
      </trkpt>
      <trkpt lat="42.4878" lon="2.57941">
        <ele>806.8</ele>
        <time>2024-07-14T13:39:58Z</time>
      </trkpt>
      <trkpt lat="42.48784" lon="2.57944">
        <ele>808.4</ele>
        <time>2024-07-14T13:40:01Z</time>
      </trkpt>
      <trkpt lat="42.48787" lon="2.57945">
        <ele>809.6</ele>
        <time>2024-07-14T13:40:04Z</time>
      </trkpt>
      <trkpt lat="42.48789" lon="2.57947">
        <ele>810</ele>
        <time>2024-07-14T13:40:06Z</time>
      </trkpt>
      <trkpt lat="42.48794" lon="2.57949">
        <ele>810.4</ele>
        <time>2024-07-14T13:40:10Z</time>
      </trkpt>
      <trkpt lat="42.48795" lon="2.57949">
        <ele>810.4</ele>
        <time>2024-07-14T13:40:11Z</time>
      </trkpt>
      <trkpt lat="42.48801" lon="2.5795">
        <ele>809.6</ele>
        <time>2024-07-14T13:40:16Z</time>
      </trkpt>
      <trkpt lat="42.48807" lon="2.57949">
        <ele>809</ele>
        <time>2024-07-14T13:40:20Z</time>
      </trkpt>
      <trkpt lat="42.48815" lon="2.5795">
        <ele>807.8</ele>
        <time>2024-07-14T13:40:26Z</time>
      </trkpt>
      <trkpt lat="42.48823" lon="2.57952">
        <ele>807.6</ele>
        <time>2024-07-14T13:40:33Z</time>
      </trkpt>
      <trkpt lat="42.48825" lon="2.57952">
        <ele>807.6</ele>
        <time>2024-07-14T13:40:34Z</time>
      </trkpt>
      <trkpt lat="42.48831" lon="2.57953">
        <ele>810.8</ele>
        <time>2024-07-14T13:40:40Z</time>
      </trkpt>
      <trkpt lat="42.48837" lon="2.57953">
        <ele>812</ele>
        <time>2024-07-14T13:40:46Z</time>
      </trkpt>
      <trkpt lat="42.48838" lon="2.57957">
        <ele>812.8</ele>
        <time>2024-07-14T13:40:51Z</time>
      </trkpt>
      <trkpt lat="42.48837" lon="2.57959">
        <ele>810.2</ele>
        <time>2024-07-14T13:40:57Z</time>
      </trkpt>
      <trkpt lat="42.48838" lon="2.57963">
        <ele>802.8</ele>
        <time>2024-07-14T13:41:04Z</time>
      </trkpt>
      <trkpt lat="42.48845" lon="2.57965">
        <ele>798.4</ele>
        <time>2024-07-14T13:41:13Z</time>
      </trkpt>
      <trkpt lat="42.48844" lon="2.57973">
        <ele>797.2</ele>
        <time>2024-07-14T13:41:18Z</time>
      </trkpt>
      <trkpt lat="42.48843" lon="2.57974">
        <ele>797</ele>
        <time>2024-07-14T13:41:19Z</time>
      </trkpt>
      <trkpt lat="42.48842" lon="2.5798">
        <ele>795</ele>
        <time>2024-07-14T13:41:25Z</time>
      </trkpt>
      <trkpt lat="42.48845" lon="2.57983">
        <ele>792.4</ele>
        <time>2024-07-14T13:41:31Z</time>
      </trkpt>
      <trkpt lat="42.48851" lon="2.57991">
        <ele>789.8</ele>
        <time>2024-07-14T13:41:39Z</time>
      </trkpt>
      <trkpt lat="42.48853" lon="2.57997">
        <ele>788.6</ele>
        <time>2024-07-14T13:41:44Z</time>
      </trkpt>
      <trkpt lat="42.48854" lon="2.57998">
        <ele>788.2</ele>
        <time>2024-07-14T13:41:46Z</time>
      </trkpt>
      <trkpt lat="42.48855" lon="2.57998">
        <ele>787.8</ele>
        <time>2024-07-14T13:41:47Z</time>
      </trkpt>
      <trkpt lat="42.48857" lon="2.58001">
        <ele>786.8</ele>
        <time>2024-07-14T13:41:51Z</time>
      </trkpt>
      <trkpt lat="42.48858" lon="2.58001">
        <ele>786.4</ele>
        <time>2024-07-14T13:41:52Z</time>
      </trkpt>
      <trkpt lat="42.4886" lon="2.58007">
        <ele>785.4</ele>
        <time>2024-07-14T13:41:57Z</time>
      </trkpt>
      <trkpt lat="42.48861" lon="2.58009">
        <ele>785</ele>
        <time>2024-07-14T13:41:58Z</time>
      </trkpt>
      <trkpt lat="42.4886" lon="2.58017">
        <ele>782.4</ele>
        <time>2024-07-14T13:42:03Z</time>
      </trkpt>
      <trkpt lat="42.48857" lon="2.58022">
        <ele>780</ele>
        <time>2024-07-14T13:42:10Z</time>
      </trkpt>
      <trkpt lat="42.48857" lon="2.58027">
        <ele>778.8</ele>
        <time>2024-07-14T13:42:16Z</time>
      </trkpt>
      <trkpt lat="42.48852" lon="2.58037">
        <ele>774.8</ele>
        <time>2024-07-14T13:42:26Z</time>
      </trkpt>
      <trkpt lat="42.4885" lon="2.5804">
        <ele>773.2</ele>
        <time>2024-07-14T13:42:31Z</time>
      </trkpt>
      <trkpt lat="42.48847" lon="2.58043">
        <ele>773</ele>
        <time>2024-07-14T13:42:34Z</time>
      </trkpt>
      <trkpt lat="42.48845" lon="2.58046">
        <ele>772.8</ele>
        <time>2024-07-14T13:42:36Z</time>
      </trkpt>
      <trkpt lat="42.48834" lon="2.58052">
        <ele>771.6</ele>
        <time>2024-07-14T13:42:44Z</time>
      </trkpt>
      <trkpt lat="42.48822" lon="2.58055">
        <ele>768.4</ele>
        <time>2024-07-14T13:42:53Z</time>
      </trkpt>
      <trkpt lat="42.48812" lon="2.58066">
        <ele>765</ele>
        <time>2024-07-14T13:43:03Z</time>
      </trkpt>
      <trkpt lat="42.48807" lon="2.58071">
        <ele>762.2</ele>
        <time>2024-07-14T13:43:09Z</time>
      </trkpt>
      <trkpt lat="42.48809" lon="2.58076">
        <ele>761</ele>
        <time>2024-07-14T13:43:13Z</time>
      </trkpt>
      <trkpt lat="42.48805" lon="2.58082">
        <ele>760</ele>
        <time>2024-07-14T13:43:17Z</time>
      </trkpt>
      <trkpt lat="42.48806" lon="2.58084">
        <ele>759.8</ele>
        <time>2024-07-14T13:43:18Z</time>
      </trkpt>
      <trkpt lat="42.48803" lon="2.5809">
        <ele>759</ele>
        <time>2024-07-14T13:43:23Z</time>
      </trkpt>
      <trkpt lat="42.48804" lon="2.58098">
        <ele>758.6</ele>
        <time>2024-07-14T13:43:30Z</time>
      </trkpt>
      <trkpt lat="42.48805" lon="2.58108">
        <ele>757.6</ele>
        <time>2024-07-14T13:43:40Z</time>
      </trkpt>
      <trkpt lat="42.48806" lon="2.58109">
        <ele>757.6</ele>
        <time>2024-07-14T13:43:41Z</time>
      </trkpt>
      <trkpt lat="42.48806" lon="2.58114">
        <ele>757</ele>
        <time>2024-07-14T13:43:45Z</time>
      </trkpt>
      <trkpt lat="42.48802" lon="2.5812">
        <ele>757</ele>
        <time>2024-07-14T13:43:51Z</time>
      </trkpt>
      <trkpt lat="42.488" lon="2.58128">
        <ele>758.4</ele>
        <time>2024-07-14T13:43:59Z</time>
      </trkpt>
      <trkpt lat="42.488" lon="2.58134">
        <ele>759.4</ele>
        <time>2024-07-14T13:44:06Z</time>
      </trkpt>
      <trkpt lat="42.488" lon="2.58147">
        <ele>760.6</ele>
        <time>2024-07-14T13:44:14Z</time>
      </trkpt>
      <trkpt lat="42.48799" lon="2.58149">
        <ele>760.6</ele>
        <time>2024-07-14T13:44:15Z</time>
      </trkpt>
      <trkpt lat="42.48795" lon="2.58153">
        <ele>759.8</ele>
        <time>2024-07-14T13:44:19Z</time>
      </trkpt>
      <trkpt lat="42.48794" lon="2.58153">
        <ele>758.2</ele>
        <time>2024-07-14T13:44:25Z</time>
      </trkpt>
      <trkpt lat="42.48793" lon="2.58153">
        <ele>758.2</ele>
        <time>2024-07-14T13:44:30Z</time>
      </trkpt>
      <trkpt lat="42.48786" lon="2.58156">
        <ele>758.2</ele>
        <time>2024-07-14T13:44:37Z</time>
      </trkpt>
      <trkpt lat="42.48785" lon="2.58156">
        <ele>758</ele>
        <time>2024-07-14T13:44:38Z</time>
      </trkpt>
      <trkpt lat="42.48777" lon="2.58157">
        <ele>758</ele>
        <time>2024-07-14T13:44:44Z</time>
      </trkpt>
      <trkpt lat="42.48775" lon="2.58156">
        <ele>758.4</ele>
        <time>2024-07-14T13:44:45Z</time>
      </trkpt>
      <trkpt lat="42.4877" lon="2.58155">
        <ele>759.6</ele>
        <time>2024-07-14T13:44:51Z</time>
      </trkpt>
      <trkpt lat="42.48762" lon="2.58157">
        <ele>761.2</ele>
        <time>2024-07-14T13:44:58Z</time>
      </trkpt>
      <trkpt lat="42.4876" lon="2.58157">
        <ele>761.4</ele>
        <time>2024-07-14T13:45:00Z</time>
      </trkpt>
      <trkpt lat="42.48753" lon="2.58156">
        <ele>763</ele>
        <time>2024-07-14T13:45:06Z</time>
      </trkpt>
      <trkpt lat="42.48747" lon="2.58158">
        <ele>765.2</ele>
        <time>2024-07-14T13:45:13Z</time>
      </trkpt>
      <trkpt lat="42.48744" lon="2.58159">
        <ele>765.6</ele>
        <time>2024-07-14T13:45:16Z</time>
      </trkpt>
      <trkpt lat="42.48739" lon="2.58159">
        <ele>765.4</ele>
        <time>2024-07-14T13:45:19Z</time>
      </trkpt>
      <trkpt lat="42.4873" lon="2.5816">
        <ele>764.8</ele>
        <time>2024-07-14T13:45:27Z</time>
      </trkpt>
      <trkpt lat="42.48722" lon="2.58159">
        <ele>764.4</ele>
        <time>2024-07-14T13:45:34Z</time>
      </trkpt>
      <trkpt lat="42.48721" lon="2.5816">
        <ele>764.2</ele>
        <time>2024-07-14T13:45:35Z</time>
      </trkpt>
      <trkpt lat="42.48715" lon="2.58164">
        <ele>764.2</ele>
        <time>2024-07-14T13:45:41Z</time>
      </trkpt>
      <trkpt lat="42.48704" lon="2.58166">
        <ele>764.6</ele>
        <time>2024-07-14T13:45:49Z</time>
      </trkpt>
      <trkpt lat="42.48697" lon="2.58174">
        <ele>765.4</ele>
        <time>2024-07-14T13:45:57Z</time>
      </trkpt>
      <trkpt lat="42.48689" lon="2.58181">
        <ele>765</ele>
        <time>2024-07-14T13:46:06Z</time>
      </trkpt>
      <trkpt lat="42.48682" lon="2.58194">
        <ele>766.4</ele>
        <time>2024-07-14T13:46:16Z</time>
      </trkpt>
      <trkpt lat="42.4868" lon="2.58199">
        <ele>766.6</ele>
        <time>2024-07-14T13:46:19Z</time>
      </trkpt>
      <trkpt lat="42.4868" lon="2.58204">
        <ele>767.4</ele>
        <time>2024-07-14T13:46:22Z</time>
      </trkpt>
      <trkpt lat="42.4868" lon="2.5821">
        <ele>768.8</ele>
        <time>2024-07-14T13:46:26Z</time>
      </trkpt>
      <trkpt lat="42.48679" lon="2.58215">
        <ele>769.4</ele>
        <time>2024-07-14T13:46:29Z</time>
      </trkpt>
      <trkpt lat="42.48678" lon="2.58223">
        <ele>769.8</ele>
        <time>2024-07-14T13:46:34Z</time>
      </trkpt>
      <trkpt lat="42.48677" lon="2.58226">
        <ele>770.4</ele>
        <time>2024-07-14T13:46:36Z</time>
      </trkpt>
      <trkpt lat="42.48674" lon="2.58237">
        <ele>772</ele>
        <time>2024-07-14T13:46:45Z</time>
      </trkpt>
      <trkpt lat="42.48674" lon="2.58238">
        <ele>771.8</ele>
        <time>2024-07-14T13:46:46Z</time>
      </trkpt>
      <trkpt lat="42.48672" lon="2.5824">
        <ele>771.6</ele>
        <time>2024-07-14T13:46:48Z</time>
      </trkpt>
      <trkpt lat="42.4867" lon="2.58244">
        <ele>771.4</ele>
        <time>2024-07-14T13:46:51Z</time>
      </trkpt>
      <trkpt lat="42.4867" lon="2.58246">
        <ele>771.6</ele>
        <time>2024-07-14T13:46:52Z</time>
      </trkpt>
      <trkpt lat="42.48669" lon="2.58252">
        <ele>772.4</ele>
        <time>2024-07-14T13:46:55Z</time>
      </trkpt>
      <trkpt lat="42.48667" lon="2.58256">
        <ele>772.8</ele>
        <time>2024-07-14T13:46:57Z</time>
      </trkpt>
      <trkpt lat="42.4866" lon="2.58267">
        <ele>772.2</ele>
        <time>2024-07-14T13:47:05Z</time>
      </trkpt>
      <trkpt lat="42.48653" lon="2.58272">
        <ele>772.8</ele>
        <time>2024-07-14T13:47:11Z</time>
      </trkpt>
      <trkpt lat="42.48652" lon="2.58274">
        <ele>773.2</ele>
        <time>2024-07-14T13:47:13Z</time>
      </trkpt>
      <trkpt lat="42.48649" lon="2.58277">
        <ele>774</ele>
        <time>2024-07-14T13:47:17Z</time>
      </trkpt>
      <trkpt lat="42.48647" lon="2.58279">
        <ele>774.4</ele>
        <time>2024-07-14T13:47:19Z</time>
      </trkpt>
      <trkpt lat="42.48641" lon="2.58285">
        <ele>774.8</ele>
        <time>2024-07-14T13:47:25Z</time>
      </trkpt>
      <trkpt lat="42.48637" lon="2.58291">
        <ele>776.2</ele>
        <time>2024-07-14T13:47:32Z</time>
      </trkpt>
      <trkpt lat="42.48633" lon="2.58297">
        <ele>778.8</ele>
        <time>2024-07-14T13:47:39Z</time>
      </trkpt>
      <trkpt lat="42.48628" lon="2.58302">
        <ele>783.2</ele>
        <time>2024-07-14T13:47:46Z</time>
      </trkpt>
      <trkpt lat="42.48628" lon="2.58306">
        <ele>786.2</ele>
        <time>2024-07-14T13:47:52Z</time>
      </trkpt>
      <trkpt lat="42.48631" lon="2.58312">
        <ele>786.6</ele>
        <time>2024-07-14T13:47:59Z</time>
      </trkpt>
      <trkpt lat="42.48632" lon="2.58319">
        <ele>787</ele>
        <time>2024-07-14T13:48:05Z</time>
      </trkpt>
      <trkpt lat="42.48625" lon="2.58326">
        <ele>787.4</ele>
        <time>2024-07-14T13:48:12Z</time>
      </trkpt>
      <trkpt lat="42.48617" lon="2.58335">
        <ele>785.6</ele>
        <time>2024-07-14T13:48:20Z</time>
      </trkpt>
      <trkpt lat="42.4861" lon="2.58349">
        <ele>784.2</ele>
        <time>2024-07-14T13:48:30Z</time>
      </trkpt>
      <trkpt lat="42.48607" lon="2.58354">
        <ele>783.8</ele>
        <time>2024-07-14T13:48:34Z</time>
      </trkpt>
      <trkpt lat="42.48606" lon="2.58356">
        <ele>783.6</ele>
        <time>2024-07-14T13:48:36Z</time>
      </trkpt>
      <trkpt lat="42.48604" lon="2.58359">
        <ele>783.6</ele>
        <time>2024-07-14T13:48:38Z</time>
      </trkpt>
      <trkpt lat="42.48603" lon="2.58364">
        <ele>783.6</ele>
        <time>2024-07-14T13:48:41Z</time>
      </trkpt>
      <trkpt lat="42.48603" lon="2.58365">
        <ele>783.6</ele>
        <time>2024-07-14T13:48:42Z</time>
      </trkpt>
      <trkpt lat="42.48603" lon="2.58367">
        <ele>783.6</ele>
        <time>2024-07-14T13:48:43Z</time>
      </trkpt>
      <trkpt lat="42.48602" lon="2.58374">
        <ele>783.8</ele>
        <time>2024-07-14T13:48:48Z</time>
      </trkpt>
      <trkpt lat="42.48601" lon="2.58375">
        <ele>784</ele>
        <time>2024-07-14T13:48:49Z</time>
      </trkpt>
      <trkpt lat="42.486" lon="2.58383">
        <ele>783.6</ele>
        <time>2024-07-14T13:48:54Z</time>
      </trkpt>
      <trkpt lat="42.48595" lon="2.58397">
        <ele>783.6</ele>
        <time>2024-07-14T13:49:02Z</time>
      </trkpt>
      <trkpt lat="42.48593" lon="2.58403">
        <ele>784</ele>
        <time>2024-07-14T13:49:06Z</time>
      </trkpt>
      <trkpt lat="42.48592" lon="2.58407">
        <ele>784.2</ele>
        <time>2024-07-14T13:49:09Z</time>
      </trkpt>
      <trkpt lat="42.48589" lon="2.58422">
        <ele>785</ele>
        <time>2024-07-14T13:49:18Z</time>
      </trkpt>
      <trkpt lat="42.48585" lon="2.58436">
        <ele>786.6</ele>
        <time>2024-07-14T13:49:28Z</time>
      </trkpt>
      <trkpt lat="42.48581" lon="2.58444">
        <ele>786.8</ele>
        <time>2024-07-14T13:49:34Z</time>
      </trkpt>
      <trkpt lat="42.4858" lon="2.58447">
        <ele>787.2</ele>
        <time>2024-07-14T13:49:36Z</time>
      </trkpt>
      <trkpt lat="42.4858" lon="2.58452">
        <ele>788.8</ele>
        <time>2024-07-14T13:49:42Z</time>
      </trkpt>
      <trkpt lat="42.48578" lon="2.58459">
        <ele>789.4</ele>
        <time>2024-07-14T13:49:47Z</time>
      </trkpt>
      <trkpt lat="42.48577" lon="2.58474">
        <ele>791</ele>
        <time>2024-07-14T13:49:56Z</time>
      </trkpt>
      <trkpt lat="42.48575" lon="2.58489">
        <ele>792</ele>
        <time>2024-07-14T13:50:05Z</time>
      </trkpt>
      <trkpt lat="42.48575" lon="2.5849">
        <ele>792.4</ele>
        <time>2024-07-14T13:50:06Z</time>
      </trkpt>
      <trkpt lat="42.48575" lon="2.58496">
        <ele>793</ele>
        <time>2024-07-14T13:50:09Z</time>
      </trkpt>
      <trkpt lat="42.48574" lon="2.58498">
        <ele>792.8</ele>
        <time>2024-07-14T13:50:11Z</time>
      </trkpt>
      <trkpt lat="42.48572" lon="2.58514">
        <ele>793</ele>
        <time>2024-07-14T13:50:21Z</time>
      </trkpt>
      <trkpt lat="42.48568" lon="2.58527">
        <ele>794.8</ele>
        <time>2024-07-14T13:50:30Z</time>
      </trkpt>
      <trkpt lat="42.48563" lon="2.58543">
        <ele>794</ele>
        <time>2024-07-14T13:50:40Z</time>
      </trkpt>
      <trkpt lat="42.4856" lon="2.58557">
        <ele>793.8</ele>
        <time>2024-07-14T13:50:48Z</time>
      </trkpt>
      <trkpt lat="42.48559" lon="2.58562">
        <ele>794.4</ele>
        <time>2024-07-14T13:50:52Z</time>
      </trkpt>
      <trkpt lat="42.48558" lon="2.58567">
        <ele>795.6</ele>
        <time>2024-07-14T13:50:56Z</time>
      </trkpt>
      <trkpt lat="42.48556" lon="2.58579">
        <ele>796.6</ele>
        <time>2024-07-14T13:51:04Z</time>
      </trkpt>
      <trkpt lat="42.48555" lon="2.58582">
        <ele>796</ele>
        <time>2024-07-14T13:51:06Z</time>
      </trkpt>
      <trkpt lat="42.48551" lon="2.58593">
        <ele>795.6</ele>
        <time>2024-07-14T13:51:13Z</time>
      </trkpt>
      <trkpt lat="42.48548" lon="2.58608">
        <ele>797.4</ele>
        <time>2024-07-14T13:51:23Z</time>
      </trkpt>
      <trkpt lat="42.48549" lon="2.58623">
        <ele>798.8</ele>
        <time>2024-07-14T13:51:31Z</time>
      </trkpt>
      <trkpt lat="42.48549" lon="2.58631">
        <ele>798.4</ele>
        <time>2024-07-14T13:51:36Z</time>
      </trkpt>
      <trkpt lat="42.48548" lon="2.58641">
        <ele>799</ele>
        <time>2024-07-14T13:51:41Z</time>
      </trkpt>
      <trkpt lat="42.48546" lon="2.58656">
        <ele>800.6</ele>
        <time>2024-07-14T13:51:49Z</time>
      </trkpt>
      <trkpt lat="42.48545" lon="2.58662">
        <ele>801</ele>
        <time>2024-07-14T13:51:53Z</time>
      </trkpt>
      <trkpt lat="42.48543" lon="2.58668">
        <ele>801</ele>
        <time>2024-07-14T13:51:57Z</time>
      </trkpt>
      <trkpt lat="42.48539" lon="2.58687">
        <ele>802.2</ele>
        <time>2024-07-14T13:52:09Z</time>
      </trkpt>
      <trkpt lat="42.48533" lon="2.58706">
        <ele>802.4</ele>
        <time>2024-07-14T13:52:21Z</time>
      </trkpt>
      <trkpt lat="42.48524" lon="2.58723">
        <ele>802.6</ele>
        <time>2024-07-14T13:52:34Z</time>
      </trkpt>
      <trkpt lat="42.48516" lon="2.5874">
        <ele>806.2</ele>
        <time>2024-07-14T13:52:46Z</time>
      </trkpt>
      <trkpt lat="42.48507" lon="2.58757">
        <ele>808.2</ele>
        <time>2024-07-14T13:52:58Z</time>
      </trkpt>
      <trkpt lat="42.48499" lon="2.58772">
        <ele>808.2</ele>
        <time>2024-07-14T13:53:09Z</time>
      </trkpt>
      <trkpt lat="42.48492" lon="2.58788">
        <ele>807.6</ele>
        <time>2024-07-14T13:53:19Z</time>
      </trkpt>
      <trkpt lat="42.48486" lon="2.58809">
        <ele>806.4</ele>
        <time>2024-07-14T13:53:32Z</time>
      </trkpt>
      <trkpt lat="42.4848" lon="2.58828">
        <ele>804.8</ele>
        <time>2024-07-14T13:53:44Z</time>
      </trkpt>
      <trkpt lat="42.48478" lon="2.58845">
        <ele>804.4</ele>
        <time>2024-07-14T13:53:53Z</time>
      </trkpt>
      <trkpt lat="42.48472" lon="2.58866">
        <ele>804.6</ele>
        <time>2024-07-14T13:54:05Z</time>
      </trkpt>
      <trkpt lat="42.48468" lon="2.58885">
        <ele>804.2</ele>
        <time>2024-07-14T13:54:17Z</time>
      </trkpt>
      <trkpt lat="42.48466" lon="2.58899">
        <ele>802.6</ele>
        <time>2024-07-14T13:54:25Z</time>
      </trkpt>
      <trkpt lat="42.48467" lon="2.58914">
        <ele>802.2</ele>
        <time>2024-07-14T13:54:34Z</time>
      </trkpt>
      <trkpt lat="42.4847" lon="2.5893">
        <ele>801</ele>
        <time>2024-07-14T13:54:44Z</time>
      </trkpt>
      <trkpt lat="42.48472" lon="2.58947">
        <ele>801.8</ele>
        <time>2024-07-14T13:54:53Z</time>
      </trkpt>
      <trkpt lat="42.48472" lon="2.58963">
        <ele>798.8</ele>
        <time>2024-07-14T13:55:02Z</time>
      </trkpt>
      <trkpt lat="42.4847" lon="2.58977">
        <ele>799.8</ele>
        <time>2024-07-14T13:55:10Z</time>
      </trkpt>
      <trkpt lat="42.48467" lon="2.58983">
        <ele>801.2</ele>
        <time>2024-07-14T13:55:15Z</time>
      </trkpt>
      <trkpt lat="42.48464" lon="2.58987">
        <ele>802</ele>
        <time>2024-07-14T13:55:18Z</time>
      </trkpt>
      <trkpt lat="42.48454" lon="2.58999">
        <ele>803.8</ele>
        <time>2024-07-14T13:55:28Z</time>
      </trkpt>
      <trkpt lat="42.48446" lon="2.59009">
        <ele>803.8</ele>
        <time>2024-07-14T13:55:37Z</time>
      </trkpt>
      <trkpt lat="42.48439" lon="2.5902">
        <ele>803.4</ele>
        <time>2024-07-14T13:55:46Z</time>
      </trkpt>
      <trkpt lat="42.48433" lon="2.59032">
        <ele>802.2</ele>
        <time>2024-07-14T13:55:53Z</time>
      </trkpt>
      <trkpt lat="42.48423" lon="2.59043">
        <ele>799.4</ele>
        <time>2024-07-14T13:56:03Z</time>
      </trkpt>
      <trkpt lat="42.48415" lon="2.59053">
        <ele>797</ele>
        <time>2024-07-14T13:56:11Z</time>
      </trkpt>
      <trkpt lat="42.4841" lon="2.59061">
        <ele>796.6</ele>
        <time>2024-07-14T13:56:18Z</time>
      </trkpt>
      <trkpt lat="42.48403" lon="2.59074">
        <ele>796.8</ele>
        <time>2024-07-14T13:56:28Z</time>
      </trkpt>
      <trkpt lat="42.48401" lon="2.59078">
        <ele>796.2</ele>
        <time>2024-07-14T13:56:31Z</time>
      </trkpt>
      <trkpt lat="42.48398" lon="2.59083">
        <ele>795.2</ele>
        <time>2024-07-14T13:56:35Z</time>
      </trkpt>
      <trkpt lat="42.4839" lon="2.59093">
        <ele>792.8</ele>
        <time>2024-07-14T13:56:44Z</time>
      </trkpt>
      <trkpt lat="42.48383" lon="2.59109">
        <ele>791.4</ele>
        <time>2024-07-14T13:56:55Z</time>
      </trkpt>
      <trkpt lat="42.48376" lon="2.5912">
        <ele>791.8</ele>
        <time>2024-07-14T13:57:03Z</time>
      </trkpt>
      <trkpt lat="42.48371" lon="2.59131">
        <ele>793</ele>
        <time>2024-07-14T13:57:11Z</time>
      </trkpt>
      <trkpt lat="42.48368" lon="2.59142">
        <ele>794.4</ele>
        <time>2024-07-14T13:57:19Z</time>
      </trkpt>
      <trkpt lat="42.48361" lon="2.59159">
        <ele>794</ele>
        <time>2024-07-14T13:57:31Z</time>
      </trkpt>
      <trkpt lat="42.48358" lon="2.59164">
        <ele>793.6</ele>
        <time>2024-07-14T13:57:39Z</time>
      </trkpt>
      <trkpt lat="42.48358" lon="2.59164">
        <ele>793.2</ele>
        <time>2024-07-14T13:57:46Z</time>
      </trkpt>
      <trkpt lat="42.48353" lon="2.5917">
        <ele>793.8</ele>
        <time>2024-07-14T13:57:55Z</time>
      </trkpt>
      <trkpt lat="42.48345" lon="2.59182">
        <ele>793</ele>
        <time>2024-07-14T13:58:03Z</time>
      </trkpt>
      <trkpt lat="42.48339" lon="2.5919">
        <ele>791.4</ele>
        <time>2024-07-14T13:58:12Z</time>
      </trkpt>
      <trkpt lat="42.48332" lon="2.59202">
        <ele>790</ele>
        <time>2024-07-14T13:58:21Z</time>
      </trkpt>
      <trkpt lat="42.48322" lon="2.59211">
        <ele>790.2</ele>
        <time>2024-07-14T13:58:31Z</time>
      </trkpt>
      <trkpt lat="42.48309" lon="2.59218">
        <ele>791.4</ele>
        <time>2024-07-14T13:58:43Z</time>
      </trkpt>
      <trkpt lat="42.48302" lon="2.59224">
        <ele>790.8</ele>
        <time>2024-07-14T13:58:52Z</time>
      </trkpt>
      <trkpt lat="42.48293" lon="2.5923">
        <ele>787.2</ele>
        <time>2024-07-14T13:59:01Z</time>
      </trkpt>
      <trkpt lat="42.48284" lon="2.59239">
        <ele>784.8</ele>
        <time>2024-07-14T13:59:11Z</time>
      </trkpt>
      <trkpt lat="42.48275" lon="2.59254">
        <ele>784.4</ele>
        <time>2024-07-14T13:59:21Z</time>
      </trkpt>
      <trkpt lat="42.48269" lon="2.59266">
        <ele>786.4</ele>
        <time>2024-07-14T13:59:30Z</time>
      </trkpt>
      <trkpt lat="42.48265" lon="2.59275">
        <ele>786.6</ele>
        <time>2024-07-14T13:59:38Z</time>
      </trkpt>
      <trkpt lat="42.48262" lon="2.59291">
        <ele>785.8</ele>
        <time>2024-07-14T13:59:47Z</time>
      </trkpt>
      <trkpt lat="42.48259" lon="2.59307">
        <ele>783.6</ele>
        <time>2024-07-14T13:59:57Z</time>
      </trkpt>
      <trkpt lat="42.48258" lon="2.59309">
        <ele>783.6</ele>
        <time>2024-07-14T13:59:58Z</time>
      </trkpt>
      <trkpt lat="42.48256" lon="2.59316">
        <ele>784</ele>
        <time>2024-07-14T14:00:03Z</time>
      </trkpt>
      <trkpt lat="42.48252" lon="2.59334">
        <ele>786.2</ele>
        <time>2024-07-14T14:00:14Z</time>
      </trkpt>
      <trkpt lat="42.48247" lon="2.59354">
        <ele>783.4</ele>
        <time>2024-07-14T14:00:25Z</time>
      </trkpt>
      <trkpt lat="42.48241" lon="2.59367">
        <ele>777.6</ele>
        <time>2024-07-14T14:00:33Z</time>
      </trkpt>
      <trkpt lat="42.4823" lon="2.59378">
        <ele>774.6</ele>
        <time>2024-07-14T14:00:42Z</time>
      </trkpt>
      <trkpt lat="42.48221" lon="2.59386">
        <ele>773</ele>
        <time>2024-07-14T14:00:50Z</time>
      </trkpt>
      <trkpt lat="42.48213" lon="2.5939">
        <ele>771.6</ele>
        <time>2024-07-14T14:00:57Z</time>
      </trkpt>
      <trkpt lat="42.48199" lon="2.59397">
        <ele>770</ele>
        <time>2024-07-14T14:01:07Z</time>
      </trkpt>
      <trkpt lat="42.48193" lon="2.59398">
        <ele>770.2</ele>
        <time>2024-07-14T14:01:11Z</time>
      </trkpt>
      <trkpt lat="42.4819" lon="2.594">
        <ele>770.8</ele>
        <time>2024-07-14T14:01:14Z</time>
      </trkpt>
      <trkpt lat="42.4818" lon="2.59402">
        <ele>771.2</ele>
        <time>2024-07-14T14:01:21Z</time>
      </trkpt>
      <trkpt lat="42.48169" lon="2.59409">
        <ele>771.8</ele>
        <time>2024-07-14T14:01:29Z</time>
      </trkpt>
      <trkpt lat="42.48157" lon="2.59414">
        <ele>771.4</ele>
        <time>2024-07-14T14:01:38Z</time>
      </trkpt>
      <trkpt lat="42.48151" lon="2.59422">
        <ele>771</ele>
        <time>2024-07-14T14:01:45Z</time>
      </trkpt>
      <trkpt lat="42.48149" lon="2.59425">
        <ele>771.2</ele>
        <time>2024-07-14T14:01:47Z</time>
      </trkpt>
      <trkpt lat="42.48146" lon="2.59438">
        <ele>770.6</ele>
        <time>2024-07-14T14:01:55Z</time>
      </trkpt>
      <trkpt lat="42.48145" lon="2.5944">
        <ele>770.2</ele>
        <time>2024-07-14T14:01:57Z</time>
      </trkpt>
      <trkpt lat="42.48144" lon="2.59451">
        <ele>768.4</ele>
        <time>2024-07-14T14:02:03Z</time>
      </trkpt>
      <trkpt lat="42.4814" lon="2.59467">
        <ele>765.4</ele>
        <time>2024-07-14T14:02:13Z</time>
      </trkpt>
      <trkpt lat="42.48136" lon="2.59481">
        <ele>764.2</ele>
        <time>2024-07-14T14:02:22Z</time>
      </trkpt>
      <trkpt lat="42.48132" lon="2.59496">
        <ele>763.6</ele>
        <time>2024-07-14T14:02:31Z</time>
      </trkpt>
      <trkpt lat="42.48129" lon="2.59515">
        <ele>762.8</ele>
        <time>2024-07-14T14:02:41Z</time>
      </trkpt>
      <trkpt lat="42.48128" lon="2.59532">
        <ele>761</ele>
        <time>2024-07-14T14:02:50Z</time>
      </trkpt>
      <trkpt lat="42.48122" lon="2.59548">
        <ele>762.2</ele>
        <time>2024-07-14T14:02:59Z</time>
      </trkpt>
      <trkpt lat="42.48118" lon="2.59559">
        <ele>763.4</ele>
        <time>2024-07-14T14:03:07Z</time>
      </trkpt>
      <trkpt lat="42.48115" lon="2.5957">
        <ele>763.8</ele>
        <time>2024-07-14T14:03:14Z</time>
      </trkpt>
      <trkpt lat="42.4811" lon="2.5959">
        <ele>762.6</ele>
        <time>2024-07-14T14:03:25Z</time>
      </trkpt>
      <trkpt lat="42.481" lon="2.59602">
        <ele>760</ele>
        <time>2024-07-14T14:03:34Z</time>
      </trkpt>
      <trkpt lat="42.48098" lon="2.59608">
        <ele>759.8</ele>
        <time>2024-07-14T14:03:39Z</time>
      </trkpt>
      <trkpt lat="42.48097" lon="2.59612">
        <ele>760</ele>
        <time>2024-07-14T14:03:41Z</time>
      </trkpt>
      <trkpt lat="42.48093" lon="2.59627">
        <ele>760.4</ele>
        <time>2024-07-14T14:03:50Z</time>
      </trkpt>
      <trkpt lat="42.4809" lon="2.59642">
        <ele>761.4</ele>
        <time>2024-07-14T14:03:59Z</time>
      </trkpt>
      <trkpt lat="42.4809" lon="2.5966">
        <ele>760</ele>
        <time>2024-07-14T14:04:08Z</time>
      </trkpt>
      <trkpt lat="42.48089" lon="2.59673">
        <ele>758.6</ele>
        <time>2024-07-14T14:04:15Z</time>
      </trkpt>
      <trkpt lat="42.48089" lon="2.59692">
        <ele>758.8</ele>
        <time>2024-07-14T14:04:25Z</time>
      </trkpt>
      <trkpt lat="42.48087" lon="2.59706">
        <ele>757.4</ele>
        <time>2024-07-14T14:04:33Z</time>
      </trkpt>
      <trkpt lat="42.48082" lon="2.59718">
        <ele>756.2</ele>
        <time>2024-07-14T14:04:40Z</time>
      </trkpt>
      <trkpt lat="42.48081" lon="2.59719">
        <ele>756.2</ele>
        <time>2024-07-14T14:04:41Z</time>
      </trkpt>
      <trkpt lat="42.48078" lon="2.59729">
        <ele>756.2</ele>
        <time>2024-07-14T14:04:46Z</time>
      </trkpt>
      <trkpt lat="42.48075" lon="2.59747">
        <ele>754</ele>
        <time>2024-07-14T14:04:55Z</time>
      </trkpt>
      <trkpt lat="42.48073" lon="2.59765">
        <ele>750.2</ele>
        <time>2024-07-14T14:05:05Z</time>
      </trkpt>
      <trkpt lat="42.48072" lon="2.59783">
        <ele>749</ele>
        <time>2024-07-14T14:05:15Z</time>
      </trkpt>
      <trkpt lat="42.48074" lon="2.59801">
        <ele>747.6</ele>
        <time>2024-07-14T14:05:25Z</time>
      </trkpt>
      <trkpt lat="42.48073" lon="2.59813">
        <ele>745.8</ele>
        <time>2024-07-14T14:05:32Z</time>
      </trkpt>
      <trkpt lat="42.48073" lon="2.59816">
        <ele>745.8</ele>
        <time>2024-07-14T14:05:34Z</time>
      </trkpt>
      <trkpt lat="42.48072" lon="2.59831">
        <ele>745.6</ele>
        <time>2024-07-14T14:05:42Z</time>
      </trkpt>
      <trkpt lat="42.48068" lon="2.59846">
        <ele>746</ele>
        <time>2024-07-14T14:05:51Z</time>
      </trkpt>
      <trkpt lat="42.48055" lon="2.59856">
        <ele>747</ele>
        <time>2024-07-14T14:06:01Z</time>
      </trkpt>
      <trkpt lat="42.48041" lon="2.59864">
        <ele>745</ele>
        <time>2024-07-14T14:06:14Z</time>
      </trkpt>
      <trkpt lat="42.48036" lon="2.59869">
        <ele>743.4</ele>
        <time>2024-07-14T14:06:22Z</time>
      </trkpt>
      <trkpt lat="42.48036" lon="2.5987">
        <ele>741.6</ele>
        <time>2024-07-14T14:06:28Z</time>
      </trkpt>
      <trkpt lat="42.48031" lon="2.59875">
        <ele>740.8</ele>
        <time>2024-07-14T14:06:33Z</time>
      </trkpt>
      <trkpt lat="42.4802" lon="2.59883">
        <ele>740.2</ele>
        <time>2024-07-14T14:06:42Z</time>
      </trkpt>
      <trkpt lat="42.48006" lon="2.59889">
        <ele>740.8</ele>
        <time>2024-07-14T14:06:53Z</time>
      </trkpt>
      <trkpt lat="42.47994" lon="2.59897">
        <ele>741.4</ele>
        <time>2024-07-14T14:07:04Z</time>
      </trkpt>
      <trkpt lat="42.47985" lon="2.59909">
        <ele>741.6</ele>
        <time>2024-07-14T14:07:14Z</time>
      </trkpt>
      <trkpt lat="42.47976" lon="2.59918">
        <ele>742.8</ele>
        <time>2024-07-14T14:07:23Z</time>
      </trkpt>
      <trkpt lat="42.47973" lon="2.59921">
        <ele>742.6</ele>
        <time>2024-07-14T14:07:26Z</time>
      </trkpt>
      <trkpt lat="42.47967" lon="2.59925">
        <ele>742.4</ele>
        <time>2024-07-14T14:07:31Z</time>
      </trkpt>
      <trkpt lat="42.47962" lon="2.59933">
        <ele>744</ele>
        <time>2024-07-14T14:07:40Z</time>
      </trkpt>
      <trkpt lat="42.47963" lon="2.59933">
        <ele>746.6</ele>
        <time>2024-07-14T14:07:55Z</time>
      </trkpt>
      <trkpt lat="42.47962" lon="2.59933">
        <ele>748.6</ele>
        <time>2024-07-14T14:08:37Z</time>
      </trkpt>
      <trkpt lat="42.47959" lon="2.5994">
        <ele>748.8</ele>
        <time>2024-07-14T14:08:52Z</time>
      </trkpt>
      <trkpt lat="42.4795" lon="2.5995">
        <ele>747.4</ele>
        <time>2024-07-14T14:08:59Z</time>
      </trkpt>
      <trkpt lat="42.47941" lon="2.59957">
        <ele>745.8</ele>
        <time>2024-07-14T14:09:07Z</time>
      </trkpt>
      <trkpt lat="42.47929" lon="2.59965">
        <ele>743.8</ele>
        <time>2024-07-14T14:09:17Z</time>
      </trkpt>
      <trkpt lat="42.47918" lon="2.59973">
        <ele>744</ele>
        <time>2024-07-14T14:09:27Z</time>
      </trkpt>
      <trkpt lat="42.47908" lon="2.59981">
        <ele>744</ele>
        <time>2024-07-14T14:09:37Z</time>
      </trkpt>
      <trkpt lat="42.47905" lon="2.59983">
        <ele>744</ele>
        <time>2024-07-14T14:09:41Z</time>
      </trkpt>
      <trkpt lat="42.47902" lon="2.59987">
        <ele>743.6</ele>
        <time>2024-07-14T14:09:44Z</time>
      </trkpt>
      <trkpt lat="42.47893" lon="2.59996">
        <ele>741.6</ele>
        <time>2024-07-14T14:09:54Z</time>
      </trkpt>
      <trkpt lat="42.47887" lon="2.60002">
        <ele>742</ele>
        <time>2024-07-14T14:10:02Z</time>
      </trkpt>
      <trkpt lat="42.47881" lon="2.60011">
        <ele>744</ele>
        <time>2024-07-14T14:10:11Z</time>
      </trkpt>
      <trkpt lat="42.47879" lon="2.60013">
        <ele>746.6</ele>
        <time>2024-07-14T14:10:17Z</time>
      </trkpt>
      <trkpt lat="42.47877" lon="2.60018">
        <ele>746.2</ele>
        <time>2024-07-14T14:10:26Z</time>
      </trkpt>
      <trkpt lat="42.47872" lon="2.60026">
        <ele>746.8</ele>
        <time>2024-07-14T14:10:34Z</time>
      </trkpt>
      <trkpt lat="42.47866" lon="2.60036">
        <ele>748.8</ele>
        <time>2024-07-14T14:10:44Z</time>
      </trkpt>
      <trkpt lat="42.47859" lon="2.6005">
        <ele>749.6</ele>
        <time>2024-07-14T14:10:55Z</time>
      </trkpt>
      <trkpt lat="42.47848" lon="2.60063">
        <ele>749.4</ele>
        <time>2024-07-14T14:11:07Z</time>
      </trkpt>
      <trkpt lat="42.4784" lon="2.6007">
        <ele>749.4</ele>
        <time>2024-07-14T14:11:17Z</time>
      </trkpt>
      <trkpt lat="42.47835" lon="2.60074">
        <ele>747.2</ele>
        <time>2024-07-14T14:11:25Z</time>
      </trkpt>
      <trkpt lat="42.47834" lon="2.60077">
        <ele>745.8</ele>
        <time>2024-07-14T14:11:32Z</time>
      </trkpt>
      <trkpt lat="42.47831" lon="2.60082">
        <ele>743.2</ele>
        <time>2024-07-14T14:11:38Z</time>
      </trkpt>
      <trkpt lat="42.47828" lon="2.60087">
        <ele>742</ele>
        <time>2024-07-14T14:11:45Z</time>
      </trkpt>
      <trkpt lat="42.47824" lon="2.60097">
        <ele>742.6</ele>
        <time>2024-07-14T14:11:54Z</time>
      </trkpt>
      <trkpt lat="42.47821" lon="2.60107">
        <ele>742.4</ele>
        <time>2024-07-14T14:12:04Z</time>
      </trkpt>
      <trkpt lat="42.47817" lon="2.60116">
        <ele>739.6</ele>
        <time>2024-07-14T14:12:12Z</time>
      </trkpt>
      <trkpt lat="42.47815" lon="2.60131">
        <ele>738.2</ele>
        <time>2024-07-14T14:12:20Z</time>
      </trkpt>
      <trkpt lat="42.47812" lon="2.60149">
        <ele>739</ele>
        <time>2024-07-14T14:12:33Z</time>
      </trkpt>
      <trkpt lat="42.47812" lon="2.60157">
        <ele>738</ele>
        <time>2024-07-14T14:12:41Z</time>
      </trkpt>
      <trkpt lat="42.4781" lon="2.60167">
        <ele>736.4</ele>
        <time>2024-07-14T14:12:49Z</time>
      </trkpt>
      <trkpt lat="42.4781" lon="2.60172">
        <ele>736</ele>
        <time>2024-07-14T14:12:52Z</time>
      </trkpt>
      <trkpt lat="42.4781" lon="2.60186">
        <ele>736.6</ele>
        <time>2024-07-14T14:13:01Z</time>
      </trkpt>
      <trkpt lat="42.47808" lon="2.60193">
        <ele>737.2</ele>
        <time>2024-07-14T14:13:07Z</time>
      </trkpt>
      <trkpt lat="42.47807" lon="2.60202">
        <ele>737</ele>
        <time>2024-07-14T14:13:14Z</time>
      </trkpt>
      <trkpt lat="42.47807" lon="2.60204">
        <ele>737</ele>
        <time>2024-07-14T14:13:15Z</time>
      </trkpt>
      <trkpt lat="42.47808" lon="2.60219">
        <ele>737.2</ele>
        <time>2024-07-14T14:13:23Z</time>
      </trkpt>
      <trkpt lat="42.47804" lon="2.60232">
        <ele>734.6</ele>
        <time>2024-07-14T14:13:31Z</time>
      </trkpt>
      <trkpt lat="42.47801" lon="2.60242">
        <ele>732.6</ele>
        <time>2024-07-14T14:13:39Z</time>
      </trkpt>
      <trkpt lat="42.47798" lon="2.60252">
        <ele>731.2</ele>
        <time>2024-07-14T14:13:45Z</time>
      </trkpt>
      <trkpt lat="42.4779" lon="2.60262">
        <ele>730</ele>
        <time>2024-07-14T14:13:52Z</time>
      </trkpt>
      <trkpt lat="42.47789" lon="2.60262">
        <ele>730</ele>
        <time>2024-07-14T14:14:00Z</time>
      </trkpt>
      <trkpt lat="42.47788" lon="2.60261">
        <ele>728.8</ele>
        <time>2024-07-14T14:14:07Z</time>
      </trkpt>
      <trkpt lat="42.47789" lon="2.60261">
        <ele>729.2</ele>
        <time>2024-07-14T14:14:16Z</time>
      </trkpt>
      <trkpt lat="42.47781" lon="2.60266">
        <ele>738.8</ele>
        <time>2024-07-14T14:19:19Z</time>
      </trkpt>
      <trkpt lat="42.47775" lon="2.60274">
        <ele>736</ele>
        <time>2024-07-14T14:19:26Z</time>
      </trkpt>
      <trkpt lat="42.47774" lon="2.60283">
        <ele>731.2</ele>
        <time>2024-07-14T14:19:33Z</time>
      </trkpt>
      <trkpt lat="42.4777" lon="2.60291">
        <ele>728.8</ele>
        <time>2024-07-14T14:19:40Z</time>
      </trkpt>
      <trkpt lat="42.4777" lon="2.60294">
        <ele>728.6</ele>
        <time>2024-07-14T14:19:42Z</time>
      </trkpt>
      <trkpt lat="42.47771" lon="2.60298">
        <ele>728.2</ele>
        <time>2024-07-14T14:19:44Z</time>
      </trkpt>
      <trkpt lat="42.4777" lon="2.60301">
        <ele>727.4</ele>
        <time>2024-07-14T14:19:46Z</time>
      </trkpt>
      <trkpt lat="42.4777" lon="2.60302">
        <ele>727.2</ele>
        <time>2024-07-14T14:19:47Z</time>
      </trkpt>
      <trkpt lat="42.47767" lon="2.60315">
        <ele>726.4</ele>
        <time>2024-07-14T14:19:56Z</time>
      </trkpt>
      <trkpt lat="42.47765" lon="2.60323">
        <ele>725.4</ele>
        <time>2024-07-14T14:20:03Z</time>
      </trkpt>
      <trkpt lat="42.4776" lon="2.60331">
        <ele>724</ele>
        <time>2024-07-14T14:20:11Z</time>
      </trkpt>
      <trkpt lat="42.47756" lon="2.60345">
        <ele>721.2</ele>
        <time>2024-07-14T14:20:20Z</time>
      </trkpt>
      <trkpt lat="42.47755" lon="2.60362">
        <ele>719.4</ele>
        <time>2024-07-14T14:20:29Z</time>
      </trkpt>
      <trkpt lat="42.47754" lon="2.60369">
        <ele>717.6</ele>
        <time>2024-07-14T14:20:36Z</time>
      </trkpt>
      <trkpt lat="42.47753" lon="2.60377">
        <ele>716.2</ele>
        <time>2024-07-14T14:20:42Z</time>
      </trkpt>
      <trkpt lat="42.47752" lon="2.60382">
        <ele>716</ele>
        <time>2024-07-14T14:20:45Z</time>
      </trkpt>
      <trkpt lat="42.47752" lon="2.6039">
        <ele>716.2</ele>
        <time>2024-07-14T14:20:49Z</time>
      </trkpt>
      <trkpt lat="42.47751" lon="2.604">
        <ele>716</ele>
        <time>2024-07-14T14:20:56Z</time>
      </trkpt>
      <trkpt lat="42.4775" lon="2.60403">
        <ele>715.6</ele>
        <time>2024-07-14T14:20:58Z</time>
      </trkpt>
      <trkpt lat="42.47748" lon="2.60416">
        <ele>714</ele>
        <time>2024-07-14T14:21:06Z</time>
      </trkpt>
      <trkpt lat="42.47746" lon="2.60429">
        <ele>713.2</ele>
        <time>2024-07-14T14:21:14Z</time>
      </trkpt>
      <trkpt lat="42.47741" lon="2.6044">
        <ele>713</ele>
        <time>2024-07-14T14:21:21Z</time>
      </trkpt>
      <trkpt lat="42.47739" lon="2.60443">
        <ele>712.6</ele>
        <time>2024-07-14T14:21:25Z</time>
      </trkpt>
      <trkpt lat="42.47736" lon="2.60445">
        <ele>711.6</ele>
        <time>2024-07-14T14:21:28Z</time>
      </trkpt>
      <trkpt lat="42.4773" lon="2.60453">
        <ele>710.2</ele>
        <time>2024-07-14T14:21:36Z</time>
      </trkpt>
      <trkpt lat="42.47729" lon="2.60454">
        <ele>710</ele>
        <time>2024-07-14T14:21:37Z</time>
      </trkpt>
      <trkpt lat="42.47725" lon="2.60458">
        <ele>710.2</ele>
        <time>2024-07-14T14:21:41Z</time>
      </trkpt>
      <trkpt lat="42.47725" lon="2.6046">
        <ele>710.4</ele>
        <time>2024-07-14T14:21:42Z</time>
      </trkpt>
      <trkpt lat="42.47721" lon="2.60468">
        <ele>711.4</ele>
        <time>2024-07-14T14:21:47Z</time>
      </trkpt>
      <trkpt lat="42.4772" lon="2.60469">
        <ele>711.2</ele>
        <time>2024-07-14T14:21:48Z</time>
      </trkpt>
      <trkpt lat="42.47719" lon="2.60469">
        <ele>711</ele>
        <time>2024-07-14T14:21:50Z</time>
      </trkpt>
      <trkpt lat="42.47717" lon="2.60474">
        <ele>710.2</ele>
        <time>2024-07-14T14:21:54Z</time>
      </trkpt>
      <trkpt lat="42.4771" lon="2.60482">
        <ele>707</ele>
        <time>2024-07-14T14:22:02Z</time>
      </trkpt>
      <trkpt lat="42.47708" lon="2.60482">
        <ele>706.8</ele>
        <time>2024-07-14T14:22:04Z</time>
      </trkpt>
      <trkpt lat="42.47703" lon="2.60484">
        <ele>706.2</ele>
        <time>2024-07-14T14:22:09Z</time>
      </trkpt>
      <trkpt lat="42.47698" lon="2.60491">
        <ele>705</ele>
        <time>2024-07-14T14:22:18Z</time>
      </trkpt>
      <trkpt lat="42.47697" lon="2.60495">
        <ele>704.4</ele>
        <time>2024-07-14T14:22:21Z</time>
      </trkpt>
      <trkpt lat="42.47698" lon="2.605">
        <ele>704</ele>
        <time>2024-07-14T14:22:24Z</time>
      </trkpt>
      <trkpt lat="42.47698" lon="2.60505">
        <ele>703</ele>
        <time>2024-07-14T14:22:29Z</time>
      </trkpt>
      <trkpt lat="42.47696" lon="2.60505">
        <ele>702.2</ele>
        <time>2024-07-14T14:22:31Z</time>
      </trkpt>
      <trkpt lat="42.47693" lon="2.60509">
        <ele>700.4</ele>
        <time>2024-07-14T14:22:36Z</time>
      </trkpt>
      <trkpt lat="42.47693" lon="2.60511">
        <ele>700</ele>
        <time>2024-07-14T14:22:37Z</time>
      </trkpt>
      <trkpt lat="42.4769" lon="2.60517">
        <ele>698.6</ele>
        <time>2024-07-14T14:22:41Z</time>
      </trkpt>
      <trkpt lat="42.47688" lon="2.60525">
        <ele>696.6</ele>
        <time>2024-07-14T14:22:48Z</time>
      </trkpt>
      <trkpt lat="42.47687" lon="2.60528">
        <ele>695.8</ele>
        <time>2024-07-14T14:22:50Z</time>
      </trkpt>
      <trkpt lat="42.47685" lon="2.60536">
        <ele>693</ele>
        <time>2024-07-14T14:22:56Z</time>
      </trkpt>
      <trkpt lat="42.47682" lon="2.60538">
        <ele>691.4</ele>
        <time>2024-07-14T14:22:59Z</time>
      </trkpt>
      <trkpt lat="42.47681" lon="2.60539">
        <ele>690.2</ele>
        <time>2024-07-14T14:23:02Z</time>
      </trkpt>
      <trkpt lat="42.47683" lon="2.60542">
        <ele>687.6</ele>
        <time>2024-07-14T14:23:08Z</time>
      </trkpt>
      <trkpt lat="42.47686" lon="2.60548">
        <ele>684.6</ele>
        <time>2024-07-14T14:23:15Z</time>
      </trkpt>
      <trkpt lat="42.47687" lon="2.60549">
        <ele>684.2</ele>
        <time>2024-07-14T14:23:16Z</time>
      </trkpt>
      <trkpt lat="42.47687" lon="2.60553">
        <ele>683.4</ele>
        <time>2024-07-14T14:23:19Z</time>
      </trkpt>
      <trkpt lat="42.47687" lon="2.60558">
        <ele>683</ele>
        <time>2024-07-14T14:23:22Z</time>
      </trkpt>
      <trkpt lat="42.47687" lon="2.60565">
        <ele>681.4</ele>
        <time>2024-07-14T14:23:30Z</time>
      </trkpt>
      <trkpt lat="42.47686" lon="2.6057">
        <ele>679.6</ele>
        <time>2024-07-14T14:23:37Z</time>
      </trkpt>
      <trkpt lat="42.47685" lon="2.60579">
        <ele>678</ele>
        <time>2024-07-14T14:23:46Z</time>
      </trkpt>
      <trkpt lat="42.47678" lon="2.60582">
        <ele>677.8</ele>
        <time>2024-07-14T14:23:52Z</time>
      </trkpt>
      <trkpt lat="42.47677" lon="2.60584">
        <ele>677.6</ele>
        <time>2024-07-14T14:23:58Z</time>
      </trkpt>
      <trkpt lat="42.47676" lon="2.60588">
        <ele>677.2</ele>
        <time>2024-07-14T14:24:01Z</time>
      </trkpt>
      <trkpt lat="42.47674" lon="2.60591">
        <ele>676.8</ele>
        <time>2024-07-14T14:24:05Z</time>
      </trkpt>
      <trkpt lat="42.47671" lon="2.60593">
        <ele>675.8</ele>
        <time>2024-07-14T14:24:08Z</time>
      </trkpt>
      <trkpt lat="42.47669" lon="2.60596">
        <ele>675</ele>
        <time>2024-07-14T14:24:12Z</time>
      </trkpt>
      <trkpt lat="42.47667" lon="2.60599">
        <ele>674.8</ele>
        <time>2024-07-14T14:24:14Z</time>
      </trkpt>
      <trkpt lat="42.47663" lon="2.60602">
        <ele>674.2</ele>
        <time>2024-07-14T14:24:20Z</time>
      </trkpt>
      <trkpt lat="42.47661" lon="2.60605">
        <ele>673.6</ele>
        <time>2024-07-14T14:24:23Z</time>
      </trkpt>
      <trkpt lat="42.47658" lon="2.60609">
        <ele>672.8</ele>
        <time>2024-07-14T14:24:27Z</time>
      </trkpt>
      <trkpt lat="42.47656" lon="2.60615">
        <ele>672</ele>
        <time>2024-07-14T14:24:34Z</time>
      </trkpt>
      <trkpt lat="42.47651" lon="2.60618">
        <ele>670</ele>
        <time>2024-07-14T14:24:41Z</time>
      </trkpt>
      <trkpt lat="42.47648" lon="2.60619">
        <ele>669.4</ele>
        <time>2024-07-14T14:24:43Z</time>
      </trkpt>
      <trkpt lat="42.47643" lon="2.60616">
        <ele>668.2</ele>
        <time>2024-07-14T14:24:48Z</time>
      </trkpt>
      <trkpt lat="42.4764" lon="2.60616">
        <ele>667.4</ele>
        <time>2024-07-14T14:24:51Z</time>
      </trkpt>
      <trkpt lat="42.47639" lon="2.60617">
        <ele>667.2</ele>
        <time>2024-07-14T14:24:53Z</time>
      </trkpt>
      <trkpt lat="42.47639" lon="2.60618">
        <ele>667</ele>
        <time>2024-07-14T14:24:54Z</time>
      </trkpt>
      <trkpt lat="42.47637" lon="2.60627">
        <ele>665.2</ele>
        <time>2024-07-14T14:25:03Z</time>
      </trkpt>
      <trkpt lat="42.47634" lon="2.60632">
        <ele>663.6</ele>
        <time>2024-07-14T14:25:09Z</time>
      </trkpt>
      <trkpt lat="42.47632" lon="2.60633">
        <ele>663.2</ele>
        <time>2024-07-14T14:25:11Z</time>
      </trkpt>
      <trkpt lat="42.47629" lon="2.60638">
        <ele>662.6</ele>
        <time>2024-07-14T14:25:16Z</time>
      </trkpt>
      <trkpt lat="42.47628" lon="2.6064">
        <ele>662.4</ele>
        <time>2024-07-14T14:25:18Z</time>
      </trkpt>
      <trkpt lat="42.47628" lon="2.60641">
        <ele>662.2</ele>
        <time>2024-07-14T14:25:19Z</time>
      </trkpt>
      <trkpt lat="42.47625" lon="2.60645">
        <ele>661</ele>
        <time>2024-07-14T14:25:25Z</time>
      </trkpt>
      <trkpt lat="42.4762" lon="2.6065">
        <ele>657.6</ele>
        <time>2024-07-14T14:25:32Z</time>
      </trkpt>
      <trkpt lat="42.47613" lon="2.60653">
        <ele>655.2</ele>
        <time>2024-07-14T14:25:38Z</time>
      </trkpt>
      <trkpt lat="42.47612" lon="2.60654">
        <ele>655</ele>
        <time>2024-07-14T14:25:39Z</time>
      </trkpt>
      <trkpt lat="42.47606" lon="2.60661">
        <ele>655</ele>
        <time>2024-07-14T14:25:47Z</time>
      </trkpt>
      <trkpt lat="42.47605" lon="2.60662">
        <ele>655</ele>
        <time>2024-07-14T14:25:49Z</time>
      </trkpt>
      <trkpt lat="42.47603" lon="2.60664">
        <ele>654.4</ele>
        <time>2024-07-14T14:25:52Z</time>
      </trkpt>
      <trkpt lat="42.47602" lon="2.60664">
        <ele>654.2</ele>
        <time>2024-07-14T14:25:53Z</time>
      </trkpt>
      <trkpt lat="42.47598" lon="2.60668">
        <ele>653.4</ele>
        <time>2024-07-14T14:25:59Z</time>
      </trkpt>
      <trkpt lat="42.47597" lon="2.60669">
        <ele>653</ele>
        <time>2024-07-14T14:26:01Z</time>
      </trkpt>
      <trkpt lat="42.4759" lon="2.60671">
        <ele>652.6</ele>
        <time>2024-07-14T14:26:08Z</time>
      </trkpt>
      <trkpt lat="42.47589" lon="2.60672">
        <ele>652.6</ele>
        <time>2024-07-14T14:26:09Z</time>
      </trkpt>
      <trkpt lat="42.47585" lon="2.60674">
        <ele>652.6</ele>
        <time>2024-07-14T14:26:13Z</time>
      </trkpt>
      <trkpt lat="42.47577" lon="2.6068">
        <ele>650.4</ele>
        <time>2024-07-14T14:26:21Z</time>
      </trkpt>
      <trkpt lat="42.47572" lon="2.6069">
        <ele>648.6</ele>
        <time>2024-07-14T14:26:28Z</time>
      </trkpt>
      <trkpt lat="42.47569" lon="2.60694">
        <ele>648.4</ele>
        <time>2024-07-14T14:26:31Z</time>
      </trkpt>
      <trkpt lat="42.47568" lon="2.60701">
        <ele>648.4</ele>
        <time>2024-07-14T14:26:35Z</time>
      </trkpt>
      <trkpt lat="42.47563" lon="2.60713">
        <ele>647.2</ele>
        <time>2024-07-14T14:26:43Z</time>
      </trkpt>
      <trkpt lat="42.4756" lon="2.60719">
        <ele>646</ele>
        <time>2024-07-14T14:26:48Z</time>
      </trkpt>
      <trkpt lat="42.47558" lon="2.60721">
        <ele>645.6</ele>
        <time>2024-07-14T14:26:50Z</time>
      </trkpt>
      <trkpt lat="42.47555" lon="2.60728">
        <ele>645.8</ele>
        <time>2024-07-14T14:26:54Z</time>
      </trkpt>
      <trkpt lat="42.47555" lon="2.60731">
        <ele>646</ele>
        <time>2024-07-14T14:26:56Z</time>
      </trkpt>
      <trkpt lat="42.47552" lon="2.60744">
        <ele>645.2</ele>
        <time>2024-07-14T14:27:04Z</time>
      </trkpt>
      <trkpt lat="42.47551" lon="2.60752">
        <ele>644.6</ele>
        <time>2024-07-14T14:27:10Z</time>
      </trkpt>
      <trkpt lat="42.4755" lon="2.60753">
        <ele>644.6</ele>
        <time>2024-07-14T14:27:11Z</time>
      </trkpt>
      <trkpt lat="42.47549" lon="2.60765">
        <ele>645</ele>
        <time>2024-07-14T14:27:20Z</time>
      </trkpt>
      <trkpt lat="42.47549" lon="2.60775">
        <ele>647</ele>
        <time>2024-07-14T14:27:28Z</time>
      </trkpt>
      <trkpt lat="42.47549" lon="2.60786">
        <ele>647.6</ele>
        <time>2024-07-14T14:27:35Z</time>
      </trkpt>
      <trkpt lat="42.47548" lon="2.6079">
        <ele>647.2</ele>
        <time>2024-07-14T14:27:38Z</time>
      </trkpt>
      <trkpt lat="42.47547" lon="2.60794">
        <ele>646.8</ele>
        <time>2024-07-14T14:27:42Z</time>
      </trkpt>
      <trkpt lat="42.47546" lon="2.60803">
        <ele>645.4</ele>
        <time>2024-07-14T14:27:49Z</time>
      </trkpt>
      <trkpt lat="42.47543" lon="2.60812">
        <ele>643.4</ele>
        <time>2024-07-14T14:27:57Z</time>
      </trkpt>
      <trkpt lat="42.47536" lon="2.60821">
        <ele>640</ele>
        <time>2024-07-14T14:28:06Z</time>
      </trkpt>
      <trkpt lat="42.47529" lon="2.60829">
        <ele>640.4</ele>
        <time>2024-07-14T14:28:12Z</time>
      </trkpt>
      <trkpt lat="42.47528" lon="2.60829">
        <ele>640.8</ele>
        <time>2024-07-14T14:28:13Z</time>
      </trkpt>
      <trkpt lat="42.47524" lon="2.60833">
        <ele>642.8</ele>
        <time>2024-07-14T14:28:18Z</time>
      </trkpt>
      <trkpt lat="42.47522" lon="2.60835">
        <ele>643.2</ele>
        <time>2024-07-14T14:28:21Z</time>
      </trkpt>
      <trkpt lat="42.47516" lon="2.60839">
        <ele>642</ele>
        <time>2024-07-14T14:28:28Z</time>
      </trkpt>
      <trkpt lat="42.4751" lon="2.60843">
        <ele>640.2</ele>
        <time>2024-07-14T14:28:35Z</time>
      </trkpt>
      <trkpt lat="42.47504" lon="2.60845">
        <ele>640</ele>
        <time>2024-07-14T14:28:42Z</time>
      </trkpt>
      <trkpt lat="42.47501" lon="2.60848">
        <ele>639.2</ele>
        <time>2024-07-14T14:28:47Z</time>
      </trkpt>
      <trkpt lat="42.47493" lon="2.6085">
        <ele>636</ele>
        <time>2024-07-14T14:28:55Z</time>
      </trkpt>
      <trkpt lat="42.47483" lon="2.60855">
        <ele>632</ele>
        <time>2024-07-14T14:29:05Z</time>
      </trkpt>
      <trkpt lat="42.47477" lon="2.60861">
        <ele>631.6</ele>
        <time>2024-07-14T14:29:13Z</time>
      </trkpt>
      <trkpt lat="42.47471" lon="2.60869">
        <ele>630.2</ele>
        <time>2024-07-14T14:29:21Z</time>
      </trkpt>
      <trkpt lat="42.47462" lon="2.60875">
        <ele>630.6</ele>
        <time>2024-07-14T14:29:30Z</time>
      </trkpt>
      <trkpt lat="42.47458" lon="2.60879">
        <ele>629</ele>
        <time>2024-07-14T14:29:36Z</time>
      </trkpt>
      <trkpt lat="42.4745" lon="2.60886">
        <ele>627.8</ele>
        <time>2024-07-14T14:29:44Z</time>
      </trkpt>
      <trkpt lat="42.47444" lon="2.60893">
        <ele>627.4</ele>
        <time>2024-07-14T14:29:52Z</time>
      </trkpt>
      <trkpt lat="42.4744" lon="2.60899">
        <ele>625.6</ele>
        <time>2024-07-14T14:29:59Z</time>
      </trkpt>
      <trkpt lat="42.47437" lon="2.6091">
        <ele>623</ele>
        <time>2024-07-14T14:30:06Z</time>
      </trkpt>
      <trkpt lat="42.47437" lon="2.6091">
        <ele>622.6</ele>
        <time>2024-07-14T14:30:07Z</time>
      </trkpt>
      <trkpt lat="42.47437" lon="2.60912">
        <ele>622.4</ele>
        <time>2024-07-14T14:30:08Z</time>
      </trkpt>
      <trkpt lat="42.47434" lon="2.60921">
        <ele>621.6</ele>
        <time>2024-07-14T14:30:15Z</time>
      </trkpt>
      <trkpt lat="42.47434" lon="2.60922">
        <ele>621.6</ele>
        <time>2024-07-14T14:30:16Z</time>
      </trkpt>
      <trkpt lat="42.47433" lon="2.60927">
        <ele>621.6</ele>
        <time>2024-07-14T14:30:18Z</time>
      </trkpt>
      <trkpt lat="42.47432" lon="2.60932">
        <ele>621.2</ele>
        <time>2024-07-14T14:30:20Z</time>
      </trkpt>
      <trkpt lat="42.47431" lon="2.60933">
        <ele>620.6</ele>
        <time>2024-07-14T14:30:21Z</time>
      </trkpt>
      <trkpt lat="42.47423" lon="2.60949">
        <ele>619.8</ele>
        <time>2024-07-14T14:30:32Z</time>
      </trkpt>
      <trkpt lat="42.47418" lon="2.60957">
        <ele>619.8</ele>
        <time>2024-07-14T14:30:40Z</time>
      </trkpt>
      <trkpt lat="42.47413" lon="2.60963">
        <ele>619.4</ele>
        <time>2024-07-14T14:30:47Z</time>
      </trkpt>
      <trkpt lat="42.47407" lon="2.60972">
        <ele>618.8</ele>
        <time>2024-07-14T14:30:54Z</time>
      </trkpt>
      <trkpt lat="42.474" lon="2.6099">
        <ele>618.2</ele>
        <time>2024-07-14T14:31:06Z</time>
      </trkpt>
      <trkpt lat="42.47391" lon="2.61004">
        <ele>617.4</ele>
        <time>2024-07-14T14:31:18Z</time>
      </trkpt>
      <trkpt lat="42.47382" lon="2.61016">
        <ele>618.4</ele>
        <time>2024-07-14T14:31:29Z</time>
      </trkpt>
      <trkpt lat="42.47382" lon="2.61018">
        <ele>618.2</ele>
        <time>2024-07-14T14:31:31Z</time>
      </trkpt>
      <trkpt lat="42.47381" lon="2.61023">
        <ele>617.8</ele>
        <time>2024-07-14T14:31:35Z</time>
      </trkpt>
      <trkpt lat="42.47377" lon="2.61033">
        <ele>616.8</ele>
        <time>2024-07-14T14:31:44Z</time>
      </trkpt>
      <trkpt lat="42.47374" lon="2.61037">
        <ele>616</ele>
        <time>2024-07-14T14:31:51Z</time>
      </trkpt>
      <trkpt lat="42.47364" lon="2.61044">
        <ele>616.4</ele>
        <time>2024-07-14T14:32:01Z</time>
      </trkpt>
      <trkpt lat="42.47362" lon="2.61051">
        <ele>616.2</ele>
        <time>2024-07-14T14:32:07Z</time>
      </trkpt>
      <trkpt lat="42.4736" lon="2.61058">
        <ele>613.4</ele>
        <time>2024-07-14T14:32:14Z</time>
      </trkpt>
      <trkpt lat="42.47359" lon="2.61065">
        <ele>610.4</ele>
        <time>2024-07-14T14:32:22Z</time>
      </trkpt>
      <trkpt lat="42.47359" lon="2.61072">
        <ele>608</ele>
        <time>2024-07-14T14:32:29Z</time>
      </trkpt>
      <trkpt lat="42.47356" lon="2.61084">
        <ele>606</ele>
        <time>2024-07-14T14:32:37Z</time>
      </trkpt>
      <trkpt lat="42.47352" lon="2.6109">
        <ele>606.2</ele>
        <time>2024-07-14T14:32:43Z</time>
      </trkpt>
      <trkpt lat="42.4735" lon="2.61092">
        <ele>606</ele>
        <time>2024-07-14T14:32:45Z</time>
      </trkpt>
      <trkpt lat="42.47344" lon="2.611">
        <ele>604</ele>
        <time>2024-07-14T14:32:52Z</time>
      </trkpt>
      <trkpt lat="42.4734" lon="2.61112">
        <ele>599.8</ele>
        <time>2024-07-14T14:33:00Z</time>
      </trkpt>
      <trkpt lat="42.47336" lon="2.6112">
        <ele>597.6</ele>
        <time>2024-07-14T14:33:08Z</time>
      </trkpt>
      <trkpt lat="42.47331" lon="2.61125">
        <ele>596.6</ele>
        <time>2024-07-14T14:33:15Z</time>
      </trkpt>
      <trkpt lat="42.47326" lon="2.61135">
        <ele>595.2</ele>
        <time>2024-07-14T14:33:23Z</time>
      </trkpt>
      <trkpt lat="42.47321" lon="2.61141">
        <ele>595.2</ele>
        <time>2024-07-14T14:33:31Z</time>
      </trkpt>
      <trkpt lat="42.47316" lon="2.61154">
        <ele>593.6</ele>
        <time>2024-07-14T14:33:41Z</time>
      </trkpt>
      <trkpt lat="42.47307" lon="2.61169">
        <ele>593.6</ele>
        <time>2024-07-14T14:33:51Z</time>
      </trkpt>
      <trkpt lat="42.47298" lon="2.61178">
        <ele>594.6</ele>
        <time>2024-07-14T14:34:00Z</time>
      </trkpt>
      <trkpt lat="42.47292" lon="2.61184">
        <ele>594.8</ele>
        <time>2024-07-14T14:34:06Z</time>
      </trkpt>
      <trkpt lat="42.47291" lon="2.61187">
        <ele>594.8</ele>
        <time>2024-07-14T14:34:09Z</time>
      </trkpt>
      <trkpt lat="42.47284" lon="2.61192">
        <ele>594.4</ele>
        <time>2024-07-14T14:34:17Z</time>
      </trkpt>
      <trkpt lat="42.47283" lon="2.61192">
        <ele>594.4</ele>
        <time>2024-07-14T14:34:18Z</time>
      </trkpt>
      <trkpt lat="42.47278" lon="2.61192">
        <ele>594.4</ele>
        <time>2024-07-14T14:34:23Z</time>
      </trkpt>
      <trkpt lat="42.47274" lon="2.61199">
        <ele>594</ele>
        <time>2024-07-14T14:34:30Z</time>
      </trkpt>
      <trkpt lat="42.47271" lon="2.61205">
        <ele>592.8</ele>
        <time>2024-07-14T14:34:38Z</time>
      </trkpt>
      <trkpt lat="42.47271" lon="2.61207">
        <ele>592.6</ele>
        <time>2024-07-14T14:34:40Z</time>
      </trkpt>
      <trkpt lat="42.47269" lon="2.61212">
        <ele>592.2</ele>
        <time>2024-07-14T14:34:44Z</time>
      </trkpt>
      <trkpt lat="42.47269" lon="2.61213">
        <ele>592</ele>
        <time>2024-07-14T14:34:45Z</time>
      </trkpt>
      <trkpt lat="42.47266" lon="2.61224">
        <ele>590</ele>
        <time>2024-07-14T14:34:54Z</time>
      </trkpt>
      <trkpt lat="42.47262" lon="2.61231">
        <ele>587.2</ele>
        <time>2024-07-14T14:35:02Z</time>
      </trkpt>
      <trkpt lat="42.47256" lon="2.61237">
        <ele>587</ele>
        <time>2024-07-14T14:35:10Z</time>
      </trkpt>
      <trkpt lat="42.47253" lon="2.61245">
        <ele>585.8</ele>
        <time>2024-07-14T14:35:16Z</time>
      </trkpt>
      <trkpt lat="42.47243" lon="2.6125">
        <ele>584</ele>
        <time>2024-07-14T14:35:25Z</time>
      </trkpt>
      <trkpt lat="42.47232" lon="2.6126">
        <ele>585.2</ele>
        <time>2024-07-14T14:35:35Z</time>
      </trkpt>
      <trkpt lat="42.47223" lon="2.61262">
        <ele>585.2</ele>
        <time>2024-07-14T14:35:43Z</time>
      </trkpt>
      <trkpt lat="42.47222" lon="2.61263">
        <ele>585.2</ele>
        <time>2024-07-14T14:35:44Z</time>
      </trkpt>
      <trkpt lat="42.47216" lon="2.6126">
        <ele>585.4</ele>
        <time>2024-07-14T14:35:50Z</time>
      </trkpt>
      <trkpt lat="42.47206" lon="2.61263">
        <ele>585.2</ele>
        <time>2024-07-14T14:35:59Z</time>
      </trkpt>
      <trkpt lat="42.47196" lon="2.6127">
        <ele>586</ele>
        <time>2024-07-14T14:36:10Z</time>
      </trkpt>
      <trkpt lat="42.47187" lon="2.61274">
        <ele>586</ele>
        <time>2024-07-14T14:36:17Z</time>
      </trkpt>
      <trkpt lat="42.47177" lon="2.61277">
        <ele>585.6</ele>
        <time>2024-07-14T14:36:26Z</time>
      </trkpt>
      <trkpt lat="42.47173" lon="2.61281">
        <ele>584.2</ele>
        <time>2024-07-14T14:36:34Z</time>
      </trkpt>
      <trkpt lat="42.47168" lon="2.61287">
        <ele>581.2</ele>
        <time>2024-07-14T14:36:42Z</time>
      </trkpt>
      <trkpt lat="42.47166" lon="2.61292">
        <ele>580</ele>
        <time>2024-07-14T14:36:46Z</time>
      </trkpt>
      <trkpt lat="42.47166" lon="2.61295">
        <ele>579.4</ele>
        <time>2024-07-14T14:36:48Z</time>
      </trkpt>
      <trkpt lat="42.47161" lon="2.61302">
        <ele>574.6</ele>
        <time>2024-07-14T14:36:56Z</time>
      </trkpt>
      <trkpt lat="42.47158" lon="2.61311">
        <ele>574</ele>
        <time>2024-07-14T14:37:03Z</time>
      </trkpt>
      <trkpt lat="42.47158" lon="2.61316">
        <ele>574.8</ele>
        <time>2024-07-14T14:37:07Z</time>
      </trkpt>
      <trkpt lat="42.47158" lon="2.61317">
        <ele>575</ele>
        <time>2024-07-14T14:37:08Z</time>
      </trkpt>
      <trkpt lat="42.47158" lon="2.61318">
        <ele>575</ele>
        <time>2024-07-14T14:37:09Z</time>
      </trkpt>
      <trkpt lat="42.47158" lon="2.61324">
        <ele>574.8</ele>
        <time>2024-07-14T14:37:15Z</time>
      </trkpt>
      <trkpt lat="42.47153" lon="2.61336">
        <ele>572</ele>
        <time>2024-07-14T14:37:25Z</time>
      </trkpt>
      <trkpt lat="42.47153" lon="2.61341">
        <ele>570.6</ele>
        <time>2024-07-14T14:37:29Z</time>
      </trkpt>
      <trkpt lat="42.47151" lon="2.61343">
        <ele>569.4</ele>
        <time>2024-07-14T14:37:32Z</time>
      </trkpt>
      <trkpt lat="42.47146" lon="2.61353">
        <ele>565.4</ele>
        <time>2024-07-14T14:37:40Z</time>
      </trkpt>
      <trkpt lat="42.47138" lon="2.6136">
        <ele>563.4</ele>
        <time>2024-07-14T14:37:48Z</time>
      </trkpt>
      <trkpt lat="42.47136" lon="2.61362">
        <ele>562.8</ele>
        <time>2024-07-14T14:37:50Z</time>
      </trkpt>
      <trkpt lat="42.47135" lon="2.61362">
        <ele>561.8</ele>
        <time>2024-07-14T14:37:54Z</time>
      </trkpt>
      <trkpt lat="42.4713" lon="2.61366">
        <ele>561.6</ele>
        <time>2024-07-14T14:38:01Z</time>
      </trkpt>
      <trkpt lat="42.47126" lon="2.61373">
        <ele>561.8</ele>
        <time>2024-07-14T14:38:08Z</time>
      </trkpt>
      <trkpt lat="42.47123" lon="2.61375">
        <ele>561.2</ele>
        <time>2024-07-14T14:38:12Z</time>
      </trkpt>
      <trkpt lat="42.47121" lon="2.61379">
        <ele>560.6</ele>
        <time>2024-07-14T14:38:17Z</time>
      </trkpt>
      <trkpt lat="42.47115" lon="2.61385">
        <ele>558.2</ele>
        <time>2024-07-14T14:38:25Z</time>
      </trkpt>
      <trkpt lat="42.47112" lon="2.61391">
        <ele>556.8</ele>
        <time>2024-07-14T14:38:34Z</time>
      </trkpt>
      <trkpt lat="42.47116" lon="2.61396">
        <ele>556.2</ele>
        <time>2024-07-14T14:38:41Z</time>
      </trkpt>
      <trkpt lat="42.47118" lon="2.61401">
        <ele>555.2</ele>
        <time>2024-07-14T14:38:49Z</time>
      </trkpt>
      <trkpt lat="42.47117" lon="2.61404">
        <ele>552.4</ele>
        <time>2024-07-14T14:38:55Z</time>
      </trkpt>
      <trkpt lat="42.47118" lon="2.61409">
        <ele>549.8</ele>
        <time>2024-07-14T14:39:02Z</time>
      </trkpt>
      <trkpt lat="42.47114" lon="2.61416">
        <ele>549</ele>
        <time>2024-07-14T14:39:07Z</time>
      </trkpt>
      <trkpt lat="42.47113" lon="2.61416">
        <ele>549</ele>
        <time>2024-07-14T14:39:08Z</time>
      </trkpt>
      <trkpt lat="42.47111" lon="2.6142">
        <ele>549</ele>
        <time>2024-07-14T14:39:14Z</time>
      </trkpt>
      <trkpt lat="42.47111" lon="2.61422">
        <ele>549</ele>
        <time>2024-07-14T14:39:15Z</time>
      </trkpt>
      <trkpt lat="42.47108" lon="2.61424">
        <ele>548.8</ele>
        <time>2024-07-14T14:39:17Z</time>
      </trkpt>
      <trkpt lat="42.47106" lon="2.61426">
        <ele>548.6</ele>
        <time>2024-07-14T14:39:20Z</time>
      </trkpt>
      <trkpt lat="42.47104" lon="2.61425">
        <ele>548.6</ele>
        <time>2024-07-14T14:39:22Z</time>
      </trkpt>
      <trkpt lat="42.47102" lon="2.61423">
        <ele>548.6</ele>
        <time>2024-07-14T14:39:25Z</time>
      </trkpt>
      <trkpt lat="42.47099" lon="2.61418">
        <ele>550.6</ele>
        <time>2024-07-14T14:39:31Z</time>
      </trkpt>
      <trkpt lat="42.47095" lon="2.6142">
        <ele>550.8</ele>
        <time>2024-07-14T14:39:39Z</time>
      </trkpt>
      <trkpt lat="42.47094" lon="2.61426">
        <ele>549.8</ele>
        <time>2024-07-14T14:39:44Z</time>
      </trkpt>
      <trkpt lat="42.47093" lon="2.61428">
        <ele>549.4</ele>
        <time>2024-07-14T14:39:47Z</time>
      </trkpt>
      <trkpt lat="42.47093" lon="2.61429">
        <ele>549.2</ele>
        <time>2024-07-14T14:39:48Z</time>
      </trkpt>
      <trkpt lat="42.47091" lon="2.61434">
        <ele>549</ele>
        <time>2024-07-14T14:39:53Z</time>
      </trkpt>
      <trkpt lat="42.47088" lon="2.61437">
        <ele>549.2</ele>
        <time>2024-07-14T14:39:59Z</time>
      </trkpt>
      <trkpt lat="42.47091" lon="2.61443">
        <ele>547.2</ele>
        <time>2024-07-14T14:40:06Z</time>
      </trkpt>
      <trkpt lat="42.47088" lon="2.61447">
        <ele>543</ele>
        <time>2024-07-14T14:40:12Z</time>
      </trkpt>
      <trkpt lat="42.47089" lon="2.61446">
        <ele>540.6</ele>
        <time>2024-07-14T14:40:22Z</time>
      </trkpt>
      <trkpt lat="42.47089" lon="2.61446">
        <ele>541.6</ele>
        <time>2024-07-14T14:40:33Z</time>
      </trkpt>
      <trkpt lat="42.47089" lon="2.61456">
        <ele>540</ele>
        <time>2024-07-14T14:41:24Z</time>
      </trkpt>
      <trkpt lat="42.47084" lon="2.61469">
        <ele>539.8</ele>
        <time>2024-07-14T14:41:32Z</time>
      </trkpt>
      <trkpt lat="42.47084" lon="2.61476">
        <ele>539.8</ele>
        <time>2024-07-14T14:41:36Z</time>
      </trkpt>
      <trkpt lat="42.47085" lon="2.61479">
        <ele>539</ele>
        <time>2024-07-14T14:41:38Z</time>
      </trkpt>
      <trkpt lat="42.47089" lon="2.61483">
        <ele>535.6</ele>
        <time>2024-07-14T14:41:45Z</time>
      </trkpt>
      <trkpt lat="42.47089" lon="2.61488">
        <ele>534.8</ele>
        <time>2024-07-14T14:41:48Z</time>
      </trkpt>
      <trkpt lat="42.47087" lon="2.61489">
        <ele>534</ele>
        <time>2024-07-14T14:41:50Z</time>
      </trkpt>
      <trkpt lat="42.47082" lon="2.61493">
        <ele>533</ele>
        <time>2024-07-14T14:41:56Z</time>
      </trkpt>
      <trkpt lat="42.47076" lon="2.61496">
        <ele>532</ele>
        <time>2024-07-14T14:42:03Z</time>
      </trkpt>
      <trkpt lat="42.47075" lon="2.61497">
        <ele>531.8</ele>
        <time>2024-07-14T14:42:04Z</time>
      </trkpt>
      <trkpt lat="42.47075" lon="2.61503">
        <ele>530.4</ele>
        <time>2024-07-14T14:42:10Z</time>
      </trkpt>
      <trkpt lat="42.47074" lon="2.61507">
        <ele>529.2</ele>
        <time>2024-07-14T14:42:14Z</time>
      </trkpt>
      <trkpt lat="42.47072" lon="2.6151">
        <ele>527.8</ele>
        <time>2024-07-14T14:42:17Z</time>
      </trkpt>
      <trkpt lat="42.47071" lon="2.61514">
        <ele>526.4</ele>
        <time>2024-07-14T14:42:22Z</time>
      </trkpt>
      <trkpt lat="42.47069" lon="2.61518">
        <ele>526.2</ele>
        <time>2024-07-14T14:42:24Z</time>
      </trkpt>
      <trkpt lat="42.47064" lon="2.61524">
        <ele>525.2</ele>
        <time>2024-07-14T14:42:30Z</time>
      </trkpt>
      <trkpt lat="42.47063" lon="2.61526">
        <ele>524.6</ele>
        <time>2024-07-14T14:42:32Z</time>
      </trkpt>
      <trkpt lat="42.4706" lon="2.61528">
        <ele>524</ele>
        <time>2024-07-14T14:42:35Z</time>
      </trkpt>
      <trkpt lat="42.47057" lon="2.6153">
        <ele>523.8</ele>
        <time>2024-07-14T14:42:38Z</time>
      </trkpt>
      <trkpt lat="42.47056" lon="2.61531">
        <ele>523.6</ele>
        <time>2024-07-14T14:42:39Z</time>
      </trkpt>
      <trkpt lat="42.4705" lon="2.61542">
        <ele>521.6</ele>
        <time>2024-07-14T14:42:49Z</time>
      </trkpt>
      <trkpt lat="42.47048" lon="2.61542">
        <ele>521.2</ele>
        <time>2024-07-14T14:42:50Z</time>
      </trkpt>
      <trkpt lat="42.47046" lon="2.61545">
        <ele>520.6</ele>
        <time>2024-07-14T14:42:52Z</time>
      </trkpt>
      <trkpt lat="42.47046" lon="2.61549">
        <ele>519.4</ele>
        <time>2024-07-14T14:42:55Z</time>
      </trkpt>
      <trkpt lat="42.47043" lon="2.61561">
        <ele>516.4</ele>
        <time>2024-07-14T14:43:03Z</time>
      </trkpt>
      <trkpt lat="42.47042" lon="2.6157">
        <ele>515</ele>
        <time>2024-07-14T14:43:09Z</time>
      </trkpt>
      <trkpt lat="42.47041" lon="2.61572">
        <ele>514.8</ele>
        <time>2024-07-14T14:43:11Z</time>
      </trkpt>
      <trkpt lat="42.47037" lon="2.61584">
        <ele>514.4</ele>
        <time>2024-07-14T14:43:20Z</time>
      </trkpt>
      <trkpt lat="42.47032" lon="2.61588">
        <ele>514</ele>
        <time>2024-07-14T14:43:26Z</time>
      </trkpt>
      <trkpt lat="42.4703" lon="2.61588">
        <ele>513.8</ele>
        <time>2024-07-14T14:43:28Z</time>
      </trkpt>
      <trkpt lat="42.47028" lon="2.61587">
        <ele>513.2</ele>
        <time>2024-07-14T14:43:31Z</time>
      </trkpt>
      <trkpt lat="42.47024" lon="2.6159">
        <ele>511.8</ele>
        <time>2024-07-14T14:43:37Z</time>
      </trkpt>
      <trkpt lat="42.47022" lon="2.61592">
        <ele>511</ele>
        <time>2024-07-14T14:43:39Z</time>
      </trkpt>
      <trkpt lat="42.47021" lon="2.61598">
        <ele>509.6</ele>
        <time>2024-07-14T14:43:44Z</time>
      </trkpt>
      <trkpt lat="42.47016" lon="2.61602">
        <ele>507.4</ele>
        <time>2024-07-14T14:43:51Z</time>
      </trkpt>
      <trkpt lat="42.47009" lon="2.61607">
        <ele>505.2</ele>
        <time>2024-07-14T14:43:59Z</time>
      </trkpt>
      <trkpt lat="42.47008" lon="2.61608">
        <ele>505</ele>
        <time>2024-07-14T14:44:00Z</time>
      </trkpt>
      <trkpt lat="42.47004" lon="2.61614">
        <ele>504.6</ele>
        <time>2024-07-14T14:44:05Z</time>
      </trkpt>
      <trkpt lat="42.47003" lon="2.61617">
        <ele>504.4</ele>
        <time>2024-07-14T14:44:08Z</time>
      </trkpt>
      <trkpt lat="42.47003" lon="2.61618">
        <ele>503.8</ele>
        <time>2024-07-14T14:44:15Z</time>
      </trkpt>
      <trkpt lat="42.47003" lon="2.61618">
        <ele>501.8</ele>
        <time>2024-07-14T14:44:35Z</time>
      </trkpt>
      <trkpt lat="42.46997" lon="2.61624">
        <ele>502.2</ele>
        <time>2024-07-14T14:44:44Z</time>
      </trkpt>
      <trkpt lat="42.46993" lon="2.61628">
        <ele>502.2</ele>
        <time>2024-07-14T14:44:51Z</time>
      </trkpt>
      <trkpt lat="42.46991" lon="2.61633">
        <ele>502.6</ele>
        <time>2024-07-14T14:45:01Z</time>
      </trkpt>
      <trkpt lat="42.46986" lon="2.61642">
        <ele>502.4</ele>
        <time>2024-07-14T14:45:09Z</time>
      </trkpt>
      <trkpt lat="42.46982" lon="2.61649">
        <ele>501.8</ele>
        <time>2024-07-14T14:45:18Z</time>
      </trkpt>
      <trkpt lat="42.46975" lon="2.61656">
        <ele>500</ele>
        <time>2024-07-14T14:45:25Z</time>
      </trkpt>
      <trkpt lat="42.46962" lon="2.6167">
        <ele>497.6</ele>
        <time>2024-07-14T14:45:37Z</time>
      </trkpt>
      <trkpt lat="42.46952" lon="2.61675">
        <ele>498.8</ele>
        <time>2024-07-14T14:45:48Z</time>
      </trkpt>
      <trkpt lat="42.46951" lon="2.61676">
        <ele>499.4</ele>
        <time>2024-07-14T14:45:53Z</time>
      </trkpt>
      <trkpt lat="42.4695" lon="2.61678">
        <ele>499.2</ele>
        <time>2024-07-14T14:46:00Z</time>
      </trkpt>
      <trkpt lat="42.46944" lon="2.61685">
        <ele>499</ele>
        <time>2024-07-14T14:46:09Z</time>
      </trkpt>
      <trkpt lat="42.46939" lon="2.61689">
        <ele>498.8</ele>
        <time>2024-07-14T14:46:16Z</time>
      </trkpt>
      <trkpt lat="42.46935" lon="2.61695">
        <ele>498</ele>
        <time>2024-07-14T14:46:22Z</time>
      </trkpt>
      <trkpt lat="42.46931" lon="2.61706">
        <ele>495.6</ele>
        <time>2024-07-14T14:46:31Z</time>
      </trkpt>
      <trkpt lat="42.46917" lon="2.61723">
        <ele>492.2</ele>
        <time>2024-07-14T14:46:44Z</time>
      </trkpt>
      <trkpt lat="42.46914" lon="2.61726">
        <ele>491.8</ele>
        <time>2024-07-14T14:46:47Z</time>
      </trkpt>
      <trkpt lat="42.46911" lon="2.61731">
        <ele>491.2</ele>
        <time>2024-07-14T14:46:51Z</time>
      </trkpt>
      <trkpt lat="42.46911" lon="2.61732">
        <ele>490.8</ele>
        <time>2024-07-14T14:46:52Z</time>
      </trkpt>
      <trkpt lat="42.46908" lon="2.61741">
        <ele>489.6</ele>
        <time>2024-07-14T14:46:58Z</time>
      </trkpt>
      <trkpt lat="42.46902" lon="2.61755">
        <ele>491.2</ele>
        <time>2024-07-14T14:47:07Z</time>
      </trkpt>
      <trkpt lat="42.46893" lon="2.61769">
        <ele>493.4</ele>
        <time>2024-07-14T14:47:16Z</time>
      </trkpt>
      <trkpt lat="42.46889" lon="2.61778">
        <ele>494.4</ele>
        <time>2024-07-14T14:47:24Z</time>
      </trkpt>
      <trkpt lat="42.46886" lon="2.61784">
        <ele>494.4</ele>
        <time>2024-07-14T14:47:27Z</time>
      </trkpt>
      <trkpt lat="42.46883" lon="2.61789">
        <ele>494.6</ele>
        <time>2024-07-14T14:47:31Z</time>
      </trkpt>
      <trkpt lat="42.46878" lon="2.61798">
        <ele>495.4</ele>
        <time>2024-07-14T14:47:38Z</time>
      </trkpt>
      <trkpt lat="42.46871" lon="2.61811">
        <ele>495.6</ele>
        <time>2024-07-14T14:47:49Z</time>
      </trkpt>
      <trkpt lat="42.46866" lon="2.61818">
        <ele>494.6</ele>
        <time>2024-07-14T14:47:55Z</time>
      </trkpt>
      <trkpt lat="42.46865" lon="2.61819">
        <ele>495</ele>
        <time>2024-07-14T14:47:56Z</time>
      </trkpt>
      <trkpt lat="42.46856" lon="2.61828">
        <ele>496</ele>
        <time>2024-07-14T14:48:04Z</time>
      </trkpt>
      <trkpt lat="42.46848" lon="2.61839">
        <ele>494.6</ele>
        <time>2024-07-14T14:48:13Z</time>
      </trkpt>
      <trkpt lat="42.46843" lon="2.61849">
        <ele>494.2</ele>
        <time>2024-07-14T14:48:21Z</time>
      </trkpt>
      <trkpt lat="42.4683" lon="2.61862">
        <ele>489.8</ele>
        <time>2024-07-14T14:48:33Z</time>
      </trkpt>
      <trkpt lat="42.46826" lon="2.61869">
        <ele>489.4</ele>
        <time>2024-07-14T14:48:40Z</time>
      </trkpt>
      <trkpt lat="42.46814" lon="2.61881">
        <ele>488.2</ele>
        <time>2024-07-14T14:48:50Z</time>
      </trkpt>
      <trkpt lat="42.46808" lon="2.61889">
        <ele>488.2</ele>
        <time>2024-07-14T14:48:58Z</time>
      </trkpt>
      <trkpt lat="42.46796" lon="2.61898">
        <ele>485.8</ele>
        <time>2024-07-14T14:49:09Z</time>
      </trkpt>
      <trkpt lat="42.46787" lon="2.61903">
        <ele>487.2</ele>
        <time>2024-07-14T14:49:16Z</time>
      </trkpt>
      <trkpt lat="42.46782" lon="2.6191">
        <ele>488.8</ele>
        <time>2024-07-14T14:49:22Z</time>
      </trkpt>
      <trkpt lat="42.46773" lon="2.6192">
        <ele>488.4</ele>
        <time>2024-07-14T14:49:31Z</time>
      </trkpt>
      <trkpt lat="42.46767" lon="2.61929">
        <ele>486.6</ele>
        <time>2024-07-14T14:49:38Z</time>
      </trkpt>
      <trkpt lat="42.46761" lon="2.61939">
        <ele>485</ele>
        <time>2024-07-14T14:49:46Z</time>
      </trkpt>
      <trkpt lat="42.46753" lon="2.61947">
        <ele>484.2</ele>
        <time>2024-07-14T14:49:53Z</time>
      </trkpt>
      <trkpt lat="42.4675" lon="2.61954">
        <ele>484</ele>
        <time>2024-07-14T14:49:59Z</time>
      </trkpt>
      <trkpt lat="42.46746" lon="2.61961">
        <ele>483.4</ele>
        <time>2024-07-14T14:50:06Z</time>
      </trkpt>
      <trkpt lat="42.46741" lon="2.61975">
        <ele>482.2</ele>
        <time>2024-07-14T14:50:13Z</time>
      </trkpt>
      <trkpt lat="42.46734" lon="2.61985">
        <ele>482.8</ele>
        <time>2024-07-14T14:50:20Z</time>
      </trkpt>
      <trkpt lat="42.4673" lon="2.6199">
        <ele>483.4</ele>
        <time>2024-07-14T14:50:23Z</time>
      </trkpt>
      <trkpt lat="42.46728" lon="2.61993">
        <ele>483.6</ele>
        <time>2024-07-14T14:50:25Z</time>
      </trkpt>
      <trkpt lat="42.46727" lon="2.61994">
        <ele>483.8</ele>
        <time>2024-07-14T14:50:26Z</time>
      </trkpt>
      <trkpt lat="42.46724" lon="2.62005">
        <ele>484.8</ele>
        <time>2024-07-14T14:50:33Z</time>
      </trkpt>
      <trkpt lat="42.46722" lon="2.6201">
        <ele>484.8</ele>
        <time>2024-07-14T14:50:36Z</time>
      </trkpt>
      <trkpt lat="42.4672" lon="2.62014">
        <ele>484.8</ele>
        <time>2024-07-14T14:50:39Z</time>
      </trkpt>
      <trkpt lat="42.46715" lon="2.62026">
        <ele>484.6</ele>
        <time>2024-07-14T14:50:48Z</time>
      </trkpt>
      <trkpt lat="42.4671" lon="2.62035">
        <ele>483.8</ele>
        <time>2024-07-14T14:50:54Z</time>
      </trkpt>
      <trkpt lat="42.46709" lon="2.62039">
        <ele>483.4</ele>
        <time>2024-07-14T14:50:56Z</time>
      </trkpt>
      <trkpt lat="42.46707" lon="2.62043">
        <ele>483</ele>
        <time>2024-07-14T14:50:59Z</time>
      </trkpt>
      <trkpt lat="42.46706" lon="2.62046">
        <ele>482.8</ele>
        <time>2024-07-14T14:51:01Z</time>
      </trkpt>
      <trkpt lat="42.46706" lon="2.62048">
        <ele>482.8</ele>
        <time>2024-07-14T14:51:02Z</time>
      </trkpt>
      <trkpt lat="42.46706" lon="2.62049">
        <ele>482.8</ele>
        <time>2024-07-14T14:51:03Z</time>
      </trkpt>
      <trkpt lat="42.46703" lon="2.62056">
        <ele>482.8</ele>
        <time>2024-07-14T14:51:07Z</time>
      </trkpt>
      <trkpt lat="42.46701" lon="2.62059">
        <ele>483</ele>
        <time>2024-07-14T14:51:09Z</time>
      </trkpt>
      <trkpt lat="42.467" lon="2.62062">
        <ele>483.2</ele>
        <time>2024-07-14T14:51:11Z</time>
      </trkpt>
      <trkpt lat="42.46701" lon="2.62067">
        <ele>483.4</ele>
        <time>2024-07-14T14:51:13Z</time>
      </trkpt>
      <trkpt lat="42.46695" lon="2.62079">
        <ele>484.2</ele>
        <time>2024-07-14T14:51:22Z</time>
      </trkpt>
      <trkpt lat="42.46694" lon="2.62086">
        <ele>483.8</ele>
        <time>2024-07-14T14:51:27Z</time>
      </trkpt>
      <trkpt lat="42.46693" lon="2.62093">
        <ele>483.4</ele>
        <time>2024-07-14T14:51:32Z</time>
      </trkpt>
      <trkpt lat="42.46692" lon="2.62096">
        <ele>483.4</ele>
        <time>2024-07-14T14:51:34Z</time>
      </trkpt>
      <trkpt lat="42.46692" lon="2.62097">
        <ele>483.2</ele>
        <time>2024-07-14T14:51:35Z</time>
      </trkpt>
      <trkpt lat="42.4669" lon="2.62102">
        <ele>483.2</ele>
        <time>2024-07-14T14:51:39Z</time>
      </trkpt>
      <trkpt lat="42.46687" lon="2.62107">
        <ele>483.2</ele>
        <time>2024-07-14T14:51:42Z</time>
      </trkpt>
      <trkpt lat="42.46686" lon="2.62113">
        <ele>483</ele>
        <time>2024-07-14T14:51:45Z</time>
      </trkpt>
      <trkpt lat="42.46682" lon="2.6212">
        <ele>483</ele>
        <time>2024-07-14T14:51:49Z</time>
      </trkpt>
      <trkpt lat="42.4668" lon="2.62124">
        <ele>483.4</ele>
        <time>2024-07-14T14:51:52Z</time>
      </trkpt>
      <trkpt lat="42.46679" lon="2.62132">
        <ele>484</ele>
        <time>2024-07-14T14:51:57Z</time>
      </trkpt>
      <trkpt lat="42.46678" lon="2.62133">
        <ele>484</ele>
        <time>2024-07-14T14:51:58Z</time>
      </trkpt>
      <trkpt lat="42.46677" lon="2.62135">
        <ele>484</ele>
        <time>2024-07-14T14:51:59Z</time>
      </trkpt>
      <trkpt lat="42.46674" lon="2.62144">
        <ele>482</ele>
        <time>2024-07-14T14:52:04Z</time>
      </trkpt>
      <trkpt lat="42.46669" lon="2.62156">
        <ele>480</ele>
        <time>2024-07-14T14:52:11Z</time>
      </trkpt>
      <trkpt lat="42.46669" lon="2.62157">
        <ele>480</ele>
        <time>2024-07-14T14:52:12Z</time>
      </trkpt>
      <trkpt lat="42.46667" lon="2.6216">
        <ele>479.8</ele>
        <time>2024-07-14T14:52:14Z</time>
      </trkpt>
      <trkpt lat="42.46667" lon="2.62163">
        <ele>479.6</ele>
        <time>2024-07-14T14:52:16Z</time>
      </trkpt>
      <trkpt lat="42.46666" lon="2.62165">
        <ele>479.6</ele>
        <time>2024-07-14T14:52:18Z</time>
      </trkpt>
      <trkpt lat="42.46664" lon="2.62173">
        <ele>479.6</ele>
        <time>2024-07-14T14:52:23Z</time>
      </trkpt>
      <trkpt lat="42.46662" lon="2.62182">
        <ele>480.6</ele>
        <time>2024-07-14T14:52:29Z</time>
      </trkpt>
      <trkpt lat="42.4666" lon="2.62193">
        <ele>480.4</ele>
        <time>2024-07-14T14:52:36Z</time>
      </trkpt>
      <trkpt lat="42.46657" lon="2.622">
        <ele>479.8</ele>
        <time>2024-07-14T14:52:40Z</time>
      </trkpt>
      <trkpt lat="42.46658" lon="2.62202">
        <ele>479.4</ele>
        <time>2024-07-14T14:52:42Z</time>
      </trkpt>
      <trkpt lat="42.46654" lon="2.62212">
        <ele>477.6</ele>
        <time>2024-07-14T14:52:48Z</time>
      </trkpt>
      <trkpt lat="42.46653" lon="2.62216">
        <ele>477</ele>
        <time>2024-07-14T14:52:51Z</time>
      </trkpt>
      <trkpt lat="42.46652" lon="2.62218">
        <ele>476.6</ele>
        <time>2024-07-14T14:52:53Z</time>
      </trkpt>
      <trkpt lat="42.46652" lon="2.62221">
        <ele>476.2</ele>
        <time>2024-07-14T14:52:55Z</time>
      </trkpt>
      <trkpt lat="42.46652" lon="2.62225">
        <ele>475.4</ele>
        <time>2024-07-14T14:52:57Z</time>
      </trkpt>
      <trkpt lat="42.46653" lon="2.62228">
        <ele>474.8</ele>
        <time>2024-07-14T14:52:59Z</time>
      </trkpt>
      <trkpt lat="42.46652" lon="2.6223">
        <ele>474.6</ele>
        <time>2024-07-14T14:53:00Z</time>
      </trkpt>
      <trkpt lat="42.46648" lon="2.62244">
        <ele>473</ele>
        <time>2024-07-14T14:53:07Z</time>
      </trkpt>
      <trkpt lat="42.46646" lon="2.62256">
        <ele>471</ele>
        <time>2024-07-14T14:53:13Z</time>
      </trkpt>
      <trkpt lat="42.46646" lon="2.62257">
        <ele>470.8</ele>
        <time>2024-07-14T14:53:14Z</time>
      </trkpt>
      <trkpt lat="42.46647" lon="2.62262">
        <ele>470</ele>
        <time>2024-07-14T14:53:17Z</time>
      </trkpt>
      <trkpt lat="42.46647" lon="2.6227">
        <ele>469.4</ele>
        <time>2024-07-14T14:53:20Z</time>
      </trkpt>
      <trkpt lat="42.46647" lon="2.62284">
        <ele>470.8</ele>
        <time>2024-07-14T14:53:27Z</time>
      </trkpt>
      <trkpt lat="42.46645" lon="2.62299">
        <ele>472.4</ele>
        <time>2024-07-14T14:53:37Z</time>
      </trkpt>
      <trkpt lat="42.46643" lon="2.62312">
        <ele>473.2</ele>
        <time>2024-07-14T14:53:45Z</time>
      </trkpt>
      <trkpt lat="42.46643" lon="2.62314">
        <ele>473</ele>
        <time>2024-07-14T14:53:46Z</time>
      </trkpt>
      <trkpt lat="42.4664" lon="2.62332">
        <ele>472.4</ele>
        <time>2024-07-14T14:53:55Z</time>
      </trkpt>
      <trkpt lat="42.46639" lon="2.62345">
        <ele>469.6</ele>
        <time>2024-07-14T14:54:04Z</time>
      </trkpt>
      <trkpt lat="42.4664" lon="2.62349">
        <ele>467.4</ele>
        <time>2024-07-14T14:54:07Z</time>
      </trkpt>
      <trkpt lat="42.46638" lon="2.62357">
        <ele>465.8</ele>
        <time>2024-07-14T14:54:13Z</time>
      </trkpt>
      <trkpt lat="42.46636" lon="2.62366">
        <ele>466.8</ele>
        <time>2024-07-14T14:54:19Z</time>
      </trkpt>
      <trkpt lat="42.46633" lon="2.62374">
        <ele>470.2</ele>
        <time>2024-07-14T14:54:25Z</time>
      </trkpt>
      <trkpt lat="42.46633" lon="2.62378">
        <ele>471.6</ele>
        <time>2024-07-14T14:54:28Z</time>
      </trkpt>
      <trkpt lat="42.4663" lon="2.62393">
        <ele>472.4</ele>
        <time>2024-07-14T14:54:37Z</time>
      </trkpt>
      <trkpt lat="42.46627" lon="2.62404">
        <ele>474.6</ele>
        <time>2024-07-14T14:54:45Z</time>
      </trkpt>
      <trkpt lat="42.46627" lon="2.62406">
        <ele>474.8</ele>
        <time>2024-07-14T14:54:46Z</time>
      </trkpt>
      <trkpt lat="42.46623" lon="2.62417">
        <ele>473.8</ele>
        <time>2024-07-14T14:54:54Z</time>
      </trkpt>
      <trkpt lat="42.46614" lon="2.62432">
        <ele>474.4</ele>
        <time>2024-07-14T14:55:06Z</time>
      </trkpt>
      <trkpt lat="42.46606" lon="2.62447">
        <ele>476.4</ele>
        <time>2024-07-14T14:55:17Z</time>
      </trkpt>
      <trkpt lat="42.466" lon="2.62457">
        <ele>478.4</ele>
        <time>2024-07-14T14:55:25Z</time>
      </trkpt>
      <trkpt lat="42.46597" lon="2.62454">
        <ele>479</ele>
        <time>2024-07-14T14:55:32Z</time>
      </trkpt>
      <trkpt lat="42.46599" lon="2.62453">
        <ele>478.6</ele>
        <time>2024-07-14T14:55:40Z</time>
      </trkpt>
      <trkpt lat="42.46595" lon="2.6245">
        <ele>478.2</ele>
        <time>2024-07-14T14:55:47Z</time>
      </trkpt>
      <trkpt lat="42.4659" lon="2.62447">
        <ele>477.8</ele>
        <time>2024-07-14T14:55:53Z</time>
      </trkpt>
      <trkpt lat="42.46582" lon="2.62446">
        <ele>475.2</ele>
        <time>2024-07-14T14:56:03Z</time>
      </trkpt>
      <trkpt lat="42.46574" lon="2.62453">
        <ele>468.4</ele>
        <time>2024-07-14T14:56:13Z</time>
      </trkpt>
      <trkpt lat="42.46565" lon="2.62461">
        <ele>467.4</ele>
        <time>2024-07-14T14:56:20Z</time>
      </trkpt>
      <trkpt lat="42.46565" lon="2.62463">
        <ele>467.6</ele>
        <time>2024-07-14T14:56:22Z</time>
      </trkpt>
      <trkpt lat="42.46554" lon="2.62472">
        <ele>467.6</ele>
        <time>2024-07-14T14:56:31Z</time>
      </trkpt>
      <trkpt lat="42.46545" lon="2.62478">
        <ele>467.4</ele>
        <time>2024-07-14T14:56:39Z</time>
      </trkpt>
      <trkpt lat="42.46541" lon="2.62486">
        <ele>466.6</ele>
        <time>2024-07-14T14:56:45Z</time>
      </trkpt>
      <trkpt lat="42.46539" lon="2.62488">
        <ele>466</ele>
        <time>2024-07-14T14:56:47Z</time>
      </trkpt>
      <trkpt lat="42.46531" lon="2.62493">
        <ele>465.2</ele>
        <time>2024-07-14T14:56:54Z</time>
      </trkpt>
      <trkpt lat="42.46531" lon="2.62494">
        <ele>465.2</ele>
        <time>2024-07-14T14:56:55Z</time>
      </trkpt>
      <trkpt lat="42.4653" lon="2.62496">
        <ele>465.4</ele>
        <time>2024-07-14T14:56:57Z</time>
      </trkpt>
      <trkpt lat="42.46529" lon="2.62499">
        <ele>465.4</ele>
        <time>2024-07-14T14:56:59Z</time>
      </trkpt>
      <trkpt lat="42.46521" lon="2.62501">
        <ele>463.4</ele>
        <time>2024-07-14T14:57:07Z</time>
      </trkpt>
      <trkpt lat="42.46511" lon="2.62507">
        <ele>462.4</ele>
        <time>2024-07-14T14:57:16Z</time>
      </trkpt>
      <trkpt lat="42.46507" lon="2.62517">
        <ele>460.6</ele>
        <time>2024-07-14T14:57:24Z</time>
      </trkpt>
      <trkpt lat="42.46502" lon="2.62526">
        <ele>458.4</ele>
        <time>2024-07-14T14:57:31Z</time>
      </trkpt>
      <trkpt lat="42.465" lon="2.62532">
        <ele>457.4</ele>
        <time>2024-07-14T14:57:35Z</time>
      </trkpt>
      <trkpt lat="42.46498" lon="2.62537">
        <ele>457</ele>
        <time>2024-07-14T14:57:38Z</time>
      </trkpt>
      <trkpt lat="42.46493" lon="2.62544">
        <ele>456.6</ele>
        <time>2024-07-14T14:57:45Z</time>
      </trkpt>
      <trkpt lat="42.46481" lon="2.6255">
        <ele>456.2</ele>
        <time>2024-07-14T14:57:54Z</time>
      </trkpt>
      <trkpt lat="42.4647" lon="2.62556">
        <ele>455.4</ele>
        <time>2024-07-14T14:58:03Z</time>
      </trkpt>
      <trkpt lat="42.46464" lon="2.62559">
        <ele>455.2</ele>
        <time>2024-07-14T14:58:07Z</time>
      </trkpt>
      <trkpt lat="42.4646" lon="2.62561">
        <ele>455.6</ele>
        <time>2024-07-14T14:58:11Z</time>
      </trkpt>
      <trkpt lat="42.46452" lon="2.62567">
        <ele>456.4</ele>
        <time>2024-07-14T14:58:19Z</time>
      </trkpt>
      <trkpt lat="42.46444" lon="2.62576">
        <ele>456.4</ele>
        <time>2024-07-14T14:58:26Z</time>
      </trkpt>
      <trkpt lat="42.46438" lon="2.62585">
        <ele>453.4</ele>
        <time>2024-07-14T14:58:35Z</time>
      </trkpt>
      <trkpt lat="42.46427" lon="2.62595">
        <ele>451.6</ele>
        <time>2024-07-14T14:58:44Z</time>
      </trkpt>
      <trkpt lat="42.46419" lon="2.626">
        <ele>450.6</ele>
        <time>2024-07-14T14:58:52Z</time>
      </trkpt>
      <trkpt lat="42.46412" lon="2.626">
        <ele>448</ele>
        <time>2024-07-14T14:58:59Z</time>
      </trkpt>
      <trkpt lat="42.46398" lon="2.62602">
        <ele>442.4</ele>
        <time>2024-07-14T14:59:10Z</time>
      </trkpt>
      <trkpt lat="42.46389" lon="2.62601">
        <ele>441</ele>
        <time>2024-07-14T14:59:19Z</time>
      </trkpt>
      <trkpt lat="42.46388" lon="2.62601">
        <ele>440.8</ele>
        <time>2024-07-14T14:59:20Z</time>
      </trkpt>
      <trkpt lat="42.46377" lon="2.62603">
        <ele>440</ele>
        <time>2024-07-14T14:59:29Z</time>
      </trkpt>
      <trkpt lat="42.46365" lon="2.62607">
        <ele>440.6</ele>
        <time>2024-07-14T14:59:37Z</time>
      </trkpt>
      <trkpt lat="42.46361" lon="2.62608">
        <ele>441</ele>
        <time>2024-07-14T14:59:41Z</time>
      </trkpt>
      <trkpt lat="42.46352" lon="2.62609">
        <ele>442.2</ele>
        <time>2024-07-14T14:59:46Z</time>
      </trkpt>
      <trkpt lat="42.46342" lon="2.62614">
        <ele>442.4</ele>
        <time>2024-07-14T14:59:56Z</time>
      </trkpt>
      <trkpt lat="42.46338" lon="2.62616">
        <ele>441.6</ele>
        <time>2024-07-14T15:00:00Z</time>
      </trkpt>
      <trkpt lat="42.46331" lon="2.62613">
        <ele>441.4</ele>
        <time>2024-07-14T15:00:06Z</time>
      </trkpt>
      <trkpt lat="42.46323" lon="2.62605">
        <ele>438.8</ele>
        <time>2024-07-14T15:00:15Z</time>
      </trkpt>
      <trkpt lat="42.46317" lon="2.62603">
        <ele>436.4</ele>
        <time>2024-07-14T15:00:22Z</time>
      </trkpt>
      <trkpt lat="42.46316" lon="2.62602">
        <ele>436</ele>
        <time>2024-07-14T15:00:23Z</time>
      </trkpt>
      <trkpt lat="42.46315" lon="2.626">
        <ele>435.6</ele>
        <time>2024-07-14T15:00:25Z</time>
      </trkpt>
      <trkpt lat="42.46311" lon="2.62598">
        <ele>435.2</ele>
        <time>2024-07-14T15:00:28Z</time>
      </trkpt>
      <trkpt lat="42.46309" lon="2.62598">
        <ele>434.8</ele>
        <time>2024-07-14T15:00:30Z</time>
      </trkpt>
      <trkpt lat="42.46307" lon="2.62596">
        <ele>434.4</ele>
        <time>2024-07-14T15:00:32Z</time>
      </trkpt>
      <trkpt lat="42.46306" lon="2.62595">
        <ele>434.4</ele>
        <time>2024-07-14T15:00:33Z</time>
      </trkpt>
      <trkpt lat="42.46298" lon="2.62589">
        <ele>434.2</ele>
        <time>2024-07-14T15:00:40Z</time>
      </trkpt>
      <trkpt lat="42.46291" lon="2.62585">
        <ele>433.4</ele>
        <time>2024-07-14T15:00:46Z</time>
      </trkpt>
      <trkpt lat="42.46289" lon="2.62585">
        <ele>433.2</ele>
        <time>2024-07-14T15:00:47Z</time>
      </trkpt>
      <trkpt lat="42.46278" lon="2.62579">
        <ele>432</ele>
        <time>2024-07-14T15:00:54Z</time>
      </trkpt>
      <trkpt lat="42.46278" lon="2.62579">
        <ele>432.2</ele>
        <time>2024-07-14T15:00:55Z</time>
      </trkpt>
      <trkpt lat="42.46271" lon="2.62572">
        <ele>432.8</ele>
        <time>2024-07-14T15:01:03Z</time>
      </trkpt>
      <trkpt lat="42.46264" lon="2.62568">
        <ele>432.2</ele>
        <time>2024-07-14T15:01:08Z</time>
      </trkpt>
      <trkpt lat="42.4626" lon="2.62568">
        <ele>431.6</ele>
        <time>2024-07-14T15:01:10Z</time>
      </trkpt>
      <trkpt lat="42.46248" lon="2.62561">
        <ele>431.2</ele>
        <time>2024-07-14T15:01:21Z</time>
      </trkpt>
      <trkpt lat="42.46235" lon="2.62561">
        <ele>430</ele>
        <time>2024-07-14T15:01:30Z</time>
      </trkpt>
      <trkpt lat="42.4623" lon="2.62562">
        <ele>430.6</ele>
        <time>2024-07-14T15:01:36Z</time>
      </trkpt>
      <trkpt lat="42.46227" lon="2.62563">
        <ele>430.8</ele>
        <time>2024-07-14T15:01:38Z</time>
      </trkpt>
      <trkpt lat="42.46218" lon="2.62569">
        <ele>429</ele>
        <time>2024-07-14T15:01:46Z</time>
      </trkpt>
      <trkpt lat="42.46212" lon="2.62577">
        <ele>428.2</ele>
        <time>2024-07-14T15:01:54Z</time>
      </trkpt>
      <trkpt lat="42.46209" lon="2.6258">
        <ele>428.8</ele>
        <time>2024-07-14T15:01:58Z</time>
      </trkpt>
      <trkpt lat="42.46208" lon="2.62582">
        <ele>429</ele>
        <time>2024-07-14T15:02:00Z</time>
      </trkpt>
      <trkpt lat="42.46202" lon="2.62591">
        <ele>427.2</ele>
        <time>2024-07-14T15:02:09Z</time>
      </trkpt>
      <trkpt lat="42.46196" lon="2.62599">
        <ele>425</ele>
        <time>2024-07-14T15:02:17Z</time>
      </trkpt>
      <trkpt lat="42.46193" lon="2.62606">
        <ele>423.8</ele>
        <time>2024-07-14T15:02:24Z</time>
      </trkpt>
      <trkpt lat="42.46189" lon="2.62614">
        <ele>420.8</ele>
        <time>2024-07-14T15:02:31Z</time>
      </trkpt>
      <trkpt lat="42.46183" lon="2.62626">
        <ele>420.2</ele>
        <time>2024-07-14T15:02:40Z</time>
      </trkpt>
      <trkpt lat="42.46177" lon="2.62633">
        <ele>419.6</ele>
        <time>2024-07-14T15:02:47Z</time>
      </trkpt>
      <trkpt lat="42.46172" lon="2.62639">
        <ele>417.6</ele>
        <time>2024-07-14T15:02:53Z</time>
      </trkpt>
      <trkpt lat="42.46171" lon="2.62639">
        <ele>417.4</ele>
        <time>2024-07-14T15:02:54Z</time>
      </trkpt>
      <trkpt lat="42.46171" lon="2.62638">
        <ele>417.2</ele>
        <time>2024-07-14T15:02:55Z</time>
      </trkpt>
      <trkpt lat="42.46164" lon="2.62642">
        <ele>416.8</ele>
        <time>2024-07-14T15:03:02Z</time>
      </trkpt>
      <trkpt lat="42.46158" lon="2.62645">
        <ele>411</ele>
        <time>2024-07-14T15:03:10Z</time>
      </trkpt>
      <trkpt lat="42.46155" lon="2.62644">
        <ele>408.8</ele>
        <time>2024-07-14T15:03:13Z</time>
      </trkpt>
      <trkpt lat="42.46153" lon="2.62645">
        <ele>407.6</ele>
        <time>2024-07-14T15:03:16Z</time>
      </trkpt>
      <trkpt lat="42.46145" lon="2.62641">
        <ele>407</ele>
        <time>2024-07-14T15:03:24Z</time>
      </trkpt>
      <trkpt lat="42.4614" lon="2.62639">
        <ele>406.4</ele>
        <time>2024-07-14T15:03:31Z</time>
      </trkpt>
      <trkpt lat="42.46136" lon="2.62637">
        <ele>404.6</ele>
        <time>2024-07-14T15:03:36Z</time>
      </trkpt>
      <trkpt lat="42.4613" lon="2.62639">
        <ele>403.4</ele>
        <time>2024-07-14T15:03:41Z</time>
      </trkpt>
      <trkpt lat="42.46123" lon="2.62637">
        <ele>402.8</ele>
        <time>2024-07-14T15:03:48Z</time>
      </trkpt>
      <trkpt lat="42.46113" lon="2.6264">
        <ele>400.8</ele>
        <time>2024-07-14T15:03:56Z</time>
      </trkpt>
      <trkpt lat="42.46108" lon="2.62647">
        <ele>400.2</ele>
        <time>2024-07-14T15:04:03Z</time>
      </trkpt>
      <trkpt lat="42.46101" lon="2.62655">
        <ele>403.2</ele>
        <time>2024-07-14T15:04:10Z</time>
      </trkpt>
      <trkpt lat="42.46099" lon="2.62657">
        <ele>405.2</ele>
        <time>2024-07-14T15:04:15Z</time>
      </trkpt>
      <trkpt lat="42.46093" lon="2.62661">
        <ele>405.6</ele>
        <time>2024-07-14T15:04:23Z</time>
      </trkpt>
      <trkpt lat="42.46087" lon="2.6266">
        <ele>406.6</ele>
        <time>2024-07-14T15:04:29Z</time>
      </trkpt>
      <trkpt lat="42.46086" lon="2.62661">
        <ele>406.8</ele>
        <time>2024-07-14T15:04:30Z</time>
      </trkpt>
      <trkpt lat="42.46082" lon="2.62664">
        <ele>405.8</ele>
        <time>2024-07-14T15:04:35Z</time>
      </trkpt>
      <trkpt lat="42.46072" lon="2.62669">
        <ele>406.6</ele>
        <time>2024-07-14T15:04:43Z</time>
      </trkpt>
      <trkpt lat="42.46065" lon="2.62675">
        <ele>408.4</ele>
        <time>2024-07-14T15:04:49Z</time>
      </trkpt>
      <trkpt lat="42.46065" lon="2.62678">
        <ele>409</ele>
        <time>2024-07-14T15:04:51Z</time>
      </trkpt>
      <trkpt lat="42.46065" lon="2.62679">
        <ele>409.2</ele>
        <time>2024-07-14T15:04:52Z</time>
      </trkpt>
      <trkpt lat="42.46057" lon="2.62679">
        <ele>408.8</ele>
        <time>2024-07-14T15:04:57Z</time>
      </trkpt>
      <trkpt lat="42.4605" lon="2.62679">
        <ele>406.8</ele>
        <time>2024-07-14T15:05:06Z</time>
      </trkpt>
      <trkpt lat="42.4604" lon="2.62682">
        <ele>397.8</ele>
        <time>2024-07-14T15:05:16Z</time>
      </trkpt>
      <trkpt lat="42.46031" lon="2.62686">
        <ele>400</ele>
        <time>2024-07-14T15:05:25Z</time>
      </trkpt>
      <trkpt lat="42.46026" lon="2.62686">
        <ele>401.4</ele>
        <time>2024-07-14T15:05:31Z</time>
      </trkpt>
      <trkpt lat="42.46017" lon="2.62689">
        <ele>399.6</ele>
        <time>2024-07-14T15:05:38Z</time>
      </trkpt>
      <trkpt lat="42.46012" lon="2.62691">
        <ele>399.4</ele>
        <time>2024-07-14T15:05:42Z</time>
      </trkpt>
      <trkpt lat="42.4601" lon="2.62692">
        <ele>399.2</ele>
        <time>2024-07-14T15:05:44Z</time>
      </trkpt>
      <trkpt lat="42.46002" lon="2.62697">
        <ele>399</ele>
        <time>2024-07-14T15:05:51Z</time>
      </trkpt>
      <trkpt lat="42.45999" lon="2.62698">
        <ele>399</ele>
        <time>2024-07-14T15:05:53Z</time>
      </trkpt>
      <trkpt lat="42.45995" lon="2.62702">
        <ele>400.6</ele>
        <time>2024-07-14T15:05:59Z</time>
      </trkpt>
      <trkpt lat="42.45994" lon="2.62702">
        <ele>400.6</ele>
        <time>2024-07-14T15:06:01Z</time>
      </trkpt>
      <trkpt lat="42.45993" lon="2.62699">
        <ele>398.2</ele>
        <time>2024-07-14T15:06:07Z</time>
      </trkpt>
      <trkpt lat="42.4599" lon="2.62699">
        <ele>393.6</ele>
        <time>2024-07-14T15:06:13Z</time>
      </trkpt>
      <trkpt lat="42.4599" lon="2.62697">
        <ele>390.8</ele>
        <time>2024-07-14T15:06:18Z</time>
      </trkpt>
      <trkpt lat="42.45985" lon="2.62697">
        <ele>389.6</ele>
        <time>2024-07-14T15:06:21Z</time>
      </trkpt>
      <trkpt lat="42.4598" lon="2.62699">
        <ele>387.6</ele>
        <time>2024-07-14T15:06:26Z</time>
      </trkpt>
      <trkpt lat="42.45976" lon="2.62708">
        <ele>386.6</ele>
        <time>2024-07-14T15:06:34Z</time>
      </trkpt>
      <trkpt lat="42.45976" lon="2.62709">
        <ele>386.4</ele>
        <time>2024-07-14T15:06:35Z</time>
      </trkpt>
      <trkpt lat="42.45975" lon="2.62721">
        <ele>383.6</ele>
        <time>2024-07-14T15:06:43Z</time>
      </trkpt>
      <trkpt lat="42.45975" lon="2.62727">
        <ele>382.4</ele>
        <time>2024-07-14T15:06:47Z</time>
      </trkpt>
      <trkpt lat="42.45975" lon="2.62731">
        <ele>381.6</ele>
        <time>2024-07-14T15:06:50Z</time>
      </trkpt>
      <trkpt lat="42.45973" lon="2.62747">
        <ele>379.8</ele>
        <time>2024-07-14T15:07:00Z</time>
      </trkpt>
      <trkpt lat="42.45975" lon="2.6276">
        <ele>379</ele>
        <time>2024-07-14T15:07:09Z</time>
      </trkpt>
      <trkpt lat="42.45975" lon="2.6277">
        <ele>376.2</ele>
        <time>2024-07-14T15:07:15Z</time>
      </trkpt>
      <trkpt lat="42.45975" lon="2.6277">
        <ele>376.2</ele>
        <time>2024-07-14T15:07:16Z</time>
      </trkpt>
      <trkpt lat="42.45975" lon="2.62776">
        <ele>376.2</ele>
        <time>2024-07-14T15:07:18Z</time>
      </trkpt>
      <trkpt lat="42.45973" lon="2.62782">
        <ele>377</ele>
        <time>2024-07-14T15:07:21Z</time>
      </trkpt>
      <trkpt lat="42.45972" lon="2.62782">
        <ele>377.2</ele>
        <time>2024-07-14T15:07:22Z</time>
      </trkpt>
      <trkpt lat="42.4596" lon="2.62774">
        <ele>380.2</ele>
        <time>2024-07-14T15:07:31Z</time>
      </trkpt>
      <trkpt lat="42.4596" lon="2.62774">
        <ele>380.6</ele>
        <time>2024-07-14T15:07:38Z</time>
      </trkpt>
      <trkpt lat="42.4596" lon="2.62774">
        <ele>379.6</ele>
        <time>2024-07-14T15:08:02Z</time>
      </trkpt>
      <trkpt lat="42.45954" lon="2.62772">
        <ele>379.8</ele>
        <time>2024-07-14T15:08:27Z</time>
      </trkpt>
      <trkpt lat="42.45945" lon="2.6277">
        <ele>374.2</ele>
        <time>2024-07-14T15:08:34Z</time>
      </trkpt>
      <trkpt lat="42.4594" lon="2.62771">
        <ele>370.8</ele>
        <time>2024-07-14T15:08:41Z</time>
      </trkpt>
      <trkpt lat="42.45929" lon="2.62769">
        <ele>365.8</ele>
        <time>2024-07-14T15:08:50Z</time>
      </trkpt>
      <trkpt lat="42.45929" lon="2.62768">
        <ele>365.4</ele>
        <time>2024-07-14T15:08:51Z</time>
      </trkpt>
      <trkpt lat="42.45922" lon="2.62766">
        <ele>363.8</ele>
        <time>2024-07-14T15:08:57Z</time>
      </trkpt>
      <trkpt lat="42.4591" lon="2.62767">
        <ele>362.8</ele>
        <time>2024-07-14T15:09:05Z</time>
      </trkpt>
      <trkpt lat="42.4591" lon="2.62767">
        <ele>362.8</ele>
        <time>2024-07-14T15:09:06Z</time>
      </trkpt>
      <trkpt lat="42.45902" lon="2.62772">
        <ele>362</ele>
        <time>2024-07-14T15:09:13Z</time>
      </trkpt>
      <trkpt lat="42.45895" lon="2.62776">
        <ele>362.2</ele>
        <time>2024-07-14T15:09:19Z</time>
      </trkpt>
      <trkpt lat="42.45894" lon="2.62777">
        <ele>362.2</ele>
        <time>2024-07-14T15:09:20Z</time>
      </trkpt>
      <trkpt lat="42.45892" lon="2.62777">
        <ele>362.4</ele>
        <time>2024-07-14T15:09:21Z</time>
      </trkpt>
      <trkpt lat="42.4589" lon="2.62778">
        <ele>362.6</ele>
        <time>2024-07-14T15:09:23Z</time>
      </trkpt>
      <trkpt lat="42.45889" lon="2.62778">
        <ele>362.8</ele>
        <time>2024-07-14T15:09:24Z</time>
      </trkpt>
      <trkpt lat="42.45885" lon="2.62783">
        <ele>363.2</ele>
        <time>2024-07-14T15:09:28Z</time>
      </trkpt>
      <trkpt lat="42.45884" lon="2.62782">
        <ele>363.2</ele>
        <time>2024-07-14T15:09:30Z</time>
      </trkpt>
      <trkpt lat="42.45882" lon="2.62783">
        <ele>361.4</ele>
        <time>2024-07-14T15:09:34Z</time>
      </trkpt>
      <trkpt lat="42.45881" lon="2.62782">
        <ele>360.8</ele>
        <time>2024-07-14T15:09:35Z</time>
      </trkpt>
      <trkpt lat="42.45875" lon="2.62783">
        <ele>359</ele>
        <time>2024-07-14T15:09:41Z</time>
      </trkpt>
      <trkpt lat="42.45868" lon="2.62785">
        <ele>358.8</ele>
        <time>2024-07-14T15:09:47Z</time>
      </trkpt>
      <trkpt lat="42.45867" lon="2.62788">
        <ele>359</ele>
        <time>2024-07-14T15:09:49Z</time>
      </trkpt>
      <trkpt lat="42.45862" lon="2.62794">
        <ele>358.8</ele>
        <time>2024-07-14T15:09:56Z</time>
      </trkpt>
      <trkpt lat="42.45857" lon="2.62794">
        <ele>356.6</ele>
        <time>2024-07-14T15:10:03Z</time>
      </trkpt>
      <trkpt lat="42.45856" lon="2.62794">
        <ele>356.4</ele>
        <time>2024-07-14T15:10:04Z</time>
      </trkpt>
      <trkpt lat="42.4585" lon="2.62796">
        <ele>354.6</ele>
        <time>2024-07-14T15:10:09Z</time>
      </trkpt>
      <trkpt lat="42.45845" lon="2.62795">
        <ele>352.2</ele>
        <time>2024-07-14T15:10:15Z</time>
      </trkpt>
      <trkpt lat="42.4584" lon="2.62795">
        <ele>350.8</ele>
        <time>2024-07-14T15:10:21Z</time>
      </trkpt>
      <trkpt lat="42.45834" lon="2.62792">
        <ele>349.8</ele>
        <time>2024-07-14T15:10:30Z</time>
      </trkpt>
      <trkpt lat="42.45832" lon="2.62785">
        <ele>347.8</ele>
        <time>2024-07-14T15:10:36Z</time>
      </trkpt>
      <trkpt lat="42.45828" lon="2.62786">
        <ele>346.8</ele>
        <time>2024-07-14T15:10:43Z</time>
      </trkpt>
      <trkpt lat="42.45821" lon="2.6279">
        <ele>344</ele>
        <time>2024-07-14T15:10:49Z</time>
      </trkpt>
      <trkpt lat="42.4582" lon="2.62789">
        <ele>343.8</ele>
        <time>2024-07-14T15:10:50Z</time>
      </trkpt>
      <trkpt lat="42.4582" lon="2.62788">
        <ele>343.6</ele>
        <time>2024-07-14T15:10:51Z</time>
      </trkpt>
      <trkpt lat="42.45819" lon="2.62784">
        <ele>343.2</ele>
        <time>2024-07-14T15:10:55Z</time>
      </trkpt>
      <trkpt lat="42.45825" lon="2.62779">
        <ele>342</ele>
        <time>2024-07-14T15:11:02Z</time>
      </trkpt>
      <trkpt lat="42.4583" lon="2.62776">
        <ele>341</ele>
        <time>2024-07-14T15:11:07Z</time>
      </trkpt>
      <trkpt lat="42.45833" lon="2.62776">
        <ele>340.2</ele>
        <time>2024-07-14T15:11:09Z</time>
      </trkpt>
      <trkpt lat="42.45834" lon="2.62775">
        <ele>339.6</ele>
        <time>2024-07-14T15:11:11Z</time>
      </trkpt>
      <trkpt lat="42.45836" lon="2.62774">
        <ele>338.6</ele>
        <time>2024-07-14T15:11:14Z</time>
      </trkpt>
      <trkpt lat="42.45844" lon="2.62771">
        <ele>336</ele>
        <time>2024-07-14T15:11:21Z</time>
      </trkpt>
      <trkpt lat="42.45846" lon="2.62771">
        <ele>335.2</ele>
        <time>2024-07-14T15:11:22Z</time>
      </trkpt>
      <trkpt lat="42.4585" lon="2.62768">
        <ele>333</ele>
        <time>2024-07-14T15:11:24Z</time>
      </trkpt>
      <trkpt lat="42.45852" lon="2.62763">
        <ele>329.8</ele>
        <time>2024-07-14T15:11:29Z</time>
      </trkpt>
      <trkpt lat="42.45853" lon="2.6276">
        <ele>329</ele>
        <time>2024-07-14T15:11:31Z</time>
      </trkpt>
      <trkpt lat="42.45851" lon="2.62758">
        <ele>328.8</ele>
        <time>2024-07-14T15:11:33Z</time>
      </trkpt>
      <trkpt lat="42.4585" lon="2.62758">
        <ele>329</ele>
        <time>2024-07-14T15:11:34Z</time>
      </trkpt>
      <trkpt lat="42.45844" lon="2.62755">
        <ele>329.2</ele>
        <time>2024-07-14T15:11:42Z</time>
      </trkpt>
      <trkpt lat="42.4584" lon="2.6275">
        <ele>326</ele>
        <time>2024-07-14T15:11:50Z</time>
      </trkpt>
      <trkpt lat="42.45835" lon="2.62748">
        <ele>323</ele>
        <time>2024-07-14T15:11:56Z</time>
      </trkpt>
      <trkpt lat="42.45832" lon="2.62746">
        <ele>322.4</ele>
        <time>2024-07-14T15:12:04Z</time>
      </trkpt>
      <trkpt lat="42.45832" lon="2.62748">
        <ele>322.4</ele>
        <time>2024-07-14T15:12:13Z</time>
      </trkpt>
      <trkpt lat="42.45832" lon="2.62749">
        <ele>321.8</ele>
        <time>2024-07-14T15:12:44Z</time>
      </trkpt>
      <trkpt lat="42.45827" lon="2.62748">
        <ele>325.2</ele>
        <time>2024-07-14T15:13:22Z</time>
      </trkpt>
      <trkpt lat="42.45821" lon="2.62754">
        <ele>326</ele>
        <time>2024-07-14T15:13:27Z</time>
      </trkpt>
      <trkpt lat="42.45811" lon="2.6276">
        <ele>324.2</ele>
        <time>2024-07-14T15:13:35Z</time>
      </trkpt>
      <trkpt lat="42.45804" lon="2.62768">
        <ele>322.4</ele>
        <time>2024-07-14T15:13:43Z</time>
      </trkpt>
      <trkpt lat="42.45803" lon="2.62771">
        <ele>322.2</ele>
        <time>2024-07-14T15:13:45Z</time>
      </trkpt>
      <trkpt lat="42.45799" lon="2.62775">
        <ele>321.8</ele>
        <time>2024-07-14T15:13:49Z</time>
      </trkpt>
      <trkpt lat="42.45789" lon="2.62782">
        <ele>320</ele>
        <time>2024-07-14T15:13:58Z</time>
      </trkpt>
      <trkpt lat="42.45782" lon="2.62798">
        <ele>318.6</ele>
        <time>2024-07-14T15:14:09Z</time>
      </trkpt>
      <trkpt lat="42.45779" lon="2.62817">
        <ele>315.8</ele>
        <time>2024-07-14T15:14:20Z</time>
      </trkpt>
      <trkpt lat="42.45773" lon="2.62834">
        <ele>314.2</ele>
        <time>2024-07-14T15:14:30Z</time>
      </trkpt>
      <trkpt lat="42.45766" lon="2.62849">
        <ele>314.6</ele>
        <time>2024-07-14T15:14:41Z</time>
      </trkpt>
      <trkpt lat="42.4576" lon="2.62865">
        <ele>314</ele>
        <time>2024-07-14T15:14:51Z</time>
      </trkpt>
      <trkpt lat="42.45752" lon="2.62878">
        <ele>312.8</ele>
        <time>2024-07-14T15:15:01Z</time>
      </trkpt>
      <trkpt lat="42.45745" lon="2.62889">
        <ele>312.6</ele>
        <time>2024-07-14T15:15:10Z</time>
      </trkpt>
      <trkpt lat="42.45739" lon="2.62901">
        <ele>313</ele>
        <time>2024-07-14T15:15:18Z</time>
      </trkpt>
      <trkpt lat="42.45734" lon="2.62913">
        <ele>312.6</ele>
        <time>2024-07-14T15:15:27Z</time>
      </trkpt>
      <trkpt lat="42.45727" lon="2.62923">
        <ele>311</ele>
        <time>2024-07-14T15:15:35Z</time>
      </trkpt>
      <trkpt lat="42.45719" lon="2.62935">
        <ele>308.8</ele>
        <time>2024-07-14T15:15:45Z</time>
      </trkpt>
      <trkpt lat="42.45711" lon="2.62949">
        <ele>307.4</ele>
        <time>2024-07-14T15:15:55Z</time>
      </trkpt>
      <trkpt lat="42.45705" lon="2.62959">
        <ele>308.2</ele>
        <time>2024-07-14T15:16:03Z</time>
      </trkpt>
      <trkpt lat="42.45692" lon="2.62971">
        <ele>309.2</ele>
        <time>2024-07-14T15:16:11Z</time>
      </trkpt>
      <trkpt lat="42.45682" lon="2.62975">
        <ele>315</ele>
        <time>2024-07-14T15:16:16Z</time>
      </trkpt>
      <trkpt lat="42.45679" lon="2.62975">
        <ele>318.2</ele>
        <time>2024-07-14T15:16:18Z</time>
      </trkpt>
      <trkpt lat="42.4567" lon="2.62967">
        <ele>320.8</ele>
        <time>2024-07-14T15:16:26Z</time>
      </trkpt>
      <trkpt lat="42.45669" lon="2.62966">
        <ele>320</ele>
        <time>2024-07-14T15:16:27Z</time>
      </trkpt>
      <trkpt lat="42.45662" lon="2.6296">
        <ele>315.8</ele>
        <time>2024-07-14T15:16:33Z</time>
      </trkpt>
      <trkpt lat="42.45649" lon="2.62953">
        <ele>310.8</ele>
        <time>2024-07-14T15:16:45Z</time>
      </trkpt>
      <trkpt lat="42.45635" lon="2.62956">
        <ele>307.8</ele>
        <time>2024-07-14T15:16:57Z</time>
      </trkpt>
      <trkpt lat="42.45624" lon="2.62961">
        <ele>305.6</ele>
        <time>2024-07-14T15:17:07Z</time>
      </trkpt>
      <trkpt lat="42.45608" lon="2.62968">
        <ele>305</ele>
        <time>2024-07-14T15:17:20Z</time>
      </trkpt>
      <trkpt lat="42.45592" lon="2.62976">
        <ele>304.8</ele>
        <time>2024-07-14T15:17:34Z</time>
      </trkpt>
      <trkpt lat="42.45574" lon="2.62985">
        <ele>304.8</ele>
        <time>2024-07-14T15:17:49Z</time>
      </trkpt>
      <trkpt lat="42.45564" lon="2.62992">
        <ele>303.8</ele>
        <time>2024-07-14T15:17:59Z</time>
      </trkpt>
      <trkpt lat="42.45553" lon="2.62999">
        <ele>301.2</ele>
        <time>2024-07-14T15:18:09Z</time>
      </trkpt>
      <trkpt lat="42.45547" lon="2.63">
        <ele>300.6</ele>
        <time>2024-07-14T15:18:14Z</time>
      </trkpt>
      <trkpt lat="42.45545" lon="2.62998">
        <ele>300.2</ele>
        <time>2024-07-14T15:18:17Z</time>
      </trkpt>
      <trkpt lat="42.45537" lon="2.62994">
        <ele>300.2</ele>
        <time>2024-07-14T15:18:24Z</time>
      </trkpt>
      <trkpt lat="42.45533" lon="2.62994">
        <ele>300</ele>
        <time>2024-07-14T15:18:27Z</time>
      </trkpt>
      <trkpt lat="42.4553" lon="2.62988">
        <ele>299.8</ele>
        <time>2024-07-14T15:18:31Z</time>
      </trkpt>
      <trkpt lat="42.45522" lon="2.62965">
        <ele>298.8</ele>
        <time>2024-07-14T15:18:46Z</time>
      </trkpt>
      <trkpt lat="42.45521" lon="2.62962">
        <ele>298.6</ele>
        <time>2024-07-14T15:18:48Z</time>
      </trkpt>
      <trkpt lat="42.45512" lon="2.62944">
        <ele>299.4</ele>
        <time>2024-07-14T15:19:02Z</time>
      </trkpt>
      <trkpt lat="42.45506" lon="2.6293">
        <ele>300.6</ele>
        <time>2024-07-14T15:19:13Z</time>
      </trkpt>
      <trkpt lat="42.45504" lon="2.62914">
        <ele>300.8</ele>
        <time>2024-07-14T15:19:23Z</time>
      </trkpt>
      <trkpt lat="42.45507" lon="2.62899">
        <ele>300.2</ele>
        <time>2024-07-14T15:19:32Z</time>
      </trkpt>
      <trkpt lat="42.45508" lon="2.62897">
        <ele>299.4</ele>
        <time>2024-07-14T15:19:34Z</time>
      </trkpt>
      <trkpt lat="42.45511" lon="2.62894">
        <ele>298</ele>
        <time>2024-07-14T15:19:37Z</time>
      </trkpt>
      <trkpt lat="42.45521" lon="2.62886">
        <ele>296.8</ele>
        <time>2024-07-14T15:19:47Z</time>
      </trkpt>
      <trkpt lat="42.45529" lon="2.62879">
        <ele>296</ele>
        <time>2024-07-14T15:19:54Z</time>
      </trkpt>
      <trkpt lat="42.4553" lon="2.62879">
        <ele>296</ele>
        <time>2024-07-14T15:19:55Z</time>
      </trkpt>
      <trkpt lat="42.45539" lon="2.62873">
        <ele>295.4</ele>
        <time>2024-07-14T15:20:03Z</time>
      </trkpt>
      <trkpt lat="42.45547" lon="2.6287">
        <ele>297.6</ele>
        <time>2024-07-14T15:20:11Z</time>
      </trkpt>
      <trkpt lat="42.45556" lon="2.62864">
        <ele>301</ele>
        <time>2024-07-14T15:20:19Z</time>
      </trkpt>
      <trkpt lat="42.45563" lon="2.62857">
        <ele>300.8</ele>
        <time>2024-07-14T15:20:27Z</time>
      </trkpt>
      <trkpt lat="42.45569" lon="2.62851">
        <ele>301</ele>
        <time>2024-07-14T15:20:34Z</time>
      </trkpt>
      <trkpt lat="42.4557" lon="2.6285">
        <ele>301.2</ele>
        <time>2024-07-14T15:20:35Z</time>
      </trkpt>
      <trkpt lat="42.45575" lon="2.62843">
        <ele>301.4</ele>
        <time>2024-07-14T15:20:41Z</time>
      </trkpt>
      <trkpt lat="42.45582" lon="2.62831">
        <ele>301.2</ele>
        <time>2024-07-14T15:20:49Z</time>
      </trkpt>
      <trkpt lat="42.45591" lon="2.62823">
        <ele>300.8</ele>
        <time>2024-07-14T15:20:57Z</time>
      </trkpt>
      <trkpt lat="42.45601" lon="2.62811">
        <ele>301.8</ele>
        <time>2024-07-14T15:21:09Z</time>
      </trkpt>
      <trkpt lat="42.45606" lon="2.62794">
        <ele>304</ele>
        <time>2024-07-14T15:21:20Z</time>
      </trkpt>
      <trkpt lat="42.45607" lon="2.62776">
        <ele>304.6</ele>
        <time>2024-07-14T15:21:32Z</time>
      </trkpt>
      <trkpt lat="42.45615" lon="2.62764">
        <ele>304.4</ele>
        <time>2024-07-14T15:21:41Z</time>
      </trkpt>
      <trkpt lat="42.45619" lon="2.62759">
        <ele>305.2</ele>
        <time>2024-07-14T15:21:46Z</time>
      </trkpt>
      <trkpt lat="42.45621" lon="2.62757">
        <ele>305.4</ele>
        <time>2024-07-14T15:21:48Z</time>
      </trkpt>
      <trkpt lat="42.45628" lon="2.62753">
        <ele>306.4</ele>
        <time>2024-07-14T15:21:55Z</time>
      </trkpt>
      <trkpt lat="42.45631" lon="2.62752">
        <ele>306.4</ele>
        <time>2024-07-14T15:21:58Z</time>
      </trkpt>
      <trkpt lat="42.45642" lon="2.62741">
        <ele>305.8</ele>
        <time>2024-07-14T15:22:09Z</time>
      </trkpt>
      <trkpt lat="42.4565" lon="2.62728">
        <ele>304.8</ele>
        <time>2024-07-14T15:22:19Z</time>
      </trkpt>
      <trkpt lat="42.45658" lon="2.62714">
        <ele>305.2</ele>
        <time>2024-07-14T15:22:29Z</time>
      </trkpt>
      <trkpt lat="42.45668" lon="2.62705">
        <ele>306.2</ele>
        <time>2024-07-14T15:22:41Z</time>
      </trkpt>
      <trkpt lat="42.45671" lon="2.62702">
        <ele>306.4</ele>
        <time>2024-07-14T15:22:45Z</time>
      </trkpt>
      <trkpt lat="42.45673" lon="2.62698">
        <ele>306</ele>
        <time>2024-07-14T15:22:48Z</time>
      </trkpt>
      <trkpt lat="42.45681" lon="2.6269">
        <ele>306.4</ele>
        <time>2024-07-14T15:22:59Z</time>
      </trkpt>
      <trkpt lat="42.45686" lon="2.62684">
        <ele>307.6</ele>
        <time>2024-07-14T15:23:07Z</time>
      </trkpt>
      <trkpt lat="42.45694" lon="2.62678">
        <ele>307.2</ele>
        <time>2024-07-14T15:23:16Z</time>
      </trkpt>
      <trkpt lat="42.45702" lon="2.6267">
        <ele>307.6</ele>
        <time>2024-07-14T15:23:25Z</time>
      </trkpt>
      <trkpt lat="42.45711" lon="2.62663">
        <ele>309.4</ele>
        <time>2024-07-14T15:23:34Z</time>
      </trkpt>
      <trkpt lat="42.45722" lon="2.62652">
        <ele>312.4</ele>
        <time>2024-07-14T15:23:45Z</time>
      </trkpt>
      <trkpt lat="42.4573" lon="2.62643">
        <ele>313.2</ele>
        <time>2024-07-14T15:23:54Z</time>
      </trkpt>
      <trkpt lat="42.45738" lon="2.62634">
        <ele>313.8</ele>
        <time>2024-07-14T15:24:03Z</time>
      </trkpt>
      <trkpt lat="42.45748" lon="2.62625">
        <ele>314.6</ele>
        <time>2024-07-14T15:24:13Z</time>
      </trkpt>
      <trkpt lat="42.45758" lon="2.62614">
        <ele>316.2</ele>
        <time>2024-07-14T15:24:25Z</time>
      </trkpt>
      <trkpt lat="42.45765" lon="2.62606">
        <ele>316.2</ele>
        <time>2024-07-14T15:24:32Z</time>
      </trkpt>
      <trkpt lat="42.45768" lon="2.62604">
        <ele>316.4</ele>
        <time>2024-07-14T15:24:33Z</time>
      </trkpt>
      <trkpt lat="42.45774" lon="2.62596">
        <ele>316</ele>
        <time>2024-07-14T15:24:43Z</time>
      </trkpt>
      <trkpt lat="42.45776" lon="2.62595">
        <ele>316</ele>
        <time>2024-07-14T15:24:45Z</time>
      </trkpt>
      <trkpt lat="42.4578" lon="2.62591">
        <ele>316.2</ele>
        <time>2024-07-14T15:24:49Z</time>
      </trkpt>
      <trkpt lat="42.45786" lon="2.62589">
        <ele>316.2</ele>
        <time>2024-07-14T15:24:54Z</time>
      </trkpt>
      <trkpt lat="42.45787" lon="2.62589">
        <ele>316.2</ele>
        <time>2024-07-14T15:24:56Z</time>
      </trkpt>
      <trkpt lat="42.45786" lon="2.62589">
        <ele>316</ele>
        <time>2024-07-14T15:25:05Z</time>
      </trkpt>
      <trkpt lat="42.45786" lon="2.62589">
        <ele>316.2</ele>
        <time>2024-07-14T15:25:11Z</time>
      </trkpt>
      <trkpt lat="42.45787" lon="2.62583">
        <ele>316.2</ele>
        <time>2024-07-14T15:25:29Z</time>
      </trkpt>
      <trkpt lat="42.45794" lon="2.62568">
        <ele>315.6</ele>
        <time>2024-07-14T15:25:39Z</time>
      </trkpt>
      <trkpt lat="42.45795" lon="2.62564">
        <ele>315.4</ele>
        <time>2024-07-14T15:25:43Z</time>
      </trkpt>
      <trkpt lat="42.45795" lon="2.62563">
        <ele>315</ele>
        <time>2024-07-14T15:25:46Z</time>
      </trkpt>
      <trkpt lat="42.45793" lon="2.62564">
        <ele>313.8</ele>
        <time>2024-07-14T15:25:57Z</time>
      </trkpt>
      <trkpt lat="42.45791" lon="2.62563">
        <ele>314</ele>
        <time>2024-07-14T15:26:04Z</time>
      </trkpt>
      <trkpt lat="42.45791" lon="2.62563">
        <ele>315</ele>
        <time>2024-07-14T15:26:13Z</time>
      </trkpt>
      <trkpt lat="42.45792" lon="2.62564">
        <ele>318.6</ele>
        <time>2024-07-14T15:26:44Z</time>
      </trkpt>
    </trkseg>
  </trk>
</gpx>